<?xml version="1.0" encoding="UTF-8" standalone="no" ?>
<gpx xmlns="http://www.topografix.com/GPX/1/1" xmlns:xsi="http://www.w3.org/2001/XMLSchema-instance" xsi:schemaLocation="http://www.topografix.com/GPX/1/1 http://www.topografix.com/GPX/1/1/gpx.xsd" version="1.1" creator="VisuGPX - https://www.visugpx.com">
  <metadata>
    <name>Draia 2012</name>
    <desc><![CDATA[Parcours noir de la Draia
Au lieu du portage horrible vers la Baisse de la Chabrière, autant prendre la piste !]]></desc>
  </metadata>
  <trk>
    <name><![CDATA[Draia 2012]]></name>
    <trkseg>
      <trkpt lat="43.87424" lon="7.00535">
        <ele>332.75354003906</ele>
        <time>2012-05-13T06:59:37Z</time>
      </trkpt>
      <trkpt lat="43.87428" lon="7.00538">
        <ele>333.23413085938</ele>
        <time>2012-05-13T06:59:40Z</time>
      </trkpt>
      <trkpt lat="43.8743" lon="7.00561">
        <ele>333.23413085938</ele>
        <time>2012-05-13T06:59:52Z</time>
      </trkpt>
      <trkpt lat="43.87423" lon="7.006">
        <ele>332.75354003906</ele>
        <time>2012-05-13T07:00:07Z</time>
      </trkpt>
      <trkpt lat="43.87423" lon="7.00604">
        <ele>332.27282714844</ele>
        <time>2012-05-13T07:00:09Z</time>
      </trkpt>
      <trkpt lat="43.87417" lon="7.00595">
        <ele>332.27282714844</ele>
        <time>2012-05-13T07:00:17Z</time>
      </trkpt>
      <trkpt lat="43.87417" lon="7.00585">
        <ele>331.3115234375</ele>
        <time>2012-05-13T07:00:19Z</time>
      </trkpt>
      <trkpt lat="43.87418" lon="7.00579">
        <ele>329.86950683594</ele>
        <time>2012-05-13T07:00:21Z</time>
      </trkpt>
      <trkpt lat="43.87418" lon="7.00579">
        <ele>328.90832519531</ele>
        <time>2012-05-13T07:00:24Z</time>
      </trkpt>
      <trkpt lat="43.87417" lon="7.00583">
        <ele>326.98559570312</ele>
        <time>2012-05-13T07:00:31Z</time>
      </trkpt>
      <trkpt lat="43.87417" lon="7.00591">
        <ele>325.54357910156</ele>
        <time>2012-05-13T07:00:33Z</time>
      </trkpt>
      <trkpt lat="43.87416" lon="7.00602">
        <ele>324.1015625</ele>
        <time>2012-05-13T07:00:35Z</time>
      </trkpt>
      <trkpt lat="43.87416" lon="7.00607">
        <ele>322.65966796875</ele>
        <time>2012-05-13T07:00:36Z</time>
      </trkpt>
      <trkpt lat="43.87357" lon="7.00656">
        <ele>318.33361816406</ele>
        <time>2012-05-13T07:00:42Z</time>
      </trkpt>
      <trkpt lat="43.87348" lon="7.0065">
        <ele>316.41101074219</ele>
        <time>2012-05-13T07:00:45Z</time>
      </trkpt>
      <trkpt lat="43.87345" lon="7.00619">
        <ele>314.96911621094</ele>
        <time>2012-05-13T07:00:48Z</time>
      </trkpt>
      <trkpt lat="43.87299" lon="7.00609">
        <ele>316.89172363281</ele>
        <time>2012-05-13T07:00:59Z</time>
      </trkpt>
      <trkpt lat="43.87304" lon="7.00561">
        <ele>315.44982910156</ele>
        <time>2012-05-13T07:01:06Z</time>
      </trkpt>
      <trkpt lat="43.87317" lon="7.00469">
        <ele>314.48840332031</ele>
        <time>2012-05-13T07:01:19Z</time>
      </trkpt>
      <trkpt lat="43.87324" lon="7.00465">
        <ele>314.96911621094</ele>
        <time>2012-05-13T07:01:30Z</time>
      </trkpt>
      <trkpt lat="43.87354" lon="7.00457">
        <ele>317.37243652344</ele>
        <time>2012-05-13T07:01:45Z</time>
      </trkpt>
      <trkpt lat="43.87357" lon="7.00456">
        <ele>318.33361816406</ele>
        <time>2012-05-13T07:01:47Z</time>
      </trkpt>
      <trkpt lat="43.87357" lon="7.00456">
        <ele>319.29504394531</ele>
        <time>2012-05-13T07:01:50Z</time>
      </trkpt>
      <trkpt lat="43.87336" lon="7.00461">
        <ele>319.77563476562</ele>
        <time>2012-05-13T07:01:54Z</time>
      </trkpt>
      <trkpt lat="43.87364" lon="7.00454">
        <ele>323.14038085938</ele>
        <time>2012-05-13T07:02:06Z</time>
      </trkpt>
      <trkpt lat="43.87364" lon="7.00454">
        <ele>323.62097167969</ele>
        <time>2012-05-13T07:02:10Z</time>
      </trkpt>
      <trkpt lat="43.8739" lon="7.00462">
        <ele>325.06298828125</ele>
        <time>2012-05-13T07:02:24Z</time>
      </trkpt>
      <trkpt lat="43.8739" lon="7.00462">
        <ele>324.58227539062</ele>
        <time>2012-05-13T07:02:30Z</time>
      </trkpt>
      <trkpt lat="43.87392" lon="7.00494">
        <ele>324.1015625</ele>
        <time>2012-05-13T07:02:43Z</time>
      </trkpt>
      <trkpt lat="43.87392" lon="7.00494">
        <ele>324.58227539062</ele>
        <time>2012-05-13T07:03:03Z</time>
      </trkpt>
      <trkpt lat="43.87392" lon="7.00494">
        <ele>324.58227539062</ele>
        <time>2012-05-13T07:03:21Z</time>
      </trkpt>
      <trkpt lat="43.87392" lon="7.00494">
        <ele>325.06298828125</ele>
        <time>2012-05-13T07:05:00Z</time>
      </trkpt>
      <trkpt lat="43.87397" lon="7.00524">
        <ele>325.54357910156</ele>
        <time>2012-05-13T07:05:04Z</time>
      </trkpt>
      <trkpt lat="43.87397" lon="7.00524">
        <ele>327.94677734375</ele>
        <time>2012-05-13T07:05:10Z</time>
      </trkpt>
      <trkpt lat="43.87397" lon="7.00524">
        <ele>328.42761230469</ele>
        <time>2012-05-13T07:05:13Z</time>
      </trkpt>
      <trkpt lat="43.87418" lon="7.00563">
        <ele>328.42761230469</ele>
        <time>2012-05-13T07:05:17Z</time>
      </trkpt>
      <trkpt lat="43.87418" lon="7.00576">
        <ele>328.42761230469</ele>
        <time>2012-05-13T07:05:20Z</time>
      </trkpt>
      <trkpt lat="43.87363" lon="7.00658">
        <ele>324.58227539062</ele>
        <time>2012-05-13T07:05:26Z</time>
      </trkpt>
      <trkpt lat="43.87416" lon="7.00607">
        <ele>324.58227539062</ele>
        <time>2012-05-13T07:05:27Z</time>
      </trkpt>
      <trkpt lat="43.87357" lon="7.00656">
        <ele>321.2177734375</ele>
        <time>2012-05-13T07:05:31Z</time>
      </trkpt>
      <trkpt lat="43.87334" lon="7.00633">
        <ele>318.81433105469</ele>
        <time>2012-05-13T07:05:34Z</time>
      </trkpt>
      <trkpt lat="43.87347" lon="7.00619">
        <ele>315.44982910156</ele>
        <time>2012-05-13T07:05:38Z</time>
      </trkpt>
      <trkpt lat="43.87331" lon="7.00628">
        <ele>315.44982910156</ele>
        <time>2012-05-13T07:05:43Z</time>
      </trkpt>
      <trkpt lat="43.87323" lon="7.0062">
        <ele>316.89172363281</ele>
        <time>2012-05-13T07:05:46Z</time>
      </trkpt>
      <trkpt lat="43.87311" lon="7.00613">
        <ele>317.37243652344</ele>
        <time>2012-05-13T07:05:49Z</time>
      </trkpt>
      <trkpt lat="43.87304" lon="7.0059">
        <ele>317.37243652344</ele>
        <time>2012-05-13T07:05:55Z</time>
      </trkpt>
      <trkpt lat="43.87304" lon="7.00563">
        <ele>315.44982910156</ele>
        <time>2012-05-13T07:05:58Z</time>
      </trkpt>
      <trkpt lat="43.87317" lon="7.00473">
        <ele>316.89172363281</ele>
        <time>2012-05-13T07:06:12Z</time>
      </trkpt>
      <trkpt lat="43.87317" lon="7.00473">
        <ele>317.85302734375</ele>
        <time>2012-05-13T07:06:17Z</time>
      </trkpt>
      <trkpt lat="43.87322" lon="7.00465">
        <ele>319.29504394531</ele>
        <time>2012-05-13T07:06:20Z</time>
      </trkpt>
      <trkpt lat="43.87332" lon="7.00463">
        <ele>321.2177734375</ele>
        <time>2012-05-13T07:06:26Z</time>
      </trkpt>
      <trkpt lat="43.87335" lon="7.00452">
        <ele>322.17895507812</ele>
        <time>2012-05-13T07:06:31Z</time>
      </trkpt>
      <trkpt lat="43.87332" lon="7.00421">
        <ele>324.58227539062</ele>
        <time>2012-05-13T07:06:37Z</time>
      </trkpt>
      <trkpt lat="43.8733" lon="7.00388">
        <ele>326.02416992188</ele>
        <time>2012-05-13T07:06:43Z</time>
      </trkpt>
      <trkpt lat="43.87314" lon="7.00382">
        <ele>326.02416992188</ele>
        <time>2012-05-13T07:06:49Z</time>
      </trkpt>
      <trkpt lat="43.87307" lon="7.00376">
        <ele>324.1015625</ele>
        <time>2012-05-13T07:06:53Z</time>
      </trkpt>
      <trkpt lat="43.87306" lon="7.00351">
        <ele>323.62097167969</ele>
        <time>2012-05-13T07:07:03Z</time>
      </trkpt>
      <trkpt lat="43.87308" lon="7.00312">
        <ele>324.58227539062</ele>
        <time>2012-05-13T07:07:15Z</time>
      </trkpt>
      <trkpt lat="43.87309" lon="7.00302">
        <ele>325.06298828125</ele>
        <time>2012-05-13T07:07:17Z</time>
      </trkpt>
      <trkpt lat="43.87309" lon="7.00287">
        <ele>325.06298828125</ele>
        <time>2012-05-13T07:07:20Z</time>
      </trkpt>
      <trkpt lat="43.87309" lon="7.0027">
        <ele>325.54357910156</ele>
        <time>2012-05-13T07:07:23Z</time>
      </trkpt>
      <trkpt lat="43.87309" lon="7.0023">
        <ele>325.54357910156</ele>
        <time>2012-05-13T07:07:32Z</time>
      </trkpt>
      <trkpt lat="43.87309" lon="7.00227">
        <ele>325.06298828125</ele>
        <time>2012-05-13T07:07:35Z</time>
      </trkpt>
      <trkpt lat="43.87311" lon="7.00218">
        <ele>325.06298828125</ele>
        <time>2012-05-13T07:07:39Z</time>
      </trkpt>
      <trkpt lat="43.87313" lon="7.00214">
        <ele>325.54357910156</ele>
        <time>2012-05-13T07:07:56Z</time>
      </trkpt>
      <trkpt lat="43.87322" lon="7.00187">
        <ele>324.58227539062</ele>
        <time>2012-05-13T07:08:08Z</time>
      </trkpt>
      <trkpt lat="43.87326" lon="7.0017">
        <ele>325.06298828125</ele>
        <time>2012-05-13T07:08:38Z</time>
      </trkpt>
      <trkpt lat="43.87328" lon="7.00164">
        <ele>325.54357910156</ele>
        <time>2012-05-13T07:08:53Z</time>
      </trkpt>
      <trkpt lat="43.87333" lon="7.00148">
        <ele>325.06298828125</ele>
        <time>2012-05-13T07:09:20Z</time>
      </trkpt>
      <trkpt lat="43.87333" lon="7.00148">
        <ele>324.58227539062</ele>
        <time>2012-05-13T07:09:23Z</time>
      </trkpt>
      <trkpt lat="43.87335" lon="7.0014">
        <ele>325.54357910156</ele>
        <time>2012-05-13T07:09:37Z</time>
      </trkpt>
      <trkpt lat="43.87335" lon="7.0014">
        <ele>325.54357910156</ele>
        <time>2012-05-13T07:09:38Z</time>
      </trkpt>
      <trkpt lat="43.87338" lon="7.00126">
        <ele>325.54357910156</ele>
        <time>2012-05-13T07:09:41Z</time>
      </trkpt>
      <trkpt lat="43.87339" lon="7.00123">
        <ele>325.54357910156</ele>
        <time>2012-05-13T07:09:43Z</time>
      </trkpt>
      <trkpt lat="43.87339" lon="7.00121">
        <ele>325.54357910156</ele>
        <time>2012-05-13T07:09:47Z</time>
      </trkpt>
      <trkpt lat="43.87341" lon="7.00114">
        <ele>327.46618652344</ele>
        <time>2012-05-13T07:10:00Z</time>
      </trkpt>
      <trkpt lat="43.87346" lon="7.00104">
        <ele>330.35021972656</ele>
        <time>2012-05-13T07:10:10Z</time>
      </trkpt>
      <trkpt lat="43.8736" lon="7.00064">
        <ele>333.23413085938</ele>
        <time>2012-05-13T07:10:23Z</time>
      </trkpt>
      <trkpt lat="43.87367" lon="7.00023">
        <ele>334.67614746094</ele>
        <time>2012-05-13T07:10:39Z</time>
      </trkpt>
      <trkpt lat="43.8737" lon="6.99995">
        <ele>334.67614746094</ele>
        <time>2012-05-13T07:10:52Z</time>
      </trkpt>
      <trkpt lat="43.87373" lon="6.99989">
        <ele>335.15673828125</ele>
        <time>2012-05-13T07:11:03Z</time>
      </trkpt>
      <trkpt lat="43.87375" lon="6.99983">
        <ele>336.59887695312</ele>
        <time>2012-05-13T07:11:13Z</time>
      </trkpt>
      <trkpt lat="43.87386" lon="6.99935">
        <ele>335.63732910156</ele>
        <time>2012-05-13T07:11:29Z</time>
      </trkpt>
      <trkpt lat="43.87386" lon="6.99921">
        <ele>334.67614746094</ele>
        <time>2012-05-13T07:11:31Z</time>
      </trkpt>
      <trkpt lat="43.87387" lon="6.99897">
        <ele>332.75354003906</ele>
        <time>2012-05-13T07:11:36Z</time>
      </trkpt>
      <trkpt lat="43.87386" lon="6.99884">
        <ele>331.3115234375</ele>
        <time>2012-05-13T07:11:40Z</time>
      </trkpt>
      <trkpt lat="43.87386" lon="6.99884">
        <ele>331.3115234375</ele>
        <time>2012-05-13T07:11:42Z</time>
      </trkpt>
      <trkpt lat="43.87401" lon="6.99818">
        <ele>332.75354003906</ele>
        <time>2012-05-13T07:11:47Z</time>
      </trkpt>
      <trkpt lat="43.87378" lon="6.99875">
        <ele>333.23413085938</ele>
        <time>2012-05-13T07:11:52Z</time>
      </trkpt>
      <trkpt lat="43.87367" lon="6.99865">
        <ele>333.23413085938</ele>
        <time>2012-05-13T07:11:55Z</time>
      </trkpt>
      <trkpt lat="43.87379" lon="6.99842">
        <ele>333.23413085938</ele>
        <time>2012-05-13T07:12:01Z</time>
      </trkpt>
      <trkpt lat="43.87379" lon="6.99832">
        <ele>335.15673828125</ele>
        <time>2012-05-13T07:12:08Z</time>
      </trkpt>
      <trkpt lat="43.87381" lon="6.99832">
        <ele>335.63732910156</ele>
        <time>2012-05-13T07:12:10Z</time>
      </trkpt>
      <trkpt lat="43.87385" lon="6.99827">
        <ele>337.56005859375</ele>
        <time>2012-05-13T07:12:14Z</time>
      </trkpt>
      <trkpt lat="43.87393" lon="6.99812">
        <ele>340.92468261719</ele>
        <time>2012-05-13T07:12:29Z</time>
      </trkpt>
      <trkpt lat="43.87403" lon="6.99801">
        <ele>341.4052734375</ele>
        <time>2012-05-13T07:12:37Z</time>
      </trkpt>
      <trkpt lat="43.87408" lon="6.9978">
        <ele>340.92468261719</ele>
        <time>2012-05-13T07:12:42Z</time>
      </trkpt>
      <trkpt lat="43.87418" lon="6.99743">
        <ele>340.92468261719</ele>
        <time>2012-05-13T07:12:53Z</time>
      </trkpt>
      <trkpt lat="43.87429" lon="6.99746">
        <ele>341.88598632812</ele>
        <time>2012-05-13T07:12:56Z</time>
      </trkpt>
      <trkpt lat="43.87428" lon="6.99752">
        <ele>342.84729003906</ele>
        <time>2012-05-13T07:12:59Z</time>
      </trkpt>
      <trkpt lat="43.87433" lon="6.99758">
        <ele>344.77001953125</ele>
        <time>2012-05-13T07:13:02Z</time>
      </trkpt>
      <trkpt lat="43.87434" lon="6.99767">
        <ele>345.73132324219</ele>
        <time>2012-05-13T07:13:06Z</time>
      </trkpt>
      <trkpt lat="43.87437" lon="6.99783">
        <ele>347.17321777344</ele>
        <time>2012-05-13T07:13:14Z</time>
      </trkpt>
      <trkpt lat="43.87429" lon="6.99755">
        <ele>349.09582519531</ele>
        <time>2012-05-13T07:13:25Z</time>
      </trkpt>
      <trkpt lat="43.8743" lon="6.99749">
        <ele>349.57653808594</ele>
        <time>2012-05-13T07:13:27Z</time>
      </trkpt>
      <trkpt lat="43.87435" lon="6.99729">
        <ele>350.53784179688</ele>
        <time>2012-05-13T07:13:34Z</time>
      </trkpt>
      <trkpt lat="43.87443" lon="6.99728">
        <ele>351.49914550781</ele>
        <time>2012-05-13T07:13:40Z</time>
      </trkpt>
      <trkpt lat="43.87443" lon="6.99732">
        <ele>351.97985839844</ele>
        <time>2012-05-13T07:13:42Z</time>
      </trkpt>
      <trkpt lat="43.87446" lon="6.99749">
        <ele>352.94116210938</ele>
        <time>2012-05-13T07:13:47Z</time>
      </trkpt>
      <trkpt lat="43.87449" lon="6.99793">
        <ele>356.30578613281</ele>
        <time>2012-05-13T07:13:58Z</time>
      </trkpt>
      <trkpt lat="43.87456" lon="6.9982">
        <ele>357.26708984375</ele>
        <time>2012-05-13T07:14:08Z</time>
      </trkpt>
      <trkpt lat="43.87469" lon="6.99868">
        <ele>359.67041015625</ele>
        <time>2012-05-13T07:14:22Z</time>
      </trkpt>
      <trkpt lat="43.87475" lon="6.99876">
        <ele>361.11242675781</ele>
        <time>2012-05-13T07:14:25Z</time>
      </trkpt>
      <trkpt lat="43.87486" lon="6.99913">
        <ele>363.99633789062</ele>
        <time>2012-05-13T07:14:35Z</time>
      </trkpt>
      <trkpt lat="43.87484" lon="6.99941">
        <ele>365.9189453125</ele>
        <time>2012-05-13T07:14:41Z</time>
      </trkpt>
      <trkpt lat="43.87483" lon="7.00018">
        <ele>368.322265625</ele>
        <time>2012-05-13T07:14:56Z</time>
      </trkpt>
      <trkpt lat="43.87472" lon="7.00095">
        <ele>371.20629882812</ele>
        <time>2012-05-13T07:15:12Z</time>
      </trkpt>
      <trkpt lat="43.87473" lon="7.00161">
        <ele>375.05151367188</ele>
        <time>2012-05-13T07:15:26Z</time>
      </trkpt>
      <trkpt lat="43.87476" lon="7.00228">
        <ele>377.93542480469</ele>
        <time>2012-05-13T07:15:40Z</time>
      </trkpt>
      <trkpt lat="43.87504" lon="7.0027">
        <ele>379.85803222656</ele>
        <time>2012-05-13T07:15:52Z</time>
      </trkpt>
      <trkpt lat="43.87527" lon="7.00314">
        <ele>383.22265625</ele>
        <time>2012-05-13T07:16:03Z</time>
      </trkpt>
      <trkpt lat="43.87558" lon="7.00378">
        <ele>386.58740234375</ele>
        <time>2012-05-13T07:16:19Z</time>
      </trkpt>
      <trkpt lat="43.87582" lon="7.00432">
        <ele>389.95190429688</ele>
        <time>2012-05-13T07:16:33Z</time>
      </trkpt>
      <trkpt lat="43.87594" lon="7.00474">
        <ele>391.87451171875</ele>
        <time>2012-05-13T07:16:44Z</time>
      </trkpt>
      <trkpt lat="43.87601" lon="7.00451">
        <ele>393.31652832031</ele>
        <time>2012-05-13T07:16:52Z</time>
      </trkpt>
      <trkpt lat="43.87598" lon="7.00442">
        <ele>393.79724121094</ele>
        <time>2012-05-13T07:16:54Z</time>
      </trkpt>
      <trkpt lat="43.8758" lon="7.00373">
        <ele>397.16174316406</ele>
        <time>2012-05-13T07:17:10Z</time>
      </trkpt>
      <trkpt lat="43.87571" lon="7.00343">
        <ele>398.60375976562</ele>
        <time>2012-05-13T07:17:17Z</time>
      </trkpt>
      <trkpt lat="43.87578" lon="7.00343">
        <ele>399.56506347656</ele>
        <time>2012-05-13T07:17:21Z</time>
      </trkpt>
      <trkpt lat="43.87585" lon="7.00367">
        <ele>401.00708007812</ele>
        <time>2012-05-13T07:17:27Z</time>
      </trkpt>
      <trkpt lat="43.87616" lon="7.00432">
        <ele>404.37170410156</ele>
        <time>2012-05-13T07:17:44Z</time>
      </trkpt>
      <trkpt lat="43.87618" lon="7.0044">
        <ele>405.3330078125</ele>
        <time>2012-05-13T07:17:46Z</time>
      </trkpt>
      <trkpt lat="43.87622" lon="7.00498">
        <ele>408.21704101562</ele>
        <time>2012-05-13T07:17:59Z</time>
      </trkpt>
      <trkpt lat="43.87629" lon="7.00564">
        <ele>412.06225585938</ele>
        <time>2012-05-13T07:18:15Z</time>
      </trkpt>
      <trkpt lat="43.8765" lon="7.00625">
        <ele>414.94616699219</ele>
        <time>2012-05-13T07:18:31Z</time>
      </trkpt>
      <trkpt lat="43.87661" lon="7.00645">
        <ele>416.86889648438</ele>
        <time>2012-05-13T07:18:37Z</time>
      </trkpt>
      <trkpt lat="43.87688" lon="7.00696">
        <ele>419.75280761719</ele>
        <time>2012-05-13T07:18:52Z</time>
      </trkpt>
      <trkpt lat="43.87707" lon="7.0075">
        <ele>423.11743164062</ele>
        <time>2012-05-13T07:19:06Z</time>
      </trkpt>
      <trkpt lat="43.87726" lon="7.00803">
        <ele>426.48205566406</ele>
        <time>2012-05-13T07:19:20Z</time>
      </trkpt>
      <trkpt lat="43.87744" lon="7.00851">
        <ele>429.36596679688</ele>
        <time>2012-05-13T07:19:33Z</time>
      </trkpt>
      <trkpt lat="43.87766" lon="7.00886">
        <ele>432.73071289062</ele>
        <time>2012-05-13T07:19:45Z</time>
      </trkpt>
      <trkpt lat="43.87812" lon="7.00914">
        <ele>436.09521484375</ele>
        <time>2012-05-13T07:20:01Z</time>
      </trkpt>
      <trkpt lat="43.87849" lon="7.00939">
        <ele>439.45971679688</ele>
        <time>2012-05-13T07:20:15Z</time>
      </trkpt>
      <trkpt lat="43.87881" lon="7.00962">
        <ele>442.34387207031</ele>
        <time>2012-05-13T07:20:27Z</time>
      </trkpt>
      <trkpt lat="43.87878" lon="7.01009">
        <ele>444.7470703125</ele>
        <time>2012-05-13T07:20:38Z</time>
      </trkpt>
      <trkpt lat="43.87855" lon="7.01052">
        <ele>447.63098144531</ele>
        <time>2012-05-13T07:20:51Z</time>
      </trkpt>
      <trkpt lat="43.87838" lon="7.01097">
        <ele>450.03442382812</ele>
        <time>2012-05-13T07:21:04Z</time>
      </trkpt>
      <trkpt lat="43.87851" lon="7.01149">
        <ele>452.91821289062</ele>
        <time>2012-05-13T07:21:17Z</time>
      </trkpt>
      <trkpt lat="43.87845" lon="7.012">
        <ele>455.80224609375</ele>
        <time>2012-05-13T07:21:29Z</time>
      </trkpt>
      <trkpt lat="43.87841" lon="7.01215">
        <ele>456.28295898438</ele>
        <time>2012-05-13T07:21:33Z</time>
      </trkpt>
      <trkpt lat="43.87844" lon="7.01248">
        <ele>458.20556640625</ele>
        <time>2012-05-13T07:21:41Z</time>
      </trkpt>
      <trkpt lat="43.87856" lon="7.0128">
        <ele>460.60876464844</ele>
        <time>2012-05-13T07:21:50Z</time>
      </trkpt>
      <trkpt lat="43.87856" lon="7.01307">
        <ele>461.57019042969</ele>
        <time>2012-05-13T07:21:56Z</time>
      </trkpt>
      <trkpt lat="43.87845" lon="7.01369">
        <ele>464.4541015625</ele>
        <time>2012-05-13T07:22:11Z</time>
      </trkpt>
      <trkpt lat="43.87867" lon="7.01414">
        <ele>467.33813476562</ele>
        <time>2012-05-13T07:22:23Z</time>
      </trkpt>
      <trkpt lat="43.87888" lon="7.01462">
        <ele>470.70263671875</ele>
        <time>2012-05-13T07:22:36Z</time>
      </trkpt>
      <trkpt lat="43.87895" lon="7.01526">
        <ele>473.10607910156</ele>
        <time>2012-05-13T07:22:51Z</time>
      </trkpt>
      <trkpt lat="43.87912" lon="7.01586">
        <ele>475.98986816406</ele>
        <time>2012-05-13T07:23:06Z</time>
      </trkpt>
      <trkpt lat="43.87934" lon="7.01622">
        <ele>478.39318847656</ele>
        <time>2012-05-13T07:23:17Z</time>
      </trkpt>
      <trkpt lat="43.87935" lon="7.01626">
        <ele>478.39318847656</ele>
        <time>2012-05-13T07:23:18Z</time>
      </trkpt>
      <trkpt lat="43.87954" lon="7.01667">
        <ele>480.31591796875</ele>
        <time>2012-05-13T07:23:30Z</time>
      </trkpt>
      <trkpt lat="43.87976" lon="7.01696">
        <ele>482.23852539062</ele>
        <time>2012-05-13T07:23:41Z</time>
      </trkpt>
      <trkpt lat="43.87984" lon="7.01769">
        <ele>485.12243652344</ele>
        <time>2012-05-13T07:23:57Z</time>
      </trkpt>
      <trkpt lat="43.88004" lon="7.0183">
        <ele>488.48718261719</ele>
        <time>2012-05-13T07:24:13Z</time>
      </trkpt>
      <trkpt lat="43.88052" lon="7.0187">
        <ele>491.37097167969</ele>
        <time>2012-05-13T07:24:30Z</time>
      </trkpt>
      <trkpt lat="43.88076" lon="7.01884">
        <ele>491.85168457031</ele>
        <time>2012-05-13T07:24:36Z</time>
      </trkpt>
      <trkpt lat="43.88083" lon="7.01914">
        <ele>492.33239746094</ele>
        <time>2012-05-13T07:24:41Z</time>
      </trkpt>
      <trkpt lat="43.88109" lon="7.02">
        <ele>493.29357910156</ele>
        <time>2012-05-13T07:24:55Z</time>
      </trkpt>
      <trkpt lat="43.88116" lon="7.02017">
        <ele>493.77429199219</ele>
        <time>2012-05-13T07:24:58Z</time>
      </trkpt>
      <trkpt lat="43.88132" lon="7.02023">
        <ele>493.77429199219</ele>
        <time>2012-05-13T07:25:02Z</time>
      </trkpt>
      <trkpt lat="43.88148" lon="7.02024">
        <ele>494.25500488281</ele>
        <time>2012-05-13T07:25:05Z</time>
      </trkpt>
      <trkpt lat="43.88166" lon="7.02041">
        <ele>495.21618652344</ele>
        <time>2012-05-13T07:25:10Z</time>
      </trkpt>
      <trkpt lat="43.88206" lon="7.0205">
        <ele>498.58093261719</ele>
        <time>2012-05-13T07:25:21Z</time>
      </trkpt>
      <trkpt lat="43.88252" lon="7.02072">
        <ele>500.50354003906</ele>
        <time>2012-05-13T07:25:35Z</time>
      </trkpt>
      <trkpt lat="43.8828" lon="7.02078">
        <ele>503.38745117188</ele>
        <time>2012-05-13T07:25:45Z</time>
      </trkpt>
      <trkpt lat="43.88303" lon="7.02057">
        <ele>505.31018066406</ele>
        <time>2012-05-13T07:25:54Z</time>
      </trkpt>
      <trkpt lat="43.88323" lon="7.02047">
        <ele>506.75207519531</ele>
        <time>2012-05-13T07:26:01Z</time>
      </trkpt>
      <trkpt lat="43.88369" lon="7.02028">
        <ele>510.11669921875</ele>
        <time>2012-05-13T07:26:16Z</time>
      </trkpt>
      <trkpt lat="43.88377" lon="7.02023">
        <ele>511.07800292969</ele>
        <time>2012-05-13T07:26:19Z</time>
      </trkpt>
      <trkpt lat="43.88401" lon="7.02012">
        <ele>513.4814453125</ele>
        <time>2012-05-13T07:26:28Z</time>
      </trkpt>
      <trkpt lat="43.88413" lon="7.02">
        <ele>514.44262695312</ele>
        <time>2012-05-13T07:26:33Z</time>
      </trkpt>
      <trkpt lat="43.8844" lon="7.01963">
        <ele>517.32666015625</ele>
        <time>2012-05-13T07:26:46Z</time>
      </trkpt>
      <trkpt lat="43.8847" lon="7.01936">
        <ele>519.24926757812</ele>
        <time>2012-05-13T07:26:58Z</time>
      </trkpt>
      <trkpt lat="43.88482" lon="7.01946">
        <ele>520.69128417969</ele>
        <time>2012-05-13T07:27:02Z</time>
      </trkpt>
      <trkpt lat="43.88513" lon="7.0196">
        <ele>522.61389160156</ele>
        <time>2012-05-13T07:27:14Z</time>
      </trkpt>
      <trkpt lat="43.88556" lon="7.01966">
        <ele>524.05578613281</ele>
        <time>2012-05-13T07:27:27Z</time>
      </trkpt>
      <trkpt lat="43.88593" lon="7.02011">
        <ele>526.93981933594</ele>
        <time>2012-05-13T07:27:41Z</time>
      </trkpt>
      <trkpt lat="43.88601" lon="7.0202">
        <ele>528.3818359375</ele>
        <time>2012-05-13T07:27:44Z</time>
      </trkpt>
      <trkpt lat="43.88602" lon="7.02005">
        <ele>530.78515625</ele>
        <time>2012-05-13T07:27:51Z</time>
      </trkpt>
      <trkpt lat="43.88593" lon="7.01996">
        <ele>532.70776367188</ele>
        <time>2012-05-13T07:27:56Z</time>
      </trkpt>
      <trkpt lat="43.88606" lon="7.0199">
        <ele>534.14965820312</ele>
        <time>2012-05-13T07:28:03Z</time>
      </trkpt>
      <trkpt lat="43.88632" lon="7.02016">
        <ele>537.03369140625</ele>
        <time>2012-05-13T07:28:17Z</time>
      </trkpt>
      <trkpt lat="43.8866" lon="7.02018">
        <ele>537.99499511719</ele>
        <time>2012-05-13T07:28:28Z</time>
      </trkpt>
      <trkpt lat="43.88673" lon="7.02008">
        <ele>536.07238769531</ele>
        <time>2012-05-13T07:28:32Z</time>
      </trkpt>
      <trkpt lat="43.88675" lon="7.01984">
        <ele>535.59155273438</ele>
        <time>2012-05-13T07:28:38Z</time>
      </trkpt>
      <trkpt lat="43.88678" lon="7.01998">
        <ele>533.18835449219</ele>
        <time>2012-05-13T07:28:43Z</time>
      </trkpt>
      <trkpt lat="43.88686" lon="7.0202">
        <ele>531.74633789062</ele>
        <time>2012-05-13T07:28:48Z</time>
      </trkpt>
      <trkpt lat="43.8868" lon="7.02036">
        <ele>530.78515625</ele>
        <time>2012-05-13T07:28:51Z</time>
      </trkpt>
      <trkpt lat="43.8868" lon="7.02053">
        <ele>529.34313964844</ele>
        <time>2012-05-13T07:28:53Z</time>
      </trkpt>
      <trkpt lat="43.88682" lon="7.02065">
        <ele>526.93981933594</ele>
        <time>2012-05-13T07:28:55Z</time>
      </trkpt>
      <trkpt lat="43.88684" lon="7.02075">
        <ele>525.01721191406</ele>
        <time>2012-05-13T07:28:56Z</time>
      </trkpt>
      <trkpt lat="43.88689" lon="7.02089">
        <ele>522.13317871094</ele>
        <time>2012-05-13T07:28:58Z</time>
      </trkpt>
      <trkpt lat="43.88692" lon="7.02097">
        <ele>522.13317871094</ele>
        <time>2012-05-13T07:28:59Z</time>
      </trkpt>
      <trkpt lat="43.88696" lon="7.02107">
        <ele>519.72985839844</ele>
        <time>2012-05-13T07:29:00Z</time>
      </trkpt>
      <trkpt lat="43.88703" lon="7.02119">
        <ele>516.84594726562</ele>
        <time>2012-05-13T07:29:02Z</time>
      </trkpt>
      <trkpt lat="43.88709" lon="7.02131">
        <ele>515.40405273438</ele>
        <time>2012-05-13T07:29:04Z</time>
      </trkpt>
      <trkpt lat="43.88723" lon="7.0214">
        <ele>513.4814453125</ele>
        <time>2012-05-13T07:29:06Z</time>
      </trkpt>
      <trkpt lat="43.88732" lon="7.02142">
        <ele>510.11669921875</ele>
        <time>2012-05-13T07:29:08Z</time>
      </trkpt>
      <trkpt lat="43.88741" lon="7.02158">
        <ele>508.19409179688</ele>
        <time>2012-05-13T07:29:14Z</time>
      </trkpt>
      <trkpt lat="43.88739" lon="7.02175">
        <ele>507.23278808594</ele>
        <time>2012-05-13T07:29:16Z</time>
      </trkpt>
      <trkpt lat="43.88743" lon="7.02191">
        <ele>505.79089355469</ele>
        <time>2012-05-13T07:29:18Z</time>
      </trkpt>
      <trkpt lat="43.88747" lon="7.02209">
        <ele>504.34887695312</ele>
        <time>2012-05-13T07:29:20Z</time>
      </trkpt>
      <trkpt lat="43.88744" lon="7.02237">
        <ele>502.42614746094</ele>
        <time>2012-05-13T07:29:23Z</time>
      </trkpt>
      <trkpt lat="43.88744" lon="7.02243">
        <ele>500.98413085938</ele>
        <time>2012-05-13T07:29:24Z</time>
      </trkpt>
      <trkpt lat="43.88744" lon="7.02264">
        <ele>500.02294921875</ele>
        <time>2012-05-13T07:29:27Z</time>
      </trkpt>
      <trkpt lat="43.88745" lon="7.02298">
        <ele>497.13891601562</ele>
        <time>2012-05-13T07:29:30Z</time>
      </trkpt>
      <trkpt lat="43.88746" lon="7.02309">
        <ele>495.21618652344</ele>
        <time>2012-05-13T07:29:31Z</time>
      </trkpt>
      <trkpt lat="43.88751" lon="7.02351">
        <ele>493.77429199219</ele>
        <time>2012-05-13T07:29:35Z</time>
      </trkpt>
      <trkpt lat="43.88751" lon="7.02369">
        <ele>493.77429199219</ele>
        <time>2012-05-13T07:29:37Z</time>
      </trkpt>
      <trkpt lat="43.88759" lon="7.02388">
        <ele>492.81298828125</ele>
        <time>2012-05-13T07:29:44Z</time>
      </trkpt>
      <trkpt lat="43.88789" lon="7.02457">
        <ele>496.177734375</ele>
        <time>2012-05-13T07:29:58Z</time>
      </trkpt>
      <trkpt lat="43.88792" lon="7.02462">
        <ele>496.65832519531</ele>
        <time>2012-05-13T07:30:00Z</time>
      </trkpt>
      <trkpt lat="43.88807" lon="7.02501">
        <ele>500.50354003906</ele>
        <time>2012-05-13T07:30:17Z</time>
      </trkpt>
      <trkpt lat="43.88809" lon="7.02507">
        <ele>501.46484375</ele>
        <time>2012-05-13T07:30:29Z</time>
      </trkpt>
      <trkpt lat="43.88814" lon="7.02529">
        <ele>501.94555664062</ele>
        <time>2012-05-13T07:30:39Z</time>
      </trkpt>
      <trkpt lat="43.88815" lon="7.02532">
        <ele>502.42614746094</ele>
        <time>2012-05-13T07:30:40Z</time>
      </trkpt>
      <trkpt lat="43.88817" lon="7.0254">
        <ele>502.42614746094</ele>
        <time>2012-05-13T07:30:43Z</time>
      </trkpt>
      <trkpt lat="43.88822" lon="7.02552">
        <ele>503.8681640625</ele>
        <time>2012-05-13T07:30:48Z</time>
      </trkpt>
      <trkpt lat="43.88826" lon="7.02563">
        <ele>503.8681640625</ele>
        <time>2012-05-13T07:30:58Z</time>
      </trkpt>
      <trkpt lat="43.88827" lon="7.02565">
        <ele>506.271484375</ele>
        <time>2012-05-13T07:31:03Z</time>
      </trkpt>
      <trkpt lat="43.88838" lon="7.02582">
        <ele>508.19409179688</ele>
        <time>2012-05-13T07:31:17Z</time>
      </trkpt>
      <trkpt lat="43.88856" lon="7.02604">
        <ele>510.11669921875</ele>
        <time>2012-05-13T07:31:28Z</time>
      </trkpt>
      <trkpt lat="43.88862" lon="7.02597">
        <ele>508.67468261719</ele>
        <time>2012-05-13T07:31:32Z</time>
      </trkpt>
      <trkpt lat="43.88869" lon="7.02574">
        <ele>507.23278808594</ele>
        <time>2012-05-13T07:31:35Z</time>
      </trkpt>
      <trkpt lat="43.88873" lon="7.02554">
        <ele>505.79089355469</ele>
        <time>2012-05-13T07:31:37Z</time>
      </trkpt>
      <trkpt lat="43.88899" lon="7.02539">
        <ele>502.42614746094</ele>
        <time>2012-05-13T07:31:42Z</time>
      </trkpt>
      <trkpt lat="43.88917" lon="7.02557">
        <ele>500.02294921875</ele>
        <time>2012-05-13T07:31:45Z</time>
      </trkpt>
      <trkpt lat="43.88937" lon="7.02569">
        <ele>499.54223632812</ele>
        <time>2012-05-13T07:31:49Z</time>
      </trkpt>
      <trkpt lat="43.88959" lon="7.02603">
        <ele>500.50354003906</ele>
        <time>2012-05-13T07:32:01Z</time>
      </trkpt>
      <trkpt lat="43.88988" lon="7.0265">
        <ele>503.38745117188</ele>
        <time>2012-05-13T07:32:16Z</time>
      </trkpt>
      <trkpt lat="43.88993" lon="7.02648">
        <ele>505.31018066406</ele>
        <time>2012-05-13T07:32:19Z</time>
      </trkpt>
      <trkpt lat="43.89002" lon="7.0264">
        <ele>508.19409179688</ele>
        <time>2012-05-13T07:32:27Z</time>
      </trkpt>
      <trkpt lat="43.89002" lon="7.0264">
        <ele>509.63610839844</ele>
        <time>2012-05-13T07:32:33Z</time>
      </trkpt>
      <trkpt lat="43.89027" lon="7.02613">
        <ele>513.00073242188</ele>
        <time>2012-05-13T07:32:45Z</time>
      </trkpt>
      <trkpt lat="43.89034" lon="7.02616">
        <ele>514.44262695312</ele>
        <time>2012-05-13T07:32:49Z</time>
      </trkpt>
      <trkpt lat="43.89041" lon="7.02631">
        <ele>516.365234375</ele>
        <time>2012-05-13T07:32:56Z</time>
      </trkpt>
      <trkpt lat="43.89057" lon="7.02659">
        <ele>519.24926757812</ele>
        <time>2012-05-13T07:33:09Z</time>
      </trkpt>
      <trkpt lat="43.89077" lon="7.02695">
        <ele>522.13317871094</ele>
        <time>2012-05-13T07:33:24Z</time>
      </trkpt>
      <trkpt lat="43.89083" lon="7.02689">
        <ele>523.5751953125</ele>
        <time>2012-05-13T07:33:29Z</time>
      </trkpt>
      <trkpt lat="43.89081" lon="7.0268">
        <ele>524.53649902344</ele>
        <time>2012-05-13T07:33:32Z</time>
      </trkpt>
      <trkpt lat="43.89059" lon="7.02632">
        <ele>526.93981933594</ele>
        <time>2012-05-13T07:33:46Z</time>
      </trkpt>
      <trkpt lat="43.89066" lon="7.0261">
        <ele>526.93981933594</ele>
        <time>2012-05-13T07:33:51Z</time>
      </trkpt>
      <trkpt lat="43.89084" lon="7.02583">
        <ele>526.45910644531</ele>
        <time>2012-05-13T07:33:56Z</time>
      </trkpt>
      <trkpt lat="43.89088" lon="7.0257">
        <ele>526.45910644531</ele>
        <time>2012-05-13T07:33:58Z</time>
      </trkpt>
      <trkpt lat="43.8908" lon="7.02548">
        <ele>528.3818359375</ele>
        <time>2012-05-13T07:34:05Z</time>
      </trkpt>
      <trkpt lat="43.89054" lon="7.02558">
        <ele>532.70776367188</ele>
        <time>2012-05-13T07:34:16Z</time>
      </trkpt>
      <trkpt lat="43.89052" lon="7.02557">
        <ele>532.70776367188</ele>
        <time>2012-05-13T07:34:17Z</time>
      </trkpt>
      <trkpt lat="43.8904" lon="7.02513">
        <ele>535.11096191406</ele>
        <time>2012-05-13T07:34:30Z</time>
      </trkpt>
      <trkpt lat="43.89034" lon="7.02456">
        <ele>538.47570800781</ele>
        <time>2012-05-13T07:34:46Z</time>
      </trkpt>
      <trkpt lat="43.89024" lon="7.02404">
        <ele>541.84020996094</ele>
        <time>2012-05-13T07:35:02Z</time>
      </trkpt>
      <trkpt lat="43.89013" lon="7.02341">
        <ele>544.72424316406</ele>
        <time>2012-05-13T07:35:21Z</time>
      </trkpt>
      <trkpt lat="43.89004" lon="7.02269">
        <ele>547.12744140625</ele>
        <time>2012-05-13T07:35:39Z</time>
      </trkpt>
      <trkpt lat="43.8901" lon="7.02205">
        <ele>550.01147460938</ele>
        <time>2012-05-13T07:35:56Z</time>
      </trkpt>
      <trkpt lat="43.89041" lon="7.02163">
        <ele>552.89526367188</ele>
        <time>2012-05-13T07:36:11Z</time>
      </trkpt>
      <trkpt lat="43.89098" lon="7.02145">
        <ele>555.29858398438</ele>
        <time>2012-05-13T07:36:28Z</time>
      </trkpt>
      <trkpt lat="43.89101" lon="7.02124">
        <ele>555.29858398438</ele>
        <time>2012-05-13T07:36:33Z</time>
      </trkpt>
      <trkpt lat="43.89076" lon="7.02107">
        <ele>555.29858398438</ele>
        <time>2012-05-13T07:36:38Z</time>
      </trkpt>
      <trkpt lat="43.89032" lon="7.02109">
        <ele>554.33740234375</ele>
        <time>2012-05-13T07:36:45Z</time>
      </trkpt>
      <trkpt lat="43.89009" lon="7.0211">
        <ele>553.3759765625</ele>
        <time>2012-05-13T07:36:48Z</time>
      </trkpt>
      <trkpt lat="43.88982" lon="7.02093">
        <ele>552.89526367188</ele>
        <time>2012-05-13T07:36:52Z</time>
      </trkpt>
      <trkpt lat="43.88951" lon="7.01971">
        <ele>551.93408203125</ele>
        <time>2012-05-13T07:37:06Z</time>
      </trkpt>
      <trkpt lat="43.88957" lon="7.01936">
        <ele>551.45336914062</ele>
        <time>2012-05-13T07:37:10Z</time>
      </trkpt>
      <trkpt lat="43.88968" lon="7.01926">
        <ele>552.41455078125</ele>
        <time>2012-05-13T07:37:12Z</time>
      </trkpt>
      <trkpt lat="43.89003" lon="7.0191">
        <ele>552.89526367188</ele>
        <time>2012-05-13T07:37:18Z</time>
      </trkpt>
      <trkpt lat="43.89027" lon="7.01875">
        <ele>553.85668945312</ele>
        <time>2012-05-13T07:37:25Z</time>
      </trkpt>
      <trkpt lat="43.88992" lon="7.01844">
        <ele>553.3759765625</ele>
        <time>2012-05-13T07:37:32Z</time>
      </trkpt>
      <trkpt lat="43.88986" lon="7.01844">
        <ele>552.89526367188</ele>
        <time>2012-05-13T07:37:33Z</time>
      </trkpt>
      <trkpt lat="43.88967" lon="7.01852">
        <ele>553.3759765625</ele>
        <time>2012-05-13T07:37:36Z</time>
      </trkpt>
      <trkpt lat="43.88917" lon="7.01846">
        <ele>553.85668945312</ele>
        <time>2012-05-13T07:37:44Z</time>
      </trkpt>
      <trkpt lat="43.88874" lon="7.01853">
        <ele>555.29858398438</ele>
        <time>2012-05-13T07:37:52Z</time>
      </trkpt>
      <trkpt lat="43.88843" lon="7.0185">
        <ele>556.26000976562</ele>
        <time>2012-05-13T07:38:00Z</time>
      </trkpt>
      <trkpt lat="43.8885" lon="7.01846">
        <ele>557.22143554688</ele>
        <time>2012-05-13T07:38:06Z</time>
      </trkpt>
      <trkpt lat="43.88854" lon="7.01845">
        <ele>557.22143554688</ele>
        <time>2012-05-13T07:38:08Z</time>
      </trkpt>
      <trkpt lat="43.88872" lon="7.01831">
        <ele>561.06665039062</ele>
        <time>2012-05-13T07:38:19Z</time>
      </trkpt>
      <trkpt lat="43.8889" lon="7.01816">
        <ele>563.95043945312</ele>
        <time>2012-05-13T07:38:30Z</time>
      </trkpt>
      <trkpt lat="43.88905" lon="7.01803">
        <ele>567.31518554688</ele>
        <time>2012-05-13T07:38:40Z</time>
      </trkpt>
      <trkpt lat="43.88923" lon="7.0179">
        <ele>570.6796875</ele>
        <time>2012-05-13T07:38:51Z</time>
      </trkpt>
      <trkpt lat="43.88933" lon="7.0178">
        <ele>572.6025390625</ele>
        <time>2012-05-13T07:38:59Z</time>
      </trkpt>
      <trkpt lat="43.88933" lon="7.01768">
        <ele>574.52514648438</ele>
        <time>2012-05-13T07:39:04Z</time>
      </trkpt>
      <trkpt lat="43.88932" lon="7.01761">
        <ele>575.005859375</ele>
        <time>2012-05-13T07:39:07Z</time>
      </trkpt>
      <trkpt lat="43.88938" lon="7.01729">
        <ele>578.37036132812</ele>
        <time>2012-05-13T07:39:21Z</time>
      </trkpt>
      <trkpt lat="43.88946" lon="7.01704">
        <ele>580.77368164062</ele>
        <time>2012-05-13T07:39:32Z</time>
      </trkpt>
      <trkpt lat="43.88956" lon="7.01669">
        <ele>584.61889648438</ele>
        <time>2012-05-13T07:39:47Z</time>
      </trkpt>
      <trkpt lat="43.88959" lon="7.01636">
        <ele>587.50268554688</ele>
        <time>2012-05-13T07:40:01Z</time>
      </trkpt>
      <trkpt lat="43.8897" lon="7.01606">
        <ele>590.86743164062</ele>
        <time>2012-05-13T07:40:14Z</time>
      </trkpt>
      <trkpt lat="43.88982" lon="7.01574">
        <ele>593.75146484375</ele>
        <time>2012-05-13T07:40:28Z</time>
      </trkpt>
      <trkpt lat="43.88987" lon="7.01531">
        <ele>597.11596679688</ele>
        <time>2012-05-13T07:40:44Z</time>
      </trkpt>
      <trkpt lat="43.88982" lon="7.01499">
        <ele>600.48071289062</ele>
        <time>2012-05-13T07:40:56Z</time>
      </trkpt>
      <trkpt lat="43.88975" lon="7.01471">
        <ele>603.84521484375</ele>
        <time>2012-05-13T07:41:08Z</time>
      </trkpt>
      <trkpt lat="43.88966" lon="7.01437">
        <ele>607.69067382812</ele>
        <time>2012-05-13T07:41:22Z</time>
      </trkpt>
      <trkpt lat="43.88968" lon="7.01395">
        <ele>611.05517578125</ele>
        <time>2012-05-13T07:41:38Z</time>
      </trkpt>
      <trkpt lat="43.88982" lon="7.01361">
        <ele>614.41967773438</ele>
        <time>2012-05-13T07:41:52Z</time>
      </trkpt>
      <trkpt lat="43.89006" lon="7.01315">
        <ele>617.3037109375</ele>
        <time>2012-05-13T07:42:10Z</time>
      </trkpt>
      <trkpt lat="43.89048" lon="7.0126">
        <ele>620.66845703125</ele>
        <time>2012-05-13T07:42:31Z</time>
      </trkpt>
      <trkpt lat="43.8906" lon="7.01199">
        <ele>623.07177734375</ele>
        <time>2012-05-13T07:42:49Z</time>
      </trkpt>
      <trkpt lat="43.89058" lon="7.01193">
        <ele>624.03295898438</ele>
        <time>2012-05-13T07:42:51Z</time>
      </trkpt>
      <trkpt lat="43.89046" lon="7.01158">
        <ele>627.39770507812</ele>
        <time>2012-05-13T07:43:03Z</time>
      </trkpt>
      <trkpt lat="43.89038" lon="7.01088">
        <ele>630.28149414062</ele>
        <time>2012-05-13T07:43:22Z</time>
      </trkpt>
      <trkpt lat="43.8903" lon="7.01035">
        <ele>633.64599609375</ele>
        <time>2012-05-13T07:43:36Z</time>
      </trkpt>
      <trkpt lat="43.89026" lon="7.00972">
        <ele>637.0107421875</ele>
        <time>2012-05-13T07:43:52Z</time>
      </trkpt>
      <trkpt lat="43.89032" lon="7.00921">
        <ele>640.37548828125</ele>
        <time>2012-05-13T07:44:08Z</time>
      </trkpt>
      <trkpt lat="43.89036" lon="7.00882">
        <ele>643.73999023438</ele>
        <time>2012-05-13T07:44:20Z</time>
      </trkpt>
      <trkpt lat="43.89037" lon="7.00879">
        <ele>643.73999023438</ele>
        <time>2012-05-13T07:44:21Z</time>
      </trkpt>
      <trkpt lat="43.89049" lon="7.00857">
        <ele>645.18188476562</ele>
        <time>2012-05-13T07:44:29Z</time>
      </trkpt>
      <trkpt lat="43.89046" lon="7.0084">
        <ele>646.14331054688</ele>
        <time>2012-05-13T07:44:34Z</time>
      </trkpt>
      <trkpt lat="43.89021" lon="7.00819">
        <ele>649.5078125</ele>
        <time>2012-05-13T07:44:47Z</time>
      </trkpt>
      <trkpt lat="43.89014" lon="7.00776">
        <ele>652.39184570312</ele>
        <time>2012-05-13T07:45:02Z</time>
      </trkpt>
      <trkpt lat="43.89019" lon="7.00746">
        <ele>655.75659179688</ele>
        <time>2012-05-13T07:45:13Z</time>
      </trkpt>
      <trkpt lat="43.89022" lon="7.00713">
        <ele>658.64038085938</ele>
        <time>2012-05-13T07:45:25Z</time>
      </trkpt>
      <trkpt lat="43.89025" lon="7.007">
        <ele>659.60180664062</ele>
        <time>2012-05-13T07:45:31Z</time>
      </trkpt>
      <trkpt lat="43.89031" lon="7.00677">
        <ele>661.5244140625</ele>
        <time>2012-05-13T07:45:40Z</time>
      </trkpt>
      <trkpt lat="43.89033" lon="7.00671">
        <ele>662.48559570312</ele>
        <time>2012-05-13T07:45:43Z</time>
      </trkpt>
      <trkpt lat="43.89046" lon="7.0064">
        <ele>665.36962890625</ele>
        <time>2012-05-13T07:45:57Z</time>
      </trkpt>
      <trkpt lat="43.89046" lon="7.00639">
        <ele>665.36962890625</ele>
        <time>2012-05-13T07:45:58Z</time>
      </trkpt>
      <trkpt lat="43.89064" lon="7.00629">
        <ele>668.734375</ele>
        <time>2012-05-13T07:46:07Z</time>
      </trkpt>
      <trkpt lat="43.89069" lon="7.00632">
        <ele>669.69580078125</ele>
        <time>2012-05-13T07:46:11Z</time>
      </trkpt>
      <trkpt lat="43.8907" lon="7.00651">
        <ele>671.6181640625</ele>
        <time>2012-05-13T07:46:28Z</time>
      </trkpt>
      <trkpt lat="43.89078" lon="7.0069">
        <ele>674.50219726562</ele>
        <time>2012-05-13T07:46:44Z</time>
      </trkpt>
      <trkpt lat="43.89093" lon="7.00714">
        <ele>676.90551757812</ele>
        <time>2012-05-13T07:46:57Z</time>
      </trkpt>
      <trkpt lat="43.89109" lon="7.00745">
        <ele>680.27001953125</ele>
        <time>2012-05-13T07:47:12Z</time>
      </trkpt>
      <trkpt lat="43.89112" lon="7.00749">
        <ele>680.75073242188</ele>
        <time>2012-05-13T07:47:14Z</time>
      </trkpt>
      <trkpt lat="43.89126" lon="7.00779">
        <ele>683.63452148438</ele>
        <time>2012-05-13T07:47:27Z</time>
      </trkpt>
      <trkpt lat="43.89133" lon="7.00826">
        <ele>686.51879882812</ele>
        <time>2012-05-13T07:47:43Z</time>
      </trkpt>
      <trkpt lat="43.89144" lon="7.00874">
        <ele>688.44140625</ele>
        <time>2012-05-13T07:47:58Z</time>
      </trkpt>
      <trkpt lat="43.89147" lon="7.00906">
        <ele>691.3251953125</ele>
        <time>2012-05-13T07:48:09Z</time>
      </trkpt>
      <trkpt lat="43.8917" lon="7.00951">
        <ele>694.68969726562</ele>
        <time>2012-05-13T07:48:28Z</time>
      </trkpt>
      <trkpt lat="43.89197" lon="7.00979">
        <ele>697.09301757812</ele>
        <time>2012-05-13T07:48:45Z</time>
      </trkpt>
      <trkpt lat="43.89225" lon="7.00992">
        <ele>699.97705078125</ele>
        <time>2012-05-13T07:48:58Z</time>
      </trkpt>
      <trkpt lat="43.89261" lon="7.01008">
        <ele>703.341796875</ele>
        <time>2012-05-13T07:49:16Z</time>
      </trkpt>
      <trkpt lat="43.89287" lon="7.00978">
        <ele>706.70629882812</ele>
        <time>2012-05-13T07:49:32Z</time>
      </trkpt>
      <trkpt lat="43.8931" lon="7.00941">
        <ele>707.66772460938</ele>
        <time>2012-05-13T07:49:48Z</time>
      </trkpt>
      <trkpt lat="43.89344" lon="7.00944">
        <ele>711.0322265625</ele>
        <time>2012-05-13T07:50:02Z</time>
      </trkpt>
      <trkpt lat="43.89378" lon="7.00943">
        <ele>713.916015625</ele>
        <time>2012-05-13T07:50:17Z</time>
      </trkpt>
      <trkpt lat="43.89396" lon="7.00968">
        <ele>715.35815429688</ele>
        <time>2012-05-13T07:50:28Z</time>
      </trkpt>
      <trkpt lat="43.89393" lon="7.01014">
        <ele>718.72290039062</ele>
        <time>2012-05-13T07:50:44Z</time>
      </trkpt>
      <trkpt lat="43.89408" lon="7.01058">
        <ele>722.08740234375</ele>
        <time>2012-05-13T07:51:01Z</time>
      </trkpt>
      <trkpt lat="43.89436" lon="7.01068">
        <ele>724.01000976562</ele>
        <time>2012-05-13T07:51:15Z</time>
      </trkpt>
      <trkpt lat="43.89445" lon="7.01104">
        <ele>726.41333007812</ele>
        <time>2012-05-13T07:51:29Z</time>
      </trkpt>
      <trkpt lat="43.89454" lon="7.01145">
        <ele>729.77783203125</ele>
        <time>2012-05-13T07:51:45Z</time>
      </trkpt>
      <trkpt lat="43.8947" lon="7.01192">
        <ele>732.18139648438</ele>
        <time>2012-05-13T07:52:03Z</time>
      </trkpt>
      <trkpt lat="43.89466" lon="7.01243">
        <ele>735.0654296875</ele>
        <time>2012-05-13T07:52:20Z</time>
      </trkpt>
      <trkpt lat="43.89462" lon="7.01251">
        <ele>736.02661132812</ele>
        <time>2012-05-13T07:52:23Z</time>
      </trkpt>
      <trkpt lat="43.8946" lon="7.01255">
        <ele>736.50732421875</ele>
        <time>2012-05-13T07:52:25Z</time>
      </trkpt>
      <trkpt lat="43.89453" lon="7.01279">
        <ele>737.94921875</ele>
        <time>2012-05-13T07:52:34Z</time>
      </trkpt>
      <trkpt lat="43.89431" lon="7.01314">
        <ele>741.31372070312</ele>
        <time>2012-05-13T07:52:51Z</time>
      </trkpt>
      <trkpt lat="43.8943" lon="7.01316">
        <ele>741.79443359375</ele>
        <time>2012-05-13T07:52:52Z</time>
      </trkpt>
      <trkpt lat="43.89412" lon="7.01344">
        <ele>742.755859375</ele>
        <time>2012-05-13T07:53:04Z</time>
      </trkpt>
      <trkpt lat="43.89406" lon="7.01373">
        <ele>745.6396484375</ele>
        <time>2012-05-13T07:53:15Z</time>
      </trkpt>
      <trkpt lat="43.89405" lon="7.01431">
        <ele>749.00439453125</ele>
        <time>2012-05-13T07:53:35Z</time>
      </trkpt>
      <trkpt lat="43.89421" lon="7.01459">
        <ele>751.88842773438</ele>
        <time>2012-05-13T07:53:49Z</time>
      </trkpt>
      <trkpt lat="43.89455" lon="7.0146">
        <ele>754.29174804688</ele>
        <time>2012-05-13T07:54:04Z</time>
      </trkpt>
      <trkpt lat="43.89478" lon="7.01495">
        <ele>757.17553710938</ele>
        <time>2012-05-13T07:54:19Z</time>
      </trkpt>
      <trkpt lat="43.89506" lon="7.01533">
        <ele>760.05932617188</ele>
        <time>2012-05-13T07:54:34Z</time>
      </trkpt>
      <trkpt lat="43.89517" lon="7.01577">
        <ele>761.02075195312</ele>
        <time>2012-05-13T07:54:46Z</time>
      </trkpt>
      <trkpt lat="43.89522" lon="7.01634">
        <ele>762.46264648438</ele>
        <time>2012-05-13T07:54:58Z</time>
      </trkpt>
      <trkpt lat="43.89518" lon="7.01689">
        <ele>763.90454101562</ele>
        <time>2012-05-13T07:55:10Z</time>
      </trkpt>
      <trkpt lat="43.8951" lon="7.01727">
        <ele>766.30810546875</ele>
        <time>2012-05-13T07:55:21Z</time>
      </trkpt>
      <trkpt lat="43.89515" lon="7.01772">
        <ele>769.19213867188</ele>
        <time>2012-05-13T07:55:37Z</time>
      </trkpt>
      <trkpt lat="43.89525" lon="7.01815">
        <ele>772.556640625</ele>
        <time>2012-05-13T07:55:52Z</time>
      </trkpt>
      <trkpt lat="43.89529" lon="7.01872">
        <ele>773.51806640625</ele>
        <time>2012-05-13T07:56:05Z</time>
      </trkpt>
      <trkpt lat="43.89551" lon="7.01892">
        <ele>772.556640625</ele>
        <time>2012-05-13T07:56:10Z</time>
      </trkpt>
      <trkpt lat="43.89564" lon="7.01897">
        <ele>772.556640625</ele>
        <time>2012-05-13T07:56:13Z</time>
      </trkpt>
      <trkpt lat="43.89582" lon="7.01903">
        <ele>772.556640625</ele>
        <time>2012-05-13T07:56:17Z</time>
      </trkpt>
      <trkpt lat="43.89599" lon="7.01902">
        <ele>772.556640625</ele>
        <time>2012-05-13T07:56:21Z</time>
      </trkpt>
      <trkpt lat="43.89614" lon="7.01898">
        <ele>772.07592773438</ele>
        <time>2012-05-13T07:56:24Z</time>
      </trkpt>
      <trkpt lat="43.89642" lon="7.01904">
        <ele>771.59521484375</ele>
        <time>2012-05-13T07:56:29Z</time>
      </trkpt>
      <trkpt lat="43.89658" lon="7.01906">
        <ele>771.59521484375</ele>
        <time>2012-05-13T07:56:32Z</time>
      </trkpt>
      <trkpt lat="43.89669" lon="7.01902">
        <ele>771.59521484375</ele>
        <time>2012-05-13T07:56:34Z</time>
      </trkpt>
      <trkpt lat="43.89701" lon="7.0189">
        <ele>771.59521484375</ele>
        <time>2012-05-13T07:56:40Z</time>
      </trkpt>
      <trkpt lat="43.89717" lon="7.01887">
        <ele>771.11474609375</ele>
        <time>2012-05-13T07:56:43Z</time>
      </trkpt>
      <trkpt lat="43.8976" lon="7.01895">
        <ele>770.63403320312</ele>
        <time>2012-05-13T07:56:50Z</time>
      </trkpt>
      <trkpt lat="43.89809" lon="7.01895">
        <ele>772.556640625</ele>
        <time>2012-05-13T07:57:02Z</time>
      </trkpt>
      <trkpt lat="43.89829" lon="7.01887">
        <ele>775.92114257812</ele>
        <time>2012-05-13T07:57:13Z</time>
      </trkpt>
      <trkpt lat="43.89852" lon="7.01876">
        <ele>779.28564453125</ele>
        <time>2012-05-13T07:57:27Z</time>
      </trkpt>
      <trkpt lat="43.89875" lon="7.01869">
        <ele>782.65063476562</ele>
        <time>2012-05-13T07:57:41Z</time>
      </trkpt>
      <trkpt lat="43.89886" lon="7.01868">
        <ele>784.5732421875</ele>
        <time>2012-05-13T07:57:47Z</time>
      </trkpt>
      <trkpt lat="43.89905" lon="7.0186">
        <ele>787.93774414062</ele>
        <time>2012-05-13T07:58:00Z</time>
      </trkpt>
      <trkpt lat="43.89935" lon="7.01846">
        <ele>791.30224609375</ele>
        <time>2012-05-13T07:58:18Z</time>
      </trkpt>
      <trkpt lat="43.89945" lon="7.0182">
        <ele>791.30224609375</ele>
        <time>2012-05-13T07:58:34Z</time>
      </trkpt>
      <trkpt lat="43.89945" lon="7.0182">
        <ele>790.82153320312</ele>
        <time>2012-05-13T07:58:54Z</time>
      </trkpt>
      <trkpt lat="43.89945" lon="7.0182">
        <ele>791.30224609375</ele>
        <time>2012-05-13T07:59:13Z</time>
      </trkpt>
      <trkpt lat="43.89945" lon="7.0182">
        <ele>791.78295898438</ele>
        <time>2012-05-13T07:59:34Z</time>
      </trkpt>
      <trkpt lat="43.89945" lon="7.0182">
        <ele>791.78295898438</ele>
        <time>2012-05-13T07:59:43Z</time>
      </trkpt>
      <trkpt lat="43.89947" lon="7.0181">
        <ele>792.74438476562</ele>
        <time>2012-05-13T07:59:52Z</time>
      </trkpt>
      <trkpt lat="43.89953" lon="7.01784">
        <ele>794.18627929688</ele>
        <time>2012-05-13T08:00:03Z</time>
      </trkpt>
      <trkpt lat="43.89957" lon="7.01768">
        <ele>794.18627929688</ele>
        <time>2012-05-13T08:00:06Z</time>
      </trkpt>
      <trkpt lat="43.89958" lon="7.01711">
        <ele>794.18627929688</ele>
        <time>2012-05-13T08:00:17Z</time>
      </trkpt>
      <trkpt lat="43.89959" lon="7.01703">
        <ele>793.70556640625</ele>
        <time>2012-05-13T08:00:19Z</time>
      </trkpt>
      <trkpt lat="43.89967" lon="7.0166">
        <ele>794.66674804688</ele>
        <time>2012-05-13T08:00:29Z</time>
      </trkpt>
      <trkpt lat="43.89964" lon="7.01626">
        <ele>795.62817382812</ele>
        <time>2012-05-13T08:00:34Z</time>
      </trkpt>
      <trkpt lat="43.89951" lon="7.01571">
        <ele>798.51220703125</ele>
        <time>2012-05-13T08:00:51Z</time>
      </trkpt>
      <trkpt lat="43.89941" lon="7.01534">
        <ele>799.95434570312</ele>
        <time>2012-05-13T08:01:04Z</time>
      </trkpt>
      <trkpt lat="43.89931" lon="7.01504">
        <ele>801.39624023438</ele>
        <time>2012-05-13T08:01:15Z</time>
      </trkpt>
      <trkpt lat="43.89922" lon="7.01449">
        <ele>802.357421875</ele>
        <time>2012-05-13T08:01:28Z</time>
      </trkpt>
      <trkpt lat="43.8991" lon="7.01403">
        <ele>803.79956054688</ele>
        <time>2012-05-13T08:01:40Z</time>
      </trkpt>
      <trkpt lat="43.89905" lon="7.01362">
        <ele>805.24145507812</ele>
        <time>2012-05-13T08:01:51Z</time>
      </trkpt>
      <trkpt lat="43.89907" lon="7.01327">
        <ele>807.1640625</ele>
        <time>2012-05-13T08:02:04Z</time>
      </trkpt>
      <trkpt lat="43.89904" lon="7.01291">
        <ele>808.12548828125</ele>
        <time>2012-05-13T08:02:12Z</time>
      </trkpt>
      <trkpt lat="43.89895" lon="7.0127">
        <ele>808.12548828125</ele>
        <time>2012-05-13T08:02:18Z</time>
      </trkpt>
      <trkpt lat="43.89876" lon="7.01213">
        <ele>809.08666992188</ele>
        <time>2012-05-13T08:02:30Z</time>
      </trkpt>
      <trkpt lat="43.89871" lon="7.01175">
        <ele>811.48999023438</ele>
        <time>2012-05-13T08:02:40Z</time>
      </trkpt>
      <trkpt lat="43.89863" lon="7.01134">
        <ele>814.85473632812</ele>
        <time>2012-05-13T08:02:54Z</time>
      </trkpt>
      <trkpt lat="43.89858" lon="7.01102">
        <ele>815.81616210938</ele>
        <time>2012-05-13T08:03:05Z</time>
      </trkpt>
      <trkpt lat="43.89854" lon="7.01088">
        <ele>816.29663085938</ele>
        <time>2012-05-13T08:03:09Z</time>
      </trkpt>
      <trkpt lat="43.8985" lon="7.01068">
        <ele>816.77734375</ele>
        <time>2012-05-13T08:03:14Z</time>
      </trkpt>
      <trkpt lat="43.89834" lon="7.01029">
        <ele>820.14184570312</ele>
        <time>2012-05-13T08:03:28Z</time>
      </trkpt>
      <trkpt lat="43.89822" lon="7.00999">
        <ele>822.54516601562</ele>
        <time>2012-05-13T08:03:40Z</time>
      </trkpt>
      <trkpt lat="43.89816" lon="7.0098">
        <ele>823.98706054688</ele>
        <time>2012-05-13T08:03:49Z</time>
      </trkpt>
      <trkpt lat="43.89815" lon="7.00971">
        <ele>824.94848632812</ele>
        <time>2012-05-13T08:03:53Z</time>
      </trkpt>
      <trkpt lat="43.89809" lon="7.0094">
        <ele>826.39038085938</ele>
        <time>2012-05-13T08:04:05Z</time>
      </trkpt>
      <trkpt lat="43.89806" lon="7.00924">
        <ele>826.39038085938</ele>
        <time>2012-05-13T08:04:09Z</time>
      </trkpt>
      <trkpt lat="43.89808" lon="7.00896">
        <ele>827.83227539062</ele>
        <time>2012-05-13T08:04:16Z</time>
      </trkpt>
      <trkpt lat="43.89807" lon="7.00873">
        <ele>825.42895507812</ele>
        <time>2012-05-13T08:04:20Z</time>
      </trkpt>
      <trkpt lat="43.89803" lon="7.00855">
        <ele>823.50659179688</ele>
        <time>2012-05-13T08:04:23Z</time>
      </trkpt>
      <trkpt lat="43.89799" lon="7.00834">
        <ele>821.58374023438</ele>
        <time>2012-05-13T08:04:27Z</time>
      </trkpt>
      <trkpt lat="43.89798" lon="7.00816">
        <ele>819.66137695312</ele>
        <time>2012-05-13T08:04:30Z</time>
      </trkpt>
      <trkpt lat="43.898" lon="7.00802">
        <ele>817.73852539062</ele>
        <time>2012-05-13T08:04:32Z</time>
      </trkpt>
      <trkpt lat="43.898" lon="7.00786">
        <ele>816.29663085938</ele>
        <time>2012-05-13T08:04:34Z</time>
      </trkpt>
      <trkpt lat="43.898" lon="7.00769">
        <ele>812.45141601562</ele>
        <time>2012-05-13T08:04:36Z</time>
      </trkpt>
      <trkpt lat="43.89797" lon="7.00743">
        <ele>810.52856445312</ele>
        <time>2012-05-13T08:04:39Z</time>
      </trkpt>
      <trkpt lat="43.89796" lon="7.00729">
        <ele>809.5673828125</ele>
        <time>2012-05-13T08:04:41Z</time>
      </trkpt>
      <trkpt lat="43.89796" lon="7.00709">
        <ele>806.68334960938</ele>
        <time>2012-05-13T08:04:44Z</time>
      </trkpt>
      <trkpt lat="43.89796" lon="7.007">
        <ele>804.7607421875</ele>
        <time>2012-05-13T08:04:46Z</time>
      </trkpt>
      <trkpt lat="43.89796" lon="7.00665">
        <ele>801.39624023438</ele>
        <time>2012-05-13T08:04:54Z</time>
      </trkpt>
      <trkpt lat="43.89796" lon="7.00649">
        <ele>798.51220703125</ele>
        <time>2012-05-13T08:04:59Z</time>
      </trkpt>
      <trkpt lat="43.89797" lon="7.00611">
        <ele>794.66674804688</ele>
        <time>2012-05-13T08:05:06Z</time>
      </trkpt>
      <trkpt lat="43.89797" lon="7.00605">
        <ele>794.66674804688</ele>
        <time>2012-05-13T08:05:07Z</time>
      </trkpt>
      <trkpt lat="43.89798" lon="7.00594">
        <ele>793.70556640625</ele>
        <time>2012-05-13T08:05:09Z</time>
      </trkpt>
      <trkpt lat="43.89796" lon="7.00575">
        <ele>791.78295898438</ele>
        <time>2012-05-13T08:05:13Z</time>
      </trkpt>
      <trkpt lat="43.89794" lon="7.00547">
        <ele>792.263671875</ele>
        <time>2012-05-13T08:05:18Z</time>
      </trkpt>
      <trkpt lat="43.89796" lon="7.00534">
        <ele>791.78295898438</ele>
        <time>2012-05-13T08:05:20Z</time>
      </trkpt>
      <trkpt lat="43.89796" lon="7.00511">
        <ele>790.34106445312</ele>
        <time>2012-05-13T08:05:23Z</time>
      </trkpt>
      <trkpt lat="43.89797" lon="7.00501">
        <ele>788.89916992188</ele>
        <time>2012-05-13T08:05:25Z</time>
      </trkpt>
      <trkpt lat="43.89804" lon="7.00487">
        <ele>786.97631835938</ele>
        <time>2012-05-13T08:05:28Z</time>
      </trkpt>
      <trkpt lat="43.89808" lon="7.00478">
        <ele>786.01513671875</ele>
        <time>2012-05-13T08:05:30Z</time>
      </trkpt>
      <trkpt lat="43.89812" lon="7.00467">
        <ele>784.5732421875</ele>
        <time>2012-05-13T08:05:32Z</time>
      </trkpt>
      <trkpt lat="43.89817" lon="7.0045">
        <ele>782.169921875</ele>
        <time>2012-05-13T08:05:35Z</time>
      </trkpt>
      <trkpt lat="43.8982" lon="7.00441">
        <ele>780.72802734375</ele>
        <time>2012-05-13T08:05:37Z</time>
      </trkpt>
      <trkpt lat="43.89827" lon="7.00418">
        <ele>779.28564453125</ele>
        <time>2012-05-13T08:05:44Z</time>
      </trkpt>
      <trkpt lat="43.89834" lon="7.00404">
        <ele>776.88256835938</ele>
        <time>2012-05-13T08:05:49Z</time>
      </trkpt>
      <trkpt lat="43.89842" lon="7.00395">
        <ele>776.40185546875</ele>
        <time>2012-05-13T08:05:52Z</time>
      </trkpt>
      <trkpt lat="43.89855" lon="7.00385">
        <ele>774.47924804688</ele>
        <time>2012-05-13T08:05:58Z</time>
      </trkpt>
      <trkpt lat="43.89869" lon="7.00378">
        <ele>773.51806640625</ele>
        <time>2012-05-13T08:06:02Z</time>
      </trkpt>
      <trkpt lat="43.89878" lon="7.00375">
        <ele>770.63403320312</ele>
        <time>2012-05-13T08:06:04Z</time>
      </trkpt>
      <trkpt lat="43.89902" lon="7.00357">
        <ele>768.23071289062</ele>
        <time>2012-05-13T08:06:10Z</time>
      </trkpt>
      <trkpt lat="43.89909" lon="7.00351">
        <ele>767.26953125</ele>
        <time>2012-05-13T08:06:12Z</time>
      </trkpt>
      <trkpt lat="43.89926" lon="7.00334">
        <ele>765.34692382812</ele>
        <time>2012-05-13T08:06:17Z</time>
      </trkpt>
      <trkpt lat="43.89932" lon="7.00322">
        <ele>764.38549804688</ele>
        <time>2012-05-13T08:06:20Z</time>
      </trkpt>
      <trkpt lat="43.89939" lon="7.00281">
        <ele>765.82763671875</ele>
        <time>2012-05-13T08:06:31Z</time>
      </trkpt>
      <trkpt lat="43.89939" lon="7.00239">
        <ele>762.943359375</ele>
        <time>2012-05-13T08:06:38Z</time>
      </trkpt>
      <trkpt lat="43.89938" lon="7.00197">
        <ele>762.46264648438</ele>
        <time>2012-05-13T08:06:45Z</time>
      </trkpt>
      <trkpt lat="43.89937" lon="7.00169">
        <ele>763.42407226562</ele>
        <time>2012-05-13T08:06:50Z</time>
      </trkpt>
      <trkpt lat="43.89935" lon="7.00117">
        <ele>762.46264648438</ele>
        <time>2012-05-13T08:06:59Z</time>
      </trkpt>
      <trkpt lat="43.89934" lon="7.00105">
        <ele>761.98217773438</ele>
        <time>2012-05-13T08:07:01Z</time>
      </trkpt>
      <trkpt lat="43.89929" lon="7.00047">
        <ele>761.02075195312</ele>
        <time>2012-05-13T08:07:08Z</time>
      </trkpt>
      <trkpt lat="43.89926" lon="7.00021">
        <ele>758.13696289062</ele>
        <time>2012-05-13T08:07:12Z</time>
      </trkpt>
      <trkpt lat="43.89926" lon="7.00015">
        <ele>757.17553710938</ele>
        <time>2012-05-13T08:07:14Z</time>
      </trkpt>
      <trkpt lat="43.89927" lon="7.00008">
        <ele>757.17553710938</ele>
        <time>2012-05-13T08:07:16Z</time>
      </trkpt>
      <trkpt lat="43.89932" lon="6.99993">
        <ele>756.21411132812</ele>
        <time>2012-05-13T08:07:20Z</time>
      </trkpt>
      <trkpt lat="43.89941" lon="6.99963">
        <ele>753.81103515625</ele>
        <time>2012-05-13T08:07:27Z</time>
      </trkpt>
      <trkpt lat="43.89947" lon="6.99946">
        <ele>752.849609375</ele>
        <time>2012-05-13T08:07:30Z</time>
      </trkpt>
      <trkpt lat="43.89951" lon="6.99931">
        <ele>751.40771484375</ele>
        <time>2012-05-13T08:07:33Z</time>
      </trkpt>
      <trkpt lat="43.89964" lon="6.99884">
        <ele>749.48510742188</ele>
        <time>2012-05-13T08:07:41Z</time>
      </trkpt>
      <trkpt lat="43.89974" lon="6.99846">
        <ele>748.04321289062</ele>
        <time>2012-05-13T08:07:50Z</time>
      </trkpt>
      <trkpt lat="43.89976" lon="6.99837">
        <ele>748.04321289062</ele>
        <time>2012-05-13T08:07:51Z</time>
      </trkpt>
      <trkpt lat="43.89987" lon="6.99784">
        <ele>744.67822265625</ele>
        <time>2012-05-13T08:08:01Z</time>
      </trkpt>
      <trkpt lat="43.89987" lon="6.99778">
        <ele>743.71704101562</ele>
        <time>2012-05-13T08:08:03Z</time>
      </trkpt>
      <trkpt lat="43.89985" lon="6.99768">
        <ele>743.236328125</ele>
        <time>2012-05-13T08:08:06Z</time>
      </trkpt>
      <trkpt lat="43.8998" lon="6.9976">
        <ele>742.27514648438</ele>
        <time>2012-05-13T08:08:09Z</time>
      </trkpt>
      <trkpt lat="43.89978" lon="6.99758">
        <ele>741.31372070312</ele>
        <time>2012-05-13T08:08:15Z</time>
      </trkpt>
      <trkpt lat="43.89976" lon="6.99743">
        <ele>742.27514648438</ele>
        <time>2012-05-13T08:08:24Z</time>
      </trkpt>
      <trkpt lat="43.89983" lon="6.99732">
        <ele>743.71704101562</ele>
        <time>2012-05-13T08:08:37Z</time>
      </trkpt>
      <trkpt lat="43.90003" lon="6.99716">
        <ele>741.79443359375</ele>
        <time>2012-05-13T08:08:53Z</time>
      </trkpt>
      <trkpt lat="43.90011" lon="6.99709">
        <ele>740.8330078125</ele>
        <time>2012-05-13T08:08:55Z</time>
      </trkpt>
      <trkpt lat="43.90021" lon="6.99695">
        <ele>738.91064453125</ele>
        <time>2012-05-13T08:08:58Z</time>
      </trkpt>
      <trkpt lat="43.90022" lon="6.99689">
        <ele>737.94921875</ele>
        <time>2012-05-13T08:08:59Z</time>
      </trkpt>
      <trkpt lat="43.90023" lon="6.9968">
        <ele>736.02661132812</ele>
        <time>2012-05-13T08:09:01Z</time>
      </trkpt>
      <trkpt lat="43.90025" lon="6.99663">
        <ele>733.62329101562</ele>
        <time>2012-05-13T08:09:05Z</time>
      </trkpt>
      <trkpt lat="43.90028" lon="6.99657">
        <ele>732.662109375</ele>
        <time>2012-05-13T08:09:08Z</time>
      </trkpt>
      <trkpt lat="43.90034" lon="6.99648">
        <ele>732.662109375</ele>
        <time>2012-05-13T08:09:12Z</time>
      </trkpt>
      <trkpt lat="43.90046" lon="6.99632">
        <ele>731.21997070312</ele>
        <time>2012-05-13T08:09:17Z</time>
      </trkpt>
      <trkpt lat="43.90052" lon="6.99617">
        <ele>730.7392578125</ele>
        <time>2012-05-13T08:09:20Z</time>
      </trkpt>
      <trkpt lat="43.90074" lon="6.99568">
        <ele>728.81665039062</ele>
        <time>2012-05-13T08:09:30Z</time>
      </trkpt>
      <trkpt lat="43.90083" lon="6.99523">
        <ele>730.7392578125</ele>
        <time>2012-05-13T08:09:40Z</time>
      </trkpt>
      <trkpt lat="43.90083" lon="6.99519">
        <ele>730.7392578125</ele>
        <time>2012-05-13T08:09:41Z</time>
      </trkpt>
      <trkpt lat="43.90077" lon="6.99508">
        <ele>732.662109375</ele>
        <time>2012-05-13T08:09:45Z</time>
      </trkpt>
      <trkpt lat="43.90077" lon="6.99505">
        <ele>733.62329101562</ele>
        <time>2012-05-13T08:09:49Z</time>
      </trkpt>
      <trkpt lat="43.90076" lon="6.99502">
        <ele>733.62329101562</ele>
        <time>2012-05-13T08:09:55Z</time>
      </trkpt>
      <trkpt lat="43.90076" lon="6.99497">
        <ele>734.10400390625</ele>
        <time>2012-05-13T08:10:07Z</time>
      </trkpt>
      <trkpt lat="43.90076" lon="6.99496">
        <ele>734.10400390625</ele>
        <time>2012-05-13T08:10:10Z</time>
      </trkpt>
      <trkpt lat="43.9008" lon="6.99482">
        <ele>733.142578125</ele>
        <time>2012-05-13T08:10:16Z</time>
      </trkpt>
      <trkpt lat="43.90087" lon="6.99476">
        <ele>731.70043945312</ele>
        <time>2012-05-13T08:10:19Z</time>
      </trkpt>
      <trkpt lat="43.90091" lon="6.99467">
        <ele>728.3359375</ele>
        <time>2012-05-13T08:10:21Z</time>
      </trkpt>
      <trkpt lat="43.90092" lon="6.99463">
        <ele>728.3359375</ele>
        <time>2012-05-13T08:10:22Z</time>
      </trkpt>
      <trkpt lat="43.9009" lon="6.99453">
        <ele>726.41333007812</ele>
        <time>2012-05-13T08:10:24Z</time>
      </trkpt>
      <trkpt lat="43.90087" lon="6.99448">
        <ele>725.45190429688</ele>
        <time>2012-05-13T08:10:25Z</time>
      </trkpt>
      <trkpt lat="43.90085" lon="6.99435">
        <ele>724.49072265625</ele>
        <time>2012-05-13T08:10:27Z</time>
      </trkpt>
      <trkpt lat="43.90085" lon="6.99402">
        <ele>724.01000976562</ele>
        <time>2012-05-13T08:10:33Z</time>
      </trkpt>
      <trkpt lat="43.90085" lon="6.99384">
        <ele>723.52954101562</ele>
        <time>2012-05-13T08:10:36Z</time>
      </trkpt>
      <trkpt lat="43.90082" lon="6.99361">
        <ele>720.16479492188</ele>
        <time>2012-05-13T08:10:43Z</time>
      </trkpt>
      <trkpt lat="43.90081" lon="6.99337">
        <ele>719.68432617188</ele>
        <time>2012-05-13T08:10:49Z</time>
      </trkpt>
      <trkpt lat="43.90081" lon="6.99311">
        <ele>718.2421875</ele>
        <time>2012-05-13T08:10:56Z</time>
      </trkpt>
      <trkpt lat="43.90085" lon="6.99276">
        <ele>717.28100585938</ele>
        <time>2012-05-13T08:11:03Z</time>
      </trkpt>
      <trkpt lat="43.90133" lon="6.99229">
        <ele>713.435546875</ele>
        <time>2012-05-13T08:11:11Z</time>
      </trkpt>
      <trkpt lat="43.90139" lon="6.9923">
        <ele>712.47412109375</ele>
        <time>2012-05-13T08:11:13Z</time>
      </trkpt>
      <trkpt lat="43.90148" lon="6.99231">
        <ele>711.0322265625</ele>
        <time>2012-05-13T08:11:15Z</time>
      </trkpt>
      <trkpt lat="43.90155" lon="6.99231">
        <ele>709.10961914062</ele>
        <time>2012-05-13T08:11:17Z</time>
      </trkpt>
      <trkpt lat="43.90163" lon="6.99232">
        <ele>707.18701171875</ele>
        <time>2012-05-13T08:11:19Z</time>
      </trkpt>
      <trkpt lat="43.90178" lon="6.99234">
        <ele>705.26440429688</ele>
        <time>2012-05-13T08:11:22Z</time>
      </trkpt>
      <trkpt lat="43.90184" lon="6.99235">
        <ele>704.78369140625</ele>
        <time>2012-05-13T08:11:24Z</time>
      </trkpt>
      <trkpt lat="43.90187" lon="6.99251">
        <ele>704.30322265625</ele>
        <time>2012-05-13T08:11:32Z</time>
      </trkpt>
      <trkpt lat="43.90188" lon="6.99248">
        <ele>704.78369140625</ele>
        <time>2012-05-13T08:11:44Z</time>
      </trkpt>
      <trkpt lat="43.90188" lon="6.99248">
        <ele>704.78369140625</ele>
        <time>2012-05-13T08:11:45Z</time>
      </trkpt>
      <trkpt lat="43.90184" lon="6.9926">
        <ele>704.30322265625</ele>
        <time>2012-05-13T08:11:50Z</time>
      </trkpt>
      <trkpt lat="43.90184" lon="6.9926">
        <ele>703.82250976562</ele>
        <time>2012-05-13T08:11:54Z</time>
      </trkpt>
      <trkpt lat="43.90169" lon="6.99325">
        <ele>705.7451171875</ele>
        <time>2012-05-13T08:12:07Z</time>
      </trkpt>
      <trkpt lat="43.90177" lon="6.99381">
        <ele>708.1484375</ele>
        <time>2012-05-13T08:12:23Z</time>
      </trkpt>
      <trkpt lat="43.90167" lon="6.99404">
        <ele>709.10961914062</ele>
        <time>2012-05-13T08:12:34Z</time>
      </trkpt>
      <trkpt lat="43.90153" lon="6.99422">
        <ele>709.59033203125</ele>
        <time>2012-05-13T08:12:51Z</time>
      </trkpt>
      <trkpt lat="43.90135" lon="6.99465">
        <ele>709.59033203125</ele>
        <time>2012-05-13T08:13:02Z</time>
      </trkpt>
      <trkpt lat="43.90147" lon="6.99479">
        <ele>711.51293945312</ele>
        <time>2012-05-13T08:13:07Z</time>
      </trkpt>
      <trkpt lat="43.90153" lon="6.99474">
        <ele>711.51293945312</ele>
        <time>2012-05-13T08:13:11Z</time>
      </trkpt>
      <trkpt lat="43.90177" lon="6.99478">
        <ele>712.47412109375</ele>
        <time>2012-05-13T08:13:24Z</time>
      </trkpt>
      <trkpt lat="43.90174" lon="6.99516">
        <ele>715.35815429688</ele>
        <time>2012-05-13T08:13:37Z</time>
      </trkpt>
      <trkpt lat="43.90173" lon="6.99561">
        <ele>718.72290039062</ele>
        <time>2012-05-13T08:13:53Z</time>
      </trkpt>
      <trkpt lat="43.90171" lon="6.99605">
        <ele>721.60668945312</ele>
        <time>2012-05-13T08:14:08Z</time>
      </trkpt>
      <trkpt lat="43.90147" lon="6.9961">
        <ele>722.08740234375</ele>
        <time>2012-05-13T08:14:12Z</time>
      </trkpt>
      <trkpt lat="43.90185" lon="6.99613">
        <ele>723.048828125</ele>
        <time>2012-05-13T08:14:19Z</time>
      </trkpt>
      <trkpt lat="43.90185" lon="6.99597">
        <ele>724.01000976562</ele>
        <time>2012-05-13T08:14:24Z</time>
      </trkpt>
      <trkpt lat="43.90193" lon="6.99588">
        <ele>724.49072265625</ele>
        <time>2012-05-13T08:14:29Z</time>
      </trkpt>
      <trkpt lat="43.90231" lon="6.99573">
        <ele>727.85522460938</ele>
        <time>2012-05-13T08:14:47Z</time>
      </trkpt>
      <trkpt lat="43.90244" lon="6.99615">
        <ele>729.77783203125</ele>
        <time>2012-05-13T08:15:02Z</time>
      </trkpt>
      <trkpt lat="43.90267" lon="6.99634">
        <ele>733.142578125</ele>
        <time>2012-05-13T08:15:14Z</time>
      </trkpt>
      <trkpt lat="43.90274" lon="6.99675">
        <ele>735.0654296875</ele>
        <time>2012-05-13T08:15:27Z</time>
      </trkpt>
      <trkpt lat="43.90283" lon="6.99712">
        <ele>737.46850585938</ele>
        <time>2012-05-13T08:15:40Z</time>
      </trkpt>
      <trkpt lat="43.90294" lon="6.99757">
        <ele>740.8330078125</ele>
        <time>2012-05-13T08:15:56Z</time>
      </trkpt>
      <trkpt lat="43.90306" lon="6.99801">
        <ele>743.71704101562</ele>
        <time>2012-05-13T08:16:12Z</time>
      </trkpt>
      <trkpt lat="43.90307" lon="6.99836">
        <ele>746.12036132812</ele>
        <time>2012-05-13T08:16:25Z</time>
      </trkpt>
      <trkpt lat="43.90318" lon="6.99838">
        <ele>747.56225585938</ele>
        <time>2012-05-13T08:16:33Z</time>
      </trkpt>
      <trkpt lat="43.90338" lon="6.99802">
        <ele>750.92700195312</ele>
        <time>2012-05-13T08:16:50Z</time>
      </trkpt>
      <trkpt lat="43.90356" lon="6.99744">
        <ele>753.33032226562</ele>
        <time>2012-05-13T08:17:12Z</time>
      </trkpt>
      <trkpt lat="43.90375" lon="6.9972">
        <ele>756.69482421875</ele>
        <time>2012-05-13T08:17:26Z</time>
      </trkpt>
      <trkpt lat="43.90401" lon="6.99711">
        <ele>759.09814453125</ele>
        <time>2012-05-13T08:17:40Z</time>
      </trkpt>
      <trkpt lat="43.90395" lon="6.99675">
        <ele>761.50146484375</ele>
        <time>2012-05-13T08:17:54Z</time>
      </trkpt>
      <trkpt lat="43.90381" lon="6.99633">
        <ele>764.38549804688</ele>
        <time>2012-05-13T08:18:11Z</time>
      </trkpt>
      <trkpt lat="43.9037" lon="6.9961">
        <ele>766.30810546875</ele>
        <time>2012-05-13T08:18:21Z</time>
      </trkpt>
      <trkpt lat="43.9038" lon="6.99606">
        <ele>767.26953125</ele>
        <time>2012-05-13T08:18:27Z</time>
      </trkpt>
      <trkpt lat="43.9041" lon="6.99643">
        <ele>770.1533203125</ele>
        <time>2012-05-13T08:18:47Z</time>
      </trkpt>
      <trkpt lat="43.90437" lon="6.99682">
        <ele>773.51806640625</ele>
        <time>2012-05-13T08:19:06Z</time>
      </trkpt>
      <trkpt lat="43.90441" lon="6.99725">
        <ele>775.4404296875</ele>
        <time>2012-05-13T08:19:21Z</time>
      </trkpt>
      <trkpt lat="43.90455" lon="6.99772">
        <ele>777.84375</ele>
        <time>2012-05-13T08:19:38Z</time>
      </trkpt>
      <trkpt lat="43.90461" lon="6.99797">
        <ele>779.76635742188</ele>
        <time>2012-05-13T08:19:47Z</time>
      </trkpt>
      <trkpt lat="43.90469" lon="6.99833">
        <ele>782.65063476562</ele>
        <time>2012-05-13T08:20:03Z</time>
      </trkpt>
      <trkpt lat="43.90485" lon="6.99821">
        <ele>784.5732421875</ele>
        <time>2012-05-13T08:20:13Z</time>
      </trkpt>
      <trkpt lat="43.90492" lon="6.99828">
        <ele>784.5732421875</ele>
        <time>2012-05-13T08:20:17Z</time>
      </trkpt>
      <trkpt lat="43.90503" lon="6.99866">
        <ele>786.01513671875</ele>
        <time>2012-05-13T08:20:33Z</time>
      </trkpt>
      <trkpt lat="43.90524" lon="6.99888">
        <ele>789.8603515625</ele>
        <time>2012-05-13T08:20:48Z</time>
      </trkpt>
      <trkpt lat="43.90553" lon="6.99896">
        <ele>792.263671875</ele>
        <time>2012-05-13T08:21:04Z</time>
      </trkpt>
      <trkpt lat="43.90587" lon="6.99899">
        <ele>795.1474609375</ele>
        <time>2012-05-13T08:21:21Z</time>
      </trkpt>
      <trkpt lat="43.90614" lon="6.99907">
        <ele>798.51220703125</ele>
        <time>2012-05-13T08:21:36Z</time>
      </trkpt>
      <trkpt lat="43.90644" lon="6.99914">
        <ele>800.91552734375</ele>
        <time>2012-05-13T08:21:51Z</time>
      </trkpt>
      <trkpt lat="43.90669" lon="6.99893">
        <ele>802.83813476562</ele>
        <time>2012-05-13T08:22:06Z</time>
      </trkpt>
      <trkpt lat="43.90673" lon="6.9989">
        <ele>803.31884765625</ele>
        <time>2012-05-13T08:22:08Z</time>
      </trkpt>
      <trkpt lat="43.90686" lon="6.99897">
        <ele>803.79956054688</ele>
        <time>2012-05-13T08:22:15Z</time>
      </trkpt>
      <trkpt lat="43.90698" lon="6.99933">
        <ele>807.1640625</ele>
        <time>2012-05-13T08:22:30Z</time>
      </trkpt>
      <trkpt lat="43.90735" lon="6.99949">
        <ele>810.0478515625</ele>
        <time>2012-05-13T08:22:49Z</time>
      </trkpt>
      <trkpt lat="43.90771" lon="6.99946">
        <ele>812.93212890625</ele>
        <time>2012-05-13T08:23:06Z</time>
      </trkpt>
      <trkpt lat="43.90805" lon="6.99942">
        <ele>816.29663085938</ele>
        <time>2012-05-13T08:23:23Z</time>
      </trkpt>
      <trkpt lat="43.90818" lon="6.99917">
        <ele>818.21923828125</ele>
        <time>2012-05-13T08:23:35Z</time>
      </trkpt>
      <trkpt lat="43.90828" lon="6.99916">
        <ele>818.69995117188</ele>
        <time>2012-05-13T08:23:40Z</time>
      </trkpt>
      <trkpt lat="43.90831" lon="6.99918">
        <ele>819.66137695312</ele>
        <time>2012-05-13T08:23:42Z</time>
      </trkpt>
      <trkpt lat="43.90841" lon="6.99916">
        <ele>820.14184570312</ele>
        <time>2012-05-13T08:23:47Z</time>
      </trkpt>
      <trkpt lat="43.90846" lon="6.99912">
        <ele>820.62255859375</ele>
        <time>2012-05-13T08:23:50Z</time>
      </trkpt>
      <trkpt lat="43.90855" lon="6.99916">
        <ele>820.62255859375</ele>
        <time>2012-05-13T08:23:54Z</time>
      </trkpt>
      <trkpt lat="43.90885" lon="6.99929">
        <ele>823.50659179688</ele>
        <time>2012-05-13T08:24:10Z</time>
      </trkpt>
      <trkpt lat="43.90916" lon="6.99938">
        <ele>826.87109375</ele>
        <time>2012-05-13T08:24:26Z</time>
      </trkpt>
      <trkpt lat="43.90953" lon="6.99955">
        <ele>829.75512695312</ele>
        <time>2012-05-13T08:24:45Z</time>
      </trkpt>
      <trkpt lat="43.90979" lon="6.9997">
        <ele>832.63916015625</ele>
        <time>2012-05-13T08:25:00Z</time>
      </trkpt>
      <trkpt lat="43.9101" lon="6.99964">
        <ele>835.52294921875</ele>
        <time>2012-05-13T08:25:17Z</time>
      </trkpt>
      <trkpt lat="43.91026" lon="6.99959">
        <ele>836.96484375</ele>
        <time>2012-05-13T08:25:25Z</time>
      </trkpt>
      <trkpt lat="43.91062" lon="6.99959">
        <ele>839.84887695312</ele>
        <time>2012-05-13T08:25:42Z</time>
      </trkpt>
      <trkpt lat="43.91086" lon="6.99976">
        <ele>842.73291015625</ele>
        <time>2012-05-13T08:25:56Z</time>
      </trkpt>
      <trkpt lat="43.91115" lon="7">
        <ele>844.17504882812</ele>
        <time>2012-05-13T08:26:13Z</time>
      </trkpt>
      <trkpt lat="43.91143" lon="7.00024">
        <ele>847.53955078125</ele>
        <time>2012-05-13T08:26:30Z</time>
      </trkpt>
      <trkpt lat="43.91172" lon="7.00023">
        <ele>850.42358398438</ele>
        <time>2012-05-13T08:26:45Z</time>
      </trkpt>
      <trkpt lat="43.91184" lon="7.00024">
        <ele>851.384765625</ele>
        <time>2012-05-13T08:26:51Z</time>
      </trkpt>
      <trkpt lat="43.9119" lon="7.00028">
        <ele>852.34594726562</ele>
        <time>2012-05-13T08:26:55Z</time>
      </trkpt>
      <trkpt lat="43.91224" lon="7.00019">
        <ele>855.71069335938</ele>
        <time>2012-05-13T08:27:13Z</time>
      </trkpt>
      <trkpt lat="43.9126" lon="6.99997">
        <ele>858.59448242188</ele>
        <time>2012-05-13T08:27:32Z</time>
      </trkpt>
      <trkpt lat="43.91301" lon="7.00004">
        <ele>860.998046875</ele>
        <time>2012-05-13T08:27:50Z</time>
      </trkpt>
      <trkpt lat="43.91315" lon="6.9998">
        <ele>864.36254882812</ele>
        <time>2012-05-13T08:28:03Z</time>
      </trkpt>
      <trkpt lat="43.91328" lon="6.99947">
        <ele>867.24658203125</ele>
        <time>2012-05-13T08:28:19Z</time>
      </trkpt>
      <trkpt lat="43.91348" lon="6.9992">
        <ele>870.61108398438</ele>
        <time>2012-05-13T08:28:36Z</time>
      </trkpt>
      <trkpt lat="43.91373" lon="6.99884">
        <ele>873.4951171875</ele>
        <time>2012-05-13T08:28:56Z</time>
      </trkpt>
      <trkpt lat="43.91382" lon="6.99854">
        <ele>875.41748046875</ele>
        <time>2012-05-13T08:29:09Z</time>
      </trkpt>
      <trkpt lat="43.91391" lon="6.99863">
        <ele>877.34057617188</ele>
        <time>2012-05-13T08:29:19Z</time>
      </trkpt>
      <trkpt lat="43.9139" lon="6.99866">
        <ele>877.82104492188</ele>
        <time>2012-05-13T08:29:20Z</time>
      </trkpt>
      <trkpt lat="43.91373" lon="6.99914">
        <ele>881.18579101562</ele>
        <time>2012-05-13T08:29:40Z</time>
      </trkpt>
      <trkpt lat="43.91363" lon="6.99963">
        <ele>883.5888671875</ele>
        <time>2012-05-13T08:29:57Z</time>
      </trkpt>
      <trkpt lat="43.91367" lon="7.00003">
        <ele>886.95336914062</ele>
        <time>2012-05-13T08:30:13Z</time>
      </trkpt>
      <trkpt lat="43.91362" lon="7.00035">
        <ele>890.31811523438</ele>
        <time>2012-05-13T08:30:27Z</time>
      </trkpt>
      <trkpt lat="43.91365" lon="7.00062">
        <ele>893.2021484375</ele>
        <time>2012-05-13T08:30:39Z</time>
      </trkpt>
      <trkpt lat="43.91388" lon="7.00083">
        <ele>897.04736328125</ele>
        <time>2012-05-13T08:30:55Z</time>
      </trkpt>
      <trkpt lat="43.91405" lon="7.00115">
        <ele>900.412109375</ele>
        <time>2012-05-13T08:31:13Z</time>
      </trkpt>
      <trkpt lat="43.91414" lon="7.00129">
        <ele>901.37329101562</ele>
        <time>2012-05-13T08:31:21Z</time>
      </trkpt>
      <trkpt lat="43.91428" lon="7.00155">
        <ele>905.21850585938</ele>
        <time>2012-05-13T08:31:36Z</time>
      </trkpt>
      <trkpt lat="43.91442" lon="7.00185">
        <ele>908.58325195312</ele>
        <time>2012-05-13T08:31:52Z</time>
      </trkpt>
      <trkpt lat="43.91459" lon="7.00203">
        <ele>911.46728515625</ele>
        <time>2012-05-13T08:32:06Z</time>
      </trkpt>
      <trkpt lat="43.91479" lon="7.00218">
        <ele>914.35107421875</ele>
        <time>2012-05-13T08:32:21Z</time>
      </trkpt>
      <trkpt lat="43.91499" lon="7.00234">
        <ele>917.71557617188</ele>
        <time>2012-05-13T08:32:36Z</time>
      </trkpt>
      <trkpt lat="43.91516" lon="7.00254">
        <ele>921.08032226562</ele>
        <time>2012-05-13T08:32:51Z</time>
      </trkpt>
      <trkpt lat="43.91532" lon="7.00261">
        <ele>923.96411132812</ele>
        <time>2012-05-13T08:33:02Z</time>
      </trkpt>
      <trkpt lat="43.91561" lon="7.00272">
        <ele>926.84838867188</ele>
        <time>2012-05-13T08:33:20Z</time>
      </trkpt>
      <trkpt lat="43.91581" lon="7.00264">
        <ele>930.212890625</ele>
        <time>2012-05-13T08:33:34Z</time>
      </trkpt>
      <trkpt lat="43.91606" lon="7.00262">
        <ele>933.57739257812</ele>
        <time>2012-05-13T08:33:51Z</time>
      </trkpt>
      <trkpt lat="43.91624" lon="7.00287">
        <ele>936.94189453125</ele>
        <time>2012-05-13T08:34:07Z</time>
      </trkpt>
      <trkpt lat="43.91627" lon="7.00292">
        <ele>937.42260742188</ele>
        <time>2012-05-13T08:34:10Z</time>
      </trkpt>
      <trkpt lat="43.91649" lon="7.00302">
        <ele>941.26806640625</ele>
        <time>2012-05-13T08:34:25Z</time>
      </trkpt>
      <trkpt lat="43.91684" lon="7.00305">
        <ele>944.15209960938</ele>
        <time>2012-05-13T08:34:46Z</time>
      </trkpt>
      <trkpt lat="43.91719" lon="7.00294">
        <ele>946.55541992188</ele>
        <time>2012-05-13T08:35:05Z</time>
      </trkpt>
      <trkpt lat="43.9176" lon="7.00303">
        <ele>948.95849609375</ele>
        <time>2012-05-13T08:35:26Z</time>
      </trkpt>
      <trkpt lat="43.91766" lon="7.00303">
        <ele>948.95849609375</ele>
        <time>2012-05-13T08:35:29Z</time>
      </trkpt>
      <trkpt lat="43.91767" lon="7.00315">
        <ele>949.919921875</ele>
        <time>2012-05-13T08:35:36Z</time>
      </trkpt>
      <trkpt lat="43.91735" lon="7.00321">
        <ele>953.28442382812</ele>
        <time>2012-05-13T08:35:53Z</time>
      </trkpt>
      <trkpt lat="43.91731" lon="7.00351">
        <ele>955.20703125</ele>
        <time>2012-05-13T08:36:06Z</time>
      </trkpt>
      <trkpt lat="43.91733" lon="7.00361">
        <ele>956.16845703125</ele>
        <time>2012-05-13T08:36:10Z</time>
      </trkpt>
      <trkpt lat="43.91732" lon="7.00368">
        <ele>956.16845703125</ele>
        <time>2012-05-13T08:36:13Z</time>
      </trkpt>
      <trkpt lat="43.91714" lon="7.00401">
        <ele>959.533203125</ele>
        <time>2012-05-13T08:36:28Z</time>
      </trkpt>
      <trkpt lat="43.91701" lon="7.0043">
        <ele>961.9365234375</ele>
        <time>2012-05-13T08:36:41Z</time>
      </trkpt>
      <trkpt lat="43.91683" lon="7.00469">
        <ele>964.33959960938</ele>
        <time>2012-05-13T08:36:59Z</time>
      </trkpt>
      <trkpt lat="43.91665" lon="7.00497">
        <ele>967.7041015625</ele>
        <time>2012-05-13T08:37:14Z</time>
      </trkpt>
      <trkpt lat="43.91647" lon="7.00541">
        <ele>971.06884765625</ele>
        <time>2012-05-13T08:37:33Z</time>
      </trkpt>
      <trkpt lat="43.91636" lon="7.00585">
        <ele>974.43359375</ele>
        <time>2012-05-13T08:37:51Z</time>
      </trkpt>
      <trkpt lat="43.91628" lon="7.0063">
        <ele>977.31762695312</ele>
        <time>2012-05-13T08:38:09Z</time>
      </trkpt>
      <trkpt lat="43.91621" lon="7.00669">
        <ele>980.20141601562</ele>
        <time>2012-05-13T08:38:25Z</time>
      </trkpt>
      <trkpt lat="43.91619" lon="7.00714">
        <ele>982.60473632812</ele>
        <time>2012-05-13T08:38:42Z</time>
      </trkpt>
      <trkpt lat="43.91616" lon="7.00721">
        <ele>983.56591796875</ele>
        <time>2012-05-13T08:38:45Z</time>
      </trkpt>
      <trkpt lat="43.91615" lon="7.00733">
        <ele>984.04663085938</ele>
        <time>2012-05-13T08:38:49Z</time>
      </trkpt>
      <trkpt lat="43.91623" lon="7.00798">
        <ele>985.48852539062</ele>
        <time>2012-05-13T08:39:09Z</time>
      </trkpt>
      <trkpt lat="43.91637" lon="7.0083">
        <ele>988.853515625</ele>
        <time>2012-05-13T08:39:24Z</time>
      </trkpt>
      <trkpt lat="43.91657" lon="7.00867">
        <ele>991.7373046875</ele>
        <time>2012-05-13T08:39:41Z</time>
      </trkpt>
      <trkpt lat="43.91678" lon="7.00898">
        <ele>994.62109375</ele>
        <time>2012-05-13T08:39:56Z</time>
      </trkpt>
      <trkpt lat="43.91698" lon="7.00934">
        <ele>997.98583984375</ele>
        <time>2012-05-13T08:40:13Z</time>
      </trkpt>
      <trkpt lat="43.91714" lon="7.00962">
        <ele>1000.8696289062</ele>
        <time>2012-05-13T08:40:27Z</time>
      </trkpt>
      <trkpt lat="43.91715" lon="7.00964">
        <ele>1000.8696289062</ele>
        <time>2012-05-13T08:40:28Z</time>
      </trkpt>
      <trkpt lat="43.91717" lon="7.00969">
        <ele>1000.8696289062</ele>
        <time>2012-05-13T08:40:30Z</time>
      </trkpt>
      <trkpt lat="43.91716" lon="7.00985">
        <ele>1001.3503417969</ele>
        <time>2012-05-13T08:40:35Z</time>
      </trkpt>
      <trkpt lat="43.91716" lon="7.00995">
        <ele>1001.8310546875</ele>
        <time>2012-05-13T08:40:39Z</time>
      </trkpt>
      <trkpt lat="43.91711" lon="7.0104">
        <ele>1005.6765136719</ele>
        <time>2012-05-13T08:40:56Z</time>
      </trkpt>
      <trkpt lat="43.91711" lon="7.01047">
        <ele>1006.6376953125</ele>
        <time>2012-05-13T08:40:59Z</time>
      </trkpt>
      <trkpt lat="43.91717" lon="7.0107">
        <ele>1008.5603027344</ele>
        <time>2012-05-13T08:41:09Z</time>
      </trkpt>
      <trkpt lat="43.91701" lon="7.01127">
        <ele>1010.0021972656</ele>
        <time>2012-05-13T08:41:27Z</time>
      </trkpt>
      <trkpt lat="43.9168" lon="7.01192">
        <ele>1009.5217285156</ele>
        <time>2012-05-13T08:41:40Z</time>
      </trkpt>
      <trkpt lat="43.9167" lon="7.01233">
        <ele>1012.4055175781</ele>
        <time>2012-05-13T08:41:53Z</time>
      </trkpt>
      <trkpt lat="43.91645" lon="7.01246">
        <ele>1015.2895507812</ele>
        <time>2012-05-13T08:42:08Z</time>
      </trkpt>
      <trkpt lat="43.91639" lon="7.01253">
        <ele>1015.7702636719</ele>
        <time>2012-05-13T08:42:12Z</time>
      </trkpt>
      <trkpt lat="43.91642" lon="7.01263">
        <ele>1017.2121582031</ele>
        <time>2012-05-13T08:42:18Z</time>
      </trkpt>
      <trkpt lat="43.91659" lon="7.01283">
        <ele>1020.5769042969</ele>
        <time>2012-05-13T08:42:32Z</time>
      </trkpt>
      <trkpt lat="43.91675" lon="7.01308">
        <ele>1023.94140625</ele>
        <time>2012-05-13T08:42:48Z</time>
      </trkpt>
      <trkpt lat="43.91679" lon="7.0131">
        <ele>1023.4609375</ele>
        <time>2012-05-13T08:42:50Z</time>
      </trkpt>
      <trkpt lat="43.91688" lon="7.01312">
        <ele>1024.9028320312</ele>
        <time>2012-05-13T08:42:56Z</time>
      </trkpt>
      <trkpt lat="43.91685" lon="7.01324">
        <ele>1026.3447265625</ele>
        <time>2012-05-13T08:43:03Z</time>
      </trkpt>
      <trkpt lat="43.91659" lon="7.01349">
        <ele>1028.748046875</ele>
        <time>2012-05-13T08:43:21Z</time>
      </trkpt>
      <trkpt lat="43.91669" lon="7.01389">
        <ele>1031.1513671875</ele>
        <time>2012-05-13T08:43:38Z</time>
      </trkpt>
      <trkpt lat="43.9167" lon="7.01422">
        <ele>1034.03515625</ele>
        <time>2012-05-13T08:43:53Z</time>
      </trkpt>
      <trkpt lat="43.91665" lon="7.0146">
        <ele>1037.3999023438</ele>
        <time>2012-05-13T08:44:09Z</time>
      </trkpt>
      <trkpt lat="43.91664" lon="7.01471">
        <ele>1038.361328125</ele>
        <time>2012-05-13T08:44:14Z</time>
      </trkpt>
      <trkpt lat="43.91667" lon="7.01517">
        <ele>1042.2065429688</ele>
        <time>2012-05-13T08:44:34Z</time>
      </trkpt>
      <trkpt lat="43.91663" lon="7.01557">
        <ele>1045.0903320312</ele>
        <time>2012-05-13T08:44:51Z</time>
      </trkpt>
      <trkpt lat="43.91673" lon="7.01562">
        <ele>1046.0517578125</ele>
        <time>2012-05-13T08:45:00Z</time>
      </trkpt>
      <trkpt lat="43.91687" lon="7.01522">
        <ele>1049.4162597656</ele>
        <time>2012-05-13T08:45:18Z</time>
      </trkpt>
      <trkpt lat="43.91697" lon="7.01476">
        <ele>1052.3002929688</ele>
        <time>2012-05-13T08:45:37Z</time>
      </trkpt>
      <trkpt lat="43.91714" lon="7.01438">
        <ele>1055.6650390625</ele>
        <time>2012-05-13T08:45:55Z</time>
      </trkpt>
      <trkpt lat="43.91726" lon="7.01399">
        <ele>1059.0295410156</ele>
        <time>2012-05-13T08:46:12Z</time>
      </trkpt>
      <trkpt lat="43.91737" lon="7.01381">
        <ele>1061.4328613281</ele>
        <time>2012-05-13T08:46:22Z</time>
      </trkpt>
      <trkpt lat="43.91744" lon="7.01382">
        <ele>1061.4328613281</ele>
        <time>2012-05-13T08:46:35Z</time>
      </trkpt>
      <trkpt lat="43.91745" lon="7.01382">
        <ele>1062.3940429688</ele>
        <time>2012-05-13T08:46:54Z</time>
      </trkpt>
      <trkpt lat="43.91745" lon="7.01381">
        <ele>1062.3940429688</ele>
        <time>2012-05-13T08:47:25Z</time>
      </trkpt>
      <trkpt lat="43.91744" lon="7.01383">
        <ele>1062.3940429688</ele>
        <time>2012-05-13T08:47:46Z</time>
      </trkpt>
      <trkpt lat="43.91743" lon="7.01383">
        <ele>1061.9135742188</ele>
        <time>2012-05-13T08:48:08Z</time>
      </trkpt>
      <trkpt lat="43.91744" lon="7.01384">
        <ele>1062.3940429688</ele>
        <time>2012-05-13T08:48:45Z</time>
      </trkpt>
      <trkpt lat="43.91743" lon="7.01381">
        <ele>1061.9135742188</ele>
        <time>2012-05-13T08:49:10Z</time>
      </trkpt>
      <trkpt lat="43.91745" lon="7.01378">
        <ele>1062.8747558594</ele>
        <time>2012-05-13T08:49:29Z</time>
      </trkpt>
      <trkpt lat="43.91744" lon="7.01379">
        <ele>1062.8747558594</ele>
        <time>2012-05-13T08:49:41Z</time>
      </trkpt>
      <trkpt lat="43.91728" lon="7.01413">
        <ele>1061.9135742188</ele>
        <time>2012-05-13T08:49:54Z</time>
      </trkpt>
      <trkpt lat="43.917" lon="7.01514">
        <ele>1060.9521484375</ele>
        <time>2012-05-13T08:50:13Z</time>
      </trkpt>
      <trkpt lat="43.91666" lon="7.01612">
        <ele>1059.0295410156</ele>
        <time>2012-05-13T08:50:29Z</time>
      </trkpt>
      <trkpt lat="43.91656" lon="7.01627">
        <ele>1059.0295410156</ele>
        <time>2012-05-13T08:50:32Z</time>
      </trkpt>
      <trkpt lat="43.91618" lon="7.01662">
        <ele>1058.068359375</ele>
        <time>2012-05-13T08:50:41Z</time>
      </trkpt>
      <trkpt lat="43.91592" lon="7.01698">
        <ele>1057.1069335938</ele>
        <time>2012-05-13T08:50:48Z</time>
      </trkpt>
      <trkpt lat="43.91568" lon="7.01746">
        <ele>1057.1069335938</ele>
        <time>2012-05-13T08:50:56Z</time>
      </trkpt>
      <trkpt lat="43.91559" lon="7.01766">
        <ele>1056.6262207031</ele>
        <time>2012-05-13T08:51:00Z</time>
      </trkpt>
      <trkpt lat="43.9155" lon="7.01762">
        <ele>1055.6650390625</ele>
        <time>2012-05-13T08:51:03Z</time>
      </trkpt>
      <trkpt lat="43.91532" lon="7.0175">
        <ele>1054.2231445312</ele>
        <time>2012-05-13T08:51:07Z</time>
      </trkpt>
      <trkpt lat="43.91508" lon="7.01714">
        <ele>1051.3388671875</ele>
        <time>2012-05-13T08:51:13Z</time>
      </trkpt>
      <trkpt lat="43.915" lon="7.01697">
        <ele>1050.3776855469</ele>
        <time>2012-05-13T08:51:16Z</time>
      </trkpt>
      <trkpt lat="43.91487" lon="7.01679">
        <ele>1047.0129394531</ele>
        <time>2012-05-13T08:51:20Z</time>
      </trkpt>
      <trkpt lat="43.91484" lon="7.01676">
        <ele>1047.0129394531</ele>
        <time>2012-05-13T08:51:21Z</time>
      </trkpt>
      <trkpt lat="43.91478" lon="7.01669">
        <ele>1046.5324707031</ele>
        <time>2012-05-13T08:51:23Z</time>
      </trkpt>
      <trkpt lat="43.91474" lon="7.01665">
        <ele>1045.5710449219</ele>
        <time>2012-05-13T08:51:25Z</time>
      </trkpt>
      <trkpt lat="43.91469" lon="7.01662">
        <ele>1043.1677246094</ele>
        <time>2012-05-13T08:51:29Z</time>
      </trkpt>
      <trkpt lat="43.91467" lon="7.01653">
        <ele>1041.2451171875</ele>
        <time>2012-05-13T08:51:33Z</time>
      </trkpt>
      <trkpt lat="43.91469" lon="7.01651">
        <ele>1040.2839355469</ele>
        <time>2012-05-13T08:51:35Z</time>
      </trkpt>
      <trkpt lat="43.91467" lon="7.01648">
        <ele>1039.3225097656</ele>
        <time>2012-05-13T08:51:41Z</time>
      </trkpt>
      <trkpt lat="43.9146" lon="7.01647">
        <ele>1036.9191894531</ele>
        <time>2012-05-13T08:51:44Z</time>
      </trkpt>
      <trkpt lat="43.91452" lon="7.01652">
        <ele>1034.9965820312</ele>
        <time>2012-05-13T08:51:47Z</time>
      </trkpt>
      <trkpt lat="43.91441" lon="7.01663">
        <ele>1033.5544433594</ele>
        <time>2012-05-13T08:51:51Z</time>
      </trkpt>
      <trkpt lat="43.9142" lon="7.01694">
        <ele>1029.7092285156</ele>
        <time>2012-05-13T08:51:59Z</time>
      </trkpt>
      <trkpt lat="43.91408" lon="7.01706">
        <ele>1026.3447265625</ele>
        <time>2012-05-13T08:52:04Z</time>
      </trkpt>
      <trkpt lat="43.91405" lon="7.01709">
        <ele>1026.3447265625</ele>
        <time>2012-05-13T08:52:05Z</time>
      </trkpt>
      <trkpt lat="43.91401" lon="7.01716">
        <ele>1025.3833007812</ele>
        <time>2012-05-13T08:52:07Z</time>
      </trkpt>
      <trkpt lat="43.91393" lon="7.01735">
        <ele>1022.4995117188</ele>
        <time>2012-05-13T08:52:12Z</time>
      </trkpt>
      <trkpt lat="43.91389" lon="7.01747">
        <ele>1021.0576171875</ele>
        <time>2012-05-13T08:52:16Z</time>
      </trkpt>
      <trkpt lat="43.91388" lon="7.01751">
        <ele>1019.6154785156</ele>
        <time>2012-05-13T08:52:19Z</time>
      </trkpt>
      <trkpt lat="43.91381" lon="7.01765">
        <ele>1017.2121582031</ele>
        <time>2012-05-13T08:52:28Z</time>
      </trkpt>
      <trkpt lat="43.9138" lon="7.0176">
        <ele>1016.2507324219</ele>
        <time>2012-05-13T08:52:33Z</time>
      </trkpt>
      <trkpt lat="43.91375" lon="7.01768">
        <ele>1015.2895507812</ele>
        <time>2012-05-13T08:52:37Z</time>
      </trkpt>
      <trkpt lat="43.91367" lon="7.01782">
        <ele>1012.4055175781</ele>
        <time>2012-05-13T08:52:42Z</time>
      </trkpt>
      <trkpt lat="43.91359" lon="7.01796">
        <ele>1009.5217285156</ele>
        <time>2012-05-13T08:52:47Z</time>
      </trkpt>
      <trkpt lat="43.91356" lon="7.01801">
        <ele>1008.5603027344</ele>
        <time>2012-05-13T08:52:49Z</time>
      </trkpt>
      <trkpt lat="43.91355" lon="7.01807">
        <ele>1008.0798339844</ele>
        <time>2012-05-13T08:52:51Z</time>
      </trkpt>
      <trkpt lat="43.9135" lon="7.01806">
        <ele>1005.1958007812</ele>
        <time>2012-05-13T08:52:55Z</time>
      </trkpt>
      <trkpt lat="43.91345" lon="7.01786">
        <ele>1004.2346191406</ele>
        <time>2012-05-13T08:53:00Z</time>
      </trkpt>
      <trkpt lat="43.91346" lon="7.01773">
        <ele>1002.3115234375</ele>
        <time>2012-05-13T08:53:03Z</time>
      </trkpt>
      <trkpt lat="43.91358" lon="7.01715">
        <ele>998.94702148438</ele>
        <time>2012-05-13T08:53:15Z</time>
      </trkpt>
      <trkpt lat="43.91354" lon="7.01713">
        <ele>997.50512695312</ele>
        <time>2012-05-13T08:53:19Z</time>
      </trkpt>
      <trkpt lat="43.91346" lon="7.01725">
        <ele>995.10180664062</ele>
        <time>2012-05-13T08:53:23Z</time>
      </trkpt>
      <trkpt lat="43.91343" lon="7.01727">
        <ele>994.62109375</ele>
        <time>2012-05-13T08:53:24Z</time>
      </trkpt>
      <trkpt lat="43.91339" lon="7.01728">
        <ele>993.17919921875</ele>
        <time>2012-05-13T08:53:26Z</time>
      </trkpt>
      <trkpt lat="43.91337" lon="7.01728">
        <ele>992.21801757812</ele>
        <time>2012-05-13T08:53:27Z</time>
      </trkpt>
      <trkpt lat="43.9133" lon="7.01734">
        <ele>990.29541015625</ele>
        <time>2012-05-13T08:53:30Z</time>
      </trkpt>
      <trkpt lat="43.91325" lon="7.01744">
        <ele>987.89184570312</ele>
        <time>2012-05-13T08:53:33Z</time>
      </trkpt>
      <trkpt lat="43.91319" lon="7.01752">
        <ele>984.52734375</ele>
        <time>2012-05-13T08:53:43Z</time>
      </trkpt>
      <trkpt lat="43.91318" lon="7.01754">
        <ele>984.04663085938</ele>
        <time>2012-05-13T08:53:45Z</time>
      </trkpt>
      <trkpt lat="43.91316" lon="7.01755">
        <ele>983.08520507812</ele>
        <time>2012-05-13T08:53:47Z</time>
      </trkpt>
      <trkpt lat="43.91316" lon="7.01756">
        <ele>982.1240234375</ele>
        <time>2012-05-13T08:53:52Z</time>
      </trkpt>
      <trkpt lat="43.91311" lon="7.01757">
        <ele>981.64331054688</ele>
        <time>2012-05-13T08:53:59Z</time>
      </trkpt>
      <trkpt lat="43.91307" lon="7.01762">
        <ele>979.720703125</ele>
        <time>2012-05-13T08:54:05Z</time>
      </trkpt>
      <trkpt lat="43.91309" lon="7.01765">
        <ele>978.27880859375</ele>
        <time>2012-05-13T08:54:09Z</time>
      </trkpt>
      <trkpt lat="43.91306" lon="7.01767">
        <ele>976.8369140625</ele>
        <time>2012-05-13T08:54:16Z</time>
      </trkpt>
      <trkpt lat="43.91303" lon="7.01766">
        <ele>977.31762695312</ele>
        <time>2012-05-13T08:54:19Z</time>
      </trkpt>
      <trkpt lat="43.91293" lon="7.01773">
        <ele>974.91430664062</ele>
        <time>2012-05-13T08:54:24Z</time>
      </trkpt>
      <trkpt lat="43.91287" lon="7.01769">
        <ele>972.0302734375</ele>
        <time>2012-05-13T08:54:33Z</time>
      </trkpt>
      <trkpt lat="43.91284" lon="7.01758">
        <ele>971.54931640625</ele>
        <time>2012-05-13T08:54:37Z</time>
      </trkpt>
      <trkpt lat="43.9128" lon="7.01762">
        <ele>969.626953125</ele>
        <time>2012-05-13T08:54:43Z</time>
      </trkpt>
      <trkpt lat="43.91276" lon="7.01771">
        <ele>967.7041015625</ele>
        <time>2012-05-13T08:54:47Z</time>
      </trkpt>
      <trkpt lat="43.91272" lon="7.01767">
        <ele>966.26220703125</ele>
        <time>2012-05-13T08:54:49Z</time>
      </trkpt>
      <trkpt lat="43.91262" lon="7.01757">
        <ele>963.37841796875</ele>
        <time>2012-05-13T08:54:54Z</time>
      </trkpt>
      <trkpt lat="43.91255" lon="7.01747">
        <ele>961.45581054688</ele>
        <time>2012-05-13T08:54:58Z</time>
      </trkpt>
      <trkpt lat="43.91251" lon="7.01749">
        <ele>959.05249023438</ele>
        <time>2012-05-13T08:55:01Z</time>
      </trkpt>
      <trkpt lat="43.91249" lon="7.01749">
        <ele>958.57177734375</ele>
        <time>2012-05-13T08:55:10Z</time>
      </trkpt>
      <trkpt lat="43.91252" lon="7.01747">
        <ele>958.57177734375</ele>
        <time>2012-05-13T08:55:18Z</time>
      </trkpt>
      <trkpt lat="43.91247" lon="7.01751">
        <ele>957.61059570312</ele>
        <time>2012-05-13T08:55:26Z</time>
      </trkpt>
      <trkpt lat="43.91242" lon="7.01754">
        <ele>955.68774414062</ele>
        <time>2012-05-13T08:55:30Z</time>
      </trkpt>
      <trkpt lat="43.91244" lon="7.01764">
        <ele>954.24584960938</ele>
        <time>2012-05-13T08:55:35Z</time>
      </trkpt>
      <trkpt lat="43.91244" lon="7.01768">
        <ele>952.8037109375</ele>
        <time>2012-05-13T08:55:38Z</time>
      </trkpt>
      <trkpt lat="43.91238" lon="7.01777">
        <ele>950.40063476562</ele>
        <time>2012-05-13T08:55:45Z</time>
      </trkpt>
      <trkpt lat="43.91237" lon="7.01777">
        <ele>949.919921875</ele>
        <time>2012-05-13T08:55:46Z</time>
      </trkpt>
      <trkpt lat="43.91225" lon="7.01776">
        <ele>947.5166015625</ele>
        <time>2012-05-13T08:55:52Z</time>
      </trkpt>
      <trkpt lat="43.91215" lon="7.01785">
        <ele>945.11328125</ele>
        <time>2012-05-13T08:55:57Z</time>
      </trkpt>
      <trkpt lat="43.91211" lon="7.01789">
        <ele>944.15209960938</ele>
        <time>2012-05-13T08:55:59Z</time>
      </trkpt>
      <trkpt lat="43.912" lon="7.01785">
        <ele>941.74877929688</ele>
        <time>2012-05-13T08:56:05Z</time>
      </trkpt>
      <trkpt lat="43.91195" lon="7.01797">
        <ele>939.34521484375</ele>
        <time>2012-05-13T08:56:11Z</time>
      </trkpt>
      <trkpt lat="43.91196" lon="7.01804">
        <ele>936.94189453125</ele>
        <time>2012-05-13T08:56:14Z</time>
      </trkpt>
      <trkpt lat="43.91202" lon="7.01807">
        <ele>936.46142578125</ele>
        <time>2012-05-13T08:56:17Z</time>
      </trkpt>
      <trkpt lat="43.91203" lon="7.01817">
        <ele>935.01953125</ele>
        <time>2012-05-13T08:56:22Z</time>
      </trkpt>
      <trkpt lat="43.91202" lon="7.01818">
        <ele>934.53881835938</ele>
        <time>2012-05-13T08:56:23Z</time>
      </trkpt>
      <trkpt lat="43.91187" lon="7.01808">
        <ele>934.05810546875</ele>
        <time>2012-05-13T08:56:31Z</time>
      </trkpt>
      <trkpt lat="43.9118" lon="7.01808">
        <ele>932.13549804688</ele>
        <time>2012-05-13T08:56:36Z</time>
      </trkpt>
      <trkpt lat="43.91182" lon="7.01813">
        <ele>930.212890625</ele>
        <time>2012-05-13T08:56:39Z</time>
      </trkpt>
      <trkpt lat="43.91184" lon="7.01816">
        <ele>929.73217773438</ele>
        <time>2012-05-13T08:56:41Z</time>
      </trkpt>
      <trkpt lat="43.91191" lon="7.01851">
        <ele>926.84838867188</ele>
        <time>2012-05-13T08:56:52Z</time>
      </trkpt>
      <trkpt lat="43.9119" lon="7.01855">
        <ele>925.88696289062</ele>
        <time>2012-05-13T08:56:57Z</time>
      </trkpt>
      <trkpt lat="43.91189" lon="7.01855">
        <ele>924.92578125</ele>
        <time>2012-05-13T08:57:09Z</time>
      </trkpt>
      <trkpt lat="43.91182" lon="7.0185">
        <ele>925.88696289062</ele>
        <time>2012-05-13T08:57:16Z</time>
      </trkpt>
      <trkpt lat="43.91172" lon="7.01841">
        <ele>926.84838867188</ele>
        <time>2012-05-13T08:57:30Z</time>
      </trkpt>
      <trkpt lat="43.91168" lon="7.01838">
        <ele>926.84838867188</ele>
        <time>2012-05-13T08:57:33Z</time>
      </trkpt>
      <trkpt lat="43.91148" lon="7.01824">
        <ele>926.36767578125</ele>
        <time>2012-05-13T08:57:43Z</time>
      </trkpt>
      <trkpt lat="43.91139" lon="7.01827">
        <ele>927.3291015625</ele>
        <time>2012-05-13T08:57:48Z</time>
      </trkpt>
      <trkpt lat="43.9112" lon="7.01825">
        <ele>929.73217773438</ele>
        <time>2012-05-13T08:57:57Z</time>
      </trkpt>
      <trkpt lat="43.91117" lon="7.01823">
        <ele>930.212890625</ele>
        <time>2012-05-13T08:58:01Z</time>
      </trkpt>
      <trkpt lat="43.91107" lon="7.0182">
        <ele>930.69360351562</ele>
        <time>2012-05-13T08:58:12Z</time>
      </trkpt>
      <trkpt lat="43.91093" lon="7.01826">
        <ele>934.05810546875</ele>
        <time>2012-05-13T08:58:28Z</time>
      </trkpt>
      <trkpt lat="43.91093" lon="7.01826">
        <ele>933.57739257812</ele>
        <time>2012-05-13T08:58:30Z</time>
      </trkpt>
      <trkpt lat="43.91077" lon="7.01828">
        <ele>933.0966796875</ele>
        <time>2012-05-13T08:58:37Z</time>
      </trkpt>
      <trkpt lat="43.91072" lon="7.01829">
        <ele>932.13549804688</ele>
        <time>2012-05-13T08:58:39Z</time>
      </trkpt>
      <trkpt lat="43.91068" lon="7.0183">
        <ele>930.69360351562</ele>
        <time>2012-05-13T08:58:41Z</time>
      </trkpt>
      <trkpt lat="43.9106" lon="7.01835">
        <ele>929.25146484375</ele>
        <time>2012-05-13T08:58:43Z</time>
      </trkpt>
      <trkpt lat="43.91029" lon="7.01834">
        <ele>927.8095703125</ele>
        <time>2012-05-13T08:58:53Z</time>
      </trkpt>
      <trkpt lat="43.91018" lon="7.01833">
        <ele>928.29028320312</ele>
        <time>2012-05-13T08:58:58Z</time>
      </trkpt>
      <trkpt lat="43.90984" lon="7.01819">
        <ele>926.36767578125</ele>
        <time>2012-05-13T08:59:08Z</time>
      </trkpt>
      <trkpt lat="43.9098" lon="7.01817">
        <ele>924.92578125</ele>
        <time>2012-05-13T08:59:09Z</time>
      </trkpt>
      <trkpt lat="43.90976" lon="7.01815">
        <ele>923.96411132812</ele>
        <time>2012-05-13T08:59:11Z</time>
      </trkpt>
      <trkpt lat="43.90953" lon="7.01811">
        <ele>920.11889648438</ele>
        <time>2012-05-13T08:59:17Z</time>
      </trkpt>
      <trkpt lat="43.9095" lon="7.01811">
        <ele>920.11889648438</ele>
        <time>2012-05-13T08:59:18Z</time>
      </trkpt>
      <trkpt lat="43.90944" lon="7.01813">
        <ele>919.15771484375</ele>
        <time>2012-05-13T08:59:19Z</time>
      </trkpt>
      <trkpt lat="43.9093" lon="7.01821">
        <ele>917.23510742188</ele>
        <time>2012-05-13T08:59:22Z</time>
      </trkpt>
      <trkpt lat="43.90915" lon="7.01829">
        <ele>913.38989257812</ele>
        <time>2012-05-13T08:59:25Z</time>
      </trkpt>
      <trkpt lat="43.90893" lon="7.0184">
        <ele>910.98657226562</ele>
        <time>2012-05-13T08:59:29Z</time>
      </trkpt>
      <trkpt lat="43.90878" lon="7.01839">
        <ele>908.58325195312</ele>
        <time>2012-05-13T08:59:32Z</time>
      </trkpt>
      <trkpt lat="43.9086" lon="7.01838">
        <ele>906.66040039062</ele>
        <time>2012-05-13T08:59:36Z</time>
      </trkpt>
      <trkpt lat="43.90846" lon="7.01838">
        <ele>905.69921875</ele>
        <time>2012-05-13T08:59:41Z</time>
      </trkpt>
      <trkpt lat="43.90835" lon="7.01837">
        <ele>906.1796875</ele>
        <time>2012-05-13T08:59:45Z</time>
      </trkpt>
      <trkpt lat="43.9083" lon="7.01835">
        <ele>903.2958984375</ele>
        <time>2012-05-13T08:59:48Z</time>
      </trkpt>
      <trkpt lat="43.90819" lon="7.01831">
        <ele>903.77661132812</ele>
        <time>2012-05-13T08:59:52Z</time>
      </trkpt>
      <trkpt lat="43.908" lon="7.01811">
        <ele>904.25732421875</ele>
        <time>2012-05-13T09:00:01Z</time>
      </trkpt>
      <trkpt lat="43.90783" lon="7.01803">
        <ele>904.25732421875</ele>
        <time>2012-05-13T09:00:07Z</time>
      </trkpt>
      <trkpt lat="43.90777" lon="7.01802">
        <ele>903.77661132812</ele>
        <time>2012-05-13T09:00:09Z</time>
      </trkpt>
      <trkpt lat="43.9075" lon="7.01802">
        <ele>902.33447265625</ele>
        <time>2012-05-13T09:00:16Z</time>
      </trkpt>
      <trkpt lat="43.90746" lon="7.01776">
        <ele>899.93139648438</ele>
        <time>2012-05-13T09:00:22Z</time>
      </trkpt>
      <trkpt lat="43.90742" lon="7.01768">
        <ele>898.4892578125</ele>
        <time>2012-05-13T09:00:25Z</time>
      </trkpt>
      <trkpt lat="43.90737" lon="7.01762">
        <ele>896.56689453125</ele>
        <time>2012-05-13T09:00:35Z</time>
      </trkpt>
      <trkpt lat="43.90719" lon="7.01775">
        <ele>894.16357421875</ele>
        <time>2012-05-13T09:00:47Z</time>
      </trkpt>
      <trkpt lat="43.90701" lon="7.01783">
        <ele>891.279296875</ele>
        <time>2012-05-13T09:00:57Z</time>
      </trkpt>
      <trkpt lat="43.90687" lon="7.01806">
        <ele>890.31811523438</ele>
        <time>2012-05-13T09:01:09Z</time>
      </trkpt>
      <trkpt lat="43.90679" lon="7.01813">
        <ele>888.3955078125</ele>
        <time>2012-05-13T09:01:21Z</time>
      </trkpt>
      <trkpt lat="43.90675" lon="7.01817">
        <ele>887.43408203125</ele>
        <time>2012-05-13T09:01:23Z</time>
      </trkpt>
      <trkpt lat="43.90648" lon="7.01838">
        <ele>883.5888671875</ele>
        <time>2012-05-13T09:01:33Z</time>
      </trkpt>
      <trkpt lat="43.90645" lon="7.0184">
        <ele>883.5888671875</ele>
        <time>2012-05-13T09:01:34Z</time>
      </trkpt>
      <trkpt lat="43.90636" lon="7.01845">
        <ele>882.14697265625</ele>
        <time>2012-05-13T09:01:37Z</time>
      </trkpt>
      <trkpt lat="43.90614" lon="7.01857">
        <ele>878.3017578125</ele>
        <time>2012-05-13T09:01:44Z</time>
      </trkpt>
      <trkpt lat="43.9061" lon="7.01859">
        <ele>878.78247070312</ele>
        <time>2012-05-13T09:01:46Z</time>
      </trkpt>
      <trkpt lat="43.90605" lon="7.01859">
        <ele>877.34057617188</ele>
        <time>2012-05-13T09:01:48Z</time>
      </trkpt>
      <trkpt lat="43.906" lon="7.01859">
        <ele>875.41748046875</ele>
        <time>2012-05-13T09:01:51Z</time>
      </trkpt>
      <trkpt lat="43.90597" lon="7.0186">
        <ele>874.45629882812</ele>
        <time>2012-05-13T09:01:53Z</time>
      </trkpt>
      <trkpt lat="43.90592" lon="7.01862">
        <ele>873.01440429688</ele>
        <time>2012-05-13T09:01:55Z</time>
      </trkpt>
      <trkpt lat="43.9058" lon="7.01856">
        <ele>869.16918945312</ele>
        <time>2012-05-13T09:02:00Z</time>
      </trkpt>
      <trkpt lat="43.90567" lon="7.01856">
        <ele>868.6884765625</ele>
        <time>2012-05-13T09:02:06Z</time>
      </trkpt>
      <trkpt lat="43.90553" lon="7.01854">
        <ele>868.6884765625</ele>
        <time>2012-05-13T09:02:10Z</time>
      </trkpt>
      <trkpt lat="43.9052" lon="7.01882">
        <ele>867.72705078125</ele>
        <time>2012-05-13T09:02:16Z</time>
      </trkpt>
      <trkpt lat="43.90503" lon="7.01878">
        <ele>866.76586914062</ele>
        <time>2012-05-13T09:02:21Z</time>
      </trkpt>
      <trkpt lat="43.90486" lon="7.01883">
        <ele>863.8818359375</ele>
        <time>2012-05-13T09:02:30Z</time>
      </trkpt>
      <trkpt lat="43.90481" lon="7.01883">
        <ele>862.43994140625</ele>
        <time>2012-05-13T09:02:32Z</time>
      </trkpt>
      <trkpt lat="43.90479" lon="7.01881">
        <ele>860.998046875</ele>
        <time>2012-05-13T09:02:34Z</time>
      </trkpt>
      <trkpt lat="43.90477" lon="7.01888">
        <ele>860.03662109375</ele>
        <time>2012-05-13T09:02:36Z</time>
      </trkpt>
      <trkpt lat="43.90467" lon="7.01892">
        <ele>858.59448242188</ele>
        <time>2012-05-13T09:02:40Z</time>
      </trkpt>
      <trkpt lat="43.90456" lon="7.01893">
        <ele>856.671875</ele>
        <time>2012-05-13T09:02:44Z</time>
      </trkpt>
      <trkpt lat="43.90444" lon="7.01897">
        <ele>854.26879882812</ele>
        <time>2012-05-13T09:02:48Z</time>
      </trkpt>
      <trkpt lat="43.9043" lon="7.01907">
        <ele>851.86547851562</ele>
        <time>2012-05-13T09:02:51Z</time>
      </trkpt>
      <trkpt lat="43.90423" lon="7.01913">
        <ele>850.42358398438</ele>
        <time>2012-05-13T09:02:53Z</time>
      </trkpt>
      <trkpt lat="43.90377" lon="7.01937">
        <ele>848.02026367188</ele>
        <time>2012-05-13T09:03:03Z</time>
      </trkpt>
      <trkpt lat="43.90358" lon="7.01952">
        <ele>846.09765625</ele>
        <time>2012-05-13T09:03:07Z</time>
      </trkpt>
      <trkpt lat="43.90328" lon="7.01958">
        <ele>840.81005859375</ele>
        <time>2012-05-13T09:03:13Z</time>
      </trkpt>
      <trkpt lat="43.90325" lon="7.01958">
        <ele>840.81005859375</ele>
        <time>2012-05-13T09:03:14Z</time>
      </trkpt>
      <trkpt lat="43.90315" lon="7.01961">
        <ele>838.8876953125</ele>
        <time>2012-05-13T09:03:16Z</time>
      </trkpt>
      <trkpt lat="43.90306" lon="7.01961">
        <ele>837.44555664062</ele>
        <time>2012-05-13T09:03:18Z</time>
      </trkpt>
      <trkpt lat="43.90293" lon="7.01965">
        <ele>835.04248046875</ele>
        <time>2012-05-13T09:03:21Z</time>
      </trkpt>
      <trkpt lat="43.90289" lon="7.01971">
        <ele>833.60034179688</ele>
        <time>2012-05-13T09:03:22Z</time>
      </trkpt>
      <trkpt lat="43.90283" lon="7.01979">
        <ele>832.63916015625</ele>
        <time>2012-05-13T09:03:24Z</time>
      </trkpt>
      <trkpt lat="43.90273" lon="7.01987">
        <ele>829.2744140625</ele>
        <time>2012-05-13T09:03:27Z</time>
      </trkpt>
      <trkpt lat="43.90269" lon="7.01988">
        <ele>829.2744140625</ele>
        <time>2012-05-13T09:03:28Z</time>
      </trkpt>
      <trkpt lat="43.90263" lon="7.01989">
        <ele>827.35180664062</ele>
        <time>2012-05-13T09:03:30Z</time>
      </trkpt>
      <trkpt lat="43.90257" lon="7.01991">
        <ele>825.90966796875</ele>
        <time>2012-05-13T09:03:32Z</time>
      </trkpt>
      <trkpt lat="43.9025" lon="7.01992">
        <ele>822.54516601562</ele>
        <time>2012-05-13T09:03:34Z</time>
      </trkpt>
      <trkpt lat="43.90248" lon="7.01992">
        <ele>822.54516601562</ele>
        <time>2012-05-13T09:03:35Z</time>
      </trkpt>
      <trkpt lat="43.90246" lon="7.01986">
        <ele>820.14184570312</ele>
        <time>2012-05-13T09:03:37Z</time>
      </trkpt>
      <trkpt lat="43.90226" lon="7.01996">
        <ele>816.77734375</ele>
        <time>2012-05-13T09:03:42Z</time>
      </trkpt>
      <trkpt lat="43.90219" lon="7.02001">
        <ele>815.33544921875</ele>
        <time>2012-05-13T09:03:44Z</time>
      </trkpt>
      <trkpt lat="43.90195" lon="7.01975">
        <ele>813.89331054688</ele>
        <time>2012-05-13T09:03:46Z</time>
      </trkpt>
      <trkpt lat="43.90192" lon="7.01979">
        <ele>811.970703125</ele>
        <time>2012-05-13T09:03:47Z</time>
      </trkpt>
      <trkpt lat="43.90186" lon="7.01987">
        <ele>809.08666992188</ele>
        <time>2012-05-13T09:03:49Z</time>
      </trkpt>
      <trkpt lat="43.90183" lon="7.01991">
        <ele>807.1640625</ele>
        <time>2012-05-13T09:03:50Z</time>
      </trkpt>
      <trkpt lat="43.90177" lon="7.01999">
        <ele>805.72216796875</ele>
        <time>2012-05-13T09:03:53Z</time>
      </trkpt>
      <trkpt lat="43.90172" lon="7.02004">
        <ele>803.79956054688</ele>
        <time>2012-05-13T09:03:55Z</time>
      </trkpt>
      <trkpt lat="43.9017" lon="7.02005">
        <ele>802.357421875</ele>
        <time>2012-05-13T09:03:56Z</time>
      </trkpt>
      <trkpt lat="43.90164" lon="7.02009">
        <ele>800.43505859375</ele>
        <time>2012-05-13T09:03:59Z</time>
      </trkpt>
      <trkpt lat="43.90164" lon="7.02016">
        <ele>798.51220703125</ele>
        <time>2012-05-13T09:04:02Z</time>
      </trkpt>
      <trkpt lat="43.90147" lon="7.02006">
        <ele>796.58984375</ele>
        <time>2012-05-13T09:04:05Z</time>
      </trkpt>
      <trkpt lat="43.90141" lon="7.02012">
        <ele>795.1474609375</ele>
        <time>2012-05-13T09:04:07Z</time>
      </trkpt>
      <trkpt lat="43.9012" lon="7.02026">
        <ele>793.22485351562</ele>
        <time>2012-05-13T09:04:14Z</time>
      </trkpt>
      <trkpt lat="43.90106" lon="7.02029">
        <ele>791.30224609375</ele>
        <time>2012-05-13T09:04:18Z</time>
      </trkpt>
      <trkpt lat="43.90093" lon="7.02033">
        <ele>789.37963867188</ele>
        <time>2012-05-13T09:04:21Z</time>
      </trkpt>
      <trkpt lat="43.90084" lon="7.02035">
        <ele>787.93774414062</ele>
        <time>2012-05-13T09:04:23Z</time>
      </trkpt>
      <trkpt lat="43.90074" lon="7.02037">
        <ele>785.53442382812</ele>
        <time>2012-05-13T09:04:26Z</time>
      </trkpt>
      <trkpt lat="43.90071" lon="7.02038">
        <ele>784.5732421875</ele>
        <time>2012-05-13T09:04:27Z</time>
      </trkpt>
      <trkpt lat="43.90066" lon="7.02039">
        <ele>783.13110351562</ele>
        <time>2012-05-13T09:04:30Z</time>
      </trkpt>
      <trkpt lat="43.90063" lon="7.02007">
        <ele>782.65063476562</ele>
        <time>2012-05-13T09:04:33Z</time>
      </trkpt>
      <trkpt lat="43.90061" lon="7.01962">
        <ele>779.76635742188</ele>
        <time>2012-05-13T09:04:42Z</time>
      </trkpt>
      <trkpt lat="43.90062" lon="7.01948">
        <ele>778.80517578125</ele>
        <time>2012-05-13T09:04:53Z</time>
      </trkpt>
      <trkpt lat="43.90062" lon="7.01947">
        <ele>778.80517578125</ele>
        <time>2012-05-13T09:04:56Z</time>
      </trkpt>
      <trkpt lat="43.90057" lon="7.01941">
        <ele>780.72802734375</ele>
        <time>2012-05-13T09:05:08Z</time>
      </trkpt>
      <trkpt lat="43.90056" lon="7.01939">
        <ele>781.68920898438</ele>
        <time>2012-05-13T09:05:10Z</time>
      </trkpt>
      <trkpt lat="43.90052" lon="7.01929">
        <ele>783.13110351562</ele>
        <time>2012-05-13T09:05:18Z</time>
      </trkpt>
      <trkpt lat="43.9005" lon="7.01925">
        <ele>783.61181640625</ele>
        <time>2012-05-13T09:05:21Z</time>
      </trkpt>
      <trkpt lat="43.90041" lon="7.01913">
        <ele>786.49584960938</ele>
        <time>2012-05-13T09:05:35Z</time>
      </trkpt>
      <trkpt lat="43.90034" lon="7.01907">
        <ele>788.41845703125</ele>
        <time>2012-05-13T09:05:49Z</time>
      </trkpt>
      <trkpt lat="43.90017" lon="7.01896">
        <ele>788.89916992188</ele>
        <time>2012-05-13T09:05:59Z</time>
      </trkpt>
      <trkpt lat="43.90012" lon="7.0189">
        <ele>789.37963867188</ele>
        <time>2012-05-13T09:06:03Z</time>
      </trkpt>
      <trkpt lat="43.89994" lon="7.0188">
        <ele>792.74438476562</ele>
        <time>2012-05-13T09:06:15Z</time>
      </trkpt>
      <trkpt lat="43.89986" lon="7.01874">
        <ele>794.18627929688</ele>
        <time>2012-05-13T09:06:21Z</time>
      </trkpt>
      <trkpt lat="43.89983" lon="7.01872">
        <ele>795.62817382812</ele>
        <time>2012-05-13T09:06:23Z</time>
      </trkpt>
      <trkpt lat="43.89981" lon="7.01869">
        <ele>796.10913085938</ele>
        <time>2012-05-13T09:06:25Z</time>
      </trkpt>
      <trkpt lat="43.89971" lon="7.01864">
        <ele>797.55102539062</ele>
        <time>2012-05-13T09:06:32Z</time>
      </trkpt>
      <trkpt lat="43.89965" lon="7.01854">
        <ele>798.99291992188</ele>
        <time>2012-05-13T09:06:38Z</time>
      </trkpt>
      <trkpt lat="43.89958" lon="7.01847">
        <ele>800.43505859375</ele>
        <time>2012-05-13T09:06:44Z</time>
      </trkpt>
      <trkpt lat="43.89952" lon="7.01833">
        <ele>798.99291992188</ele>
        <time>2012-05-13T09:06:52Z</time>
      </trkpt>
      <trkpt lat="43.89951" lon="7.0183">
        <ele>798.51220703125</ele>
        <time>2012-05-13T09:06:59Z</time>
      </trkpt>
      <trkpt lat="43.89953" lon="7.01816">
        <ele>797.55102539062</ele>
        <time>2012-05-13T09:07:09Z</time>
      </trkpt>
      <trkpt lat="43.89951" lon="7.01817">
        <ele>797.55102539062</ele>
        <time>2012-05-13T09:07:43Z</time>
      </trkpt>
      <trkpt lat="43.89938" lon="7.01848">
        <ele>798.51220703125</ele>
        <time>2012-05-13T09:07:58Z</time>
      </trkpt>
      <trkpt lat="43.89938" lon="7.01855">
        <ele>798.99291992188</ele>
        <time>2012-05-13T09:08:09Z</time>
      </trkpt>
      <trkpt lat="43.89937" lon="7.01869">
        <ele>797.55102539062</ele>
        <time>2012-05-13T09:08:13Z</time>
      </trkpt>
      <trkpt lat="43.89936" lon="7.01877">
        <ele>796.10913085938</ele>
        <time>2012-05-13T09:08:15Z</time>
      </trkpt>
      <trkpt lat="43.89938" lon="7.01882">
        <ele>794.66674804688</ele>
        <time>2012-05-13T09:08:17Z</time>
      </trkpt>
      <trkpt lat="43.89938" lon="7.01888">
        <ele>792.74438476562</ele>
        <time>2012-05-13T09:08:19Z</time>
      </trkpt>
      <trkpt lat="43.89931" lon="7.01887">
        <ele>790.34106445312</ele>
        <time>2012-05-13T09:08:22Z</time>
      </trkpt>
      <trkpt lat="43.89916" lon="7.0188">
        <ele>788.41845703125</ele>
        <time>2012-05-13T09:08:26Z</time>
      </trkpt>
      <trkpt lat="43.89913" lon="7.01879">
        <ele>786.97631835938</ele>
        <time>2012-05-13T09:08:27Z</time>
      </trkpt>
      <trkpt lat="43.89905" lon="7.01881">
        <ele>785.53442382812</ele>
        <time>2012-05-13T09:08:29Z</time>
      </trkpt>
      <trkpt lat="43.8989" lon="7.01886">
        <ele>784.09252929688</ele>
        <time>2012-05-13T09:08:33Z</time>
      </trkpt>
      <trkpt lat="43.89881" lon="7.01891">
        <ele>782.169921875</ele>
        <time>2012-05-13T09:08:36Z</time>
      </trkpt>
      <trkpt lat="43.89857" lon="7.0189">
        <ele>777.84375</ele>
        <time>2012-05-13T09:08:42Z</time>
      </trkpt>
      <trkpt lat="43.89853" lon="7.01891">
        <ele>777.84375</ele>
        <time>2012-05-13T09:08:43Z</time>
      </trkpt>
      <trkpt lat="43.89833" lon="7.01902">
        <ele>774.47924804688</ele>
        <time>2012-05-13T09:08:49Z</time>
      </trkpt>
      <trkpt lat="43.89829" lon="7.01904">
        <ele>774.47924804688</ele>
        <time>2012-05-13T09:08:50Z</time>
      </trkpt>
      <trkpt lat="43.89821" lon="7.01909">
        <ele>773.03735351562</ele>
        <time>2012-05-13T09:08:52Z</time>
      </trkpt>
      <trkpt lat="43.89807" lon="7.01921">
        <ele>769.6728515625</ele>
        <time>2012-05-13T09:08:56Z</time>
      </trkpt>
      <trkpt lat="43.89803" lon="7.01924">
        <ele>769.6728515625</ele>
        <time>2012-05-13T09:08:57Z</time>
      </trkpt>
      <trkpt lat="43.89795" lon="7.01929">
        <ele>768.23071289062</ele>
        <time>2012-05-13T09:08:59Z</time>
      </trkpt>
      <trkpt lat="43.89758" lon="7.01942">
        <ele>766.30810546875</ele>
        <time>2012-05-13T09:09:09Z</time>
      </trkpt>
      <trkpt lat="43.89729" lon="7.01945">
        <ele>767.26953125</ele>
        <time>2012-05-13T09:09:18Z</time>
      </trkpt>
      <trkpt lat="43.89724" lon="7.01945">
        <ele>767.75</ele>
        <time>2012-05-13T09:09:22Z</time>
      </trkpt>
      <trkpt lat="43.89704" lon="7.01944">
        <ele>771.11474609375</ele>
        <time>2012-05-13T09:09:31Z</time>
      </trkpt>
      <trkpt lat="43.89697" lon="7.01942">
        <ele>771.59521484375</ele>
        <time>2012-05-13T09:09:35Z</time>
      </trkpt>
      <trkpt lat="43.89673" lon="7.01936">
        <ele>771.59521484375</ele>
        <time>2012-05-13T09:09:44Z</time>
      </trkpt>
      <trkpt lat="43.89643" lon="7.01929">
        <ele>770.63403320312</ele>
        <time>2012-05-13T09:09:52Z</time>
      </trkpt>
      <trkpt lat="43.89615" lon="7.01925">
        <ele>770.63403320312</ele>
        <time>2012-05-13T09:09:59Z</time>
      </trkpt>
      <trkpt lat="43.89599" lon="7.01922">
        <ele>771.59521484375</ele>
        <time>2012-05-13T09:10:04Z</time>
      </trkpt>
      <trkpt lat="43.89588" lon="7.0192">
        <ele>773.03735351562</ele>
        <time>2012-05-13T09:10:09Z</time>
      </trkpt>
      <trkpt lat="43.89571" lon="7.01914">
        <ele>774.9599609375</ele>
        <time>2012-05-13T09:10:19Z</time>
      </trkpt>
      <trkpt lat="43.89554" lon="7.01909">
        <ele>776.40185546875</ele>
        <time>2012-05-13T09:10:28Z</time>
      </trkpt>
      <trkpt lat="43.89547" lon="7.01907">
        <ele>777.36328125</ele>
        <time>2012-05-13T09:10:32Z</time>
      </trkpt>
      <trkpt lat="43.8954" lon="7.01901">
        <ele>778.80517578125</ele>
        <time>2012-05-13T09:10:39Z</time>
      </trkpt>
      <trkpt lat="43.8954" lon="7.01891">
        <ele>779.28564453125</ele>
        <time>2012-05-13T09:10:51Z</time>
      </trkpt>
      <trkpt lat="43.8954" lon="7.01891">
        <ele>779.76635742188</ele>
        <time>2012-05-13T09:11:27Z</time>
      </trkpt>
      <trkpt lat="43.89521" lon="7.01822">
        <ele>780.24731445312</ele>
        <time>2012-05-13T09:11:41Z</time>
      </trkpt>
      <trkpt lat="43.89518" lon="7.01811">
        <ele>779.76635742188</ele>
        <time>2012-05-13T09:11:43Z</time>
      </trkpt>
      <trkpt lat="43.89509" lon="7.01767">
        <ele>777.36328125</ele>
        <time>2012-05-13T09:11:50Z</time>
      </trkpt>
      <trkpt lat="43.89507" lon="7.01755">
        <ele>775.92114257812</ele>
        <time>2012-05-13T09:11:52Z</time>
      </trkpt>
      <trkpt lat="43.89506" lon="7.01748">
        <ele>774.9599609375</ele>
        <time>2012-05-13T09:11:54Z</time>
      </trkpt>
      <trkpt lat="43.89505" lon="7.01741">
        <ele>773.99853515625</ele>
        <time>2012-05-13T09:11:56Z</time>
      </trkpt>
      <trkpt lat="43.89504" lon="7.01727">
        <ele>772.07592773438</ele>
        <time>2012-05-13T09:11:59Z</time>
      </trkpt>
      <trkpt lat="43.89507" lon="7.0171">
        <ele>770.1533203125</ele>
        <time>2012-05-13T09:12:02Z</time>
      </trkpt>
      <trkpt lat="43.89508" lon="7.01703">
        <ele>768.23071289062</ele>
        <time>2012-05-13T09:12:03Z</time>
      </trkpt>
      <trkpt lat="43.89508" lon="7.0168">
        <ele>766.30810546875</ele>
        <time>2012-05-13T09:12:06Z</time>
      </trkpt>
      <trkpt lat="43.89507" lon="7.01654">
        <ele>762.46264648438</ele>
        <time>2012-05-13T09:12:09Z</time>
      </trkpt>
      <trkpt lat="43.89504" lon="7.01644">
        <ele>761.50146484375</ele>
        <time>2012-05-13T09:12:11Z</time>
      </trkpt>
      <trkpt lat="43.89495" lon="7.01619">
        <ele>758.13696289062</ele>
        <time>2012-05-13T09:12:16Z</time>
      </trkpt>
      <trkpt lat="43.89487" lon="7.01607">
        <ele>757.65625</ele>
        <time>2012-05-13T09:12:19Z</time>
      </trkpt>
      <trkpt lat="43.89488" lon="7.01586">
        <ele>758.13696289062</ele>
        <time>2012-05-13T09:12:24Z</time>
      </trkpt>
      <trkpt lat="43.89488" lon="7.01569">
        <ele>756.69482421875</ele>
        <time>2012-05-13T09:12:27Z</time>
      </trkpt>
      <trkpt lat="43.89482" lon="7.01554">
        <ele>754.77221679688</ele>
        <time>2012-05-13T09:12:30Z</time>
      </trkpt>
      <trkpt lat="43.89477" lon="7.01546">
        <ele>753.81103515625</ele>
        <time>2012-05-13T09:12:32Z</time>
      </trkpt>
      <trkpt lat="43.89462" lon="7.01525">
        <ele>750.92700195312</ele>
        <time>2012-05-13T09:12:37Z</time>
      </trkpt>
      <trkpt lat="43.89454" lon="7.01517">
        <ele>749.9658203125</ele>
        <time>2012-05-13T09:12:39Z</time>
      </trkpt>
      <trkpt lat="43.89439" lon="7.01503">
        <ele>749.48510742188</ele>
        <time>2012-05-13T09:12:43Z</time>
      </trkpt>
      <trkpt lat="43.89425" lon="7.01492">
        <ele>747.56225585938</ele>
        <time>2012-05-13T09:12:46Z</time>
      </trkpt>
      <trkpt lat="43.89401" lon="7.01479">
        <ele>746.12036132812</ele>
        <time>2012-05-13T09:12:51Z</time>
      </trkpt>
      <trkpt lat="43.89392" lon="7.01477">
        <ele>745.15893554688</ele>
        <time>2012-05-13T09:12:53Z</time>
      </trkpt>
      <trkpt lat="43.89388" lon="7.01476">
        <ele>744.19775390625</ele>
        <time>2012-05-13T09:12:55Z</time>
      </trkpt>
      <trkpt lat="43.89381" lon="7.01475">
        <ele>742.27514648438</ele>
        <time>2012-05-13T09:12:58Z</time>
      </trkpt>
      <trkpt lat="43.89377" lon="7.01474">
        <ele>741.31372070312</ele>
        <time>2012-05-13T09:13:00Z</time>
      </trkpt>
      <trkpt lat="43.89356" lon="7.01473">
        <ele>737.46850585938</ele>
        <time>2012-05-13T09:13:06Z</time>
      </trkpt>
      <trkpt lat="43.89348" lon="7.01476">
        <ele>737.46850585938</ele>
        <time>2012-05-13T09:13:07Z</time>
      </trkpt>
      <trkpt lat="43.89343" lon="7.01479">
        <ele>736.02661132812</ele>
        <time>2012-05-13T09:13:08Z</time>
      </trkpt>
      <trkpt lat="43.89335" lon="7.01495">
        <ele>735.0654296875</ele>
        <time>2012-05-13T09:13:11Z</time>
      </trkpt>
      <trkpt lat="43.89325" lon="7.01504">
        <ele>732.18139648438</ele>
        <time>2012-05-13T09:13:14Z</time>
      </trkpt>
      <trkpt lat="43.89319" lon="7.01484">
        <ele>729.29711914062</ele>
        <time>2012-05-13T09:13:19Z</time>
      </trkpt>
      <trkpt lat="43.89319" lon="7.0147">
        <ele>727.85522460938</ele>
        <time>2012-05-13T09:13:23Z</time>
      </trkpt>
      <trkpt lat="43.89319" lon="7.01465">
        <ele>726.41333007812</ele>
        <time>2012-05-13T09:13:25Z</time>
      </trkpt>
      <trkpt lat="43.89309" lon="7.01461">
        <ele>724.01000976562</ele>
        <time>2012-05-13T09:13:30Z</time>
      </trkpt>
      <trkpt lat="43.89307" lon="7.01461">
        <ele>723.52954101562</ele>
        <time>2012-05-13T09:13:31Z</time>
      </trkpt>
      <trkpt lat="43.89306" lon="7.01464">
        <ele>722.56811523438</ele>
        <time>2012-05-13T09:13:34Z</time>
      </trkpt>
      <trkpt lat="43.893" lon="7.01468">
        <ele>720.16479492188</ele>
        <time>2012-05-13T09:13:38Z</time>
      </trkpt>
      <trkpt lat="43.89297" lon="7.0147">
        <ele>719.68432617188</ele>
        <time>2012-05-13T09:13:40Z</time>
      </trkpt>
      <trkpt lat="43.89288" lon="7.01467">
        <ele>718.2421875</ele>
        <time>2012-05-13T09:13:44Z</time>
      </trkpt>
      <trkpt lat="43.89286" lon="7.01462">
        <ele>717.28100585938</ele>
        <time>2012-05-13T09:13:46Z</time>
      </trkpt>
      <trkpt lat="43.89284" lon="7.0146">
        <ele>716.31958007812</ele>
        <time>2012-05-13T09:13:48Z</time>
      </trkpt>
      <trkpt lat="43.89283" lon="7.01452">
        <ele>714.39672851562</ele>
        <time>2012-05-13T09:13:52Z</time>
      </trkpt>
      <trkpt lat="43.89282" lon="7.01448">
        <ele>713.435546875</ele>
        <time>2012-05-13T09:14:01Z</time>
      </trkpt>
      <trkpt lat="43.89275" lon="7.01456">
        <ele>711.99365234375</ele>
        <time>2012-05-13T09:14:07Z</time>
      </trkpt>
      <trkpt lat="43.89274" lon="7.01454">
        <ele>711.51293945312</ele>
        <time>2012-05-13T09:14:09Z</time>
      </trkpt>
      <trkpt lat="43.89276" lon="7.01433">
        <ele>709.10961914062</ele>
        <time>2012-05-13T09:14:19Z</time>
      </trkpt>
      <trkpt lat="43.89273" lon="7.01435">
        <ele>707.66772460938</ele>
        <time>2012-05-13T09:14:22Z</time>
      </trkpt>
      <trkpt lat="43.89267" lon="7.01438">
        <ele>707.18701171875</ele>
        <time>2012-05-13T09:14:25Z</time>
      </trkpt>
      <trkpt lat="43.8926" lon="7.01456">
        <ele>703.341796875</ele>
        <time>2012-05-13T09:14:31Z</time>
      </trkpt>
      <trkpt lat="43.89249" lon="7.01475">
        <ele>699.49633789062</ele>
        <time>2012-05-13T09:14:38Z</time>
      </trkpt>
      <trkpt lat="43.89247" lon="7.01478">
        <ele>699.49633789062</ele>
        <time>2012-05-13T09:14:39Z</time>
      </trkpt>
      <trkpt lat="43.89246" lon="7.01481">
        <ele>698.53491210938</ele>
        <time>2012-05-13T09:14:40Z</time>
      </trkpt>
      <trkpt lat="43.89241" lon="7.01482">
        <ele>697.09301757812</ele>
        <time>2012-05-13T09:14:42Z</time>
      </trkpt>
      <trkpt lat="43.89236" lon="7.0148">
        <ele>696.1318359375</ele>
        <time>2012-05-13T09:14:44Z</time>
      </trkpt>
      <trkpt lat="43.89231" lon="7.01465">
        <ele>694.20922851562</ele>
        <time>2012-05-13T09:14:48Z</time>
      </trkpt>
      <trkpt lat="43.8923" lon="7.01451">
        <ele>691.3251953125</ele>
        <time>2012-05-13T09:14:51Z</time>
      </trkpt>
      <trkpt lat="43.8923" lon="7.01446">
        <ele>689.88330078125</ele>
        <time>2012-05-13T09:14:52Z</time>
      </trkpt>
      <trkpt lat="43.89223" lon="7.01444">
        <ele>687.47998046875</ele>
        <time>2012-05-13T09:14:56Z</time>
      </trkpt>
      <trkpt lat="43.8922" lon="7.01451">
        <ele>686.51879882812</ele>
        <time>2012-05-13T09:14:58Z</time>
      </trkpt>
      <trkpt lat="43.89214" lon="7.01456">
        <ele>685.55737304688</ele>
        <time>2012-05-13T09:15:00Z</time>
      </trkpt>
      <trkpt lat="43.89211" lon="7.01462">
        <ele>684.59619140625</ele>
        <time>2012-05-13T09:15:02Z</time>
      </trkpt>
      <trkpt lat="43.89212" lon="7.01474">
        <ele>682.19262695312</ele>
        <time>2012-05-13T09:15:05Z</time>
      </trkpt>
      <trkpt lat="43.89214" lon="7.01487">
        <ele>679.30859375</ele>
        <time>2012-05-13T09:15:08Z</time>
      </trkpt>
      <trkpt lat="43.89214" lon="7.01496">
        <ele>678.828125</ele>
        <time>2012-05-13T09:15:10Z</time>
      </trkpt>
      <trkpt lat="43.89215" lon="7.01503">
        <ele>677.38623046875</ele>
        <time>2012-05-13T09:15:12Z</time>
      </trkpt>
      <trkpt lat="43.89213" lon="7.01507">
        <ele>675.94409179688</ele>
        <time>2012-05-13T09:15:14Z</time>
      </trkpt>
      <trkpt lat="43.89205" lon="7.01495">
        <ele>672.57958984375</ele>
        <time>2012-05-13T09:15:18Z</time>
      </trkpt>
      <trkpt lat="43.89202" lon="7.01493">
        <ele>672.57958984375</ele>
        <time>2012-05-13T09:15:19Z</time>
      </trkpt>
      <trkpt lat="43.89199" lon="7.01492">
        <ele>671.6181640625</ele>
        <time>2012-05-13T09:15:20Z</time>
      </trkpt>
      <trkpt lat="43.89193" lon="7.01478">
        <ele>669.69580078125</ele>
        <time>2012-05-13T09:15:23Z</time>
      </trkpt>
      <trkpt lat="43.89191" lon="7.01476">
        <ele>666.33081054688</ele>
        <time>2012-05-13T09:15:25Z</time>
      </trkpt>
      <trkpt lat="43.89189" lon="7.01474">
        <ele>666.33081054688</ele>
        <time>2012-05-13T09:15:26Z</time>
      </trkpt>
      <trkpt lat="43.89173" lon="7.01481">
        <ele>663.92749023438</ele>
        <time>2012-05-13T09:15:28Z</time>
      </trkpt>
      <trkpt lat="43.89171" lon="7.01481">
        <ele>662.48559570312</ele>
        <time>2012-05-13T09:15:29Z</time>
      </trkpt>
      <trkpt lat="43.89171" lon="7.01481">
        <ele>662.00512695312</ele>
        <time>2012-05-13T09:15:32Z</time>
      </trkpt>
      <trkpt lat="43.89171" lon="7.01488">
        <ele>660.08227539062</ele>
        <time>2012-05-13T09:15:35Z</time>
      </trkpt>
      <trkpt lat="43.89167" lon="7.01494">
        <ele>658.15991210938</ele>
        <time>2012-05-13T09:15:37Z</time>
      </trkpt>
      <trkpt lat="43.89162" lon="7.01494">
        <ele>656.7177734375</ele>
        <time>2012-05-13T09:15:39Z</time>
      </trkpt>
      <trkpt lat="43.89162" lon="7.01498">
        <ele>654.31469726562</ele>
        <time>2012-05-13T09:15:42Z</time>
      </trkpt>
      <trkpt lat="43.89166" lon="7.015">
        <ele>654.31469726562</ele>
        <time>2012-05-13T09:15:44Z</time>
      </trkpt>
      <trkpt lat="43.89168" lon="7.01505">
        <ele>652.87255859375</ele>
        <time>2012-05-13T09:15:46Z</time>
      </trkpt>
      <trkpt lat="43.89162" lon="7.01511">
        <ele>650.94970703125</ele>
        <time>2012-05-13T09:15:49Z</time>
      </trkpt>
      <trkpt lat="43.89155" lon="7.01518">
        <ele>648.06591796875</ele>
        <time>2012-05-13T09:15:53Z</time>
      </trkpt>
      <trkpt lat="43.89159" lon="7.01521">
        <ele>645.66259765625</ele>
        <time>2012-05-13T09:15:56Z</time>
      </trkpt>
      <trkpt lat="43.8916" lon="7.01526">
        <ele>644.220703125</ele>
        <time>2012-05-13T09:15:58Z</time>
      </trkpt>
      <trkpt lat="43.89159" lon="7.0153">
        <ele>642.77880859375</ele>
        <time>2012-05-13T09:16:00Z</time>
      </trkpt>
      <trkpt lat="43.89156" lon="7.01537">
        <ele>640.85595703125</ele>
        <time>2012-05-13T09:16:03Z</time>
      </trkpt>
      <trkpt lat="43.89148" lon="7.01551">
        <ele>638.45288085938</ele>
        <time>2012-05-13T09:16:07Z</time>
      </trkpt>
      <trkpt lat="43.89138" lon="7.01551">
        <ele>637.0107421875</ele>
        <time>2012-05-13T09:16:09Z</time>
      </trkpt>
      <trkpt lat="43.89132" lon="7.01567">
        <ele>634.607421875</ele>
        <time>2012-05-13T09:16:11Z</time>
      </trkpt>
      <trkpt lat="43.89128" lon="7.0158">
        <ele>633.64599609375</ele>
        <time>2012-05-13T09:16:13Z</time>
      </trkpt>
      <trkpt lat="43.89124" lon="7.016">
        <ele>631.72338867188</ele>
        <time>2012-05-13T09:16:16Z</time>
      </trkpt>
      <trkpt lat="43.89123" lon="7.01611">
        <ele>628.83959960938</ele>
        <time>2012-05-13T09:16:18Z</time>
      </trkpt>
      <trkpt lat="43.89121" lon="7.01616">
        <ele>628.83959960938</ele>
        <time>2012-05-13T09:16:19Z</time>
      </trkpt>
      <trkpt lat="43.89119" lon="7.01621">
        <ele>626.9169921875</ele>
        <time>2012-05-13T09:16:20Z</time>
      </trkpt>
      <trkpt lat="43.89116" lon="7.01631">
        <ele>625.47485351562</ele>
        <time>2012-05-13T09:16:23Z</time>
      </trkpt>
      <trkpt lat="43.89114" lon="7.01635">
        <ele>621.62963867188</ele>
        <time>2012-05-13T09:16:25Z</time>
      </trkpt>
      <trkpt lat="43.89112" lon="7.01641">
        <ele>621.62963867188</ele>
        <time>2012-05-13T09:16:26Z</time>
      </trkpt>
      <trkpt lat="43.89102" lon="7.0164">
        <ele>620.18774414062</ele>
        <time>2012-05-13T09:16:28Z</time>
      </trkpt>
      <trkpt lat="43.89107" lon="7.01655">
        <ele>618.26489257812</ele>
        <time>2012-05-13T09:16:30Z</time>
      </trkpt>
      <trkpt lat="43.891" lon="7.01665">
        <ele>614.41967773438</ele>
        <time>2012-05-13T09:16:32Z</time>
      </trkpt>
      <trkpt lat="43.89097" lon="7.01666">
        <ele>614.41967773438</ele>
        <time>2012-05-13T09:16:33Z</time>
      </trkpt>
      <trkpt lat="43.8909" lon="7.0167">
        <ele>613.45849609375</ele>
        <time>2012-05-13T09:16:35Z</time>
      </trkpt>
      <trkpt lat="43.89082" lon="7.01679">
        <ele>612.0166015625</ele>
        <time>2012-05-13T09:16:37Z</time>
      </trkpt>
      <trkpt lat="43.89072" lon="7.01691">
        <ele>609.13256835938</ele>
        <time>2012-05-13T09:16:40Z</time>
      </trkpt>
      <trkpt lat="43.8906" lon="7.017">
        <ele>607.69067382812</ele>
        <time>2012-05-13T09:16:42Z</time>
      </trkpt>
      <trkpt lat="43.89055" lon="7.017">
        <ele>605.28735351562</ele>
        <time>2012-05-13T09:16:44Z</time>
      </trkpt>
      <trkpt lat="43.89049" lon="7.01706">
        <ele>600.96118164062</ele>
        <time>2012-05-13T09:16:46Z</time>
      </trkpt>
      <trkpt lat="43.89045" lon="7.0171">
        <ele>600.96118164062</ele>
        <time>2012-05-13T09:16:47Z</time>
      </trkpt>
      <trkpt lat="43.89037" lon="7.01717">
        <ele>599.51928710938</ele>
        <time>2012-05-13T09:16:49Z</time>
      </trkpt>
      <trkpt lat="43.89029" lon="7.01725">
        <ele>598.07739257812</ele>
        <time>2012-05-13T09:16:51Z</time>
      </trkpt>
      <trkpt lat="43.89022" lon="7.01731">
        <ele>596.63549804688</ele>
        <time>2012-05-13T09:16:53Z</time>
      </trkpt>
      <trkpt lat="43.89019" lon="7.01733">
        <ele>595.67407226562</ele>
        <time>2012-05-13T09:16:54Z</time>
      </trkpt>
      <trkpt lat="43.89013" lon="7.01736">
        <ele>594.71264648438</ele>
        <time>2012-05-13T09:16:56Z</time>
      </trkpt>
      <trkpt lat="43.89008" lon="7.01739">
        <ele>593.27075195312</ele>
        <time>2012-05-13T09:16:58Z</time>
      </trkpt>
      <trkpt lat="43.88999" lon="7.01745">
        <ele>589.42553710938</ele>
        <time>2012-05-13T09:17:02Z</time>
      </trkpt>
      <trkpt lat="43.88995" lon="7.01748">
        <ele>587.50268554688</ele>
        <time>2012-05-13T09:17:04Z</time>
      </trkpt>
      <trkpt lat="43.88985" lon="7.01767">
        <ele>585.099609375</ele>
        <time>2012-05-13T09:17:10Z</time>
      </trkpt>
      <trkpt lat="43.88972" lon="7.01771">
        <ele>582.6962890625</ele>
        <time>2012-05-13T09:17:14Z</time>
      </trkpt>
      <trkpt lat="43.88943" lon="7.01774">
        <ele>579.81225585938</ele>
        <time>2012-05-13T09:17:21Z</time>
      </trkpt>
      <trkpt lat="43.88933" lon="7.01767">
        <ele>579.81225585938</ele>
        <time>2012-05-13T09:17:25Z</time>
      </trkpt>
      <trkpt lat="43.88933" lon="7.01767">
        <ele>580.77368164062</ele>
        <time>2012-05-13T09:17:41Z</time>
      </trkpt>
      <trkpt lat="43.88933" lon="7.01767">
        <ele>581.25439453125</ele>
        <time>2012-05-13T09:18:31Z</time>
      </trkpt>
      <trkpt lat="43.88932" lon="7.0176">
        <ele>581.25439453125</ele>
        <time>2012-05-13T09:18:33Z</time>
      </trkpt>
      <trkpt lat="43.88932" lon="7.01746">
        <ele>582.6962890625</ele>
        <time>2012-05-13T09:18:38Z</time>
      </trkpt>
      <trkpt lat="43.88944" lon="7.01708">
        <ele>586.06079101562</ele>
        <time>2012-05-13T09:18:53Z</time>
      </trkpt>
      <trkpt lat="43.88955" lon="7.0167">
        <ele>589.42553710938</ele>
        <time>2012-05-13T09:19:09Z</time>
      </trkpt>
      <trkpt lat="43.88959" lon="7.01635">
        <ele>592.3095703125</ele>
        <time>2012-05-13T09:19:24Z</time>
      </trkpt>
      <trkpt lat="43.88969" lon="7.01606">
        <ele>595.67407226562</ele>
        <time>2012-05-13T09:19:37Z</time>
      </trkpt>
      <trkpt lat="43.88982" lon="7.01575">
        <ele>598.55786132812</ele>
        <time>2012-05-13T09:19:51Z</time>
      </trkpt>
      <trkpt lat="43.88985" lon="7.01541">
        <ele>600.96118164062</ele>
        <time>2012-05-13T09:20:06Z</time>
      </trkpt>
      <trkpt lat="43.88987" lon="7.01523">
        <ele>602.40307617188</ele>
        <time>2012-05-13T09:20:13Z</time>
      </trkpt>
      <trkpt lat="43.88985" lon="7.01512">
        <ele>603.36450195312</ele>
        <time>2012-05-13T09:20:18Z</time>
      </trkpt>
      <trkpt lat="43.88983" lon="7.01502">
        <ele>604.326171875</ele>
        <time>2012-05-13T09:20:25Z</time>
      </trkpt>
      <trkpt lat="43.8898" lon="7.01484">
        <ele>607.2099609375</ele>
        <time>2012-05-13T09:20:37Z</time>
      </trkpt>
      <trkpt lat="43.88971" lon="7.01455">
        <ele>610.57446289062</ele>
        <time>2012-05-13T09:20:51Z</time>
      </trkpt>
      <trkpt lat="43.88966" lon="7.01419">
        <ele>613.93896484375</ele>
        <time>2012-05-13T09:21:07Z</time>
      </trkpt>
      <trkpt lat="43.88973" lon="7.0139">
        <ele>617.3037109375</ele>
        <time>2012-05-13T09:21:19Z</time>
      </trkpt>
      <trkpt lat="43.88974" lon="7.01388">
        <ele>617.3037109375</ele>
        <time>2012-05-13T09:21:20Z</time>
      </trkpt>
      <trkpt lat="43.88988" lon="7.01355">
        <ele>619.22631835938</ele>
        <time>2012-05-13T09:21:34Z</time>
      </trkpt>
      <trkpt lat="43.89015" lon="7.01308">
        <ele>621.62963867188</ele>
        <time>2012-05-13T09:21:51Z</time>
      </trkpt>
      <trkpt lat="43.89039" lon="7.01279">
        <ele>623.55249023438</ele>
        <time>2012-05-13T09:22:03Z</time>
      </trkpt>
      <trkpt lat="43.89061" lon="7.01239">
        <ele>625.47485351562</ele>
        <time>2012-05-13T09:22:18Z</time>
      </trkpt>
      <trkpt lat="43.89059" lon="7.01205">
        <ele>626.9169921875</ele>
        <time>2012-05-13T09:22:28Z</time>
      </trkpt>
      <trkpt lat="43.8905" lon="7.01168">
        <ele>629.80078125</ele>
        <time>2012-05-13T09:22:40Z</time>
      </trkpt>
      <trkpt lat="43.89043" lon="7.01113">
        <ele>632.68481445312</ele>
        <time>2012-05-13T09:22:56Z</time>
      </trkpt>
      <trkpt lat="43.89033" lon="7.0104">
        <ele>636.04956054688</ele>
        <time>2012-05-13T09:23:17Z</time>
      </trkpt>
      <trkpt lat="43.89029" lon="7.00981">
        <ele>638.93359375</ele>
        <time>2012-05-13T09:23:35Z</time>
      </trkpt>
      <trkpt lat="43.89031" lon="7.00943">
        <ele>642.77880859375</ele>
        <time>2012-05-13T09:23:47Z</time>
      </trkpt>
      <trkpt lat="43.89036" lon="7.00899">
        <ele>645.18188476562</ele>
        <time>2012-05-13T09:24:00Z</time>
      </trkpt>
      <trkpt lat="43.89044" lon="7.00871">
        <ele>647.58520507812</ele>
        <time>2012-05-13T09:24:10Z</time>
      </trkpt>
      <trkpt lat="43.89046" lon="7.00866">
        <ele>647.58520507812</ele>
        <time>2012-05-13T09:24:12Z</time>
      </trkpt>
      <trkpt lat="43.89039" lon="7.00852">
        <ele>649.02709960938</ele>
        <time>2012-05-13T09:24:19Z</time>
      </trkpt>
      <trkpt lat="43.89013" lon="7.00834">
        <ele>651.43041992188</ele>
        <time>2012-05-13T09:24:32Z</time>
      </trkpt>
      <trkpt lat="43.89008" lon="7.00796">
        <ele>653.833984375</ele>
        <time>2012-05-13T09:24:44Z</time>
      </trkpt>
      <trkpt lat="43.89009" lon="7.00783">
        <ele>655.27587890625</ele>
        <time>2012-05-13T09:24:49Z</time>
      </trkpt>
      <trkpt lat="43.8901" lon="7.00777">
        <ele>655.75659179688</ele>
        <time>2012-05-13T09:24:51Z</time>
      </trkpt>
      <trkpt lat="43.89012" lon="7.00757">
        <ele>657.67919921875</ele>
        <time>2012-05-13T09:24:59Z</time>
      </trkpt>
      <trkpt lat="43.89014" lon="7.00737">
        <ele>659.60180664062</ele>
        <time>2012-05-13T09:25:07Z</time>
      </trkpt>
      <trkpt lat="43.89018" lon="7.00714">
        <ele>661.5244140625</ele>
        <time>2012-05-13T09:25:17Z</time>
      </trkpt>
      <trkpt lat="43.89021" lon="7.00699">
        <ele>663.44702148438</ele>
        <time>2012-05-13T09:25:26Z</time>
      </trkpt>
      <trkpt lat="43.89025" lon="7.00687">
        <ele>664.88891601562</ele>
        <time>2012-05-13T09:25:34Z</time>
      </trkpt>
      <trkpt lat="43.89039" lon="7.00661">
        <ele>668.25366210938</ele>
        <time>2012-05-13T09:25:49Z</time>
      </trkpt>
      <trkpt lat="43.89041" lon="7.00656">
        <ele>668.734375</ele>
        <time>2012-05-13T09:25:51Z</time>
      </trkpt>
      <trkpt lat="43.89051" lon="7.00643">
        <ele>669.69580078125</ele>
        <time>2012-05-13T09:25:55Z</time>
      </trkpt>
      <trkpt lat="43.89065" lon="7.00629">
        <ele>671.6181640625</ele>
        <time>2012-05-13T09:26:00Z</time>
      </trkpt>
      <trkpt lat="43.89069" lon="7.00658">
        <ele>674.021484375</ele>
        <time>2012-05-13T09:26:15Z</time>
      </trkpt>
      <trkpt lat="43.89075" lon="7.00684">
        <ele>676.4248046875</ele>
        <time>2012-05-13T09:26:27Z</time>
      </trkpt>
      <trkpt lat="43.89081" lon="7.00695">
        <ele>677.38623046875</ele>
        <time>2012-05-13T09:26:34Z</time>
      </trkpt>
      <trkpt lat="43.89093" lon="7.00717">
        <ele>680.75073242188</ele>
        <time>2012-05-13T09:26:48Z</time>
      </trkpt>
      <trkpt lat="43.89103" lon="7.00739">
        <ele>682.67333984375</ele>
        <time>2012-05-13T09:26:59Z</time>
      </trkpt>
      <trkpt lat="43.89109" lon="7.00742">
        <ele>683.63452148438</ele>
        <time>2012-05-13T09:27:03Z</time>
      </trkpt>
      <trkpt lat="43.8912" lon="7.00753">
        <ele>685.07690429688</ele>
        <time>2012-05-13T09:27:08Z</time>
      </trkpt>
      <trkpt lat="43.8912" lon="7.0075">
        <ele>685.07690429688</ele>
        <time>2012-05-13T09:27:10Z</time>
      </trkpt>
      <trkpt lat="43.89118" lon="7.00728">
        <ele>688.44140625</ele>
        <time>2012-05-13T09:27:24Z</time>
      </trkpt>
      <trkpt lat="43.89119" lon="7.0072">
        <ele>689.40258789062</ele>
        <time>2012-05-13T09:27:28Z</time>
      </trkpt>
      <trkpt lat="43.89121" lon="7.00697">
        <ele>692.28662109375</ele>
        <time>2012-05-13T09:27:41Z</time>
      </trkpt>
      <trkpt lat="43.89127" lon="7.00686">
        <ele>693.728515625</ele>
        <time>2012-05-13T09:27:49Z</time>
      </trkpt>
      <trkpt lat="43.89139" lon="7.0066">
        <ele>696.1318359375</ele>
        <time>2012-05-13T09:28:00Z</time>
      </trkpt>
      <trkpt lat="43.89145" lon="7.00643">
        <ele>697.09301757812</ele>
        <time>2012-05-13T09:28:07Z</time>
      </trkpt>
      <trkpt lat="43.89146" lon="7.00635">
        <ele>698.05444335938</ele>
        <time>2012-05-13T09:28:11Z</time>
      </trkpt>
      <trkpt lat="43.89146" lon="7.00631">
        <ele>698.05444335938</ele>
        <time>2012-05-13T09:28:13Z</time>
      </trkpt>
      <trkpt lat="43.89145" lon="7.00625">
        <ele>699.015625</ele>
        <time>2012-05-13T09:28:17Z</time>
      </trkpt>
      <trkpt lat="43.89158" lon="7.00598">
        <ele>700.4580078125</ele>
        <time>2012-05-13T09:28:28Z</time>
      </trkpt>
      <trkpt lat="43.89173" lon="7.00574">
        <ele>702.38037109375</ele>
        <time>2012-05-13T09:28:39Z</time>
      </trkpt>
      <trkpt lat="43.89172" lon="7.00565">
        <ele>702.86108398438</ele>
        <time>2012-05-13T09:28:44Z</time>
      </trkpt>
      <trkpt lat="43.8917" lon="7.00554">
        <ele>703.341796875</ele>
        <time>2012-05-13T09:28:48Z</time>
      </trkpt>
      <trkpt lat="43.8917" lon="7.00513">
        <ele>705.7451171875</ele>
        <time>2012-05-13T09:29:02Z</time>
      </trkpt>
      <trkpt lat="43.89177" lon="7.00489">
        <ele>706.70629882812</ele>
        <time>2012-05-13T09:29:11Z</time>
      </trkpt>
      <trkpt lat="43.89181" lon="7.00473">
        <ele>707.66772460938</ele>
        <time>2012-05-13T09:29:19Z</time>
      </trkpt>
      <trkpt lat="43.89183" lon="7.00465">
        <ele>708.62890625</ele>
        <time>2012-05-13T09:29:23Z</time>
      </trkpt>
      <trkpt lat="43.89185" lon="7.00454">
        <ele>709.10961914062</ele>
        <time>2012-05-13T09:29:27Z</time>
      </trkpt>
      <trkpt lat="43.89186" lon="7.00448">
        <ele>709.59033203125</ele>
        <time>2012-05-13T09:29:29Z</time>
      </trkpt>
      <trkpt lat="43.89184" lon="7.0044">
        <ele>710.55151367188</ele>
        <time>2012-05-13T09:29:33Z</time>
      </trkpt>
      <trkpt lat="43.89178" lon="7.00432">
        <ele>711.0322265625</ele>
        <time>2012-05-13T09:29:38Z</time>
      </trkpt>
      <trkpt lat="43.89174" lon="7.00427">
        <ele>711.99365234375</ele>
        <time>2012-05-13T09:29:41Z</time>
      </trkpt>
      <trkpt lat="43.89171" lon="7.00417">
        <ele>712.47412109375</ele>
        <time>2012-05-13T09:29:45Z</time>
      </trkpt>
      <trkpt lat="43.8917" lon="7.00366">
        <ele>716.80029296875</ele>
        <time>2012-05-13T09:30:04Z</time>
      </trkpt>
      <trkpt lat="43.89167" lon="7.00325">
        <ele>719.68432617188</ele>
        <time>2012-05-13T09:30:21Z</time>
      </trkpt>
      <trkpt lat="43.89163" lon="7.00287">
        <ele>723.048828125</ele>
        <time>2012-05-13T09:30:37Z</time>
      </trkpt>
      <trkpt lat="43.89163" lon="7.00285">
        <ele>723.048828125</ele>
        <time>2012-05-13T09:30:38Z</time>
      </trkpt>
      <trkpt lat="43.89159" lon="7.00252">
        <ele>725.9326171875</ele>
        <time>2012-05-13T09:30:52Z</time>
      </trkpt>
      <trkpt lat="43.89155" lon="7.002">
        <ele>728.3359375</ele>
        <time>2012-05-13T09:31:10Z</time>
      </trkpt>
      <trkpt lat="43.89155" lon="7.00162">
        <ele>730.7392578125</ele>
        <time>2012-05-13T09:31:23Z</time>
      </trkpt>
      <trkpt lat="43.8914" lon="7.00112">
        <ele>731.70043945312</ele>
        <time>2012-05-13T09:31:36Z</time>
      </trkpt>
      <trkpt lat="43.89134" lon="7.00098">
        <ele>731.70043945312</ele>
        <time>2012-05-13T09:31:39Z</time>
      </trkpt>
      <trkpt lat="43.89135" lon="7.00077">
        <ele>731.70043945312</ele>
        <time>2012-05-13T09:31:43Z</time>
      </trkpt>
      <trkpt lat="43.89144" lon="7.00049">
        <ele>733.62329101562</ele>
        <time>2012-05-13T09:31:53Z</time>
      </trkpt>
      <trkpt lat="43.89146" lon="7.00038">
        <ele>735.5458984375</ele>
        <time>2012-05-13T09:31:58Z</time>
      </trkpt>
      <trkpt lat="43.89155" lon="7.0002">
        <ele>737.46850585938</ele>
        <time>2012-05-13T09:32:06Z</time>
      </trkpt>
      <trkpt lat="43.8917" lon="7.00002">
        <ele>738.91064453125</ele>
        <time>2012-05-13T09:32:17Z</time>
      </trkpt>
      <trkpt lat="43.89193" lon="6.99988">
        <ele>741.31372070312</ele>
        <time>2012-05-13T09:32:32Z</time>
      </trkpt>
      <trkpt lat="43.89209" lon="6.99966">
        <ele>743.236328125</ele>
        <time>2012-05-13T09:32:45Z</time>
      </trkpt>
      <trkpt lat="43.89212" lon="6.99944">
        <ele>745.6396484375</ele>
        <time>2012-05-13T09:32:56Z</time>
      </trkpt>
      <trkpt lat="43.8922" lon="6.99917">
        <ele>749.48510742188</ele>
        <time>2012-05-13T09:33:10Z</time>
      </trkpt>
      <trkpt lat="43.89241" lon="6.99888">
        <ele>750.92700195312</ele>
        <time>2012-05-13T09:33:25Z</time>
      </trkpt>
      <trkpt lat="43.89235" lon="6.99861">
        <ele>752.849609375</ele>
        <time>2012-05-13T09:33:38Z</time>
      </trkpt>
      <trkpt lat="43.89232" lon="6.99854">
        <ele>753.81103515625</ele>
        <time>2012-05-13T09:33:42Z</time>
      </trkpt>
      <trkpt lat="43.89228" lon="6.99847">
        <ele>755.2529296875</ele>
        <time>2012-05-13T09:33:54Z</time>
      </trkpt>
      <trkpt lat="43.89228" lon="6.99847">
        <ele>755.2529296875</ele>
        <time>2012-05-13T09:34:36Z</time>
      </trkpt>
      <trkpt lat="43.89229" lon="6.99813">
        <ele>754.77221679688</ele>
        <time>2012-05-13T09:34:45Z</time>
      </trkpt>
      <trkpt lat="43.8923" lon="6.99782">
        <ele>753.33032226562</ele>
        <time>2012-05-13T09:34:49Z</time>
      </trkpt>
      <trkpt lat="43.89233" lon="6.99755">
        <ele>751.40771484375</ele>
        <time>2012-05-13T09:34:52Z</time>
      </trkpt>
      <trkpt lat="43.89242" lon="6.99739">
        <ele>748.52368164062</ele>
        <time>2012-05-13T09:34:55Z</time>
      </trkpt>
      <trkpt lat="43.89246" lon="6.99728">
        <ele>748.52368164062</ele>
        <time>2012-05-13T09:34:57Z</time>
      </trkpt>
      <trkpt lat="43.89237" lon="6.99714">
        <ele>749.00439453125</ele>
        <time>2012-05-13T09:35:01Z</time>
      </trkpt>
      <trkpt lat="43.89207" lon="6.99713">
        <ele>750.92700195312</ele>
        <time>2012-05-13T09:35:13Z</time>
      </trkpt>
      <trkpt lat="43.89174" lon="6.99689">
        <ele>752.36889648438</ele>
        <time>2012-05-13T09:35:28Z</time>
      </trkpt>
      <trkpt lat="43.8916" lon="6.9966">
        <ele>754.29174804688</ele>
        <time>2012-05-13T09:35:38Z</time>
      </trkpt>
      <trkpt lat="43.89158" lon="6.99644">
        <ele>755.73364257812</ele>
        <time>2012-05-13T09:35:46Z</time>
      </trkpt>
      <trkpt lat="43.89152" lon="6.99617">
        <ele>759.09814453125</ele>
        <time>2012-05-13T09:35:59Z</time>
      </trkpt>
      <trkpt lat="43.89151" lon="6.99615">
        <ele>759.09814453125</ele>
        <time>2012-05-13T09:36:00Z</time>
      </trkpt>
      <trkpt lat="43.89142" lon="6.99586">
        <ele>761.98217773438</ele>
        <time>2012-05-13T09:36:14Z</time>
      </trkpt>
      <trkpt lat="43.89131" lon="6.99553">
        <ele>765.34692382812</ele>
        <time>2012-05-13T09:36:29Z</time>
      </trkpt>
      <trkpt lat="43.89132" lon="6.99514">
        <ele>766.78881835938</ele>
        <time>2012-05-13T09:36:44Z</time>
      </trkpt>
      <trkpt lat="43.8914" lon="6.99489">
        <ele>767.26953125</ele>
        <time>2012-05-13T09:36:52Z</time>
      </trkpt>
      <trkpt lat="43.89132" lon="6.99473">
        <ele>767.75</ele>
        <time>2012-05-13T09:36:56Z</time>
      </trkpt>
      <trkpt lat="43.89097" lon="6.99473">
        <ele>767.75</ele>
        <time>2012-05-13T09:37:06Z</time>
      </trkpt>
      <trkpt lat="43.89086" lon="6.99475">
        <ele>766.78881835938</ele>
        <time>2012-05-13T09:37:08Z</time>
      </trkpt>
      <trkpt lat="43.89067" lon="6.99465">
        <ele>764.38549804688</ele>
        <time>2012-05-13T09:37:12Z</time>
      </trkpt>
      <trkpt lat="43.8906" lon="6.99456">
        <ele>763.90454101562</ele>
        <time>2012-05-13T09:37:14Z</time>
      </trkpt>
      <trkpt lat="43.8904" lon="6.99426">
        <ele>764.38549804688</ele>
        <time>2012-05-13T09:37:20Z</time>
      </trkpt>
      <trkpt lat="43.89025" lon="6.99399">
        <ele>764.8662109375</ele>
        <time>2012-05-13T09:37:25Z</time>
      </trkpt>
      <trkpt lat="43.8902" lon="6.99361">
        <ele>764.8662109375</ele>
        <time>2012-05-13T09:37:30Z</time>
      </trkpt>
      <trkpt lat="43.89021" lon="6.99345">
        <ele>764.8662109375</ele>
        <time>2012-05-13T09:37:33Z</time>
      </trkpt>
      <trkpt lat="43.89026" lon="6.99324">
        <ele>764.8662109375</ele>
        <time>2012-05-13T09:37:36Z</time>
      </trkpt>
      <trkpt lat="43.89045" lon="6.99269">
        <ele>765.82763671875</ele>
        <time>2012-05-13T09:37:47Z</time>
      </trkpt>
      <trkpt lat="43.89048" lon="6.99262">
        <ele>767.26953125</ele>
        <time>2012-05-13T09:37:50Z</time>
      </trkpt>
      <trkpt lat="43.89056" lon="6.99241">
        <ele>769.6728515625</ele>
        <time>2012-05-13T09:38:00Z</time>
      </trkpt>
      <trkpt lat="43.89046" lon="6.99209">
        <ele>771.59521484375</ele>
        <time>2012-05-13T09:38:12Z</time>
      </trkpt>
      <trkpt lat="43.89037" lon="6.99179">
        <ele>772.556640625</ele>
        <time>2012-05-13T09:38:23Z</time>
      </trkpt>
      <trkpt lat="43.89032" lon="6.99138">
        <ele>774.47924804688</ele>
        <time>2012-05-13T09:38:36Z</time>
      </trkpt>
      <trkpt lat="43.89032" lon="6.99097">
        <ele>777.36328125</ele>
        <time>2012-05-13T09:38:50Z</time>
      </trkpt>
      <trkpt lat="43.89032" lon="6.99084">
        <ele>778.32446289062</ele>
        <time>2012-05-13T09:38:54Z</time>
      </trkpt>
      <trkpt lat="43.89023" lon="6.99067">
        <ele>780.24731445312</ele>
        <time>2012-05-13T09:39:04Z</time>
      </trkpt>
      <trkpt lat="43.89021" lon="6.99074">
        <ele>781.20874023438</ele>
        <time>2012-05-13T09:39:08Z</time>
      </trkpt>
      <trkpt lat="43.88995" lon="6.99077">
        <ele>782.169921875</ele>
        <time>2012-05-13T09:39:17Z</time>
      </trkpt>
      <trkpt lat="43.88981" lon="6.99073">
        <ele>784.5732421875</ele>
        <time>2012-05-13T09:39:27Z</time>
      </trkpt>
      <trkpt lat="43.88976" lon="6.99067">
        <ele>785.05395507812</ele>
        <time>2012-05-13T09:39:31Z</time>
      </trkpt>
      <trkpt lat="43.88959" lon="6.99047">
        <ele>788.41845703125</ele>
        <time>2012-05-13T09:39:45Z</time>
      </trkpt>
      <trkpt lat="43.88956" lon="6.99044">
        <ele>788.89916992188</ele>
        <time>2012-05-13T09:39:47Z</time>
      </trkpt>
      <trkpt lat="43.88956" lon="6.99036">
        <ele>789.37963867188</ele>
        <time>2012-05-13T09:39:51Z</time>
      </trkpt>
      <trkpt lat="43.88964" lon="6.99035">
        <ele>791.30224609375</ele>
        <time>2012-05-13T09:39:59Z</time>
      </trkpt>
      <trkpt lat="43.88978" lon="6.9904">
        <ele>792.74438476562</ele>
        <time>2012-05-13T09:40:09Z</time>
      </trkpt>
      <trkpt lat="43.88988" lon="6.99042">
        <ele>793.22485351562</ele>
        <time>2012-05-13T09:40:15Z</time>
      </trkpt>
      <trkpt lat="43.88991" lon="6.99027">
        <ele>794.66674804688</ele>
        <time>2012-05-13T09:40:26Z</time>
      </trkpt>
      <trkpt lat="43.88989" lon="6.99027">
        <ele>794.66674804688</ele>
        <time>2012-05-13T09:40:27Z</time>
      </trkpt>
      <trkpt lat="43.88963" lon="6.99005">
        <ele>798.03173828125</ele>
        <time>2012-05-13T09:40:46Z</time>
      </trkpt>
      <trkpt lat="43.88968" lon="6.98998">
        <ele>798.99291992188</ele>
        <time>2012-05-13T09:40:52Z</time>
      </trkpt>
      <trkpt lat="43.88987" lon="6.99006">
        <ele>800.91552734375</ele>
        <time>2012-05-13T09:41:05Z</time>
      </trkpt>
      <trkpt lat="43.88999" lon="6.99011">
        <ele>803.31884765625</ele>
        <time>2012-05-13T09:41:14Z</time>
      </trkpt>
      <trkpt lat="43.89008" lon="6.99009">
        <ele>803.79956054688</ele>
        <time>2012-05-13T09:41:19Z</time>
      </trkpt>
      <trkpt lat="43.89004" lon="6.98997">
        <ele>804.7607421875</ele>
        <time>2012-05-13T09:41:27Z</time>
      </trkpt>
      <trkpt lat="43.88996" lon="6.98995">
        <ele>806.20263671875</ele>
        <time>2012-05-13T09:41:32Z</time>
      </trkpt>
      <trkpt lat="43.88985" lon="6.98987">
        <ele>807.1640625</ele>
        <time>2012-05-13T09:41:40Z</time>
      </trkpt>
      <trkpt lat="43.88991" lon="6.98981">
        <ele>808.12548828125</ele>
        <time>2012-05-13T09:41:48Z</time>
      </trkpt>
      <trkpt lat="43.8902" lon="6.98981">
        <ele>811.48999023438</ele>
        <time>2012-05-13T09:42:06Z</time>
      </trkpt>
      <trkpt lat="43.89023" lon="6.98977">
        <ele>811.970703125</ele>
        <time>2012-05-13T09:42:09Z</time>
      </trkpt>
      <trkpt lat="43.89019" lon="6.9897">
        <ele>812.45141601562</ele>
        <time>2012-05-13T09:42:14Z</time>
      </trkpt>
      <trkpt lat="43.8901" lon="6.98969">
        <ele>813.41284179688</ele>
        <time>2012-05-13T09:42:20Z</time>
      </trkpt>
      <trkpt lat="43.88999" lon="6.98964">
        <ele>815.81616210938</ele>
        <time>2012-05-13T09:42:28Z</time>
      </trkpt>
      <trkpt lat="43.88979" lon="6.98946">
        <ele>818.69995117188</ele>
        <time>2012-05-13T09:42:44Z</time>
      </trkpt>
      <trkpt lat="43.88965" lon="6.98922">
        <ele>822.064453125</ele>
        <time>2012-05-13T09:42:57Z</time>
      </trkpt>
      <trkpt lat="43.88964" lon="6.98919">
        <ele>822.54516601562</ele>
        <time>2012-05-13T09:42:59Z</time>
      </trkpt>
      <trkpt lat="43.88959" lon="6.98904">
        <ele>823.98706054688</ele>
        <time>2012-05-13T09:43:07Z</time>
      </trkpt>
      <trkpt lat="43.88956" lon="6.98898">
        <ele>824.94848632812</ele>
        <time>2012-05-13T09:43:10Z</time>
      </trkpt>
      <trkpt lat="43.88943" lon="6.98876">
        <ele>827.35180664062</ele>
        <time>2012-05-13T09:43:24Z</time>
      </trkpt>
      <trkpt lat="43.88929" lon="6.98831">
        <ele>830.23583984375</ele>
        <time>2012-05-13T09:43:46Z</time>
      </trkpt>
      <trkpt lat="43.88936" lon="6.98801">
        <ele>832.63916015625</ele>
        <time>2012-05-13T09:44:00Z</time>
      </trkpt>
      <trkpt lat="43.88921" lon="6.98799">
        <ele>833.60034179688</ele>
        <time>2012-05-13T09:44:08Z</time>
      </trkpt>
      <trkpt lat="43.88909" lon="6.98769">
        <ele>833.60034179688</ele>
        <time>2012-05-13T09:44:22Z</time>
      </trkpt>
      <trkpt lat="43.88887" lon="6.98746">
        <ele>832.63916015625</ele>
        <time>2012-05-13T09:44:31Z</time>
      </trkpt>
      <trkpt lat="43.88863" lon="6.98717">
        <ele>835.04248046875</ele>
        <time>2012-05-13T09:44:43Z</time>
      </trkpt>
      <trkpt lat="43.88858" lon="6.98675">
        <ele>837.92626953125</ele>
        <time>2012-05-13T09:44:54Z</time>
      </trkpt>
      <trkpt lat="43.88841" lon="6.98628">
        <ele>840.32958984375</ele>
        <time>2012-05-13T09:45:08Z</time>
      </trkpt>
      <trkpt lat="43.88828" lon="6.98586">
        <ele>840.32958984375</ele>
        <time>2012-05-13T09:45:18Z</time>
      </trkpt>
      <trkpt lat="43.88822" lon="6.98579">
        <ele>840.81005859375</ele>
        <time>2012-05-13T09:45:22Z</time>
      </trkpt>
      <trkpt lat="43.88812" lon="6.98561">
        <ele>843.69409179688</ele>
        <time>2012-05-13T09:45:31Z</time>
      </trkpt>
      <trkpt lat="43.88812" lon="6.98541">
        <ele>845.13623046875</ele>
        <time>2012-05-13T09:45:40Z</time>
      </trkpt>
      <trkpt lat="43.88808" lon="6.98534">
        <ele>845.61694335938</ele>
        <time>2012-05-13T09:45:44Z</time>
      </trkpt>
      <trkpt lat="43.88797" lon="6.98516">
        <ele>848.50073242188</ele>
        <time>2012-05-13T09:45:54Z</time>
      </trkpt>
      <trkpt lat="43.88793" lon="6.98507">
        <ele>848.9814453125</ele>
        <time>2012-05-13T09:45:58Z</time>
      </trkpt>
      <trkpt lat="43.88788" lon="6.98494">
        <ele>850.42358398438</ele>
        <time>2012-05-13T09:46:06Z</time>
      </trkpt>
      <trkpt lat="43.88775" lon="6.98474">
        <ele>852.82666015625</ele>
        <time>2012-05-13T09:46:14Z</time>
      </trkpt>
      <trkpt lat="43.88773" lon="6.98471">
        <ele>853.30737304688</ele>
        <time>2012-05-13T09:46:16Z</time>
      </trkpt>
      <trkpt lat="43.88761" lon="6.98458">
        <ele>856.19116210938</ele>
        <time>2012-05-13T09:46:28Z</time>
      </trkpt>
      <trkpt lat="43.88756" lon="6.98451">
        <ele>856.671875</ele>
        <time>2012-05-13T09:46:32Z</time>
      </trkpt>
      <trkpt lat="43.88739" lon="6.98442">
        <ele>857.63330078125</ele>
        <time>2012-05-13T09:46:47Z</time>
      </trkpt>
      <trkpt lat="43.88734" lon="6.98439">
        <ele>857.63330078125</ele>
        <time>2012-05-13T09:47:05Z</time>
      </trkpt>
      <trkpt lat="43.88733" lon="6.98437">
        <ele>858.11401367188</ele>
        <time>2012-05-13T09:47:31Z</time>
      </trkpt>
      <trkpt lat="43.88733" lon="6.98438">
        <ele>858.11401367188</ele>
        <time>2012-05-13T09:48:22Z</time>
      </trkpt>
      <trkpt lat="43.88736" lon="6.98438">
        <ele>857.63330078125</ele>
        <time>2012-05-13T09:49:23Z</time>
      </trkpt>
      <trkpt lat="43.88739" lon="6.98441">
        <ele>858.11401367188</ele>
        <time>2012-05-13T09:49:42Z</time>
      </trkpt>
      <trkpt lat="43.88738" lon="6.98438">
        <ele>858.11401367188</ele>
        <time>2012-05-13T09:49:59Z</time>
      </trkpt>
      <trkpt lat="43.8874" lon="6.98441">
        <ele>858.59448242188</ele>
        <time>2012-05-13T09:50:27Z</time>
      </trkpt>
      <trkpt lat="43.88738" lon="6.9843">
        <ele>858.59448242188</ele>
        <time>2012-05-13T09:50:33Z</time>
      </trkpt>
      <trkpt lat="43.88734" lon="6.98426">
        <ele>859.0751953125</ele>
        <time>2012-05-13T09:50:35Z</time>
      </trkpt>
      <trkpt lat="43.88731" lon="6.98419">
        <ele>858.11401367188</ele>
        <time>2012-05-13T09:50:38Z</time>
      </trkpt>
      <trkpt lat="43.88728" lon="6.98398">
        <ele>857.15258789062</ele>
        <time>2012-05-13T09:50:42Z</time>
      </trkpt>
      <trkpt lat="43.88727" lon="6.98391">
        <ele>856.671875</ele>
        <time>2012-05-13T09:50:43Z</time>
      </trkpt>
      <trkpt lat="43.88724" lon="6.98376">
        <ele>855.71069335938</ele>
        <time>2012-05-13T09:50:45Z</time>
      </trkpt>
      <trkpt lat="43.88713" lon="6.98338">
        <ele>854.26879882812</ele>
        <time>2012-05-13T09:50:50Z</time>
      </trkpt>
      <trkpt lat="43.88709" lon="6.98291">
        <ele>851.384765625</ele>
        <time>2012-05-13T09:50:56Z</time>
      </trkpt>
      <trkpt lat="43.88708" lon="6.98283">
        <ele>849.94287109375</ele>
        <time>2012-05-13T09:50:57Z</time>
      </trkpt>
      <trkpt lat="43.88693" lon="6.98247">
        <ele>848.50073242188</ele>
        <time>2012-05-13T09:51:01Z</time>
      </trkpt>
      <trkpt lat="43.88672" lon="6.98215">
        <ele>846.57836914062</ele>
        <time>2012-05-13T09:51:07Z</time>
      </trkpt>
      <trkpt lat="43.8867" lon="6.98206">
        <ele>846.09765625</ele>
        <time>2012-05-13T09:51:10Z</time>
      </trkpt>
      <trkpt lat="43.88668" lon="6.98194">
        <ele>846.09765625</ele>
        <time>2012-05-13T09:51:14Z</time>
      </trkpt>
      <trkpt lat="43.88665" lon="6.98178">
        <ele>846.57836914062</ele>
        <time>2012-05-13T09:51:19Z</time>
      </trkpt>
      <trkpt lat="43.88641" lon="6.9813">
        <ele>847.53955078125</ele>
        <time>2012-05-13T09:51:31Z</time>
      </trkpt>
      <trkpt lat="43.88626" lon="6.98116">
        <ele>848.02026367188</ele>
        <time>2012-05-13T09:51:38Z</time>
      </trkpt>
      <trkpt lat="43.88625" lon="6.98113">
        <ele>848.02026367188</ele>
        <time>2012-05-13T09:51:39Z</time>
      </trkpt>
      <trkpt lat="43.88613" lon="6.98066">
        <ele>849.46215820312</ele>
        <time>2012-05-13T09:51:51Z</time>
      </trkpt>
      <trkpt lat="43.88606" lon="6.98047">
        <ele>850.42358398438</ele>
        <time>2012-05-13T09:51:58Z</time>
      </trkpt>
      <trkpt lat="43.88606" lon="6.98047">
        <ele>853.7880859375</ele>
        <time>2012-05-13T09:52:11Z</time>
      </trkpt>
      <trkpt lat="43.88583" lon="6.9798">
        <ele>855.71069335938</ele>
        <time>2012-05-13T09:52:26Z</time>
      </trkpt>
      <trkpt lat="43.88573" lon="6.97944">
        <ele>858.11401367188</ele>
        <time>2012-05-13T09:52:40Z</time>
      </trkpt>
      <trkpt lat="43.88565" lon="6.97903">
        <ele>859.0751953125</ele>
        <time>2012-05-13T09:52:55Z</time>
      </trkpt>
      <trkpt lat="43.8856" lon="6.97878">
        <ele>862.43994140625</ele>
        <time>2012-05-13T09:53:06Z</time>
      </trkpt>
      <trkpt lat="43.88557" lon="6.97859">
        <ele>863.4013671875</ele>
        <time>2012-05-13T09:53:10Z</time>
      </trkpt>
      <trkpt lat="43.88557" lon="6.97859">
        <ele>864.36254882812</ele>
        <time>2012-05-13T09:53:13Z</time>
      </trkpt>
      <trkpt lat="43.88557" lon="6.97859">
        <ele>865.32397460938</ele>
        <time>2012-05-13T09:53:15Z</time>
      </trkpt>
      <trkpt lat="43.88551" lon="6.9784">
        <ele>866.28515625</ele>
        <time>2012-05-13T09:53:20Z</time>
      </trkpt>
      <trkpt lat="43.88547" lon="6.97829">
        <ele>866.76586914062</ele>
        <time>2012-05-13T09:53:22Z</time>
      </trkpt>
      <trkpt lat="43.8854" lon="6.97812">
        <ele>868.20776367188</ele>
        <time>2012-05-13T09:53:29Z</time>
      </trkpt>
      <trkpt lat="43.8854" lon="6.97809">
        <ele>871.572265625</ele>
        <time>2012-05-13T09:53:44Z</time>
      </trkpt>
      <trkpt lat="43.88525" lon="6.97771">
        <ele>873.4951171875</ele>
        <time>2012-05-13T09:53:53Z</time>
      </trkpt>
      <trkpt lat="43.88525" lon="6.97771">
        <ele>873.9755859375</ele>
        <time>2012-05-13T09:53:57Z</time>
      </trkpt>
      <trkpt lat="43.88521" lon="6.9776">
        <ele>877.34057617188</ele>
        <time>2012-05-13T09:54:11Z</time>
      </trkpt>
      <trkpt lat="43.88521" lon="6.9776">
        <ele>879.74365234375</ele>
        <time>2012-05-13T09:54:26Z</time>
      </trkpt>
      <trkpt lat="43.88521" lon="6.9776">
        <ele>882.62768554688</ele>
        <time>2012-05-13T09:54:37Z</time>
      </trkpt>
      <trkpt lat="43.88521" lon="6.9776">
        <ele>885.03100585938</ele>
        <time>2012-05-13T09:54:50Z</time>
      </trkpt>
      <trkpt lat="43.88521" lon="6.9776">
        <ele>886.95336914062</ele>
        <time>2012-05-13T09:55:04Z</time>
      </trkpt>
      <trkpt lat="43.88478" lon="6.97705">
        <ele>886.47290039062</ele>
        <time>2012-05-13T09:55:11Z</time>
      </trkpt>
      <trkpt lat="43.88474" lon="6.97701">
        <ele>886.47290039062</ele>
        <time>2012-05-13T09:55:15Z</time>
      </trkpt>
      <trkpt lat="43.88472" lon="6.97699">
        <ele>884.55029296875</ele>
        <time>2012-05-13T09:55:27Z</time>
      </trkpt>
      <trkpt lat="43.88472" lon="6.97699">
        <ele>882.62768554688</ele>
        <time>2012-05-13T09:55:44Z</time>
      </trkpt>
      <trkpt lat="43.88472" lon="6.97699">
        <ele>883.5888671875</ele>
        <time>2012-05-13T09:55:58Z</time>
      </trkpt>
      <trkpt lat="43.88472" lon="6.97699">
        <ele>883.5888671875</ele>
        <time>2012-05-13T09:56:03Z</time>
      </trkpt>
      <trkpt lat="43.88467" lon="6.97666">
        <ele>885.51147460938</ele>
        <time>2012-05-13T09:56:18Z</time>
      </trkpt>
      <trkpt lat="43.88467" lon="6.97666">
        <ele>887.91479492188</ele>
        <time>2012-05-13T09:56:34Z</time>
      </trkpt>
      <trkpt lat="43.88467" lon="6.97666">
        <ele>889.83740234375</ele>
        <time>2012-05-13T09:56:51Z</time>
      </trkpt>
      <trkpt lat="43.88467" lon="6.97666">
        <ele>890.79858398438</ele>
        <time>2012-05-13T09:56:59Z</time>
      </trkpt>
      <trkpt lat="43.88452" lon="6.97592">
        <ele>891.279296875</ele>
        <time>2012-05-13T09:57:04Z</time>
      </trkpt>
      <trkpt lat="43.88451" lon="6.9759">
        <ele>891.279296875</ele>
        <time>2012-05-13T09:57:08Z</time>
      </trkpt>
      <trkpt lat="43.88447" lon="6.9758">
        <ele>893.2021484375</ele>
        <time>2012-05-13T09:57:18Z</time>
      </trkpt>
      <trkpt lat="43.88443" lon="6.97566">
        <ele>893.2021484375</ele>
        <time>2012-05-13T09:57:22Z</time>
      </trkpt>
      <trkpt lat="43.88443" lon="6.97566">
        <ele>894.64404296875</ele>
        <time>2012-05-13T09:57:24Z</time>
      </trkpt>
      <trkpt lat="43.88443" lon="6.97566">
        <ele>895.12475585938</ele>
        <time>2012-05-13T09:57:28Z</time>
      </trkpt>
      <trkpt lat="43.88438" lon="6.97551">
        <ele>897.04736328125</ele>
        <time>2012-05-13T09:57:37Z</time>
      </trkpt>
      <trkpt lat="43.88427" lon="6.97526">
        <ele>897.04736328125</ele>
        <time>2012-05-13T09:57:41Z</time>
      </trkpt>
      <trkpt lat="43.88427" lon="6.97526">
        <ele>898.4892578125</ele>
        <time>2012-05-13T09:57:44Z</time>
      </trkpt>
      <trkpt lat="43.88427" lon="6.97526">
        <ele>899.45068359375</ele>
        <time>2012-05-13T09:57:46Z</time>
      </trkpt>
      <trkpt lat="43.88427" lon="6.97526">
        <ele>899.45068359375</ele>
        <time>2012-05-13T09:57:47Z</time>
      </trkpt>
      <trkpt lat="43.8842" lon="6.9751">
        <ele>900.892578125</ele>
        <time>2012-05-13T09:57:50Z</time>
      </trkpt>
      <trkpt lat="43.88417" lon="6.97502">
        <ele>902.81518554688</ele>
        <time>2012-05-13T09:57:54Z</time>
      </trkpt>
      <trkpt lat="43.88416" lon="6.97499">
        <ele>904.25732421875</ele>
        <time>2012-05-13T09:58:03Z</time>
      </trkpt>
      <trkpt lat="43.88416" lon="6.97499">
        <ele>904.73779296875</ele>
        <time>2012-05-13T09:58:09Z</time>
      </trkpt>
      <trkpt lat="43.88408" lon="6.97481">
        <ele>907.14111328125</ele>
        <time>2012-05-13T09:58:26Z</time>
      </trkpt>
      <trkpt lat="43.88408" lon="6.97481">
        <ele>909.06396484375</ele>
        <time>2012-05-13T09:58:38Z</time>
      </trkpt>
      <trkpt lat="43.88386" lon="6.97417">
        <ele>911.94799804688</ele>
        <time>2012-05-13T09:58:59Z</time>
      </trkpt>
      <trkpt lat="43.88383" lon="6.97407">
        <ele>913.87036132812</ele>
        <time>2012-05-13T09:59:08Z</time>
      </trkpt>
      <trkpt lat="43.88383" lon="6.97407">
        <ele>916.75439453125</ele>
        <time>2012-05-13T09:59:22Z</time>
      </trkpt>
      <trkpt lat="43.88383" lon="6.97407">
        <ele>917.23510742188</ele>
        <time>2012-05-13T09:59:30Z</time>
      </trkpt>
      <trkpt lat="43.88383" lon="6.97407">
        <ele>920.599609375</ele>
        <time>2012-05-13T09:59:52Z</time>
      </trkpt>
      <trkpt lat="43.88383" lon="6.97407">
        <ele>922.04150390625</ele>
        <time>2012-05-13T10:00:06Z</time>
      </trkpt>
      <trkpt lat="43.88383" lon="6.97407">
        <ele>923.48364257812</ele>
        <time>2012-05-13T10:00:27Z</time>
      </trkpt>
      <trkpt lat="43.88383" lon="6.97407">
        <ele>925.40625</ele>
        <time>2012-05-13T10:00:34Z</time>
      </trkpt>
      <trkpt lat="43.88383" lon="6.97407">
        <ele>925.40625</ele>
        <time>2012-05-13T10:00:57Z</time>
      </trkpt>
      <trkpt lat="43.88346" lon="6.9729">
        <ele>925.40625</ele>
        <time>2012-05-13T10:01:04Z</time>
      </trkpt>
      <trkpt lat="43.88344" lon="6.97269">
        <ele>927.3291015625</ele>
        <time>2012-05-13T10:01:20Z</time>
      </trkpt>
      <trkpt lat="43.88343" lon="6.97249">
        <ele>930.212890625</ele>
        <time>2012-05-13T10:01:35Z</time>
      </trkpt>
      <trkpt lat="43.88343" lon="6.97222">
        <ele>930.212890625</ele>
        <time>2012-05-13T10:01:45Z</time>
      </trkpt>
      <trkpt lat="43.88345" lon="6.97195">
        <ele>933.0966796875</ele>
        <time>2012-05-13T10:02:03Z</time>
      </trkpt>
      <trkpt lat="43.88345" lon="6.97191">
        <ele>934.05810546875</ele>
        <time>2012-05-13T10:02:09Z</time>
      </trkpt>
      <trkpt lat="43.88345" lon="6.97191">
        <ele>935.98071289062</ele>
        <time>2012-05-13T10:02:24Z</time>
      </trkpt>
      <trkpt lat="43.88342" lon="6.97157">
        <ele>937.42260742188</ele>
        <time>2012-05-13T10:02:39Z</time>
      </trkpt>
      <trkpt lat="43.88342" lon="6.97155">
        <ele>937.42260742188</ele>
        <time>2012-05-13T10:02:40Z</time>
      </trkpt>
      <trkpt lat="43.8834" lon="6.97143">
        <ele>937.42260742188</ele>
        <time>2012-05-13T10:02:45Z</time>
      </trkpt>
      <trkpt lat="43.8834" lon="6.97135">
        <ele>937.9033203125</ele>
        <time>2012-05-13T10:02:50Z</time>
      </trkpt>
      <trkpt lat="43.88339" lon="6.97131">
        <ele>938.38403320312</ele>
        <time>2012-05-13T10:02:52Z</time>
      </trkpt>
      <trkpt lat="43.88339" lon="6.97125">
        <ele>938.38403320312</ele>
        <time>2012-05-13T10:02:55Z</time>
      </trkpt>
      <trkpt lat="43.88338" lon="6.97119">
        <ele>938.38403320312</ele>
        <time>2012-05-13T10:02:58Z</time>
      </trkpt>
      <trkpt lat="43.88336" lon="6.97105">
        <ele>938.86474609375</ele>
        <time>2012-05-13T10:03:03Z</time>
      </trkpt>
      <trkpt lat="43.88334" lon="6.97091">
        <ele>939.34521484375</ele>
        <time>2012-05-13T10:03:09Z</time>
      </trkpt>
      <trkpt lat="43.88328" lon="6.97059">
        <ele>939.82592773438</ele>
        <time>2012-05-13T10:03:19Z</time>
      </trkpt>
      <trkpt lat="43.88326" lon="6.97048">
        <ele>940.30688476562</ele>
        <time>2012-05-13T10:03:24Z</time>
      </trkpt>
      <trkpt lat="43.88324" lon="6.97037">
        <ele>940.30688476562</ele>
        <time>2012-05-13T10:03:27Z</time>
      </trkpt>
      <trkpt lat="43.88322" lon="6.97026">
        <ele>941.26806640625</ele>
        <time>2012-05-13T10:03:32Z</time>
      </trkpt>
      <trkpt lat="43.8832" lon="6.97011">
        <ele>941.74877929688</ele>
        <time>2012-05-13T10:03:37Z</time>
      </trkpt>
      <trkpt lat="43.88316" lon="6.96992">
        <ele>942.71020507812</ele>
        <time>2012-05-13T10:03:43Z</time>
      </trkpt>
      <trkpt lat="43.88313" lon="6.96971">
        <ele>943.19067382812</ele>
        <time>2012-05-13T10:03:51Z</time>
      </trkpt>
      <trkpt lat="43.88308" lon="6.96939">
        <ele>944.15209960938</ele>
        <time>2012-05-13T10:04:01Z</time>
      </trkpt>
      <trkpt lat="43.88299" lon="6.96889">
        <ele>944.63256835938</ele>
        <time>2012-05-13T10:04:13Z</time>
      </trkpt>
      <trkpt lat="43.88296" lon="6.96854">
        <ele>944.63256835938</ele>
        <time>2012-05-13T10:04:21Z</time>
      </trkpt>
      <trkpt lat="43.88294" lon="6.96816">
        <ele>944.15209960938</ele>
        <time>2012-05-13T10:04:32Z</time>
      </trkpt>
      <trkpt lat="43.88281" lon="6.96756">
        <ele>943.67138671875</ele>
        <time>2012-05-13T10:04:45Z</time>
      </trkpt>
      <trkpt lat="43.88281" lon="6.96752">
        <ele>943.67138671875</ele>
        <time>2012-05-13T10:04:46Z</time>
      </trkpt>
      <trkpt lat="43.8827" lon="6.96703">
        <ele>944.63256835938</ele>
        <time>2012-05-13T10:04:59Z</time>
      </trkpt>
      <trkpt lat="43.88268" lon="6.96663">
        <ele>945.11328125</ele>
        <time>2012-05-13T10:05:11Z</time>
      </trkpt>
      <trkpt lat="43.88263" lon="6.96622">
        <ele>945.59399414062</ele>
        <time>2012-05-13T10:05:21Z</time>
      </trkpt>
      <trkpt lat="43.88255" lon="6.96563">
        <ele>946.55541992188</ele>
        <time>2012-05-13T10:05:35Z</time>
      </trkpt>
      <trkpt lat="43.88242" lon="6.96502">
        <ele>947.03588867188</ele>
        <time>2012-05-13T10:05:47Z</time>
      </trkpt>
      <trkpt lat="43.88236" lon="6.96468">
        <ele>947.5166015625</ele>
        <time>2012-05-13T10:05:59Z</time>
      </trkpt>
      <trkpt lat="43.88231" lon="6.9644">
        <ele>947.99731445312</ele>
        <time>2012-05-13T10:06:06Z</time>
      </trkpt>
      <trkpt lat="43.88231" lon="6.96437">
        <ele>948.47778320312</ele>
        <time>2012-05-13T10:06:08Z</time>
      </trkpt>
      <trkpt lat="43.88229" lon="6.9643">
        <ele>948.47778320312</ele>
        <time>2012-05-13T10:06:11Z</time>
      </trkpt>
      <trkpt lat="43.88228" lon="6.96424">
        <ele>949.43920898438</ele>
        <time>2012-05-13T10:06:26Z</time>
      </trkpt>
      <trkpt lat="43.88228" lon="6.96424">
        <ele>950.40063476562</ele>
        <time>2012-05-13T10:06:36Z</time>
      </trkpt>
      <trkpt lat="43.88228" lon="6.96424">
        <ele>947.5166015625</ele>
        <time>2012-05-13T10:06:51Z</time>
      </trkpt>
      <trkpt lat="43.88228" lon="6.96424">
        <ele>947.5166015625</ele>
        <time>2012-05-13T10:06:52Z</time>
      </trkpt>
      <trkpt lat="43.88228" lon="6.96424">
        <ele>949.919921875</ele>
        <time>2012-05-13T10:06:54Z</time>
      </trkpt>
      <trkpt lat="43.88221" lon="6.96384">
        <ele>953.76513671875</ele>
        <time>2012-05-13T10:06:55Z</time>
      </trkpt>
      <trkpt lat="43.88221" lon="6.96382">
        <ele>950.40063476562</ele>
        <time>2012-05-13T10:06:56Z</time>
      </trkpt>
      <trkpt lat="43.88214" lon="6.96346">
        <ele>951.84252929688</ele>
        <time>2012-05-13T10:07:09Z</time>
      </trkpt>
      <trkpt lat="43.88205" lon="6.96305">
        <ele>953.28442382812</ele>
        <time>2012-05-13T10:07:24Z</time>
      </trkpt>
      <trkpt lat="43.88201" lon="6.96271">
        <ele>953.76513671875</ele>
        <time>2012-05-13T10:07:39Z</time>
      </trkpt>
      <trkpt lat="43.88199" lon="6.9625">
        <ele>954.72631835938</ele>
        <time>2012-05-13T10:07:57Z</time>
      </trkpt>
      <trkpt lat="43.88197" lon="6.96213">
        <ele>957.1298828125</ele>
        <time>2012-05-13T10:08:11Z</time>
      </trkpt>
      <trkpt lat="43.882" lon="6.96194">
        <ele>957.1298828125</ele>
        <time>2012-05-13T10:08:17Z</time>
      </trkpt>
      <trkpt lat="43.88203" lon="6.96162">
        <ele>959.05249023438</ele>
        <time>2012-05-13T10:08:30Z</time>
      </trkpt>
      <trkpt lat="43.88204" lon="6.96152">
        <ele>959.533203125</ele>
        <time>2012-05-13T10:08:35Z</time>
      </trkpt>
      <trkpt lat="43.88205" lon="6.96135">
        <ele>960.013671875</ele>
        <time>2012-05-13T10:08:42Z</time>
      </trkpt>
      <trkpt lat="43.88206" lon="6.96096">
        <ele>957.1298828125</ele>
        <time>2012-05-13T10:08:51Z</time>
      </trkpt>
      <trkpt lat="43.88206" lon="6.96024">
        <ele>953.76513671875</ele>
        <time>2012-05-13T10:09:03Z</time>
      </trkpt>
      <trkpt lat="43.88202" lon="6.95985">
        <ele>951.84252929688</ele>
        <time>2012-05-13T10:09:13Z</time>
      </trkpt>
      <trkpt lat="43.88199" lon="6.95957">
        <ele>951.84252929688</ele>
        <time>2012-05-13T10:09:21Z</time>
      </trkpt>
      <trkpt lat="43.88187" lon="6.95905">
        <ele>951.84252929688</ele>
        <time>2012-05-13T10:09:33Z</time>
      </trkpt>
      <trkpt lat="43.88183" lon="6.95878">
        <ele>950.88110351562</ele>
        <time>2012-05-13T10:09:44Z</time>
      </trkpt>
      <trkpt lat="43.88183" lon="6.95878">
        <ele>950.88110351562</ele>
        <time>2012-05-13T10:09:58Z</time>
      </trkpt>
      <trkpt lat="43.88182" lon="6.95792">
        <ele>950.88110351562</ele>
        <time>2012-05-13T10:10:03Z</time>
      </trkpt>
      <trkpt lat="43.88182" lon="6.95788">
        <ele>951.84252929688</ele>
        <time>2012-05-13T10:10:08Z</time>
      </trkpt>
      <trkpt lat="43.88184" lon="6.95752">
        <ele>952.8037109375</ele>
        <time>2012-05-13T10:10:19Z</time>
      </trkpt>
      <trkpt lat="43.88186" lon="6.95729">
        <ele>953.76513671875</ele>
        <time>2012-05-13T10:10:27Z</time>
      </trkpt>
      <trkpt lat="43.88187" lon="6.95723">
        <ele>954.24584960938</ele>
        <time>2012-05-13T10:10:30Z</time>
      </trkpt>
      <trkpt lat="43.88188" lon="6.95707">
        <ele>955.20703125</ele>
        <time>2012-05-13T10:10:36Z</time>
      </trkpt>
      <trkpt lat="43.88188" lon="6.95687">
        <ele>956.64916992188</ele>
        <time>2012-05-13T10:10:46Z</time>
      </trkpt>
      <trkpt lat="43.88186" lon="6.95638">
        <ele>957.1298828125</ele>
        <time>2012-05-13T10:11:00Z</time>
      </trkpt>
      <trkpt lat="43.88181" lon="6.95605">
        <ele>958.57177734375</ele>
        <time>2012-05-13T10:11:12Z</time>
      </trkpt>
      <trkpt lat="43.88179" lon="6.95598">
        <ele>958.57177734375</ele>
        <time>2012-05-13T10:11:15Z</time>
      </trkpt>
      <trkpt lat="43.88178" lon="6.95592">
        <ele>958.57177734375</ele>
        <time>2012-05-13T10:11:17Z</time>
      </trkpt>
      <trkpt lat="43.88173" lon="6.95578">
        <ele>959.533203125</ele>
        <time>2012-05-13T10:11:22Z</time>
      </trkpt>
      <trkpt lat="43.88173" lon="6.95576">
        <ele>960.013671875</ele>
        <time>2012-05-13T10:11:25Z</time>
      </trkpt>
      <trkpt lat="43.88171" lon="6.95564">
        <ele>960.97509765625</ele>
        <time>2012-05-13T10:11:37Z</time>
      </trkpt>
      <trkpt lat="43.88168" lon="6.95546">
        <ele>960.97509765625</ele>
        <time>2012-05-13T10:11:41Z</time>
      </trkpt>
      <trkpt lat="43.88159" lon="6.95502">
        <ele>961.9365234375</ele>
        <time>2012-05-13T10:11:56Z</time>
      </trkpt>
      <trkpt lat="43.88154" lon="6.95442">
        <ele>960.013671875</ele>
        <time>2012-05-13T10:12:09Z</time>
      </trkpt>
      <trkpt lat="43.88152" lon="6.95427">
        <ele>958.57177734375</ele>
        <time>2012-05-13T10:12:12Z</time>
      </trkpt>
      <trkpt lat="43.8815" lon="6.95378">
        <ele>955.68774414062</ele>
        <time>2012-05-13T10:12:20Z</time>
      </trkpt>
      <trkpt lat="43.8815" lon="6.95351">
        <ele>953.28442382812</ele>
        <time>2012-05-13T10:12:24Z</time>
      </trkpt>
      <trkpt lat="43.8815" lon="6.95329">
        <ele>950.88110351562</ele>
        <time>2012-05-13T10:12:28Z</time>
      </trkpt>
      <trkpt lat="43.8815" lon="6.95323">
        <ele>948.95849609375</ele>
        <time>2012-05-13T10:12:29Z</time>
      </trkpt>
      <trkpt lat="43.8815" lon="6.95305">
        <ele>947.5166015625</ele>
        <time>2012-05-13T10:12:32Z</time>
      </trkpt>
      <trkpt lat="43.8815" lon="6.95276">
        <ele>946.07470703125</ele>
        <time>2012-05-13T10:12:35Z</time>
      </trkpt>
      <trkpt lat="43.88152" lon="6.95259">
        <ele>944.15209960938</ele>
        <time>2012-05-13T10:12:39Z</time>
      </trkpt>
      <trkpt lat="43.88152" lon="6.95246">
        <ele>942.2294921875</ele>
        <time>2012-05-13T10:12:42Z</time>
      </trkpt>
      <trkpt lat="43.88152" lon="6.95232">
        <ele>941.26806640625</ele>
        <time>2012-05-13T10:12:44Z</time>
      </trkpt>
      <trkpt lat="43.88149" lon="6.95195">
        <ele>937.9033203125</ele>
        <time>2012-05-13T10:12:49Z</time>
      </trkpt>
      <trkpt lat="43.88148" lon="6.95176">
        <ele>936.46142578125</ele>
        <time>2012-05-13T10:12:51Z</time>
      </trkpt>
      <trkpt lat="43.88148" lon="6.95173">
        <ele>935.01953125</ele>
        <time>2012-05-13T10:12:53Z</time>
      </trkpt>
      <trkpt lat="43.88151" lon="6.95159">
        <ele>933.0966796875</ele>
        <time>2012-05-13T10:12:56Z</time>
      </trkpt>
      <trkpt lat="43.88152" lon="6.9515">
        <ele>931.65478515625</ele>
        <time>2012-05-13T10:12:58Z</time>
      </trkpt>
      <trkpt lat="43.88155" lon="6.95121">
        <ele>927.8095703125</ele>
        <time>2012-05-13T10:13:04Z</time>
      </trkpt>
      <trkpt lat="43.88155" lon="6.95117">
        <ele>927.8095703125</ele>
        <time>2012-05-13T10:13:05Z</time>
      </trkpt>
      <trkpt lat="43.88156" lon="6.95111">
        <ele>925.88696289062</ele>
        <time>2012-05-13T10:13:07Z</time>
      </trkpt>
      <trkpt lat="43.88156" lon="6.95106">
        <ele>924.44506835938</ele>
        <time>2012-05-13T10:13:09Z</time>
      </trkpt>
      <trkpt lat="43.88156" lon="6.95097">
        <ele>921.56079101562</ele>
        <time>2012-05-13T10:13:12Z</time>
      </trkpt>
      <trkpt lat="43.88157" lon="6.95077">
        <ele>918.1962890625</ele>
        <time>2012-05-13T10:13:18Z</time>
      </trkpt>
      <trkpt lat="43.88158" lon="6.95071">
        <ele>918.1962890625</ele>
        <time>2012-05-13T10:13:19Z</time>
      </trkpt>
      <trkpt lat="43.88161" lon="6.95058">
        <ele>915.79321289062</ele>
        <time>2012-05-13T10:13:21Z</time>
      </trkpt>
      <trkpt lat="43.88163" lon="6.95043">
        <ele>914.35107421875</ele>
        <time>2012-05-13T10:13:23Z</time>
      </trkpt>
      <trkpt lat="43.88163" lon="6.95041">
        <ele>910.98657226562</ele>
        <time>2012-05-13T10:13:24Z</time>
      </trkpt>
      <trkpt lat="43.88163" lon="6.95021">
        <ele>908.10278320312</ele>
        <time>2012-05-13T10:13:26Z</time>
      </trkpt>
      <trkpt lat="43.88168" lon="6.95004">
        <ele>906.1796875</ele>
        <time>2012-05-13T10:13:28Z</time>
      </trkpt>
      <trkpt lat="43.88171" lon="6.94997">
        <ele>903.77661132812</ele>
        <time>2012-05-13T10:13:29Z</time>
      </trkpt>
      <trkpt lat="43.88178" lon="6.94979">
        <ele>900.412109375</ele>
        <time>2012-05-13T10:13:32Z</time>
      </trkpt>
      <trkpt lat="43.88194" lon="6.94941">
        <ele>899.45068359375</ele>
        <time>2012-05-13T10:13:35Z</time>
      </trkpt>
      <trkpt lat="43.88203" lon="6.94917">
        <ele>897.52807617188</ele>
        <time>2012-05-13T10:13:37Z</time>
      </trkpt>
      <trkpt lat="43.88212" lon="6.94886">
        <ele>894.64404296875</ele>
        <time>2012-05-13T10:13:40Z</time>
      </trkpt>
      <trkpt lat="43.88216" lon="6.94859">
        <ele>892.24096679688</ele>
        <time>2012-05-13T10:13:44Z</time>
      </trkpt>
      <trkpt lat="43.8822" lon="6.94836">
        <ele>889.35668945312</ele>
        <time>2012-05-13T10:13:46Z</time>
      </trkpt>
      <trkpt lat="43.88223" lon="6.94798">
        <ele>885.51147460938</ele>
        <time>2012-05-13T10:13:48Z</time>
      </trkpt>
      <trkpt lat="43.88223" lon="6.94791">
        <ele>885.51147460938</ele>
        <time>2012-05-13T10:13:49Z</time>
      </trkpt>
      <trkpt lat="43.88223" lon="6.94791">
        <ele>883.5888671875</ele>
        <time>2012-05-13T10:13:51Z</time>
      </trkpt>
      <trkpt lat="43.88223" lon="6.94791">
        <ele>881.18579101562</ele>
        <time>2012-05-13T10:13:56Z</time>
      </trkpt>
      <trkpt lat="43.88223" lon="6.94791">
        <ele>881.66625976562</ele>
        <time>2012-05-13T10:14:08Z</time>
      </trkpt>
      <trkpt lat="43.88223" lon="6.94791">
        <ele>881.18579101562</ele>
        <time>2012-05-13T10:14:22Z</time>
      </trkpt>
      <trkpt lat="43.88225" lon="6.94777">
        <ele>878.78247070312</ele>
        <time>2012-05-13T10:14:26Z</time>
      </trkpt>
      <trkpt lat="43.88246" lon="6.94794">
        <ele>875.89819335938</ele>
        <time>2012-05-13T10:14:30Z</time>
      </trkpt>
      <trkpt lat="43.88247" lon="6.94798">
        <ele>874.93701171875</ele>
        <time>2012-05-13T10:14:31Z</time>
      </trkpt>
      <trkpt lat="43.8825" lon="6.94804">
        <ele>873.01440429688</ele>
        <time>2012-05-13T10:14:33Z</time>
      </trkpt>
      <trkpt lat="43.88256" lon="6.94818">
        <ele>870.13037109375</ele>
        <time>2012-05-13T10:14:37Z</time>
      </trkpt>
      <trkpt lat="43.88257" lon="6.94823">
        <ele>868.6884765625</ele>
        <time>2012-05-13T10:14:38Z</time>
      </trkpt>
      <trkpt lat="43.8826" lon="6.94829">
        <ele>866.76586914062</ele>
        <time>2012-05-13T10:14:40Z</time>
      </trkpt>
      <trkpt lat="43.88261" lon="6.94835">
        <ele>864.84326171875</ele>
        <time>2012-05-13T10:14:42Z</time>
      </trkpt>
      <trkpt lat="43.88261" lon="6.94835">
        <ele>862.43994140625</ele>
        <time>2012-05-13T10:14:46Z</time>
      </trkpt>
      <trkpt lat="43.88268" lon="6.9481">
        <ele>858.59448242188</ele>
        <time>2012-05-13T10:14:55Z</time>
      </trkpt>
      <trkpt lat="43.88266" lon="6.94799">
        <ele>857.63330078125</ele>
        <time>2012-05-13T10:14:57Z</time>
      </trkpt>
      <trkpt lat="43.88263" lon="6.94787">
        <ele>854.74926757812</ele>
        <time>2012-05-13T10:15:01Z</time>
      </trkpt>
      <trkpt lat="43.88264" lon="6.94771">
        <ele>853.7880859375</ele>
        <time>2012-05-13T10:15:02Z</time>
      </trkpt>
      <trkpt lat="43.88272" lon="6.94747">
        <ele>850.90405273438</ele>
        <time>2012-05-13T10:15:08Z</time>
      </trkpt>
      <trkpt lat="43.88273" lon="6.94703">
        <ele>846.57836914062</ele>
        <time>2012-05-13T10:15:15Z</time>
      </trkpt>
      <trkpt lat="43.88275" lon="6.94693">
        <ele>844.65551757812</ele>
        <time>2012-05-13T10:15:17Z</time>
      </trkpt>
      <trkpt lat="43.8828" lon="6.94668">
        <ele>841.29077148438</ele>
        <time>2012-05-13T10:15:23Z</time>
      </trkpt>
      <trkpt lat="43.88282" lon="6.94664">
        <ele>841.29077148438</ele>
        <time>2012-05-13T10:15:24Z</time>
      </trkpt>
      <trkpt lat="43.88285" lon="6.94653">
        <ele>839.84887695312</ele>
        <time>2012-05-13T10:15:26Z</time>
      </trkpt>
      <trkpt lat="43.88286" lon="6.94643">
        <ele>838.40698242188</ele>
        <time>2012-05-13T10:15:28Z</time>
      </trkpt>
      <trkpt lat="43.88289" lon="6.94624">
        <ele>835.52294921875</ele>
        <time>2012-05-13T10:15:31Z</time>
      </trkpt>
      <trkpt lat="43.88291" lon="6.94612">
        <ele>833.60034179688</ele>
        <time>2012-05-13T10:15:33Z</time>
      </trkpt>
      <trkpt lat="43.88294" lon="6.94598">
        <ele>832.63916015625</ele>
        <time>2012-05-13T10:15:35Z</time>
      </trkpt>
      <trkpt lat="43.88295" lon="6.94591">
        <ele>831.677734375</ele>
        <time>2012-05-13T10:15:36Z</time>
      </trkpt>
      <trkpt lat="43.88297" lon="6.94577">
        <ele>830.23583984375</ele>
        <time>2012-05-13T10:15:38Z</time>
      </trkpt>
      <trkpt lat="43.88298" lon="6.94564">
        <ele>828.7939453125</ele>
        <time>2012-05-13T10:15:40Z</time>
      </trkpt>
      <trkpt lat="43.88298" lon="6.94556">
        <ele>827.83227539062</ele>
        <time>2012-05-13T10:15:41Z</time>
      </trkpt>
      <trkpt lat="43.88296" lon="6.94534">
        <ele>824.94848632812</ele>
        <time>2012-05-13T10:15:44Z</time>
      </trkpt>
      <trkpt lat="43.88296" lon="6.94527">
        <ele>824.94848632812</ele>
        <time>2012-05-13T10:15:45Z</time>
      </trkpt>
      <trkpt lat="43.88299" lon="6.94498">
        <ele>822.54516601562</ele>
        <time>2012-05-13T10:15:49Z</time>
      </trkpt>
      <trkpt lat="43.883" lon="6.94478">
        <ele>820.14184570312</ele>
        <time>2012-05-13T10:15:52Z</time>
      </trkpt>
      <trkpt lat="43.883" lon="6.94472">
        <ele>818.69995117188</ele>
        <time>2012-05-13T10:15:53Z</time>
      </trkpt>
      <trkpt lat="43.88306" lon="6.94438">
        <ele>816.29663085938</ele>
        <time>2012-05-13T10:15:58Z</time>
      </trkpt>
      <trkpt lat="43.88308" lon="6.94426">
        <ele>812.45141601562</ele>
        <time>2012-05-13T10:16:00Z</time>
      </trkpt>
      <trkpt lat="43.88311" lon="6.94405">
        <ele>810.52856445312</ele>
        <time>2012-05-13T10:16:03Z</time>
      </trkpt>
      <trkpt lat="43.88314" lon="6.94392">
        <ele>809.08666992188</ele>
        <time>2012-05-13T10:16:05Z</time>
      </trkpt>
      <trkpt lat="43.88315" lon="6.94368">
        <ele>805.24145507812</ele>
        <time>2012-05-13T10:16:08Z</time>
      </trkpt>
      <trkpt lat="43.88315" lon="6.94355">
        <ele>803.79956054688</ele>
        <time>2012-05-13T10:16:10Z</time>
      </trkpt>
      <trkpt lat="43.88318" lon="6.9434">
        <ele>802.357421875</ele>
        <time>2012-05-13T10:16:12Z</time>
      </trkpt>
      <trkpt lat="43.88321" lon="6.94322">
        <ele>798.51220703125</ele>
        <time>2012-05-13T10:16:15Z</time>
      </trkpt>
      <trkpt lat="43.88325" lon="6.94308">
        <ele>796.58984375</ele>
        <time>2012-05-13T10:16:17Z</time>
      </trkpt>
      <trkpt lat="43.8833" lon="6.9429">
        <ele>793.70556640625</ele>
        <time>2012-05-13T10:16:20Z</time>
      </trkpt>
      <trkpt lat="43.88334" lon="6.94276">
        <ele>792.74438476562</ele>
        <time>2012-05-13T10:16:22Z</time>
      </trkpt>
      <trkpt lat="43.88339" lon="6.94262">
        <ele>790.82153320312</ele>
        <time>2012-05-13T10:16:24Z</time>
      </trkpt>
      <trkpt lat="43.88344" lon="6.94249">
        <ele>789.37963867188</ele>
        <time>2012-05-13T10:16:26Z</time>
      </trkpt>
      <trkpt lat="43.88349" lon="6.94237">
        <ele>785.53442382812</ele>
        <time>2012-05-13T10:16:28Z</time>
      </trkpt>
      <trkpt lat="43.88351" lon="6.9423">
        <ele>785.53442382812</ele>
        <time>2012-05-13T10:16:29Z</time>
      </trkpt>
      <trkpt lat="43.88353" lon="6.94221">
        <ele>783.61181640625</ele>
        <time>2012-05-13T10:16:31Z</time>
      </trkpt>
      <trkpt lat="43.88353" lon="6.94221">
        <ele>782.65063476562</ele>
        <time>2012-05-13T10:16:32Z</time>
      </trkpt>
      <trkpt lat="43.88364" lon="6.94225">
        <ele>781.20874023438</ele>
        <time>2012-05-13T10:16:36Z</time>
      </trkpt>
      <trkpt lat="43.88373" lon="6.94211">
        <ele>778.32446289062</ele>
        <time>2012-05-13T10:16:41Z</time>
      </trkpt>
      <trkpt lat="43.88376" lon="6.94219">
        <ele>775.92114257812</ele>
        <time>2012-05-13T10:16:45Z</time>
      </trkpt>
      <trkpt lat="43.88377" lon="6.94219">
        <ele>775.4404296875</ele>
        <time>2012-05-13T10:16:50Z</time>
      </trkpt>
      <trkpt lat="43.88386" lon="6.9419">
        <ele>769.6728515625</ele>
        <time>2012-05-13T10:16:58Z</time>
      </trkpt>
      <trkpt lat="43.88385" lon="6.94155">
        <ele>766.78881835938</ele>
        <time>2012-05-13T10:17:04Z</time>
      </trkpt>
      <trkpt lat="43.88383" lon="6.94142">
        <ele>765.82763671875</ele>
        <time>2012-05-13T10:17:06Z</time>
      </trkpt>
      <trkpt lat="43.8838" lon="6.94132">
        <ele>764.38549804688</ele>
        <time>2012-05-13T10:17:08Z</time>
      </trkpt>
      <trkpt lat="43.88379" lon="6.94125">
        <ele>762.46264648438</ele>
        <time>2012-05-13T10:17:10Z</time>
      </trkpt>
      <trkpt lat="43.88379" lon="6.94116">
        <ele>759.09814453125</ele>
        <time>2012-05-13T10:17:12Z</time>
      </trkpt>
      <trkpt lat="43.88379" lon="6.94112">
        <ele>759.09814453125</ele>
        <time>2012-05-13T10:17:13Z</time>
      </trkpt>
      <trkpt lat="43.88379" lon="6.94103">
        <ele>757.65625</ele>
        <time>2012-05-13T10:17:15Z</time>
      </trkpt>
      <trkpt lat="43.88389" lon="6.94108">
        <ele>753.33032226562</ele>
        <time>2012-05-13T10:17:21Z</time>
      </trkpt>
      <trkpt lat="43.8839" lon="6.94109">
        <ele>753.33032226562</ele>
        <time>2012-05-13T10:17:22Z</time>
      </trkpt>
      <trkpt lat="43.88401" lon="6.9412">
        <ele>750.44653320312</ele>
        <time>2012-05-13T10:17:26Z</time>
      </trkpt>
      <trkpt lat="43.88409" lon="6.94123">
        <ele>747.56225585938</ele>
        <time>2012-05-13T10:17:28Z</time>
      </trkpt>
      <trkpt lat="43.88412" lon="6.94125">
        <ele>747.56225585938</ele>
        <time>2012-05-13T10:17:29Z</time>
      </trkpt>
      <trkpt lat="43.88424" lon="6.94138">
        <ele>744.67822265625</ele>
        <time>2012-05-13T10:17:33Z</time>
      </trkpt>
      <trkpt lat="43.88431" lon="6.94151">
        <ele>742.27514648438</ele>
        <time>2012-05-13T10:17:36Z</time>
      </trkpt>
      <trkpt lat="43.88434" lon="6.9416">
        <ele>740.8330078125</ele>
        <time>2012-05-13T10:17:38Z</time>
      </trkpt>
      <trkpt lat="43.88436" lon="6.94165">
        <ele>739.39111328125</ele>
        <time>2012-05-13T10:17:39Z</time>
      </trkpt>
      <trkpt lat="43.88443" lon="6.94179">
        <ele>735.5458984375</ele>
        <time>2012-05-13T10:17:42Z</time>
      </trkpt>
      <trkpt lat="43.88444" lon="6.94185">
        <ele>735.5458984375</ele>
        <time>2012-05-13T10:17:43Z</time>
      </trkpt>
      <trkpt lat="43.88448" lon="6.94197">
        <ele>733.142578125</ele>
        <time>2012-05-13T10:17:45Z</time>
      </trkpt>
      <trkpt lat="43.88451" lon="6.94207">
        <ele>731.21997070312</ele>
        <time>2012-05-13T10:17:47Z</time>
      </trkpt>
      <trkpt lat="43.88452" lon="6.94213">
        <ele>727.85522460938</ele>
        <time>2012-05-13T10:17:49Z</time>
      </trkpt>
      <trkpt lat="43.88452" lon="6.94213">
        <ele>727.85522460938</ele>
        <time>2012-05-13T10:17:50Z</time>
      </trkpt>
      <trkpt lat="43.88452" lon="6.94213">
        <ele>726.89404296875</ele>
        <time>2012-05-13T10:17:51Z</time>
      </trkpt>
      <trkpt lat="43.88458" lon="6.94203">
        <ele>724.49072265625</ele>
        <time>2012-05-13T10:17:56Z</time>
      </trkpt>
      <trkpt lat="43.88461" lon="6.94141">
        <ele>721.12622070312</ele>
        <time>2012-05-13T10:18:07Z</time>
      </trkpt>
      <trkpt lat="43.88461" lon="6.94129">
        <ele>720.16479492188</ele>
        <time>2012-05-13T10:18:09Z</time>
      </trkpt>
      <trkpt lat="43.88461" lon="6.94108">
        <ele>718.72290039062</ele>
        <time>2012-05-13T10:18:13Z</time>
      </trkpt>
      <trkpt lat="43.88461" lon="6.94097">
        <ele>717.28100585938</ele>
        <time>2012-05-13T10:18:15Z</time>
      </trkpt>
      <trkpt lat="43.88459" lon="6.94078">
        <ele>713.916015625</ele>
        <time>2012-05-13T10:18:19Z</time>
      </trkpt>
      <trkpt lat="43.88459" lon="6.94074">
        <ele>713.916015625</ele>
        <time>2012-05-13T10:18:20Z</time>
      </trkpt>
      <trkpt lat="43.88455" lon="6.94056">
        <ele>711.0322265625</ele>
        <time>2012-05-13T10:18:25Z</time>
      </trkpt>
      <trkpt lat="43.88454" lon="6.94053">
        <ele>710.07080078125</ele>
        <time>2012-05-13T10:18:26Z</time>
      </trkpt>
      <trkpt lat="43.88446" lon="6.94032">
        <ele>707.18701171875</ele>
        <time>2012-05-13T10:18:33Z</time>
      </trkpt>
      <trkpt lat="43.88446" lon="6.94032">
        <ele>706.2255859375</ele>
        <time>2012-05-13T10:18:45Z</time>
      </trkpt>
      <trkpt lat="43.88446" lon="6.94032">
        <ele>706.2255859375</ele>
        <time>2012-05-13T10:18:54Z</time>
      </trkpt>
      <trkpt lat="43.88454" lon="6.94029">
        <ele>704.78369140625</ele>
        <time>2012-05-13T10:18:58Z</time>
      </trkpt>
      <trkpt lat="43.88471" lon="6.9404">
        <ele>702.38037109375</ele>
        <time>2012-05-13T10:19:04Z</time>
      </trkpt>
      <trkpt lat="43.88479" lon="6.9405">
        <ele>699.97705078125</ele>
        <time>2012-05-13T10:19:08Z</time>
      </trkpt>
      <trkpt lat="43.88485" lon="6.94059">
        <ele>698.53491210938</ele>
        <time>2012-05-13T10:19:11Z</time>
      </trkpt>
      <trkpt lat="43.88487" lon="6.94062">
        <ele>697.09301757812</ele>
        <time>2012-05-13T10:19:12Z</time>
      </trkpt>
      <trkpt lat="43.88494" lon="6.94071">
        <ele>695.65112304688</ele>
        <time>2012-05-13T10:19:15Z</time>
      </trkpt>
      <trkpt lat="43.88497" lon="6.94075">
        <ele>694.20922851562</ele>
        <time>2012-05-13T10:19:16Z</time>
      </trkpt>
      <trkpt lat="43.88501" lon="6.94082">
        <ele>692.28662109375</ele>
        <time>2012-05-13T10:19:18Z</time>
      </trkpt>
      <trkpt lat="43.88506" lon="6.9409">
        <ele>691.3251953125</ele>
        <time>2012-05-13T10:19:20Z</time>
      </trkpt>
      <trkpt lat="43.88514" lon="6.94097">
        <ele>689.40258789062</ele>
        <time>2012-05-13T10:19:22Z</time>
      </trkpt>
      <trkpt lat="43.88526" lon="6.94103">
        <ele>685.55737304688</ele>
        <time>2012-05-13T10:19:25Z</time>
      </trkpt>
      <trkpt lat="43.88535" lon="6.94108">
        <ele>684.11547851562</ele>
        <time>2012-05-13T10:19:27Z</time>
      </trkpt>
      <trkpt lat="43.88549" lon="6.9411">
        <ele>682.19262695312</ele>
        <time>2012-05-13T10:19:29Z</time>
      </trkpt>
      <trkpt lat="43.88559" lon="6.94102">
        <ele>680.27001953125</ele>
        <time>2012-05-13T10:19:31Z</time>
      </trkpt>
      <trkpt lat="43.88568" lon="6.94094">
        <ele>676.4248046875</ele>
        <time>2012-05-13T10:19:33Z</time>
      </trkpt>
      <trkpt lat="43.88571" lon="6.94088">
        <ele>676.4248046875</ele>
        <time>2012-05-13T10:19:34Z</time>
      </trkpt>
      <trkpt lat="43.88572" lon="6.94082">
        <ele>675.46337890625</ele>
        <time>2012-05-13T10:19:35Z</time>
      </trkpt>
      <trkpt lat="43.88575" lon="6.94067">
        <ele>672.57958984375</ele>
        <time>2012-05-13T10:19:37Z</time>
      </trkpt>
      <trkpt lat="43.88579" lon="6.94056">
        <ele>670.65698242188</ele>
        <time>2012-05-13T10:19:39Z</time>
      </trkpt>
      <trkpt lat="43.88581" lon="6.94046">
        <ele>668.25366210938</ele>
        <time>2012-05-13T10:19:41Z</time>
      </trkpt>
      <trkpt lat="43.88583" lon="6.94035">
        <ele>666.33081054688</ele>
        <time>2012-05-13T10:19:43Z</time>
      </trkpt>
      <trkpt lat="43.88581" lon="6.94024">
        <ele>664.88891601562</ele>
        <time>2012-05-13T10:19:45Z</time>
      </trkpt>
      <trkpt lat="43.88578" lon="6.94005">
        <ele>660.56298828125</ele>
        <time>2012-05-13T10:19:48Z</time>
      </trkpt>
      <trkpt lat="43.88575" lon="6.9399">
        <ele>657.67919921875</ele>
        <time>2012-05-13T10:19:50Z</time>
      </trkpt>
      <trkpt lat="43.88572" lon="6.93973">
        <ele>654.79516601562</ele>
        <time>2012-05-13T10:19:52Z</time>
      </trkpt>
      <trkpt lat="43.88566" lon="6.93956">
        <ele>649.02709960938</ele>
        <time>2012-05-13T10:19:54Z</time>
      </trkpt>
      <trkpt lat="43.88565" lon="6.9395">
        <ele>649.02709960938</ele>
        <time>2012-05-13T10:19:55Z</time>
      </trkpt>
      <trkpt lat="43.88561" lon="6.93936">
        <ele>646.6240234375</ele>
        <time>2012-05-13T10:19:57Z</time>
      </trkpt>
      <trkpt lat="43.8856" lon="6.93917">
        <ele>644.701171875</ele>
        <time>2012-05-13T10:19:59Z</time>
      </trkpt>
      <trkpt lat="43.8856" lon="6.93908">
        <ele>642.77880859375</ele>
        <time>2012-05-13T10:20:00Z</time>
      </trkpt>
      <trkpt lat="43.8856" lon="6.93892">
        <ele>641.33666992188</ele>
        <time>2012-05-13T10:20:02Z</time>
      </trkpt>
      <trkpt lat="43.88557" lon="6.93861">
        <ele>637.49145507812</ele>
        <time>2012-05-13T10:20:07Z</time>
      </trkpt>
      <trkpt lat="43.88557" lon="6.93851">
        <ele>636.04956054688</ele>
        <time>2012-05-13T10:20:09Z</time>
      </trkpt>
      <trkpt lat="43.88557" lon="6.93846">
        <ele>635.08813476562</ele>
        <time>2012-05-13T10:20:11Z</time>
      </trkpt>
      <trkpt lat="43.88545" lon="6.93811">
        <ele>634.607421875</ele>
        <time>2012-05-13T10:20:26Z</time>
      </trkpt>
      <trkpt lat="43.88523" lon="6.93803">
        <ele>635.08813476562</ele>
        <time>2012-05-13T10:20:41Z</time>
      </trkpt>
      <trkpt lat="43.88498" lon="6.9378">
        <ele>636.5302734375</ele>
        <time>2012-05-13T10:20:53Z</time>
      </trkpt>
      <trkpt lat="43.88485" lon="6.93729">
        <ele>637.97216796875</ele>
        <time>2012-05-13T10:21:10Z</time>
      </trkpt>
      <trkpt lat="43.88471" lon="6.93722">
        <ele>638.93359375</ele>
        <time>2012-05-13T10:21:22Z</time>
      </trkpt>
      <trkpt lat="43.88449" lon="6.93726">
        <ele>639.89477539062</ele>
        <time>2012-05-13T10:21:33Z</time>
      </trkpt>
      <trkpt lat="43.8843" lon="6.93732">
        <ele>641.33666992188</ele>
        <time>2012-05-13T10:21:43Z</time>
      </trkpt>
      <trkpt lat="43.88424" lon="6.93738">
        <ele>640.85595703125</ele>
        <time>2012-05-13T10:21:46Z</time>
      </trkpt>
      <trkpt lat="43.88413" lon="6.93751">
        <ele>641.33666992188</ele>
        <time>2012-05-13T10:21:56Z</time>
      </trkpt>
      <trkpt lat="43.88402" lon="6.93758">
        <ele>643.73999023438</ele>
        <time>2012-05-13T10:22:10Z</time>
      </trkpt>
      <trkpt lat="43.88402" lon="6.93758">
        <ele>644.220703125</ele>
        <time>2012-05-13T10:22:14Z</time>
      </trkpt>
      <trkpt lat="43.88301" lon="6.93784">
        <ele>644.701171875</ele>
        <time>2012-05-13T10:22:25Z</time>
      </trkpt>
      <trkpt lat="43.88287" lon="6.93767">
        <ele>647.58520507812</ele>
        <time>2012-05-13T10:22:38Z</time>
      </trkpt>
      <trkpt lat="43.88287" lon="6.93767">
        <ele>648.06591796875</ele>
        <time>2012-05-13T10:22:44Z</time>
      </trkpt>
      <trkpt lat="43.88259" lon="6.93747">
        <ele>649.02709960938</ele>
        <time>2012-05-13T10:22:51Z</time>
      </trkpt>
      <trkpt lat="43.88247" lon="6.93754">
        <ele>651.9111328125</ele>
        <time>2012-05-13T10:22:58Z</time>
      </trkpt>
      <trkpt lat="43.88241" lon="6.9376">
        <ele>651.43041992188</ele>
        <time>2012-05-13T10:23:00Z</time>
      </trkpt>
      <trkpt lat="43.88214" lon="6.93759">
        <ele>651.9111328125</ele>
        <time>2012-05-13T10:23:11Z</time>
      </trkpt>
      <trkpt lat="43.88199" lon="6.93761">
        <ele>653.833984375</ele>
        <time>2012-05-13T10:23:20Z</time>
      </trkpt>
      <trkpt lat="43.88189" lon="6.93793">
        <ele>655.27587890625</ele>
        <time>2012-05-13T10:23:32Z</time>
      </trkpt>
      <trkpt lat="43.8817" lon="6.9383">
        <ele>656.7177734375</ele>
        <time>2012-05-13T10:23:46Z</time>
      </trkpt>
      <trkpt lat="43.8813" lon="6.93882">
        <ele>658.15991210938</ele>
        <time>2012-05-13T10:24:03Z</time>
      </trkpt>
      <trkpt lat="43.88123" lon="6.93888">
        <ele>659.12109375</ele>
        <time>2012-05-13T10:24:08Z</time>
      </trkpt>
      <trkpt lat="43.88116" lon="6.93892">
        <ele>659.60180664062</ele>
        <time>2012-05-13T10:24:13Z</time>
      </trkpt>
      <trkpt lat="43.88066" lon="6.93881">
        <ele>660.56298828125</ele>
        <time>2012-05-13T10:24:17Z</time>
      </trkpt>
      <trkpt lat="43.88084" lon="6.93921">
        <ele>661.5244140625</ele>
        <time>2012-05-13T10:24:28Z</time>
      </trkpt>
      <trkpt lat="43.88078" lon="6.93933">
        <ele>662.00512695312</ele>
        <time>2012-05-13T10:24:33Z</time>
      </trkpt>
      <trkpt lat="43.88071" lon="6.93949">
        <ele>662.96630859375</ele>
        <time>2012-05-13T10:24:39Z</time>
      </trkpt>
      <trkpt lat="43.88036" lon="6.94006">
        <ele>664.88891601562</ele>
        <time>2012-05-13T10:24:55Z</time>
      </trkpt>
      <trkpt lat="43.88019" lon="6.94046">
        <ele>667.29223632812</ele>
        <time>2012-05-13T10:25:09Z</time>
      </trkpt>
      <trkpt lat="43.87999" lon="6.94138">
        <ele>669.69580078125</ele>
        <time>2012-05-13T10:25:29Z</time>
      </trkpt>
      <trkpt lat="43.87987" lon="6.94214">
        <ele>671.1376953125</ele>
        <time>2012-05-13T10:25:47Z</time>
      </trkpt>
      <trkpt lat="43.87969" lon="6.94279">
        <ele>672.57958984375</ele>
        <time>2012-05-13T10:26:00Z</time>
      </trkpt>
      <trkpt lat="43.87946" lon="6.94334">
        <ele>674.50219726562</ele>
        <time>2012-05-13T10:26:14Z</time>
      </trkpt>
      <trkpt lat="43.87925" lon="6.94387">
        <ele>675.94409179688</ele>
        <time>2012-05-13T10:26:27Z</time>
      </trkpt>
      <trkpt lat="43.87897" lon="6.94449">
        <ele>677.86669921875</ele>
        <time>2012-05-13T10:26:42Z</time>
      </trkpt>
      <trkpt lat="43.87873" lon="6.94535">
        <ele>678.34741210938</ele>
        <time>2012-05-13T10:26:59Z</time>
      </trkpt>
      <trkpt lat="43.87869" lon="6.94545">
        <ele>678.828125</ele>
        <time>2012-05-13T10:27:01Z</time>
      </trkpt>
      <trkpt lat="43.87833" lon="6.94597">
        <ele>680.75073242188</ele>
        <time>2012-05-13T10:27:15Z</time>
      </trkpt>
      <trkpt lat="43.87812" lon="6.94628">
        <ele>681.2314453125</ele>
        <time>2012-05-13T10:27:21Z</time>
      </trkpt>
      <trkpt lat="43.87809" lon="6.94673">
        <ele>681.7119140625</ele>
        <time>2012-05-13T10:27:28Z</time>
      </trkpt>
      <trkpt lat="43.87804" lon="6.94695">
        <ele>681.7119140625</ele>
        <time>2012-05-13T10:27:32Z</time>
      </trkpt>
      <trkpt lat="43.87764" lon="6.94795">
        <ele>683.63452148438</ele>
        <time>2012-05-13T10:27:51Z</time>
      </trkpt>
      <trkpt lat="43.87735" lon="6.94873">
        <ele>686.0380859375</ele>
        <time>2012-05-13T10:28:08Z</time>
      </trkpt>
      <trkpt lat="43.87712" lon="6.94945">
        <ele>688.44140625</ele>
        <time>2012-05-13T10:28:24Z</time>
      </trkpt>
      <trkpt lat="43.87673" lon="6.95015">
        <ele>690.84448242188</ele>
        <time>2012-05-13T10:28:41Z</time>
      </trkpt>
      <trkpt lat="43.8766" lon="6.95018">
        <ele>691.3251953125</ele>
        <time>2012-05-13T10:28:45Z</time>
      </trkpt>
      <trkpt lat="43.87659" lon="6.95022">
        <ele>691.80590820312</ele>
        <time>2012-05-13T10:28:55Z</time>
      </trkpt>
      <trkpt lat="43.87659" lon="6.95022">
        <ele>693.24780273438</ele>
        <time>2012-05-13T10:29:04Z</time>
      </trkpt>
      <trkpt lat="43.87659" lon="6.95022">
        <ele>694.20922851562</ele>
        <time>2012-05-13T10:29:09Z</time>
      </trkpt>
      <trkpt lat="43.87651" lon="6.95056">
        <ele>697.09301757812</ele>
        <time>2012-05-13T10:29:26Z</time>
      </trkpt>
      <trkpt lat="43.87651" lon="6.95056">
        <ele>697.09301757812</ele>
        <time>2012-05-13T10:29:29Z</time>
      </trkpt>
      <trkpt lat="43.87646" lon="6.9507">
        <ele>699.015625</ele>
        <time>2012-05-13T10:29:40Z</time>
      </trkpt>
      <trkpt lat="43.87646" lon="6.9507">
        <ele>699.49633789062</ele>
        <time>2012-05-13T10:29:47Z</time>
      </trkpt>
      <trkpt lat="43.87633" lon="6.95084">
        <ele>700.4580078125</ele>
        <time>2012-05-13T10:29:51Z</time>
      </trkpt>
      <trkpt lat="43.87625" lon="6.95102">
        <ele>703.341796875</ele>
        <time>2012-05-13T10:30:07Z</time>
      </trkpt>
      <trkpt lat="43.87623" lon="6.95116">
        <ele>704.78369140625</ele>
        <time>2012-05-13T10:30:21Z</time>
      </trkpt>
      <trkpt lat="43.87623" lon="6.95116">
        <ele>703.82250976562</ele>
        <time>2012-05-13T10:30:39Z</time>
      </trkpt>
      <trkpt lat="43.8762" lon="6.95136">
        <ele>705.7451171875</ele>
        <time>2012-05-13T10:30:51Z</time>
      </trkpt>
      <trkpt lat="43.87612" lon="6.95184">
        <ele>705.26440429688</ele>
        <time>2012-05-13T10:31:02Z</time>
      </trkpt>
      <trkpt lat="43.87605" lon="6.95213">
        <ele>705.26440429688</ele>
        <time>2012-05-13T10:31:14Z</time>
      </trkpt>
      <trkpt lat="43.87603" lon="6.95235">
        <ele>706.2255859375</ele>
        <time>2012-05-13T10:31:22Z</time>
      </trkpt>
      <trkpt lat="43.87602" lon="6.95243">
        <ele>706.70629882812</ele>
        <time>2012-05-13T10:31:35Z</time>
      </trkpt>
      <trkpt lat="43.87598" lon="6.95262">
        <ele>708.62890625</ele>
        <time>2012-05-13T10:31:53Z</time>
      </trkpt>
      <trkpt lat="43.87596" lon="6.95282">
        <ele>710.55151367188</ele>
        <time>2012-05-13T10:32:04Z</time>
      </trkpt>
      <trkpt lat="43.87592" lon="6.95308">
        <ele>711.51293945312</ele>
        <time>2012-05-13T10:32:13Z</time>
      </trkpt>
      <trkpt lat="43.87591" lon="6.95312">
        <ele>712.47412109375</ele>
        <time>2012-05-13T10:32:16Z</time>
      </trkpt>
      <trkpt lat="43.87591" lon="6.95312">
        <ele>713.435546875</ele>
        <time>2012-05-13T10:32:20Z</time>
      </trkpt>
      <trkpt lat="43.87583" lon="6.9536">
        <ele>713.916015625</ele>
        <time>2012-05-13T10:32:35Z</time>
      </trkpt>
      <trkpt lat="43.87576" lon="6.95411">
        <ele>716.31958007812</ele>
        <time>2012-05-13T10:32:53Z</time>
      </trkpt>
      <trkpt lat="43.87573" lon="6.95455">
        <ele>718.72290039062</ele>
        <time>2012-05-13T10:33:08Z</time>
      </trkpt>
      <trkpt lat="43.8757" lon="6.95495">
        <ele>720.6455078125</ele>
        <time>2012-05-13T10:33:22Z</time>
      </trkpt>
      <trkpt lat="43.87563" lon="6.95528">
        <ele>723.048828125</ele>
        <time>2012-05-13T10:33:37Z</time>
      </trkpt>
      <trkpt lat="43.8756" lon="6.95542">
        <ele>725.45190429688</ele>
        <time>2012-05-13T10:33:52Z</time>
      </trkpt>
      <trkpt lat="43.87553" lon="6.9559">
        <ele>727.37475585938</ele>
        <time>2012-05-13T10:34:02Z</time>
      </trkpt>
      <trkpt lat="43.87551" lon="6.95597">
        <ele>728.81665039062</ele>
        <time>2012-05-13T10:34:06Z</time>
      </trkpt>
      <trkpt lat="43.87547" lon="6.95626">
        <ele>731.21997070312</ele>
        <time>2012-05-13T10:34:19Z</time>
      </trkpt>
      <trkpt lat="43.87544" lon="6.95639">
        <ele>732.18139648438</ele>
        <time>2012-05-13T10:34:24Z</time>
      </trkpt>
      <trkpt lat="43.87529" lon="6.95681">
        <ele>734.10400390625</ele>
        <time>2012-05-13T10:34:40Z</time>
      </trkpt>
      <trkpt lat="43.87524" lon="6.95698">
        <ele>736.02661132812</ele>
        <time>2012-05-13T10:34:47Z</time>
      </trkpt>
      <trkpt lat="43.87502" lon="6.95711">
        <ele>736.98779296875</ele>
        <time>2012-05-13T10:35:00Z</time>
      </trkpt>
      <trkpt lat="43.87492" lon="6.95711">
        <ele>738.42993164062</ele>
        <time>2012-05-13T10:35:07Z</time>
      </trkpt>
      <trkpt lat="43.87492" lon="6.95711">
        <ele>739.87182617188</ele>
        <time>2012-05-13T10:35:12Z</time>
      </trkpt>
      <trkpt lat="43.87489" lon="6.95728">
        <ele>741.79443359375</ele>
        <time>2012-05-13T10:35:23Z</time>
      </trkpt>
      <trkpt lat="43.87492" lon="6.95741">
        <ele>742.755859375</ele>
        <time>2012-05-13T10:35:27Z</time>
      </trkpt>
      <trkpt lat="43.87493" lon="6.95786">
        <ele>744.19775390625</ele>
        <time>2012-05-13T10:35:45Z</time>
      </trkpt>
      <trkpt lat="43.87493" lon="6.95788">
        <ele>743.236328125</ele>
        <time>2012-05-13T10:35:55Z</time>
      </trkpt>
      <trkpt lat="43.87486" lon="6.9582">
        <ele>742.27514648438</ele>
        <time>2012-05-13T10:36:06Z</time>
      </trkpt>
      <trkpt lat="43.87485" lon="6.95835">
        <ele>741.31372070312</ele>
        <time>2012-05-13T10:36:09Z</time>
      </trkpt>
      <trkpt lat="43.87481" lon="6.95856">
        <ele>738.91064453125</ele>
        <time>2012-05-13T10:36:12Z</time>
      </trkpt>
      <trkpt lat="43.87478" lon="6.9587">
        <ele>736.98779296875</ele>
        <time>2012-05-13T10:36:14Z</time>
      </trkpt>
      <trkpt lat="43.87475" lon="6.95877">
        <ele>735.0654296875</ele>
        <time>2012-05-13T10:36:15Z</time>
      </trkpt>
      <trkpt lat="43.87465" lon="6.95896">
        <ele>730.7392578125</ele>
        <time>2012-05-13T10:36:18Z</time>
      </trkpt>
      <trkpt lat="43.87462" lon="6.95901">
        <ele>730.7392578125</ele>
        <time>2012-05-13T10:36:19Z</time>
      </trkpt>
      <trkpt lat="43.87456" lon="6.95911">
        <ele>729.29711914062</ele>
        <time>2012-05-13T10:36:21Z</time>
      </trkpt>
      <trkpt lat="43.87453" lon="6.95919">
        <ele>727.37475585938</ele>
        <time>2012-05-13T10:36:23Z</time>
      </trkpt>
      <trkpt lat="43.87446" lon="6.95931">
        <ele>723.048828125</ele>
        <time>2012-05-13T10:36:26Z</time>
      </trkpt>
      <trkpt lat="43.8744" lon="6.95941">
        <ele>720.6455078125</ele>
        <time>2012-05-13T10:36:28Z</time>
      </trkpt>
      <trkpt lat="43.87439" lon="6.95945">
        <ele>718.72290039062</ele>
        <time>2012-05-13T10:36:30Z</time>
      </trkpt>
      <trkpt lat="43.87444" lon="6.95971">
        <ele>716.80029296875</ele>
        <time>2012-05-13T10:36:33Z</time>
      </trkpt>
      <trkpt lat="43.87443" lon="6.95975">
        <ele>715.8388671875</ele>
        <time>2012-05-13T10:36:35Z</time>
      </trkpt>
      <trkpt lat="43.87439" lon="6.95991">
        <ele>712.95483398438</ele>
        <time>2012-05-13T10:36:39Z</time>
      </trkpt>
      <trkpt lat="43.87437" lon="6.96001">
        <ele>711.99365234375</ele>
        <time>2012-05-13T10:36:42Z</time>
      </trkpt>
      <trkpt lat="43.87435" lon="6.96014">
        <ele>709.59033203125</ele>
        <time>2012-05-13T10:36:46Z</time>
      </trkpt>
      <trkpt lat="43.87422" lon="6.96024">
        <ele>707.18701171875</ele>
        <time>2012-05-13T10:36:50Z</time>
      </trkpt>
      <trkpt lat="43.87409" lon="6.96048">
        <ele>704.30322265625</ele>
        <time>2012-05-13T10:36:55Z</time>
      </trkpt>
      <trkpt lat="43.87408" lon="6.96053">
        <ele>704.30322265625</ele>
        <time>2012-05-13T10:36:56Z</time>
      </trkpt>
      <trkpt lat="43.87407" lon="6.96058">
        <ele>703.82250976562</ele>
        <time>2012-05-13T10:36:57Z</time>
      </trkpt>
      <trkpt lat="43.87406" lon="6.96067">
        <ele>701.89990234375</ele>
        <time>2012-05-13T10:37:00Z</time>
      </trkpt>
      <trkpt lat="43.87402" lon="6.96085">
        <ele>699.015625</ele>
        <time>2012-05-13T10:37:06Z</time>
      </trkpt>
      <trkpt lat="43.87401" lon="6.9609">
        <ele>699.015625</ele>
        <time>2012-05-13T10:37:07Z</time>
      </trkpt>
      <trkpt lat="43.87397" lon="6.96105">
        <ele>696.61254882812</ele>
        <time>2012-05-13T10:37:10Z</time>
      </trkpt>
      <trkpt lat="43.87391" lon="6.96123">
        <ele>693.24780273438</ele>
        <time>2012-05-13T10:37:16Z</time>
      </trkpt>
      <trkpt lat="43.8739" lon="6.96127">
        <ele>693.24780273438</ele>
        <time>2012-05-13T10:37:17Z</time>
      </trkpt>
      <trkpt lat="43.87383" lon="6.9614">
        <ele>689.40258789062</ele>
        <time>2012-05-13T10:37:22Z</time>
      </trkpt>
      <trkpt lat="43.87382" lon="6.96143">
        <ele>688.44140625</ele>
        <time>2012-05-13T10:37:23Z</time>
      </trkpt>
      <trkpt lat="43.87378" lon="6.96152">
        <ele>686.99926757812</ele>
        <time>2012-05-13T10:37:26Z</time>
      </trkpt>
      <trkpt lat="43.87374" lon="6.96158">
        <ele>686.0380859375</ele>
        <time>2012-05-13T10:37:28Z</time>
      </trkpt>
      <trkpt lat="43.87371" lon="6.96164">
        <ele>684.59619140625</ele>
        <time>2012-05-13T10:37:30Z</time>
      </trkpt>
      <trkpt lat="43.87366" lon="6.96174">
        <ele>682.67333984375</ele>
        <time>2012-05-13T10:37:33Z</time>
      </trkpt>
      <trkpt lat="43.87364" lon="6.96178">
        <ele>681.7119140625</ele>
        <time>2012-05-13T10:37:34Z</time>
      </trkpt>
      <trkpt lat="43.87359" lon="6.96195">
        <ele>679.78930664062</ele>
        <time>2012-05-13T10:37:38Z</time>
      </trkpt>
      <trkpt lat="43.87357" lon="6.96219">
        <ele>675.94409179688</ele>
        <time>2012-05-13T10:37:45Z</time>
      </trkpt>
      <trkpt lat="43.87354" lon="6.96228">
        <ele>674.98291015625</ele>
        <time>2012-05-13T10:37:47Z</time>
      </trkpt>
      <trkpt lat="43.8734" lon="6.96246">
        <ele>672.57958984375</ele>
        <time>2012-05-13T10:37:53Z</time>
      </trkpt>
      <trkpt lat="43.87329" lon="6.96269">
        <ele>672.09887695312</ele>
        <time>2012-05-13T10:37:58Z</time>
      </trkpt>
      <trkpt lat="43.87306" lon="6.96306">
        <ele>668.25366210938</ele>
        <time>2012-05-13T10:38:06Z</time>
      </trkpt>
      <trkpt lat="43.87304" lon="6.96308">
        <ele>667.77270507812</ele>
        <time>2012-05-13T10:38:07Z</time>
      </trkpt>
      <trkpt lat="43.873" lon="6.96314">
        <ele>666.8115234375</ele>
        <time>2012-05-13T10:38:23Z</time>
      </trkpt>
      <trkpt lat="43.87289" lon="6.96331">
        <ele>664.88891601562</ele>
        <time>2012-05-13T10:38:28Z</time>
      </trkpt>
      <trkpt lat="43.87286" lon="6.96356">
        <ele>662.48559570312</ele>
        <time>2012-05-13T10:38:31Z</time>
      </trkpt>
      <trkpt lat="43.87283" lon="6.96369">
        <ele>660.08227539062</ele>
        <time>2012-05-13T10:38:33Z</time>
      </trkpt>
      <trkpt lat="43.8728" lon="6.96381">
        <ele>658.64038085938</ele>
        <time>2012-05-13T10:38:35Z</time>
      </trkpt>
      <trkpt lat="43.87276" lon="6.96393">
        <ele>655.27587890625</ele>
        <time>2012-05-13T10:38:37Z</time>
      </trkpt>
      <trkpt lat="43.87274" lon="6.96399">
        <ele>655.27587890625</ele>
        <time>2012-05-13T10:38:38Z</time>
      </trkpt>
      <trkpt lat="43.8727" lon="6.96408">
        <ele>653.833984375</ele>
        <time>2012-05-13T10:38:40Z</time>
      </trkpt>
      <trkpt lat="43.87266" lon="6.9642">
        <ele>652.39184570312</ele>
        <time>2012-05-13T10:38:42Z</time>
      </trkpt>
      <trkpt lat="43.87263" lon="6.96427">
        <ele>649.02709960938</ele>
        <time>2012-05-13T10:38:44Z</time>
      </trkpt>
      <trkpt lat="43.87261" lon="6.96432">
        <ele>649.02709960938</ele>
        <time>2012-05-13T10:38:45Z</time>
      </trkpt>
      <trkpt lat="43.87258" lon="6.96443">
        <ele>647.58520507812</ele>
        <time>2012-05-13T10:38:47Z</time>
      </trkpt>
      <trkpt lat="43.87256" lon="6.96452">
        <ele>646.14331054688</ele>
        <time>2012-05-13T10:38:49Z</time>
      </trkpt>
      <trkpt lat="43.87255" lon="6.96463">
        <ele>643.73999023438</ele>
        <time>2012-05-13T10:38:52Z</time>
      </trkpt>
      <trkpt lat="43.87242" lon="6.96486">
        <ele>643.73999023438</ele>
        <time>2012-05-13T10:39:00Z</time>
      </trkpt>
      <trkpt lat="43.87235" lon="6.96488">
        <ele>643.73999023438</ele>
        <time>2012-05-13T10:39:04Z</time>
      </trkpt>
      <trkpt lat="43.87213" lon="6.96477">
        <ele>644.220703125</ele>
        <time>2012-05-13T10:39:16Z</time>
      </trkpt>
      <trkpt lat="43.87213" lon="6.96477">
        <ele>643.25927734375</ele>
        <time>2012-05-13T10:39:38Z</time>
      </trkpt>
      <trkpt lat="43.87213" lon="6.96477">
        <ele>644.701171875</ele>
        <time>2012-05-13T10:40:55Z</time>
      </trkpt>
      <trkpt lat="43.87213" lon="6.96477">
        <ele>645.18188476562</ele>
        <time>2012-05-13T10:42:07Z</time>
      </trkpt>
      <trkpt lat="43.87213" lon="6.96477">
        <ele>644.701171875</ele>
        <time>2012-05-13T10:42:30Z</time>
      </trkpt>
      <trkpt lat="43.87213" lon="6.96477">
        <ele>645.18188476562</ele>
        <time>2012-05-13T10:43:12Z</time>
      </trkpt>
      <trkpt lat="43.87213" lon="6.96477">
        <ele>645.18188476562</ele>
        <time>2012-05-13T10:43:15Z</time>
      </trkpt>
      <trkpt lat="43.87192" lon="6.96453">
        <ele>645.66259765625</ele>
        <time>2012-05-13T10:43:23Z</time>
      </trkpt>
      <trkpt lat="43.87191" lon="6.9645">
        <ele>645.18188476562</ele>
        <time>2012-05-13T10:43:28Z</time>
      </trkpt>
      <trkpt lat="43.87185" lon="6.96435">
        <ele>643.73999023438</ele>
        <time>2012-05-13T10:43:32Z</time>
      </trkpt>
      <trkpt lat="43.87184" lon="6.96429">
        <ele>642.29809570312</ele>
        <time>2012-05-13T10:43:35Z</time>
      </trkpt>
      <trkpt lat="43.87186" lon="6.96417">
        <ele>640.85595703125</ele>
        <time>2012-05-13T10:43:39Z</time>
      </trkpt>
      <trkpt lat="43.87187" lon="6.96413">
        <ele>639.4140625</ele>
        <time>2012-05-13T10:43:41Z</time>
      </trkpt>
      <trkpt lat="43.8719" lon="6.96397">
        <ele>637.0107421875</ele>
        <time>2012-05-13T10:43:46Z</time>
      </trkpt>
      <trkpt lat="43.87189" lon="6.96371">
        <ele>634.12670898438</ele>
        <time>2012-05-13T10:43:51Z</time>
      </trkpt>
      <trkpt lat="43.87165" lon="6.96381">
        <ele>633.64599609375</ele>
        <time>2012-05-13T10:43:53Z</time>
      </trkpt>
      <trkpt lat="43.87153" lon="6.96383">
        <ele>630.28149414062</ele>
        <time>2012-05-13T10:44:00Z</time>
      </trkpt>
      <trkpt lat="43.87148" lon="6.96384">
        <ele>628.83959960938</ele>
        <time>2012-05-13T10:44:02Z</time>
      </trkpt>
      <trkpt lat="43.87144" lon="6.96384">
        <ele>627.39770507812</ele>
        <time>2012-05-13T10:44:04Z</time>
      </trkpt>
      <trkpt lat="43.87129" lon="6.96387">
        <ele>624.03295898438</ele>
        <time>2012-05-13T10:44:09Z</time>
      </trkpt>
      <trkpt lat="43.87106" lon="6.96391">
        <ele>620.18774414062</ele>
        <time>2012-05-13T10:44:17Z</time>
      </trkpt>
      <trkpt lat="43.87083" lon="6.96364">
        <ele>616.34228515625</ele>
        <time>2012-05-13T10:44:22Z</time>
      </trkpt>
      <trkpt lat="43.87082" lon="6.96365">
        <ele>616.34228515625</ele>
        <time>2012-05-13T10:44:23Z</time>
      </trkpt>
      <trkpt lat="43.87078" lon="6.96369">
        <ele>615.38110351562</ele>
        <time>2012-05-13T10:44:25Z</time>
      </trkpt>
      <trkpt lat="43.87075" lon="6.96372">
        <ele>614.41967773438</ele>
        <time>2012-05-13T10:44:27Z</time>
      </trkpt>
      <trkpt lat="43.87072" lon="6.9637">
        <ele>611.53588867188</ele>
        <time>2012-05-13T10:44:30Z</time>
      </trkpt>
      <trkpt lat="43.87068" lon="6.9636">
        <ele>607.69067382812</ele>
        <time>2012-05-13T10:44:36Z</time>
      </trkpt>
      <trkpt lat="43.87066" lon="6.96361">
        <ele>607.69067382812</ele>
        <time>2012-05-13T10:44:37Z</time>
      </trkpt>
      <trkpt lat="43.87061" lon="6.96361">
        <ele>607.2099609375</ele>
        <time>2012-05-13T10:44:39Z</time>
      </trkpt>
      <trkpt lat="43.87062" lon="6.96353">
        <ele>605.28735351562</ele>
        <time>2012-05-13T10:44:43Z</time>
      </trkpt>
      <trkpt lat="43.87068" lon="6.96346">
        <ele>602.8837890625</ele>
        <time>2012-05-13T10:44:46Z</time>
      </trkpt>
      <trkpt lat="43.8707" lon="6.96344">
        <ele>601.44189453125</ele>
        <time>2012-05-13T10:44:47Z</time>
      </trkpt>
      <trkpt lat="43.87072" lon="6.96332">
        <ele>599.03857421875</ele>
        <time>2012-05-13T10:44:53Z</time>
      </trkpt>
      <trkpt lat="43.87075" lon="6.9633">
        <ele>597.5966796875</ele>
        <time>2012-05-13T10:44:54Z</time>
      </trkpt>
      <trkpt lat="43.87087" lon="6.96315">
        <ele>593.75146484375</ele>
        <time>2012-05-13T10:44:59Z</time>
      </trkpt>
      <trkpt lat="43.87089" lon="6.96305">
        <ele>591.82885742188</ele>
        <time>2012-05-13T10:45:02Z</time>
      </trkpt>
      <trkpt lat="43.8708" lon="6.96305">
        <ele>589.42553710938</ele>
        <time>2012-05-13T10:45:07Z</time>
      </trkpt>
      <trkpt lat="43.87077" lon="6.96298">
        <ele>587.02197265625</ele>
        <time>2012-05-13T10:45:10Z</time>
      </trkpt>
      <trkpt lat="43.8708" lon="6.96282">
        <ele>584.13818359375</ele>
        <time>2012-05-13T10:45:14Z</time>
      </trkpt>
      <trkpt lat="43.87082" lon="6.96277">
        <ele>582.6962890625</ele>
        <time>2012-05-13T10:45:16Z</time>
      </trkpt>
      <trkpt lat="43.8709" lon="6.96265">
        <ele>579.81225585938</ele>
        <time>2012-05-13T10:45:21Z</time>
      </trkpt>
      <trkpt lat="43.87091" lon="6.96263">
        <ele>579.33154296875</ele>
        <time>2012-05-13T10:45:22Z</time>
      </trkpt>
      <trkpt lat="43.87095" lon="6.96257">
        <ele>577.8896484375</ele>
        <time>2012-05-13T10:45:36Z</time>
      </trkpt>
      <trkpt lat="43.87096" lon="6.96252">
        <ele>576.92846679688</ele>
        <time>2012-05-13T10:45:55Z</time>
      </trkpt>
      <trkpt lat="43.87096" lon="6.96254">
        <ele>574.52514648438</ele>
        <time>2012-05-13T10:46:10Z</time>
      </trkpt>
      <trkpt lat="43.87092" lon="6.96221">
        <ele>574.52514648438</ele>
        <time>2012-05-13T10:46:20Z</time>
      </trkpt>
      <trkpt lat="43.87098" lon="6.96164">
        <ele>573.08325195312</ele>
        <time>2012-05-13T10:46:32Z</time>
      </trkpt>
      <trkpt lat="43.87098" lon="6.9616">
        <ele>573.08325195312</ele>
        <time>2012-05-13T10:46:33Z</time>
      </trkpt>
      <trkpt lat="43.87097" lon="6.96148">
        <ele>572.12182617188</ele>
        <time>2012-05-13T10:46:37Z</time>
      </trkpt>
      <trkpt lat="43.87095" lon="6.96141">
        <ele>570.6796875</ele>
        <time>2012-05-13T10:46:39Z</time>
      </trkpt>
      <trkpt lat="43.87091" lon="6.96129">
        <ele>569.23779296875</ele>
        <time>2012-05-13T10:46:42Z</time>
      </trkpt>
      <trkpt lat="43.87089" lon="6.96118">
        <ele>568.2763671875</ele>
        <time>2012-05-13T10:46:44Z</time>
      </trkpt>
      <trkpt lat="43.87086" lon="6.96105">
        <ele>566.83447265625</ele>
        <time>2012-05-13T10:46:46Z</time>
      </trkpt>
      <trkpt lat="43.87085" lon="6.96099">
        <ele>566.35375976562</ele>
        <time>2012-05-13T10:46:47Z</time>
      </trkpt>
      <trkpt lat="43.87066" lon="6.96056">
        <ele>562.9892578125</ele>
        <time>2012-05-13T10:46:56Z</time>
      </trkpt>
      <trkpt lat="43.87063" lon="6.96051">
        <ele>562.02807617188</ele>
        <time>2012-05-13T10:46:58Z</time>
      </trkpt>
      <trkpt lat="43.87051" lon="6.96036">
        <ele>557.7021484375</ele>
        <time>2012-05-13T10:47:04Z</time>
      </trkpt>
      <trkpt lat="43.87049" lon="6.96033">
        <ele>557.7021484375</ele>
        <time>2012-05-13T10:47:05Z</time>
      </trkpt>
      <trkpt lat="43.87042" lon="6.96025">
        <ele>556.26000976562</ele>
        <time>2012-05-13T10:47:07Z</time>
      </trkpt>
      <trkpt lat="43.87028" lon="6.96009">
        <ele>552.41455078125</ele>
        <time>2012-05-13T10:47:12Z</time>
      </trkpt>
      <trkpt lat="43.87018" lon="6.95989">
        <ele>549.05004882812</ele>
        <time>2012-05-13T10:47:19Z</time>
      </trkpt>
      <trkpt lat="43.87015" lon="6.95983">
        <ele>547.60815429688</ele>
        <time>2012-05-13T10:47:21Z</time>
      </trkpt>
      <trkpt lat="43.87011" lon="6.95977">
        <ele>546.16625976562</ele>
        <time>2012-05-13T10:47:23Z</time>
      </trkpt>
      <trkpt lat="43.87008" lon="6.9597">
        <ele>543.76281738281</ele>
        <time>2012-05-13T10:47:26Z</time>
      </trkpt>
      <trkpt lat="43.87006" lon="6.95967">
        <ele>541.84020996094</ele>
        <time>2012-05-13T10:47:30Z</time>
      </trkpt>
      <trkpt lat="43.87006" lon="6.95967">
        <ele>540.39831542969</ele>
        <time>2012-05-13T10:47:33Z</time>
      </trkpt>
      <trkpt lat="43.87" lon="6.95961">
        <ele>538.95629882812</ele>
        <time>2012-05-13T10:47:38Z</time>
      </trkpt>
      <trkpt lat="43.86991" lon="6.95942">
        <ele>536.07238769531</ele>
        <time>2012-05-13T10:47:45Z</time>
      </trkpt>
      <trkpt lat="43.86991" lon="6.95928">
        <ele>533.6689453125</ele>
        <time>2012-05-13T10:47:49Z</time>
      </trkpt>
      <trkpt lat="43.86993" lon="6.95923">
        <ele>533.6689453125</ele>
        <time>2012-05-13T10:47:50Z</time>
      </trkpt>
      <trkpt lat="43.86995" lon="6.95916">
        <ele>532.22705078125</ele>
        <time>2012-05-13T10:47:52Z</time>
      </trkpt>
      <trkpt lat="43.8699" lon="6.95909">
        <ele>530.30444335938</ele>
        <time>2012-05-13T10:47:56Z</time>
      </trkpt>
      <trkpt lat="43.86981" lon="6.95901">
        <ele>525.97839355469</ele>
        <time>2012-05-13T10:48:01Z</time>
      </trkpt>
      <trkpt lat="43.86979" lon="6.95897">
        <ele>524.53649902344</ele>
        <time>2012-05-13T10:48:03Z</time>
      </trkpt>
      <trkpt lat="43.8697" lon="6.95892">
        <ele>522.13317871094</ele>
        <time>2012-05-13T10:48:06Z</time>
      </trkpt>
      <trkpt lat="43.86958" lon="6.95882">
        <ele>519.72985839844</ele>
        <time>2012-05-13T10:48:10Z</time>
      </trkpt>
      <trkpt lat="43.86956" lon="6.95879">
        <ele>518.28784179688</ele>
        <time>2012-05-13T10:48:11Z</time>
      </trkpt>
      <trkpt lat="43.86953" lon="6.95868">
        <ele>517.32666015625</ele>
        <time>2012-05-13T10:48:14Z</time>
      </trkpt>
      <trkpt lat="43.86945" lon="6.95864">
        <ele>513.4814453125</ele>
        <time>2012-05-13T10:48:19Z</time>
      </trkpt>
      <trkpt lat="43.8694" lon="6.95863">
        <ele>511.55871582031</ele>
        <time>2012-05-13T10:48:23Z</time>
      </trkpt>
      <trkpt lat="43.86937" lon="6.95867">
        <ele>510.11669921875</ele>
        <time>2012-05-13T10:48:26Z</time>
      </trkpt>
      <trkpt lat="43.86922" lon="6.95867">
        <ele>506.271484375</ele>
        <time>2012-05-13T10:48:33Z</time>
      </trkpt>
      <trkpt lat="43.86917" lon="6.95862">
        <ele>504.82946777344</ele>
        <time>2012-05-13T10:48:35Z</time>
      </trkpt>
      <trkpt lat="43.86915" lon="6.95855">
        <ele>503.38745117188</ele>
        <time>2012-05-13T10:48:37Z</time>
      </trkpt>
      <trkpt lat="43.86908" lon="6.95852">
        <ele>501.46484375</ele>
        <time>2012-05-13T10:48:40Z</time>
      </trkpt>
      <trkpt lat="43.86906" lon="6.95851">
        <ele>499.54223632812</ele>
        <time>2012-05-13T10:48:41Z</time>
      </trkpt>
      <trkpt lat="43.86898" lon="6.95846">
        <ele>498.58093261719</ele>
        <time>2012-05-13T10:48:44Z</time>
      </trkpt>
      <trkpt lat="43.86898" lon="6.95838">
        <ele>495.69689941406</ele>
        <time>2012-05-13T10:48:47Z</time>
      </trkpt>
      <trkpt lat="43.86884" lon="6.95839">
        <ele>492.33239746094</ele>
        <time>2012-05-13T10:48:53Z</time>
      </trkpt>
      <trkpt lat="43.86882" lon="6.95842">
        <ele>491.85168457031</ele>
        <time>2012-05-13T10:48:54Z</time>
      </trkpt>
      <trkpt lat="43.8688" lon="6.95846">
        <ele>490.40979003906</ele>
        <time>2012-05-13T10:48:55Z</time>
      </trkpt>
      <trkpt lat="43.86873" lon="6.9586">
        <ele>489.44836425781</ele>
        <time>2012-05-13T10:48:58Z</time>
      </trkpt>
      <trkpt lat="43.86869" lon="6.95868">
        <ele>488.00646972656</ele>
        <time>2012-05-13T10:49:00Z</time>
      </trkpt>
      <trkpt lat="43.86862" lon="6.95879">
        <ele>486.08374023438</ele>
        <time>2012-05-13T10:49:03Z</time>
      </trkpt>
      <trkpt lat="43.86844" lon="6.95892">
        <ele>482.23852539062</ele>
        <time>2012-05-13T10:49:08Z</time>
      </trkpt>
      <trkpt lat="43.86835" lon="6.95897">
        <ele>481.27722167969</ele>
        <time>2012-05-13T10:49:10Z</time>
      </trkpt>
      <trkpt lat="43.86825" lon="6.959">
        <ele>480.31591796875</ele>
        <time>2012-05-13T10:49:12Z</time>
      </trkpt>
      <trkpt lat="43.8682" lon="6.959">
        <ele>478.87390136719</ele>
        <time>2012-05-13T10:49:14Z</time>
      </trkpt>
      <trkpt lat="43.86812" lon="6.95897">
        <ele>476.95129394531</ele>
        <time>2012-05-13T10:49:17Z</time>
      </trkpt>
      <trkpt lat="43.86802" lon="6.95891">
        <ele>474.54797363281</ele>
        <time>2012-05-13T10:49:22Z</time>
      </trkpt>
      <trkpt lat="43.86799" lon="6.95878">
        <ele>474.06726074219</ele>
        <time>2012-05-13T10:49:25Z</time>
      </trkpt>
      <trkpt lat="43.86796" lon="6.95884">
        <ele>473.10607910156</ele>
        <time>2012-05-13T10:49:29Z</time>
      </trkpt>
      <trkpt lat="43.86786" lon="6.95884">
        <ele>472.14465332031</ele>
        <time>2012-05-13T10:49:31Z</time>
      </trkpt>
      <trkpt lat="43.86776" lon="6.95881">
        <ele>470.22192382812</ele>
        <time>2012-05-13T10:49:33Z</time>
      </trkpt>
      <trkpt lat="43.86771" lon="6.95879">
        <ele>468.29931640625</ele>
        <time>2012-05-13T10:49:34Z</time>
      </trkpt>
      <trkpt lat="43.86757" lon="6.95871">
        <ele>463.97338867188</ele>
        <time>2012-05-13T10:49:37Z</time>
      </trkpt>
      <trkpt lat="43.86754" lon="6.95867">
        <ele>463.97338867188</ele>
        <time>2012-05-13T10:49:38Z</time>
      </trkpt>
      <trkpt lat="43.86746" lon="6.95855">
        <ele>461.57019042969</ele>
        <time>2012-05-13T10:49:40Z</time>
      </trkpt>
      <trkpt lat="43.86742" lon="6.95843">
        <ele>459.16687011719</ele>
        <time>2012-05-13T10:49:42Z</time>
      </trkpt>
      <trkpt lat="43.86737" lon="6.95835">
        <ele>457.24426269531</ele>
        <time>2012-05-13T10:49:44Z</time>
      </trkpt>
      <trkpt lat="43.86733" lon="6.95831">
        <ele>452.91821289062</ele>
        <time>2012-05-13T10:49:46Z</time>
      </trkpt>
      <trkpt lat="43.86733" lon="6.95831">
        <ele>452.91821289062</ele>
        <time>2012-05-13T10:49:47Z</time>
      </trkpt>
      <trkpt lat="43.86733" lon="6.95831">
        <ele>452.43762207031</ele>
        <time>2012-05-13T10:50:18Z</time>
      </trkpt>
      <trkpt lat="43.86733" lon="6.95831">
        <ele>451.95703125</ele>
        <time>2012-05-13T10:51:09Z</time>
      </trkpt>
      <trkpt lat="43.86717" lon="6.95875">
        <ele>451.47631835938</ele>
        <time>2012-05-13T10:51:22Z</time>
      </trkpt>
      <trkpt lat="43.86708" lon="6.95897">
        <ele>449.5537109375</ele>
        <time>2012-05-13T10:51:28Z</time>
      </trkpt>
      <trkpt lat="43.86697" lon="6.95911">
        <ele>446.18908691406</ele>
        <time>2012-05-13T10:51:34Z</time>
      </trkpt>
      <trkpt lat="43.86695" lon="6.95913">
        <ele>445.22766113281</ele>
        <time>2012-05-13T10:51:35Z</time>
      </trkpt>
      <trkpt lat="43.86691" lon="6.95918">
        <ele>443.30505371094</ele>
        <time>2012-05-13T10:51:37Z</time>
      </trkpt>
      <trkpt lat="43.86685" lon="6.95925">
        <ele>441.86315917969</ele>
        <time>2012-05-13T10:51:40Z</time>
      </trkpt>
      <trkpt lat="43.8668" lon="6.95928">
        <ele>438.49853515625</ele>
        <time>2012-05-13T10:51:42Z</time>
      </trkpt>
      <trkpt lat="43.86678" lon="6.9593">
        <ele>438.49853515625</ele>
        <time>2012-05-13T10:51:43Z</time>
      </trkpt>
      <trkpt lat="43.86674" lon="6.95933">
        <ele>436.57592773438</ele>
        <time>2012-05-13T10:51:47Z</time>
      </trkpt>
      <trkpt lat="43.86668" lon="6.9594">
        <ele>434.6533203125</ele>
        <time>2012-05-13T10:51:50Z</time>
      </trkpt>
      <trkpt lat="43.86664" lon="6.95954">
        <ele>432.25</ele>
        <time>2012-05-13T10:51:54Z</time>
      </trkpt>
      <trkpt lat="43.86661" lon="6.95967">
        <ele>429.84655761719</ele>
        <time>2012-05-13T10:51:59Z</time>
      </trkpt>
      <trkpt lat="43.86656" lon="6.9598">
        <ele>426.48205566406</ele>
        <time>2012-05-13T10:52:04Z</time>
      </trkpt>
      <trkpt lat="43.86654" lon="6.95984">
        <ele>425.52075195312</ele>
        <time>2012-05-13T10:52:06Z</time>
      </trkpt>
      <trkpt lat="43.86651" lon="6.95988">
        <ele>424.55944824219</ele>
        <time>2012-05-13T10:52:08Z</time>
      </trkpt>
      <trkpt lat="43.86645" lon="6.95995">
        <ele>421.19482421875</ele>
        <time>2012-05-13T10:52:13Z</time>
      </trkpt>
      <trkpt lat="43.86645" lon="6.95995">
        <ele>418.31079101562</ele>
        <time>2012-05-13T10:52:20Z</time>
      </trkpt>
      <trkpt lat="43.86645" lon="6.95995">
        <ele>418.31079101562</ele>
        <time>2012-05-13T10:52:21Z</time>
      </trkpt>
      <trkpt lat="43.86643" lon="6.9601">
        <ele>417.349609375</ele>
        <time>2012-05-13T10:52:25Z</time>
      </trkpt>
      <trkpt lat="43.86643" lon="6.96006">
        <ele>416.38818359375</ele>
        <time>2012-05-13T10:52:27Z</time>
      </trkpt>
      <trkpt lat="43.86641" lon="6.95997">
        <ele>413.98486328125</ele>
        <time>2012-05-13T10:52:30Z</time>
      </trkpt>
      <trkpt lat="43.86618" lon="6.95995">
        <ele>411.10095214844</ele>
        <time>2012-05-13T10:52:34Z</time>
      </trkpt>
      <trkpt lat="43.86609" lon="6.9599">
        <ele>409.17834472656</ele>
        <time>2012-05-13T10:52:36Z</time>
      </trkpt>
      <trkpt lat="43.86598" lon="6.95988">
        <ele>406.77490234375</ele>
        <time>2012-05-13T10:52:38Z</time>
      </trkpt>
      <trkpt lat="43.86591" lon="6.95983">
        <ele>404.37170410156</ele>
        <time>2012-05-13T10:52:40Z</time>
      </trkpt>
      <trkpt lat="43.86581" lon="6.95976">
        <ele>401.00708007812</ele>
        <time>2012-05-13T10:52:43Z</time>
      </trkpt>
      <trkpt lat="43.86577" lon="6.95975">
        <ele>400.0458984375</ele>
        <time>2012-05-13T10:52:44Z</time>
      </trkpt>
      <trkpt lat="43.86564" lon="6.95977">
        <ele>399.56506347656</ele>
        <time>2012-05-13T10:52:50Z</time>
      </trkpt>
      <trkpt lat="43.86528" lon="6.96065">
        <ele>398.12316894531</ele>
        <time>2012-05-13T10:53:00Z</time>
      </trkpt>
      <trkpt lat="43.86534" lon="6.96061">
        <ele>399.56506347656</ele>
        <time>2012-05-13T10:53:14Z</time>
      </trkpt>
      <trkpt lat="43.86534" lon="6.96071">
        <ele>399.56506347656</ele>
        <time>2012-05-13T10:53:18Z</time>
      </trkpt>
      <trkpt lat="43.86534" lon="6.96076">
        <ele>399.56506347656</ele>
        <time>2012-05-13T10:53:21Z</time>
      </trkpt>
      <trkpt lat="43.86534" lon="6.96076">
        <ele>399.56506347656</ele>
        <time>2012-05-13T10:53:27Z</time>
      </trkpt>
      <trkpt lat="43.86546" lon="6.96099">
        <ele>399.56506347656</ele>
        <time>2012-05-13T10:53:33Z</time>
      </trkpt>
      <trkpt lat="43.86545" lon="6.96098">
        <ele>400.52648925781</ele>
        <time>2012-05-13T10:53:42Z</time>
      </trkpt>
      <trkpt lat="43.86545" lon="6.96098">
        <ele>400.52648925781</ele>
        <time>2012-05-13T10:53:43Z</time>
      </trkpt>
      <trkpt lat="43.86545" lon="6.96098">
        <ele>403.41040039062</ele>
        <time>2012-05-13T10:53:56Z</time>
      </trkpt>
      <trkpt lat="43.86545" lon="6.96098">
        <ele>403.41040039062</ele>
        <time>2012-05-13T10:53:58Z</time>
      </trkpt>
      <trkpt lat="43.8656" lon="6.96104">
        <ele>406.29431152344</ele>
        <time>2012-05-13T10:54:10Z</time>
      </trkpt>
      <trkpt lat="43.8656" lon="6.96104">
        <ele>407.25561523438</ele>
        <time>2012-05-13T10:54:24Z</time>
      </trkpt>
      <trkpt lat="43.86544" lon="6.9618">
        <ele>408.69763183594</ele>
        <time>2012-05-13T10:54:36Z</time>
      </trkpt>
      <trkpt lat="43.86535" lon="6.96198">
        <ele>410.62023925781</ele>
        <time>2012-05-13T10:54:48Z</time>
      </trkpt>
      <trkpt lat="43.86532" lon="6.962">
        <ele>412.54284667969</ele>
        <time>2012-05-13T10:54:55Z</time>
      </trkpt>
      <trkpt lat="43.86532" lon="6.962">
        <ele>413.98486328125</ele>
        <time>2012-05-13T10:55:06Z</time>
      </trkpt>
      <trkpt lat="43.86532" lon="6.962">
        <ele>415.42687988281</ele>
        <time>2012-05-13T10:55:12Z</time>
      </trkpt>
      <trkpt lat="43.86532" lon="6.962">
        <ele>416.86889648438</ele>
        <time>2012-05-13T10:55:29Z</time>
      </trkpt>
      <trkpt lat="43.86532" lon="6.962">
        <ele>418.31079101562</ele>
        <time>2012-05-13T10:55:36Z</time>
      </trkpt>
      <trkpt lat="43.86532" lon="6.962">
        <ele>421.19482421875</ele>
        <time>2012-05-13T10:55:54Z</time>
      </trkpt>
      <trkpt lat="43.86532" lon="6.962">
        <ele>424.55944824219</ele>
        <time>2012-05-13T10:56:08Z</time>
      </trkpt>
      <trkpt lat="43.86532" lon="6.962">
        <ele>427.443359375</ele>
        <time>2012-05-13T10:56:33Z</time>
      </trkpt>
      <trkpt lat="43.86532" lon="6.962">
        <ele>430.32727050781</ele>
        <time>2012-05-13T10:56:49Z</time>
      </trkpt>
      <trkpt lat="43.86532" lon="6.962">
        <ele>433.69189453125</ele>
        <time>2012-05-13T10:57:06Z</time>
      </trkpt>
      <trkpt lat="43.86458" lon="6.96273">
        <ele>436.57592773438</ele>
        <time>2012-05-13T10:57:22Z</time>
      </trkpt>
      <trkpt lat="43.86458" lon="6.96273">
        <ele>439.9404296875</ele>
        <time>2012-05-13T10:57:38Z</time>
      </trkpt>
      <trkpt lat="43.86458" lon="6.96273">
        <ele>442.34387207031</ele>
        <time>2012-05-13T10:57:50Z</time>
      </trkpt>
      <trkpt lat="43.86458" lon="6.96273">
        <ele>445.22766113281</ele>
        <time>2012-05-13T10:58:11Z</time>
      </trkpt>
      <trkpt lat="43.86421" lon="6.96307">
        <ele>447.63098144531</ele>
        <time>2012-05-13T10:58:26Z</time>
      </trkpt>
      <trkpt lat="43.86421" lon="6.96307">
        <ele>450.99560546875</ele>
        <time>2012-05-13T10:58:47Z</time>
      </trkpt>
      <trkpt lat="43.86421" lon="6.96307">
        <ele>452.91821289062</ele>
        <time>2012-05-13T10:59:03Z</time>
      </trkpt>
      <trkpt lat="43.86421" lon="6.96307">
        <ele>455.80224609375</ele>
        <time>2012-05-13T10:59:21Z</time>
      </trkpt>
      <trkpt lat="43.86421" lon="6.96307">
        <ele>459.16687011719</ele>
        <time>2012-05-13T10:59:38Z</time>
      </trkpt>
      <trkpt lat="43.86421" lon="6.96307">
        <ele>460.60876464844</ele>
        <time>2012-05-13T10:59:52Z</time>
      </trkpt>
      <trkpt lat="43.86421" lon="6.96307">
        <ele>463.49279785156</ele>
        <time>2012-05-13T11:00:06Z</time>
      </trkpt>
      <trkpt lat="43.86421" lon="6.96307">
        <ele>465.41552734375</ele>
        <time>2012-05-13T11:00:23Z</time>
      </trkpt>
      <trkpt lat="43.86421" lon="6.96307">
        <ele>465.89611816406</ele>
        <time>2012-05-13T11:00:44Z</time>
      </trkpt>
      <trkpt lat="43.86345" lon="6.96357">
        <ele>465.41552734375</ele>
        <time>2012-05-13T11:01:42Z</time>
      </trkpt>
      <trkpt lat="43.86343" lon="6.96395">
        <ele>468.78002929688</ele>
        <time>2012-05-13T11:01:58Z</time>
      </trkpt>
      <trkpt lat="43.86344" lon="6.96419">
        <ele>469.2607421875</ele>
        <time>2012-05-13T11:02:07Z</time>
      </trkpt>
      <trkpt lat="43.86345" lon="6.96423">
        <ele>469.74133300781</ele>
        <time>2012-05-13T11:02:10Z</time>
      </trkpt>
      <trkpt lat="43.86347" lon="6.9644">
        <ele>469.74133300781</ele>
        <time>2012-05-13T11:02:15Z</time>
      </trkpt>
      <trkpt lat="43.86348" lon="6.9645">
        <ele>470.22192382812</ele>
        <time>2012-05-13T11:02:18Z</time>
      </trkpt>
      <trkpt lat="43.86351" lon="6.96487">
        <ele>471.66394042969</ele>
        <time>2012-05-13T11:02:32Z</time>
      </trkpt>
      <trkpt lat="43.86345" lon="6.96512">
        <ele>474.06726074219</ele>
        <time>2012-05-13T11:02:45Z</time>
      </trkpt>
      <trkpt lat="43.8634" lon="6.96527">
        <ele>475.02868652344</ele>
        <time>2012-05-13T11:02:53Z</time>
      </trkpt>
      <trkpt lat="43.86287" lon="6.96516">
        <ele>475.50927734375</ele>
        <time>2012-05-13T11:02:58Z</time>
      </trkpt>
      <trkpt lat="43.86287" lon="6.96516">
        <ele>475.50927734375</ele>
        <time>2012-05-13T11:03:03Z</time>
      </trkpt>
      <trkpt lat="43.86287" lon="6.96516">
        <ele>476.95129394531</ele>
        <time>2012-05-13T11:03:17Z</time>
      </trkpt>
      <trkpt lat="43.86287" lon="6.96516">
        <ele>478.39318847656</ele>
        <time>2012-05-13T11:03:31Z</time>
      </trkpt>
      <trkpt lat="43.86287" lon="6.96516">
        <ele>478.87390136719</ele>
        <time>2012-05-13T11:03:37Z</time>
      </trkpt>
      <trkpt lat="43.86326" lon="6.96616">
        <ele>479.3544921875</ele>
        <time>2012-05-13T11:03:47Z</time>
      </trkpt>
      <trkpt lat="43.86308" lon="6.96643">
        <ele>478.39318847656</ele>
        <time>2012-05-13T11:04:01Z</time>
      </trkpt>
      <trkpt lat="43.86312" lon="6.9665">
        <ele>480.31591796875</ele>
        <time>2012-05-13T11:04:11Z</time>
      </trkpt>
      <trkpt lat="43.86326" lon="6.96683">
        <ele>482.23852539062</ele>
        <time>2012-05-13T11:04:24Z</time>
      </trkpt>
      <trkpt lat="43.86331" lon="6.96692">
        <ele>483.19982910156</ele>
        <time>2012-05-13T11:04:28Z</time>
      </trkpt>
      <trkpt lat="43.86332" lon="6.96701">
        <ele>483.19982910156</ele>
        <time>2012-05-13T11:04:31Z</time>
      </trkpt>
      <trkpt lat="43.86337" lon="6.9671">
        <ele>483.68041992188</ele>
        <time>2012-05-13T11:04:35Z</time>
      </trkpt>
      <trkpt lat="43.86339" lon="6.96715">
        <ele>483.68041992188</ele>
        <time>2012-05-13T11:04:37Z</time>
      </trkpt>
      <trkpt lat="43.86338" lon="6.96734">
        <ele>484.64184570312</ele>
        <time>2012-05-13T11:04:45Z</time>
      </trkpt>
      <trkpt lat="43.8634" lon="6.96742">
        <ele>485.12243652344</ele>
        <time>2012-05-13T11:04:48Z</time>
      </trkpt>
      <trkpt lat="43.86338" lon="6.96764">
        <ele>486.08374023438</ele>
        <time>2012-05-13T11:04:58Z</time>
      </trkpt>
      <trkpt lat="43.86339" lon="6.96801">
        <ele>486.564453125</ele>
        <time>2012-05-13T11:05:08Z</time>
      </trkpt>
      <trkpt lat="43.86338" lon="6.96804">
        <ele>486.564453125</ele>
        <time>2012-05-13T11:05:09Z</time>
      </trkpt>
      <trkpt lat="43.86332" lon="6.96822">
        <ele>488.48718261719</ele>
        <time>2012-05-13T11:05:18Z</time>
      </trkpt>
      <trkpt lat="43.86335" lon="6.96829">
        <ele>489.44836425781</ele>
        <time>2012-05-13T11:05:23Z</time>
      </trkpt>
      <trkpt lat="43.8634" lon="6.96835">
        <ele>489.92907714844</ele>
        <time>2012-05-13T11:05:26Z</time>
      </trkpt>
      <trkpt lat="43.86345" lon="6.96846">
        <ele>491.37097167969</ele>
        <time>2012-05-13T11:05:33Z</time>
      </trkpt>
      <trkpt lat="43.86347" lon="6.96851">
        <ele>491.85168457031</ele>
        <time>2012-05-13T11:05:36Z</time>
      </trkpt>
      <trkpt lat="43.86347" lon="6.96855">
        <ele>492.33239746094</ele>
        <time>2012-05-13T11:05:38Z</time>
      </trkpt>
      <trkpt lat="43.86349" lon="6.96869">
        <ele>492.81298828125</ele>
        <time>2012-05-13T11:05:43Z</time>
      </trkpt>
      <trkpt lat="43.86345" lon="6.96907">
        <ele>494.73559570312</ele>
        <time>2012-05-13T11:05:57Z</time>
      </trkpt>
      <trkpt lat="43.86356" lon="6.96966">
        <ele>493.29357910156</ele>
        <time>2012-05-13T11:06:07Z</time>
      </trkpt>
      <trkpt lat="43.86348" lon="6.97002">
        <ele>489.92907714844</ele>
        <time>2012-05-13T11:06:12Z</time>
      </trkpt>
      <trkpt lat="43.86341" lon="6.97029">
        <ele>488.00646972656</ele>
        <time>2012-05-13T11:06:16Z</time>
      </trkpt>
      <trkpt lat="43.86335" lon="6.97044">
        <ele>488.00646972656</ele>
        <time>2012-05-13T11:06:25Z</time>
      </trkpt>
      <trkpt lat="43.86335" lon="6.97044">
        <ele>491.37097167969</ele>
        <time>2012-05-13T11:06:42Z</time>
      </trkpt>
      <trkpt lat="43.86335" lon="6.97044">
        <ele>492.81298828125</ele>
        <time>2012-05-13T11:06:46Z</time>
      </trkpt>
      <trkpt lat="43.86335" lon="6.97044">
        <ele>495.21618652344</ele>
        <time>2012-05-13T11:07:00Z</time>
      </trkpt>
      <trkpt lat="43.86376" lon="6.97099">
        <ele>496.65832519531</ele>
        <time>2012-05-13T11:07:10Z</time>
      </trkpt>
      <trkpt lat="43.86383" lon="6.97103">
        <ele>497.61962890625</ele>
        <time>2012-05-13T11:07:13Z</time>
      </trkpt>
      <trkpt lat="43.8641" lon="6.97147">
        <ele>499.54223632812</ele>
        <time>2012-05-13T11:07:29Z</time>
      </trkpt>
      <trkpt lat="43.86424" lon="6.97185">
        <ele>501.94555664062</ele>
        <time>2012-05-13T11:07:42Z</time>
      </trkpt>
      <trkpt lat="43.86424" lon="6.97185">
        <ele>501.94555664062</ele>
        <time>2012-05-13T11:07:43Z</time>
      </trkpt>
      <trkpt lat="43.86439" lon="6.97225">
        <ele>502.90673828125</ele>
        <time>2012-05-13T11:07:56Z</time>
      </trkpt>
      <trkpt lat="43.86442" lon="6.97234">
        <ele>502.42614746094</ele>
        <time>2012-05-13T11:08:00Z</time>
      </trkpt>
      <trkpt lat="43.86444" lon="6.97241">
        <ele>502.42614746094</ele>
        <time>2012-05-13T11:08:03Z</time>
      </trkpt>
      <trkpt lat="43.86444" lon="6.97241">
        <ele>502.90673828125</ele>
        <time>2012-05-13T11:08:08Z</time>
      </trkpt>
      <trkpt lat="43.8646" lon="6.97289">
        <ele>503.38745117188</ele>
        <time>2012-05-13T11:08:22Z</time>
      </trkpt>
      <trkpt lat="43.86467" lon="6.97312">
        <ele>503.38745117188</ele>
        <time>2012-05-13T11:08:28Z</time>
      </trkpt>
      <trkpt lat="43.86478" lon="6.97359">
        <ele>504.82946777344</ele>
        <time>2012-05-13T11:08:41Z</time>
      </trkpt>
      <trkpt lat="43.86481" lon="6.97375">
        <ele>503.8681640625</ele>
        <time>2012-05-13T11:08:45Z</time>
      </trkpt>
      <trkpt lat="43.86486" lon="6.97386">
        <ele>503.8681640625</ele>
        <time>2012-05-13T11:08:49Z</time>
      </trkpt>
      <trkpt lat="43.86494" lon="6.97399">
        <ele>504.82946777344</ele>
        <time>2012-05-13T11:08:54Z</time>
      </trkpt>
      <trkpt lat="43.86494" lon="6.97411">
        <ele>504.82946777344</ele>
        <time>2012-05-13T11:08:58Z</time>
      </trkpt>
      <trkpt lat="43.86494" lon="6.97441">
        <ele>505.79089355469</ele>
        <time>2012-05-13T11:09:05Z</time>
      </trkpt>
      <trkpt lat="43.86488" lon="6.97463">
        <ele>507.23278808594</ele>
        <time>2012-05-13T11:09:13Z</time>
      </trkpt>
      <trkpt lat="43.86503" lon="6.97466">
        <ele>505.31018066406</ele>
        <time>2012-05-13T11:09:20Z</time>
      </trkpt>
      <trkpt lat="43.86511" lon="6.97485">
        <ele>503.38745117188</ele>
        <time>2012-05-13T11:09:24Z</time>
      </trkpt>
      <trkpt lat="43.8651" lon="6.97499">
        <ele>502.90673828125</ele>
        <time>2012-05-13T11:09:26Z</time>
      </trkpt>
      <trkpt lat="43.86513" lon="6.97508">
        <ele>501.94555664062</ele>
        <time>2012-05-13T11:09:28Z</time>
      </trkpt>
      <trkpt lat="43.86524" lon="6.97545">
        <ele>499.54223632812</ele>
        <time>2012-05-13T11:09:35Z</time>
      </trkpt>
      <trkpt lat="43.86527" lon="6.97548">
        <ele>499.54223632812</ele>
        <time>2012-05-13T11:09:38Z</time>
      </trkpt>
      <trkpt lat="43.86559" lon="6.97584">
        <ele>500.02294921875</ele>
        <time>2012-05-13T11:09:50Z</time>
      </trkpt>
      <trkpt lat="43.86593" lon="6.97644">
        <ele>501.46484375</ele>
        <time>2012-05-13T11:10:00Z</time>
      </trkpt>
      <trkpt lat="43.86617" lon="6.97686">
        <ele>501.46484375</ele>
        <time>2012-05-13T11:10:12Z</time>
      </trkpt>
      <trkpt lat="43.86646" lon="6.97733">
        <ele>499.54223632812</ele>
        <time>2012-05-13T11:10:22Z</time>
      </trkpt>
      <trkpt lat="43.86654" lon="6.97753">
        <ele>498.10034179688</ele>
        <time>2012-05-13T11:10:26Z</time>
      </trkpt>
      <trkpt lat="43.86655" lon="6.97764">
        <ele>496.65832519531</ele>
        <time>2012-05-13T11:10:28Z</time>
      </trkpt>
      <trkpt lat="43.86657" lon="6.97769">
        <ele>496.177734375</ele>
        <time>2012-05-13T11:10:29Z</time>
      </trkpt>
      <trkpt lat="43.86659" lon="6.9778">
        <ele>495.21618652344</ele>
        <time>2012-05-13T11:10:32Z</time>
      </trkpt>
      <trkpt lat="43.86674" lon="6.97815">
        <ele>493.29357910156</ele>
        <time>2012-05-13T11:10:42Z</time>
      </trkpt>
      <trkpt lat="43.86674" lon="6.97815">
        <ele>493.29357910156</ele>
        <time>2012-05-13T11:10:43Z</time>
      </trkpt>
      <trkpt lat="43.86695" lon="6.97864">
        <ele>492.81298828125</ele>
        <time>2012-05-13T11:10:54Z</time>
      </trkpt>
      <trkpt lat="43.86719" lon="6.97897">
        <ele>491.37097167969</ele>
        <time>2012-05-13T11:11:03Z</time>
      </trkpt>
      <trkpt lat="43.86747" lon="6.97932">
        <ele>490.40979003906</ele>
        <time>2012-05-13T11:11:14Z</time>
      </trkpt>
      <trkpt lat="43.86761" lon="6.97959">
        <ele>490.89038085938</ele>
        <time>2012-05-13T11:11:21Z</time>
      </trkpt>
      <trkpt lat="43.86767" lon="6.97979">
        <ele>490.40979003906</ele>
        <time>2012-05-13T11:11:25Z</time>
      </trkpt>
      <trkpt lat="43.86781" lon="6.9804">
        <ele>492.81298828125</ele>
        <time>2012-05-13T11:11:39Z</time>
      </trkpt>
      <trkpt lat="43.86792" lon="6.98069">
        <ele>494.25500488281</ele>
        <time>2012-05-13T11:11:50Z</time>
      </trkpt>
      <trkpt lat="43.86801" lon="6.981">
        <ele>495.21618652344</ele>
        <time>2012-05-13T11:12:01Z</time>
      </trkpt>
      <trkpt lat="43.86802" lon="6.98103">
        <ele>495.21618652344</ele>
        <time>2012-05-13T11:12:02Z</time>
      </trkpt>
      <trkpt lat="43.86805" lon="6.9811">
        <ele>495.21618652344</ele>
        <time>2012-05-13T11:12:04Z</time>
      </trkpt>
      <trkpt lat="43.86813" lon="6.98129">
        <ele>496.177734375</ele>
        <time>2012-05-13T11:12:11Z</time>
      </trkpt>
      <trkpt lat="43.86814" lon="6.98151">
        <ele>495.69689941406</ele>
        <time>2012-05-13T11:12:16Z</time>
      </trkpt>
      <trkpt lat="43.86813" lon="6.98159">
        <ele>496.177734375</ele>
        <time>2012-05-13T11:12:18Z</time>
      </trkpt>
      <trkpt lat="43.86816" lon="6.98171">
        <ele>495.69689941406</ele>
        <time>2012-05-13T11:12:22Z</time>
      </trkpt>
      <trkpt lat="43.86823" lon="6.98202">
        <ele>494.73559570312</ele>
        <time>2012-05-13T11:12:27Z</time>
      </trkpt>
      <trkpt lat="43.86827" lon="6.9822">
        <ele>493.29357910156</ele>
        <time>2012-05-13T11:12:31Z</time>
      </trkpt>
      <trkpt lat="43.86827" lon="6.98244">
        <ele>493.77429199219</ele>
        <time>2012-05-13T11:12:37Z</time>
      </trkpt>
      <trkpt lat="43.86827" lon="6.98261">
        <ele>492.33239746094</ele>
        <time>2012-05-13T11:12:47Z</time>
      </trkpt>
      <trkpt lat="43.86824" lon="6.98259">
        <ele>493.29357910156</ele>
        <time>2012-05-13T11:13:03Z</time>
      </trkpt>
      <trkpt lat="43.86822" lon="6.98273">
        <ele>492.81298828125</ele>
        <time>2012-05-13T11:13:16Z</time>
      </trkpt>
      <trkpt lat="43.86825" lon="6.98283">
        <ele>491.85168457031</ele>
        <time>2012-05-13T11:13:21Z</time>
      </trkpt>
      <trkpt lat="43.86825" lon="6.98302">
        <ele>490.40979003906</ele>
        <time>2012-05-13T11:13:25Z</time>
      </trkpt>
      <trkpt lat="43.86831" lon="6.98323">
        <ele>488.9677734375</ele>
        <time>2012-05-13T11:13:29Z</time>
      </trkpt>
      <trkpt lat="43.86823" lon="6.98328">
        <ele>487.52563476562</ele>
        <time>2012-05-13T11:13:30Z</time>
      </trkpt>
      <trkpt lat="43.86822" lon="6.98371">
        <ele>484.64184570312</ele>
        <time>2012-05-13T11:13:36Z</time>
      </trkpt>
      <trkpt lat="43.86822" lon="6.98384">
        <ele>483.68041992188</ele>
        <time>2012-05-13T11:13:38Z</time>
      </trkpt>
      <trkpt lat="43.86822" lon="6.98393">
        <ele>482.71923828125</ele>
        <time>2012-05-13T11:13:40Z</time>
      </trkpt>
      <trkpt lat="43.86818" lon="6.98398">
        <ele>481.27722167969</ele>
        <time>2012-05-13T11:13:42Z</time>
      </trkpt>
      <trkpt lat="43.86822" lon="6.98391">
        <ele>479.3544921875</ele>
        <time>2012-05-13T11:13:45Z</time>
      </trkpt>
      <trkpt lat="43.86825" lon="6.98398">
        <ele>476.95129394531</ele>
        <time>2012-05-13T11:13:50Z</time>
      </trkpt>
      <trkpt lat="43.86816" lon="6.9842">
        <ele>475.02868652344</ele>
        <time>2012-05-13T11:13:54Z</time>
      </trkpt>
      <trkpt lat="43.86814" lon="6.98431">
        <ele>472.14465332031</ele>
        <time>2012-05-13T11:13:57Z</time>
      </trkpt>
      <trkpt lat="43.86817" lon="6.98442">
        <ele>471.18334960938</ele>
        <time>2012-05-13T11:13:59Z</time>
      </trkpt>
      <trkpt lat="43.86822" lon="6.98436">
        <ele>469.74133300781</ele>
        <time>2012-05-13T11:14:02Z</time>
      </trkpt>
      <trkpt lat="43.86832" lon="6.98422">
        <ele>468.29931640625</ele>
        <time>2012-05-13T11:14:06Z</time>
      </trkpt>
      <trkpt lat="43.86835" lon="6.98433">
        <ele>466.37670898438</ele>
        <time>2012-05-13T11:14:10Z</time>
      </trkpt>
      <trkpt lat="43.86825" lon="6.9844">
        <ele>464.93481445312</ele>
        <time>2012-05-13T11:14:12Z</time>
      </trkpt>
      <trkpt lat="43.86826" lon="6.98478">
        <ele>461.57019042969</ele>
        <time>2012-05-13T11:14:18Z</time>
      </trkpt>
      <trkpt lat="43.86817" lon="6.98476">
        <ele>460.12817382812</ele>
        <time>2012-05-13T11:14:22Z</time>
      </trkpt>
      <trkpt lat="43.86823" lon="6.98482">
        <ele>456.76354980469</ele>
        <time>2012-05-13T11:14:29Z</time>
      </trkpt>
      <trkpt lat="43.86825" lon="6.98479">
        <ele>454.8408203125</ele>
        <time>2012-05-13T11:14:32Z</time>
      </trkpt>
      <trkpt lat="43.86834" lon="6.98469">
        <ele>452.43762207031</ele>
        <time>2012-05-13T11:14:36Z</time>
      </trkpt>
      <trkpt lat="43.86843" lon="6.98503">
        <ele>448.11181640625</ele>
        <time>2012-05-13T11:14:42Z</time>
      </trkpt>
      <trkpt lat="43.8684" lon="6.98508">
        <ele>448.11181640625</ele>
        <time>2012-05-13T11:14:43Z</time>
      </trkpt>
      <trkpt lat="43.86837" lon="6.98513">
        <ele>446.66967773438</ele>
        <time>2012-05-13T11:14:44Z</time>
      </trkpt>
      <trkpt lat="43.8683" lon="6.98521">
        <ele>445.22766113281</ele>
        <time>2012-05-13T11:14:47Z</time>
      </trkpt>
      <trkpt lat="43.86828" lon="6.98523">
        <ele>442.82446289062</ele>
        <time>2012-05-13T11:14:50Z</time>
      </trkpt>
      <trkpt lat="43.86828" lon="6.98523">
        <ele>442.34387207031</ele>
        <time>2012-05-13T11:14:51Z</time>
      </trkpt>
      <trkpt lat="43.86837" lon="6.98514">
        <ele>439.9404296875</ele>
        <time>2012-05-13T11:14:57Z</time>
      </trkpt>
      <trkpt lat="43.86841" lon="6.98506">
        <ele>436.57592773438</ele>
        <time>2012-05-13T11:15:02Z</time>
      </trkpt>
      <trkpt lat="43.86851" lon="6.98491">
        <ele>433.69189453125</ele>
        <time>2012-05-13T11:15:06Z</time>
      </trkpt>
      <trkpt lat="43.86851" lon="6.98491">
        <ele>433.21130371094</ele>
        <time>2012-05-13T11:15:07Z</time>
      </trkpt>
      <trkpt lat="43.86852" lon="6.98488">
        <ele>431.28857421875</ele>
        <time>2012-05-13T11:15:11Z</time>
      </trkpt>
      <trkpt lat="43.86873" lon="6.9852">
        <ele>430.32727050781</ele>
        <time>2012-05-13T11:15:13Z</time>
      </trkpt>
      <trkpt lat="43.86872" lon="6.98522">
        <ele>429.84655761719</ele>
        <time>2012-05-13T11:15:14Z</time>
      </trkpt>
      <trkpt lat="43.8687" lon="6.98518">
        <ele>428.88537597656</ele>
        <time>2012-05-13T11:15:17Z</time>
      </trkpt>
      <trkpt lat="43.86883" lon="6.9851">
        <ele>425.52075195312</ele>
        <time>2012-05-13T11:15:24Z</time>
      </trkpt>
      <trkpt lat="43.86884" lon="6.98514">
        <ele>423.59802246094</ele>
        <time>2012-05-13T11:15:26Z</time>
      </trkpt>
      <trkpt lat="43.86889" lon="6.9852">
        <ele>421.19482421875</ele>
        <time>2012-05-13T11:15:31Z</time>
      </trkpt>
      <trkpt lat="43.86894" lon="6.98524">
        <ele>419.27221679688</ele>
        <time>2012-05-13T11:15:34Z</time>
      </trkpt>
      <trkpt lat="43.86905" lon="6.9855">
        <ele>416.38818359375</ele>
        <time>2012-05-13T11:15:38Z</time>
      </trkpt>
      <trkpt lat="43.86906" lon="6.98554">
        <ele>413.02355957031</ele>
        <time>2012-05-13T11:15:40Z</time>
      </trkpt>
      <trkpt lat="43.8691" lon="6.9856">
        <ele>413.02355957031</ele>
        <time>2012-05-13T11:15:41Z</time>
      </trkpt>
      <trkpt lat="43.8691" lon="6.9857">
        <ele>411.58166503906</ele>
        <time>2012-05-13T11:15:43Z</time>
      </trkpt>
      <trkpt lat="43.86909" lon="6.98575">
        <ele>410.62023925781</ele>
        <time>2012-05-13T11:15:44Z</time>
      </trkpt>
      <trkpt lat="43.86908" lon="6.98581">
        <ele>409.17834472656</ele>
        <time>2012-05-13T11:15:47Z</time>
      </trkpt>
      <trkpt lat="43.86908" lon="6.98584">
        <ele>407.25561523438</ele>
        <time>2012-05-13T11:15:50Z</time>
      </trkpt>
      <trkpt lat="43.86907" lon="6.98587">
        <ele>406.77490234375</ele>
        <time>2012-05-13T11:15:56Z</time>
      </trkpt>
      <trkpt lat="43.86916" lon="6.98572">
        <ele>405.3330078125</ele>
        <time>2012-05-13T11:16:02Z</time>
      </trkpt>
      <trkpt lat="43.86917" lon="6.98564">
        <ele>403.41040039062</ele>
        <time>2012-05-13T11:16:05Z</time>
      </trkpt>
      <trkpt lat="43.86927" lon="6.98576">
        <ele>401.48779296875</ele>
        <time>2012-05-13T11:16:11Z</time>
      </trkpt>
      <trkpt lat="43.86925" lon="6.98592">
        <ele>398.60375976562</ele>
        <time>2012-05-13T11:16:22Z</time>
      </trkpt>
      <trkpt lat="43.86916" lon="6.98612">
        <ele>396.68115234375</ele>
        <time>2012-05-13T11:16:46Z</time>
      </trkpt>
      <trkpt lat="43.86899" lon="6.98632">
        <ele>395.71984863281</ele>
        <time>2012-05-13T11:16:52Z</time>
      </trkpt>
      <trkpt lat="43.86875" lon="6.98673">
        <ele>394.75854492188</ele>
        <time>2012-05-13T11:16:58Z</time>
      </trkpt>
      <trkpt lat="43.86887" lon="6.9871">
        <ele>393.31652832031</ele>
        <time>2012-05-13T11:17:02Z</time>
      </trkpt>
      <trkpt lat="43.86885" lon="6.98725">
        <ele>392.8359375</ele>
        <time>2012-05-13T11:17:08Z</time>
      </trkpt>
      <trkpt lat="43.86877" lon="6.98726">
        <ele>392.35534667969</ele>
        <time>2012-05-13T11:17:25Z</time>
      </trkpt>
      <trkpt lat="43.86873" lon="6.98731">
        <ele>392.8359375</ele>
        <time>2012-05-13T11:17:32Z</time>
      </trkpt>
      <trkpt lat="43.86868" lon="6.98733">
        <ele>394.27795410156</ele>
        <time>2012-05-13T11:17:39Z</time>
      </trkpt>
      <trkpt lat="43.86844" lon="6.98732">
        <ele>394.75854492188</ele>
        <time>2012-05-13T11:17:46Z</time>
      </trkpt>
      <trkpt lat="43.86808" lon="6.98717">
        <ele>396.20056152344</ele>
        <time>2012-05-13T11:18:02Z</time>
      </trkpt>
      <trkpt lat="43.86803" lon="6.98711">
        <ele>396.68115234375</ele>
        <time>2012-05-13T11:18:05Z</time>
      </trkpt>
      <trkpt lat="43.86783" lon="6.98686">
        <ele>398.60375976562</ele>
        <time>2012-05-13T11:18:21Z</time>
      </trkpt>
      <trkpt lat="43.86756" lon="6.98665">
        <ele>401.48779296875</ele>
        <time>2012-05-13T11:18:37Z</time>
      </trkpt>
      <trkpt lat="43.86735" lon="6.98652">
        <ele>403.41040039062</ele>
        <time>2012-05-13T11:18:48Z</time>
      </trkpt>
      <trkpt lat="43.8674" lon="6.98651">
        <ele>405.3330078125</ele>
        <time>2012-05-13T11:18:59Z</time>
      </trkpt>
      <trkpt lat="43.86763" lon="6.98683">
        <ele>408.69763183594</ele>
        <time>2012-05-13T11:19:15Z</time>
      </trkpt>
      <trkpt lat="43.86771" lon="6.98705">
        <ele>411.58166503906</ele>
        <time>2012-05-13T11:19:33Z</time>
      </trkpt>
      <trkpt lat="43.86769" lon="6.98704">
        <ele>412.06225585938</ele>
        <time>2012-05-13T11:19:38Z</time>
      </trkpt>
      <trkpt lat="43.86766" lon="6.98704">
        <ele>412.54284667969</ele>
        <time>2012-05-13T11:19:41Z</time>
      </trkpt>
      <trkpt lat="43.86746" lon="6.98695">
        <ele>414.94616699219</ele>
        <time>2012-05-13T11:19:58Z</time>
      </trkpt>
      <trkpt lat="43.86735" lon="6.98692">
        <ele>416.86889648438</ele>
        <time>2012-05-13T11:20:10Z</time>
      </trkpt>
      <trkpt lat="43.86724" lon="6.98693">
        <ele>417.83020019531</ele>
        <time>2012-05-13T11:20:16Z</time>
      </trkpt>
      <trkpt lat="43.86721" lon="6.98693">
        <ele>418.31079101562</ele>
        <time>2012-05-13T11:20:19Z</time>
      </trkpt>
      <trkpt lat="43.86708" lon="6.98693">
        <ele>419.75280761719</ele>
        <time>2012-05-13T11:20:27Z</time>
      </trkpt>
      <trkpt lat="43.86701" lon="6.9869">
        <ele>420.71411132812</ele>
        <time>2012-05-13T11:20:31Z</time>
      </trkpt>
      <trkpt lat="43.86704" lon="6.98693">
        <ele>422.15600585938</ele>
        <time>2012-05-13T11:20:40Z</time>
      </trkpt>
      <trkpt lat="43.86713" lon="6.98691">
        <ele>424.07873535156</ele>
        <time>2012-05-13T11:20:53Z</time>
      </trkpt>
      <trkpt lat="43.8673" lon="6.98712">
        <ele>427.443359375</ele>
        <time>2012-05-13T11:21:08Z</time>
      </trkpt>
      <trkpt lat="43.86744" lon="6.98739">
        <ele>430.32727050781</ele>
        <time>2012-05-13T11:21:26Z</time>
      </trkpt>
      <trkpt lat="43.86747" lon="6.98744">
        <ele>430.80798339844</ele>
        <time>2012-05-13T11:21:28Z</time>
      </trkpt>
      <trkpt lat="43.86752" lon="6.9875">
        <ele>432.25</ele>
        <time>2012-05-13T11:21:33Z</time>
      </trkpt>
      <trkpt lat="43.86764" lon="6.98761">
        <ele>433.21130371094</ele>
        <time>2012-05-13T11:21:40Z</time>
      </trkpt>
      <trkpt lat="43.86766" lon="6.98766">
        <ele>433.21130371094</ele>
        <time>2012-05-13T11:21:42Z</time>
      </trkpt>
      <trkpt lat="43.86776" lon="6.98776">
        <ele>435.13391113281</ele>
        <time>2012-05-13T11:21:49Z</time>
      </trkpt>
      <trkpt lat="43.86793" lon="6.98807">
        <ele>438.01782226562</ele>
        <time>2012-05-13T11:22:06Z</time>
      </trkpt>
      <trkpt lat="43.86818" lon="6.98847">
        <ele>440.42126464844</ele>
        <time>2012-05-13T11:22:21Z</time>
      </trkpt>
      <trkpt lat="43.8682" lon="6.98852">
        <ele>440.90185546875</ele>
        <time>2012-05-13T11:22:23Z</time>
      </trkpt>
      <trkpt lat="43.86821" lon="6.98858">
        <ele>441.38244628906</ele>
        <time>2012-05-13T11:22:26Z</time>
      </trkpt>
      <trkpt lat="43.86827" lon="6.98875">
        <ele>443.30505371094</ele>
        <time>2012-05-13T11:22:34Z</time>
      </trkpt>
      <trkpt lat="43.86828" lon="6.98882">
        <ele>443.30505371094</ele>
        <time>2012-05-13T11:22:37Z</time>
      </trkpt>
      <trkpt lat="43.86832" lon="6.98895">
        <ele>445.70837402344</ele>
        <time>2012-05-13T11:22:49Z</time>
      </trkpt>
      <trkpt lat="43.86833" lon="6.98896">
        <ele>446.18908691406</ele>
        <time>2012-05-13T11:22:50Z</time>
      </trkpt>
      <trkpt lat="43.86839" lon="6.98901">
        <ele>446.66967773438</ele>
        <time>2012-05-13T11:23:14Z</time>
      </trkpt>
      <trkpt lat="43.86839" lon="6.98902">
        <ele>446.18908691406</ele>
        <time>2012-05-13T11:23:46Z</time>
      </trkpt>
      <trkpt lat="43.86842" lon="6.98903">
        <ele>446.18908691406</ele>
        <time>2012-05-13T11:24:31Z</time>
      </trkpt>
      <trkpt lat="43.8685" lon="6.98905">
        <ele>446.66967773438</ele>
        <time>2012-05-13T11:24:38Z</time>
      </trkpt>
      <trkpt lat="43.86858" lon="6.98919">
        <ele>448.11181640625</ele>
        <time>2012-05-13T11:24:44Z</time>
      </trkpt>
      <trkpt lat="43.86853" lon="6.9893">
        <ele>449.07299804688</ele>
        <time>2012-05-13T11:24:51Z</time>
      </trkpt>
      <trkpt lat="43.86845" lon="6.98923">
        <ele>450.99560546875</ele>
        <time>2012-05-13T11:25:05Z</time>
      </trkpt>
      <trkpt lat="43.86818" lon="6.98904">
        <ele>454.36022949219</ele>
        <time>2012-05-13T11:25:21Z</time>
      </trkpt>
      <trkpt lat="43.86799" lon="6.98882">
        <ele>456.76354980469</ele>
        <time>2012-05-13T11:25:36Z</time>
      </trkpt>
      <trkpt lat="43.86782" lon="6.98871">
        <ele>457.72497558594</ele>
        <time>2012-05-13T11:25:46Z</time>
      </trkpt>
      <trkpt lat="43.86753" lon="6.98866">
        <ele>461.08947753906</ele>
        <time>2012-05-13T11:26:02Z</time>
      </trkpt>
      <trkpt lat="43.86727" lon="6.98859">
        <ele>463.49279785156</ele>
        <time>2012-05-13T11:26:17Z</time>
      </trkpt>
      <trkpt lat="43.86715" lon="6.98847">
        <ele>466.37670898438</ele>
        <time>2012-05-13T11:26:30Z</time>
      </trkpt>
      <trkpt lat="43.8671" lon="6.98845">
        <ele>466.857421875</ele>
        <time>2012-05-13T11:26:34Z</time>
      </trkpt>
      <trkpt lat="43.86706" lon="6.98843">
        <ele>466.857421875</ele>
        <time>2012-05-13T11:26:37Z</time>
      </trkpt>
      <trkpt lat="43.86675" lon="6.98828">
        <ele>469.74133300781</ele>
        <time>2012-05-13T11:26:53Z</time>
      </trkpt>
      <trkpt lat="43.86666" lon="6.98823">
        <ele>470.70263671875</ele>
        <time>2012-05-13T11:26:59Z</time>
      </trkpt>
      <trkpt lat="43.86647" lon="6.98814">
        <ele>473.58666992188</ele>
        <time>2012-05-13T11:27:13Z</time>
      </trkpt>
      <trkpt lat="43.86613" lon="6.98802">
        <ele>476.95129394531</ele>
        <time>2012-05-13T11:27:30Z</time>
      </trkpt>
      <trkpt lat="43.86594" lon="6.98799">
        <ele>478.87390136719</ele>
        <time>2012-05-13T11:27:43Z</time>
      </trkpt>
      <trkpt lat="43.86566" lon="6.98794">
        <ele>481.7578125</ele>
        <time>2012-05-13T11:27:56Z</time>
      </trkpt>
      <trkpt lat="43.86551" lon="6.98787">
        <ele>484.1611328125</ele>
        <time>2012-05-13T11:28:09Z</time>
      </trkpt>
      <trkpt lat="43.86538" lon="6.9879">
        <ele>486.564453125</ele>
        <time>2012-05-13T11:28:18Z</time>
      </trkpt>
      <trkpt lat="43.86532" lon="6.98784">
        <ele>488.00646972656</ele>
        <time>2012-05-13T11:28:25Z</time>
      </trkpt>
      <trkpt lat="43.86501" lon="6.98762">
        <ele>488.48718261719</ele>
        <time>2012-05-13T11:28:40Z</time>
      </trkpt>
      <trkpt lat="43.86487" lon="6.98764">
        <ele>488.48718261719</ele>
        <time>2012-05-13T11:28:43Z</time>
      </trkpt>
      <trkpt lat="43.86477" lon="6.9878">
        <ele>487.04504394531</ele>
        <time>2012-05-13T11:28:48Z</time>
      </trkpt>
      <trkpt lat="43.86478" lon="6.98796">
        <ele>486.564453125</ele>
        <time>2012-05-13T11:28:50Z</time>
      </trkpt>
      <trkpt lat="43.86461" lon="6.98823">
        <ele>484.1611328125</ele>
        <time>2012-05-13T11:28:54Z</time>
      </trkpt>
      <trkpt lat="43.86454" lon="6.98833">
        <ele>484.1611328125</ele>
        <time>2012-05-13T11:28:56Z</time>
      </trkpt>
      <trkpt lat="43.86433" lon="6.98845">
        <ele>484.1611328125</ele>
        <time>2012-05-13T11:29:02Z</time>
      </trkpt>
      <trkpt lat="43.86426" lon="6.98842">
        <ele>482.23852539062</ele>
        <time>2012-05-13T11:29:13Z</time>
      </trkpt>
      <trkpt lat="43.86427" lon="6.98842">
        <ele>480.79663085938</ele>
        <time>2012-05-13T11:29:36Z</time>
      </trkpt>
      <trkpt lat="43.86427" lon="6.98842">
        <ele>480.31591796875</ele>
        <time>2012-05-13T11:29:37Z</time>
      </trkpt>
      <trkpt lat="43.86427" lon="6.98842">
        <ele>478.87390136719</ele>
        <time>2012-05-13T11:29:51Z</time>
      </trkpt>
      <trkpt lat="43.86427" lon="6.98842">
        <ele>478.39318847656</ele>
        <time>2012-05-13T11:29:53Z</time>
      </trkpt>
      <trkpt lat="43.86422" lon="6.9884">
        <ele>478.39318847656</ele>
        <time>2012-05-13T11:29:55Z</time>
      </trkpt>
      <trkpt lat="43.86421" lon="6.98824">
        <ele>475.98986816406</ele>
        <time>2012-05-13T11:30:00Z</time>
      </trkpt>
      <trkpt lat="43.8642" lon="6.98821">
        <ele>475.98986816406</ele>
        <time>2012-05-13T11:30:11Z</time>
      </trkpt>
      <trkpt lat="43.86394" lon="6.98816">
        <ele>476.47058105469</ele>
        <time>2012-05-13T11:30:23Z</time>
      </trkpt>
      <trkpt lat="43.86365" lon="6.98818">
        <ele>475.98986816406</ele>
        <time>2012-05-13T11:30:33Z</time>
      </trkpt>
      <trkpt lat="43.86349" lon="6.98832">
        <ele>474.54797363281</ele>
        <time>2012-05-13T11:30:37Z</time>
      </trkpt>
      <trkpt lat="43.86341" lon="6.98835">
        <ele>473.10607910156</ele>
        <time>2012-05-13T11:30:39Z</time>
      </trkpt>
      <trkpt lat="43.8633" lon="6.9884">
        <ele>469.74133300781</ele>
        <time>2012-05-13T11:30:43Z</time>
      </trkpt>
      <trkpt lat="43.86302" lon="6.98842">
        <ele>466.857421875</ele>
        <time>2012-05-13T11:30:50Z</time>
      </trkpt>
      <trkpt lat="43.86302" lon="6.98842">
        <ele>465.89611816406</ele>
        <time>2012-05-13T11:30:52Z</time>
      </trkpt>
      <trkpt lat="43.86297" lon="6.98844">
        <ele>463.97338867188</ele>
        <time>2012-05-13T11:30:57Z</time>
      </trkpt>
      <trkpt lat="43.86292" lon="6.98846">
        <ele>462.05078125</ele>
        <time>2012-05-13T11:31:00Z</time>
      </trkpt>
      <trkpt lat="43.86289" lon="6.98847">
        <ele>461.08947753906</ele>
        <time>2012-05-13T11:31:02Z</time>
      </trkpt>
      <trkpt lat="43.86278" lon="6.98851">
        <ele>459.16687011719</ele>
        <time>2012-05-13T11:31:07Z</time>
      </trkpt>
      <trkpt lat="43.86268" lon="6.98855">
        <ele>458.20556640625</ele>
        <time>2012-05-13T11:31:17Z</time>
      </trkpt>
      <trkpt lat="43.86268" lon="6.98855">
        <ele>457.72497558594</ele>
        <time>2012-05-13T11:31:51Z</time>
      </trkpt>
      <trkpt lat="43.86268" lon="6.98855">
        <ele>458.68615722656</ele>
        <time>2012-05-13T11:32:03Z</time>
      </trkpt>
      <trkpt lat="43.86268" lon="6.98855">
        <ele>458.68615722656</ele>
        <time>2012-05-13T11:32:04Z</time>
      </trkpt>
      <trkpt lat="43.86268" lon="6.98855">
        <ele>459.64758300781</ele>
        <time>2012-05-13T11:32:09Z</time>
      </trkpt>
      <trkpt lat="43.86257" lon="6.98853">
        <ele>462.05078125</ele>
        <time>2012-05-13T11:32:25Z</time>
      </trkpt>
      <trkpt lat="43.86257" lon="6.98853">
        <ele>463.97338867188</ele>
        <time>2012-05-13T11:32:40Z</time>
      </trkpt>
      <trkpt lat="43.86257" lon="6.98853">
        <ele>466.857421875</ele>
        <time>2012-05-13T11:32:59Z</time>
      </trkpt>
      <trkpt lat="43.86257" lon="6.98853">
        <ele>469.74133300781</ele>
        <time>2012-05-13T11:33:13Z</time>
      </trkpt>
      <trkpt lat="43.86257" lon="6.98853">
        <ele>472.14465332031</ele>
        <time>2012-05-13T11:33:26Z</time>
      </trkpt>
      <trkpt lat="43.86257" lon="6.98853">
        <ele>474.54797363281</ele>
        <time>2012-05-13T11:33:50Z</time>
      </trkpt>
      <trkpt lat="43.86175" lon="6.98829">
        <ele>477.43188476562</ele>
        <time>2012-05-13T11:34:15Z</time>
      </trkpt>
      <trkpt lat="43.86156" lon="6.98822">
        <ele>479.3544921875</ele>
        <time>2012-05-13T11:34:28Z</time>
      </trkpt>
      <trkpt lat="43.8613" lon="6.98813">
        <ele>481.7578125</ele>
        <time>2012-05-13T11:34:43Z</time>
      </trkpt>
      <trkpt lat="43.86109" lon="6.98797">
        <ele>481.7578125</ele>
        <time>2012-05-13T11:34:54Z</time>
      </trkpt>
      <trkpt lat="43.86093" lon="6.98789">
        <ele>477.43188476562</ele>
        <time>2012-05-13T11:35:00Z</time>
      </trkpt>
      <trkpt lat="43.86091" lon="6.98787">
        <ele>477.43188476562</ele>
        <time>2012-05-13T11:35:01Z</time>
      </trkpt>
      <trkpt lat="43.86087" lon="6.98783">
        <ele>476.47058105469</ele>
        <time>2012-05-13T11:35:03Z</time>
      </trkpt>
      <trkpt lat="43.86074" lon="6.98781">
        <ele>474.06726074219</ele>
        <time>2012-05-13T11:35:08Z</time>
      </trkpt>
      <trkpt lat="43.86067" lon="6.98782">
        <ele>472.14465332031</ele>
        <time>2012-05-13T11:35:13Z</time>
      </trkpt>
      <trkpt lat="43.86065" lon="6.98782">
        <ele>470.22192382812</ele>
        <time>2012-05-13T11:35:27Z</time>
      </trkpt>
      <trkpt lat="43.86065" lon="6.98782">
        <ele>470.22192382812</ele>
        <time>2012-05-13T11:35:50Z</time>
      </trkpt>
      <trkpt lat="43.86065" lon="6.98782">
        <ele>473.10607910156</ele>
        <time>2012-05-13T11:36:07Z</time>
      </trkpt>
      <trkpt lat="43.86065" lon="6.98782">
        <ele>475.98986816406</ele>
        <time>2012-05-13T11:36:22Z</time>
      </trkpt>
      <trkpt lat="43.86065" lon="6.98782">
        <ele>479.3544921875</ele>
        <time>2012-05-13T11:36:37Z</time>
      </trkpt>
      <trkpt lat="43.86065" lon="6.98782">
        <ele>481.27722167969</ele>
        <time>2012-05-13T11:36:50Z</time>
      </trkpt>
      <trkpt lat="43.86065" lon="6.98782">
        <ele>484.64184570312</ele>
        <time>2012-05-13T11:37:04Z</time>
      </trkpt>
      <trkpt lat="43.86065" lon="6.98782">
        <ele>486.08374023438</ele>
        <time>2012-05-13T11:37:25Z</time>
      </trkpt>
      <trkpt lat="43.86065" lon="6.98782">
        <ele>486.564453125</ele>
        <time>2012-05-13T11:37:33Z</time>
      </trkpt>
      <trkpt lat="43.85991" lon="6.9877">
        <ele>489.44836425781</ele>
        <time>2012-05-13T11:37:46Z</time>
      </trkpt>
      <trkpt lat="43.85975" lon="6.98766">
        <ele>491.85168457031</ele>
        <time>2012-05-13T11:37:58Z</time>
      </trkpt>
      <trkpt lat="43.85971" lon="6.98765">
        <ele>494.25500488281</ele>
        <time>2012-05-13T11:38:09Z</time>
      </trkpt>
      <trkpt lat="43.85971" lon="6.98765">
        <ele>496.65832519531</ele>
        <time>2012-05-13T11:38:25Z</time>
      </trkpt>
      <trkpt lat="43.85971" lon="6.98765">
        <ele>500.50354003906</ele>
        <time>2012-05-13T11:38:42Z</time>
      </trkpt>
      <trkpt lat="43.85935" lon="6.98763">
        <ele>501.46484375</ele>
        <time>2012-05-13T11:38:54Z</time>
      </trkpt>
      <trkpt lat="43.85935" lon="6.98763">
        <ele>504.34887695312</ele>
        <time>2012-05-13T11:39:16Z</time>
      </trkpt>
      <trkpt lat="43.85935" lon="6.98763">
        <ele>507.71350097656</ele>
        <time>2012-05-13T11:39:33Z</time>
      </trkpt>
      <trkpt lat="43.85935" lon="6.98763">
        <ele>507.71350097656</ele>
        <time>2012-05-13T11:39:34Z</time>
      </trkpt>
      <trkpt lat="43.85935" lon="6.98763">
        <ele>510.59729003906</ele>
        <time>2012-05-13T11:39:46Z</time>
      </trkpt>
      <trkpt lat="43.85935" lon="6.98763">
        <ele>513.96203613281</ele>
        <time>2012-05-13T11:40:05Z</time>
      </trkpt>
      <trkpt lat="43.85935" lon="6.98763">
        <ele>515.40405273438</ele>
        <time>2012-05-13T11:40:27Z</time>
      </trkpt>
      <trkpt lat="43.85887" lon="6.98767">
        <ele>514.44262695312</ele>
        <time>2012-05-13T11:40:32Z</time>
      </trkpt>
      <trkpt lat="43.85875" lon="6.98758">
        <ele>516.365234375</ele>
        <time>2012-05-13T11:40:39Z</time>
      </trkpt>
      <trkpt lat="43.85866" lon="6.98745">
        <ele>517.80725097656</ele>
        <time>2012-05-13T11:40:46Z</time>
      </trkpt>
      <trkpt lat="43.85858" lon="6.9874">
        <ele>518.7685546875</ele>
        <time>2012-05-13T11:40:51Z</time>
      </trkpt>
      <trkpt lat="43.85856" lon="6.98737">
        <ele>518.7685546875</ele>
        <time>2012-05-13T11:40:53Z</time>
      </trkpt>
      <trkpt lat="43.85842" lon="6.98732">
        <ele>519.72985839844</ele>
        <time>2012-05-13T11:40:59Z</time>
      </trkpt>
      <trkpt lat="43.85838" lon="6.98731">
        <ele>521.17199707031</ele>
        <time>2012-05-13T11:41:02Z</time>
      </trkpt>
      <trkpt lat="43.85835" lon="6.98723">
        <ele>522.61389160156</ele>
        <time>2012-05-13T11:41:12Z</time>
      </trkpt>
      <trkpt lat="43.85815" lon="6.9871">
        <ele>522.13317871094</ele>
        <time>2012-05-13T11:41:23Z</time>
      </trkpt>
      <trkpt lat="43.85788" lon="6.987">
        <ele>524.53649902344</ele>
        <time>2012-05-13T11:41:37Z</time>
      </trkpt>
      <trkpt lat="43.8578" lon="6.98695">
        <ele>524.53649902344</ele>
        <time>2012-05-13T11:41:41Z</time>
      </trkpt>
      <trkpt lat="43.85774" lon="6.98685">
        <ele>525.01721191406</ele>
        <time>2012-05-13T11:41:46Z</time>
      </trkpt>
      <trkpt lat="43.85773" lon="6.98687">
        <ele>525.49780273438</ele>
        <time>2012-05-13T11:41:48Z</time>
      </trkpt>
      <trkpt lat="43.85749" lon="6.98682">
        <ele>525.49780273438</ele>
        <time>2012-05-13T11:41:58Z</time>
      </trkpt>
      <trkpt lat="43.85746" lon="6.98662">
        <ele>529.34313964844</ele>
        <time>2012-05-13T11:42:13Z</time>
      </trkpt>
      <trkpt lat="43.85739" lon="6.98655">
        <ele>532.22705078125</ele>
        <time>2012-05-13T11:42:28Z</time>
      </trkpt>
      <trkpt lat="43.85724" lon="6.9864">
        <ele>534.63037109375</ele>
        <time>2012-05-13T11:42:50Z</time>
      </trkpt>
      <trkpt lat="43.85715" lon="6.98635">
        <ele>537.99499511719</ele>
        <time>2012-05-13T11:43:06Z</time>
      </trkpt>
      <trkpt lat="43.85714" lon="6.98634">
        <ele>537.03369140625</ele>
        <time>2012-05-13T11:43:09Z</time>
      </trkpt>
      <trkpt lat="43.85698" lon="6.98621">
        <ele>538.47570800781</ele>
        <time>2012-05-13T11:43:20Z</time>
      </trkpt>
      <trkpt lat="43.85679" lon="6.98605">
        <ele>540.39831542969</ele>
        <time>2012-05-13T11:43:33Z</time>
      </trkpt>
      <trkpt lat="43.85668" lon="6.98588">
        <ele>542.32092285156</ele>
        <time>2012-05-13T11:43:43Z</time>
      </trkpt>
      <trkpt lat="43.85648" lon="6.98559">
        <ele>542.32092285156</ele>
        <time>2012-05-13T11:43:55Z</time>
      </trkpt>
      <trkpt lat="43.85643" lon="6.9856">
        <ele>541.35949707031</ele>
        <time>2012-05-13T11:43:58Z</time>
      </trkpt>
      <trkpt lat="43.85638" lon="6.98554">
        <ele>542.32092285156</ele>
        <time>2012-05-13T11:44:09Z</time>
      </trkpt>
      <trkpt lat="43.85631" lon="6.98547">
        <ele>545.20483398438</ele>
        <time>2012-05-13T11:44:25Z</time>
      </trkpt>
      <trkpt lat="43.85625" lon="6.9853">
        <ele>548.5693359375</ele>
        <time>2012-05-13T11:44:43Z</time>
      </trkpt>
      <trkpt lat="43.85617" lon="6.98525">
        <ele>550.4921875</ele>
        <time>2012-05-13T11:44:56Z</time>
      </trkpt>
      <trkpt lat="43.85606" lon="6.98525">
        <ele>552.89526367188</ele>
        <time>2012-05-13T11:45:10Z</time>
      </trkpt>
      <trkpt lat="43.85595" lon="6.98525">
        <ele>552.41455078125</ele>
        <time>2012-05-13T11:45:35Z</time>
      </trkpt>
      <trkpt lat="43.85601" lon="6.98526">
        <ele>551.93408203125</ele>
        <time>2012-05-13T11:46:17Z</time>
      </trkpt>
      <trkpt lat="43.85603" lon="6.98521">
        <ele>552.41455078125</ele>
        <time>2012-05-13T11:47:24Z</time>
      </trkpt>
      <trkpt lat="43.85597" lon="6.98521">
        <ele>552.41455078125</ele>
        <time>2012-05-13T11:47:28Z</time>
      </trkpt>
      <trkpt lat="43.85589" lon="6.98515">
        <ele>550.97265625</ele>
        <time>2012-05-13T11:47:33Z</time>
      </trkpt>
      <trkpt lat="43.85587" lon="6.98512">
        <ele>551.45336914062</ele>
        <time>2012-05-13T11:47:35Z</time>
      </trkpt>
      <trkpt lat="43.85583" lon="6.9851">
        <ele>551.93408203125</ele>
        <time>2012-05-13T11:47:38Z</time>
      </trkpt>
      <trkpt lat="43.85578" lon="6.98508">
        <ele>552.41455078125</ele>
        <time>2012-05-13T11:47:41Z</time>
      </trkpt>
      <trkpt lat="43.85572" lon="6.98509">
        <ele>552.89526367188</ele>
        <time>2012-05-13T11:48:02Z</time>
      </trkpt>
      <trkpt lat="43.85568" lon="6.98501">
        <ele>555.779296875</ele>
        <time>2012-05-13T11:48:23Z</time>
      </trkpt>
      <trkpt lat="43.85572" lon="6.98484">
        <ele>558.66333007812</ele>
        <time>2012-05-13T11:48:37Z</time>
      </trkpt>
      <trkpt lat="43.85569" lon="6.98476">
        <ele>560.5859375</ele>
        <time>2012-05-13T11:48:51Z</time>
      </trkpt>
      <trkpt lat="43.85568" lon="6.98464">
        <ele>562.50854492188</ele>
        <time>2012-05-13T11:49:06Z</time>
      </trkpt>
      <trkpt lat="43.85566" lon="6.98461">
        <ele>563.46997070312</ele>
        <time>2012-05-13T11:49:09Z</time>
      </trkpt>
      <trkpt lat="43.85559" lon="6.98447">
        <ele>565.392578125</ele>
        <time>2012-05-13T11:49:26Z</time>
      </trkpt>
      <trkpt lat="43.85555" lon="6.98444">
        <ele>567.31518554688</ele>
        <time>2012-05-13T11:49:34Z</time>
      </trkpt>
      <trkpt lat="43.85545" lon="6.98439">
        <ele>570.19897460938</ele>
        <time>2012-05-13T11:49:52Z</time>
      </trkpt>
      <trkpt lat="43.85533" lon="6.9843">
        <ele>572.6025390625</ele>
        <time>2012-05-13T11:50:07Z</time>
      </trkpt>
      <trkpt lat="43.85525" lon="6.98418">
        <ele>575.486328125</ele>
        <time>2012-05-13T11:50:26Z</time>
      </trkpt>
      <trkpt lat="43.85515" lon="6.98412">
        <ele>578.37036132812</ele>
        <time>2012-05-13T11:50:42Z</time>
      </trkpt>
      <trkpt lat="43.85506" lon="6.98411">
        <ele>579.33154296875</ele>
        <time>2012-05-13T11:51:00Z</time>
      </trkpt>
      <trkpt lat="43.85501" lon="6.98411">
        <ele>579.81225585938</ele>
        <time>2012-05-13T11:51:07Z</time>
      </trkpt>
      <trkpt lat="43.85488" lon="6.98395">
        <ele>580.29296875</ele>
        <time>2012-05-13T11:51:17Z</time>
      </trkpt>
      <trkpt lat="43.8548" lon="6.98378">
        <ele>580.77368164062</ele>
        <time>2012-05-13T11:51:27Z</time>
      </trkpt>
      <trkpt lat="43.85477" lon="6.98375">
        <ele>580.29296875</ele>
        <time>2012-05-13T11:51:28Z</time>
      </trkpt>
      <trkpt lat="43.85468" lon="6.98369">
        <ele>579.33154296875</ele>
        <time>2012-05-13T11:51:32Z</time>
      </trkpt>
      <trkpt lat="43.8546" lon="6.98362">
        <ele>580.29296875</ele>
        <time>2012-05-13T11:51:37Z</time>
      </trkpt>
      <trkpt lat="43.85448" lon="6.9836">
        <ele>580.77368164062</ele>
        <time>2012-05-13T11:51:43Z</time>
      </trkpt>
      <trkpt lat="43.85439" lon="6.98358">
        <ele>581.73486328125</ele>
        <time>2012-05-13T11:51:55Z</time>
      </trkpt>
      <trkpt lat="43.85432" lon="6.98362">
        <ele>582.21557617188</ele>
        <time>2012-05-13T11:52:02Z</time>
      </trkpt>
      <trkpt lat="43.85422" lon="6.98361">
        <ele>582.6962890625</ele>
        <time>2012-05-13T11:52:13Z</time>
      </trkpt>
      <trkpt lat="43.85417" lon="6.9836">
        <ele>582.21557617188</ele>
        <time>2012-05-13T11:52:18Z</time>
      </trkpt>
      <trkpt lat="43.85409" lon="6.98356">
        <ele>581.25439453125</ele>
        <time>2012-05-13T11:52:24Z</time>
      </trkpt>
      <trkpt lat="43.854" lon="6.98356">
        <ele>581.73486328125</ele>
        <time>2012-05-13T11:52:44Z</time>
      </trkpt>
      <trkpt lat="43.85394" lon="6.98358">
        <ele>584.61889648438</ele>
        <time>2012-05-13T11:53:04Z</time>
      </trkpt>
      <trkpt lat="43.85391" lon="6.98359">
        <ele>586.06079101562</ele>
        <time>2012-05-13T11:53:07Z</time>
      </trkpt>
      <trkpt lat="43.85377" lon="6.98355">
        <ele>588.94506835938</ele>
        <time>2012-05-13T11:53:23Z</time>
      </trkpt>
      <trkpt lat="43.85372" lon="6.98347">
        <ele>592.3095703125</ele>
        <time>2012-05-13T11:53:40Z</time>
      </trkpt>
      <trkpt lat="43.85371" lon="6.98337">
        <ele>594.71264648438</ele>
        <time>2012-05-13T11:53:54Z</time>
      </trkpt>
      <trkpt lat="43.8537" lon="6.98335">
        <ele>595.193359375</ele>
        <time>2012-05-13T11:53:59Z</time>
      </trkpt>
      <trkpt lat="43.85366" lon="6.98331">
        <ele>595.67407226562</ele>
        <time>2012-05-13T11:54:20Z</time>
      </trkpt>
      <trkpt lat="43.85369" lon="6.98332">
        <ele>596.15478515625</ele>
        <time>2012-05-13T11:54:41Z</time>
      </trkpt>
      <trkpt lat="43.85362" lon="6.9833">
        <ele>599.03857421875</ele>
        <time>2012-05-13T11:54:56Z</time>
      </trkpt>
      <trkpt lat="43.85357" lon="6.98326">
        <ele>601.92260742188</ele>
        <time>2012-05-13T11:55:11Z</time>
      </trkpt>
      <trkpt lat="43.85347" lon="6.98326">
        <ele>603.84521484375</ele>
        <time>2012-05-13T11:55:26Z</time>
      </trkpt>
      <trkpt lat="43.85332" lon="6.98324">
        <ele>607.2099609375</ele>
        <time>2012-05-13T11:55:43Z</time>
      </trkpt>
      <trkpt lat="43.85327" lon="6.98322">
        <ele>609.61328125</ele>
        <time>2012-05-13T11:56:02Z</time>
      </trkpt>
      <trkpt lat="43.85337" lon="6.98333">
        <ele>612.0166015625</ele>
        <time>2012-05-13T11:56:20Z</time>
      </trkpt>
      <trkpt lat="43.85343" lon="6.98346">
        <ele>613.45849609375</ele>
        <time>2012-05-13T11:56:35Z</time>
      </trkpt>
      <trkpt lat="43.85336" lon="6.9837">
        <ele>616.82299804688</ele>
        <time>2012-05-13T11:56:56Z</time>
      </trkpt>
      <trkpt lat="43.85336" lon="6.98363">
        <ele>618.74560546875</ele>
        <time>2012-05-13T11:57:10Z</time>
      </trkpt>
      <trkpt lat="43.85333" lon="6.98352">
        <ele>622.1103515625</ele>
        <time>2012-05-13T11:57:27Z</time>
      </trkpt>
      <trkpt lat="43.85331" lon="6.98364">
        <ele>624.03295898438</ele>
        <time>2012-05-13T11:57:43Z</time>
      </trkpt>
      <trkpt lat="43.85325" lon="6.98378">
        <ele>626.9169921875</ele>
        <time>2012-05-13T11:58:00Z</time>
      </trkpt>
      <trkpt lat="43.85326" lon="6.98394">
        <ele>630.28149414062</ele>
        <time>2012-05-13T11:58:16Z</time>
      </trkpt>
      <trkpt lat="43.85327" lon="6.98409">
        <ele>633.64599609375</ele>
        <time>2012-05-13T11:58:32Z</time>
      </trkpt>
      <trkpt lat="43.8532" lon="6.98419">
        <ele>636.5302734375</ele>
        <time>2012-05-13T11:58:50Z</time>
      </trkpt>
      <trkpt lat="43.85319" lon="6.9843">
        <ele>639.4140625</ele>
        <time>2012-05-13T11:59:15Z</time>
      </trkpt>
      <trkpt lat="43.85317" lon="6.98448">
        <ele>643.25927734375</ele>
        <time>2012-05-13T11:59:30Z</time>
      </trkpt>
      <trkpt lat="43.85318" lon="6.98464">
        <ele>645.66259765625</ele>
        <time>2012-05-13T11:59:50Z</time>
      </trkpt>
      <trkpt lat="43.85316" lon="6.98482">
        <ele>648.54638671875</ele>
        <time>2012-05-13T12:00:10Z</time>
      </trkpt>
      <trkpt lat="43.85309" lon="6.98472">
        <ele>650.94970703125</ele>
        <time>2012-05-13T12:00:31Z</time>
      </trkpt>
      <trkpt lat="43.85295" lon="6.98462">
        <ele>653.833984375</ele>
        <time>2012-05-13T12:00:51Z</time>
      </trkpt>
      <trkpt lat="43.85291" lon="6.98454">
        <ele>655.75659179688</ele>
        <time>2012-05-13T12:01:09Z</time>
      </trkpt>
      <trkpt lat="43.85292" lon="6.98465">
        <ele>658.15991210938</ele>
        <time>2012-05-13T12:01:35Z</time>
      </trkpt>
      <trkpt lat="43.85287" lon="6.98474">
        <ele>659.12109375</ele>
        <time>2012-05-13T12:01:45Z</time>
      </trkpt>
      <trkpt lat="43.85289" lon="6.98486">
        <ele>661.04370117188</ele>
        <time>2012-05-13T12:01:59Z</time>
      </trkpt>
      <trkpt lat="43.85289" lon="6.98488">
        <ele>661.5244140625</ele>
        <time>2012-05-13T12:02:01Z</time>
      </trkpt>
      <trkpt lat="43.85291" lon="6.98509">
        <ele>662.96630859375</ele>
        <time>2012-05-13T12:02:18Z</time>
      </trkpt>
      <trkpt lat="43.85287" lon="6.98521">
        <ele>664.88891601562</ele>
        <time>2012-05-13T12:02:32Z</time>
      </trkpt>
      <trkpt lat="43.85288" lon="6.98536">
        <ele>667.29223632812</ele>
        <time>2012-05-13T12:02:50Z</time>
      </trkpt>
      <trkpt lat="43.85285" lon="6.98551">
        <ele>670.17626953125</ele>
        <time>2012-05-13T12:03:06Z</time>
      </trkpt>
      <trkpt lat="43.85287" lon="6.98563">
        <ele>671.6181640625</ele>
        <time>2012-05-13T12:03:18Z</time>
      </trkpt>
      <trkpt lat="43.85284" lon="6.98573">
        <ele>672.57958984375</ele>
        <time>2012-05-13T12:03:35Z</time>
      </trkpt>
      <trkpt lat="43.85285" lon="6.98588">
        <ele>672.09887695312</ele>
        <time>2012-05-13T12:04:30Z</time>
      </trkpt>
      <trkpt lat="43.85285" lon="6.98599">
        <ele>671.6181640625</ele>
        <time>2012-05-13T12:04:43Z</time>
      </trkpt>
      <trkpt lat="43.85282" lon="6.98601">
        <ele>671.6181640625</ele>
        <time>2012-05-13T12:05:01Z</time>
      </trkpt>
      <trkpt lat="43.85287" lon="6.98597">
        <ele>670.65698242188</ele>
        <time>2012-05-13T12:05:15Z</time>
      </trkpt>
      <trkpt lat="43.85289" lon="6.98596">
        <ele>671.1376953125</ele>
        <time>2012-05-13T12:05:26Z</time>
      </trkpt>
      <trkpt lat="43.85305" lon="6.98584">
        <ele>669.69580078125</ele>
        <time>2012-05-13T12:05:40Z</time>
      </trkpt>
      <trkpt lat="43.85312" lon="6.9858">
        <ele>667.77270507812</ele>
        <time>2012-05-13T12:05:52Z</time>
      </trkpt>
      <trkpt lat="43.85311" lon="6.98581">
        <ele>666.33081054688</ele>
        <time>2012-05-13T12:06:09Z</time>
      </trkpt>
      <trkpt lat="43.85319" lon="6.98573">
        <ele>663.92749023438</ele>
        <time>2012-05-13T12:06:23Z</time>
      </trkpt>
      <trkpt lat="43.85323" lon="6.98566">
        <ele>662.00512695312</ele>
        <time>2012-05-13T12:06:38Z</time>
      </trkpt>
      <trkpt lat="43.85326" lon="6.98561">
        <ele>662.48559570312</ele>
        <time>2012-05-13T12:06:57Z</time>
      </trkpt>
      <trkpt lat="43.85334" lon="6.98548">
        <ele>663.44702148438</ele>
        <time>2012-05-13T12:07:14Z</time>
      </trkpt>
      <trkpt lat="43.85337" lon="6.98546">
        <ele>664.408203125</ele>
        <time>2012-05-13T12:07:18Z</time>
      </trkpt>
      <trkpt lat="43.85346" lon="6.98546">
        <ele>665.85034179688</ele>
        <time>2012-05-13T12:07:36Z</time>
      </trkpt>
      <trkpt lat="43.8535" lon="6.98548">
        <ele>665.36962890625</ele>
        <time>2012-05-13T12:08:33Z</time>
      </trkpt>
      <trkpt lat="43.85355" lon="6.98545">
        <ele>663.44702148438</ele>
        <time>2012-05-13T12:08:37Z</time>
      </trkpt>
      <trkpt lat="43.85357" lon="6.98549">
        <ele>662.00512695312</ele>
        <time>2012-05-13T12:08:45Z</time>
      </trkpt>
      <trkpt lat="43.85357" lon="6.98572">
        <ele>657.67919921875</ele>
        <time>2012-05-13T12:08:54Z</time>
      </trkpt>
      <trkpt lat="43.85357" lon="6.98579">
        <ele>656.7177734375</ele>
        <time>2012-05-13T12:08:56Z</time>
      </trkpt>
      <trkpt lat="43.85357" lon="6.98587">
        <ele>655.75659179688</ele>
        <time>2012-05-13T12:09:05Z</time>
      </trkpt>
      <trkpt lat="43.85357" lon="6.98602">
        <ele>658.15991210938</ele>
        <time>2012-05-13T12:09:20Z</time>
      </trkpt>
      <trkpt lat="43.85358" lon="6.98612">
        <ele>659.60180664062</ele>
        <time>2012-05-13T12:09:37Z</time>
      </trkpt>
      <trkpt lat="43.85356" lon="6.98632">
        <ele>661.5244140625</ele>
        <time>2012-05-13T12:09:51Z</time>
      </trkpt>
      <trkpt lat="43.85357" lon="6.98635">
        <ele>662.00512695312</ele>
        <time>2012-05-13T12:10:09Z</time>
      </trkpt>
      <trkpt lat="43.85351" lon="6.98615">
        <ele>658.15991210938</ele>
        <time>2012-05-13T12:10:27Z</time>
      </trkpt>
      <trkpt lat="43.85351" lon="6.9861">
        <ele>657.67919921875</ele>
        <time>2012-05-13T12:10:30Z</time>
      </trkpt>
      <trkpt lat="43.8535" lon="6.98578">
        <ele>658.64038085938</ele>
        <time>2012-05-13T12:10:53Z</time>
      </trkpt>
      <trkpt lat="43.85349" lon="6.98556">
        <ele>661.5244140625</ele>
        <time>2012-05-13T12:11:06Z</time>
      </trkpt>
      <trkpt lat="43.85359" lon="6.9856">
        <ele>658.64038085938</ele>
        <time>2012-05-13T12:11:20Z</time>
      </trkpt>
      <trkpt lat="43.8536" lon="6.98563">
        <ele>657.67919921875</ele>
        <time>2012-05-13T12:11:22Z</time>
      </trkpt>
      <trkpt lat="43.8536" lon="6.98568">
        <ele>657.19848632812</ele>
        <time>2012-05-13T12:11:24Z</time>
      </trkpt>
      <trkpt lat="43.85359" lon="6.98584">
        <ele>656.7177734375</ele>
        <time>2012-05-13T12:11:34Z</time>
      </trkpt>
      <trkpt lat="43.85359" lon="6.98591">
        <ele>657.67919921875</ele>
        <time>2012-05-13T12:11:38Z</time>
      </trkpt>
      <trkpt lat="43.8536" lon="6.98618">
        <ele>661.04370117188</ele>
        <time>2012-05-13T12:11:57Z</time>
      </trkpt>
      <trkpt lat="43.85355" lon="6.98635">
        <ele>663.44702148438</ele>
        <time>2012-05-13T12:12:15Z</time>
      </trkpt>
      <trkpt lat="43.85354" lon="6.98652">
        <ele>665.85034179688</ele>
        <time>2012-05-13T12:12:31Z</time>
      </trkpt>
      <trkpt lat="43.85353" lon="6.98673">
        <ele>668.25366210938</ele>
        <time>2012-05-13T12:12:47Z</time>
      </trkpt>
      <trkpt lat="43.85353" lon="6.98679">
        <ele>669.69580078125</ele>
        <time>2012-05-13T12:13:00Z</time>
      </trkpt>
      <trkpt lat="43.85354" lon="6.98686">
        <ele>670.17626953125</ele>
        <time>2012-05-13T12:13:10Z</time>
      </trkpt>
      <trkpt lat="43.85349" lon="6.98706">
        <ele>673.06030273438</ele>
        <time>2012-05-13T12:13:28Z</time>
      </trkpt>
      <trkpt lat="43.85346" lon="6.98716">
        <ele>674.98291015625</ele>
        <time>2012-05-13T12:13:45Z</time>
      </trkpt>
      <trkpt lat="43.85342" lon="6.98729">
        <ele>676.4248046875</ele>
        <time>2012-05-13T12:13:58Z</time>
      </trkpt>
      <trkpt lat="43.85342" lon="6.98749">
        <ele>677.38623046875</ele>
        <time>2012-05-13T12:14:14Z</time>
      </trkpt>
      <trkpt lat="43.85342" lon="6.98754">
        <ele>677.38623046875</ele>
        <time>2012-05-13T12:14:33Z</time>
      </trkpt>
      <trkpt lat="43.8534" lon="6.98765">
        <ele>679.30859375</ele>
        <time>2012-05-13T12:15:00Z</time>
      </trkpt>
      <trkpt lat="43.85337" lon="6.98781">
        <ele>680.75073242188</ele>
        <time>2012-05-13T12:15:14Z</time>
      </trkpt>
      <trkpt lat="43.85343" lon="6.98802">
        <ele>682.67333984375</ele>
        <time>2012-05-13T12:15:33Z</time>
      </trkpt>
      <trkpt lat="43.85344" lon="6.98809">
        <ele>684.11547851562</ele>
        <time>2012-05-13T12:15:41Z</time>
      </trkpt>
      <trkpt lat="43.85343" lon="6.98834">
        <ele>686.99926757812</ele>
        <time>2012-05-13T12:15:57Z</time>
      </trkpt>
      <trkpt lat="43.85337" lon="6.98855">
        <ele>689.88330078125</ele>
        <time>2012-05-13T12:16:18Z</time>
      </trkpt>
      <trkpt lat="43.85341" lon="6.98867">
        <ele>693.24780273438</ele>
        <time>2012-05-13T12:16:35Z</time>
      </trkpt>
      <trkpt lat="43.85343" lon="6.98876">
        <ele>695.65112304688</ele>
        <time>2012-05-13T12:16:46Z</time>
      </trkpt>
      <trkpt lat="43.85346" lon="6.98882">
        <ele>696.1318359375</ele>
        <time>2012-05-13T12:16:52Z</time>
      </trkpt>
      <trkpt lat="43.85349" lon="6.98904">
        <ele>699.97705078125</ele>
        <time>2012-05-13T12:17:10Z</time>
      </trkpt>
      <trkpt lat="43.85352" lon="6.98922">
        <ele>701.41918945312</ele>
        <time>2012-05-13T12:17:24Z</time>
      </trkpt>
      <trkpt lat="43.85355" lon="6.98924">
        <ele>702.38037109375</ele>
        <time>2012-05-13T12:17:28Z</time>
      </trkpt>
      <trkpt lat="43.85367" lon="6.98931">
        <ele>704.30322265625</ele>
        <time>2012-05-13T12:17:44Z</time>
      </trkpt>
      <trkpt lat="43.85365" lon="6.98937">
        <ele>705.26440429688</ele>
        <time>2012-05-13T12:17:51Z</time>
      </trkpt>
      <trkpt lat="43.85354" lon="6.98945">
        <ele>708.1484375</ele>
        <time>2012-05-13T12:18:11Z</time>
      </trkpt>
      <trkpt lat="43.85341" lon="6.98947">
        <ele>710.55151367188</ele>
        <time>2012-05-13T12:18:26Z</time>
      </trkpt>
      <trkpt lat="43.85334" lon="6.98951">
        <ele>713.435546875</ele>
        <time>2012-05-13T12:18:43Z</time>
      </trkpt>
      <trkpt lat="43.85324" lon="6.98967">
        <ele>715.35815429688</ele>
        <time>2012-05-13T12:19:04Z</time>
      </trkpt>
      <trkpt lat="43.85321" lon="6.98971">
        <ele>715.8388671875</ele>
        <time>2012-05-13T12:19:28Z</time>
      </trkpt>
      <trkpt lat="43.8532" lon="6.98973">
        <ele>716.31958007812</ele>
        <time>2012-05-13T12:19:45Z</time>
      </trkpt>
      <trkpt lat="43.85312" lon="6.98985">
        <ele>716.31958007812</ele>
        <time>2012-05-13T12:19:57Z</time>
      </trkpt>
      <trkpt lat="43.8531" lon="6.98992">
        <ele>714.87744140625</ele>
        <time>2012-05-13T12:20:08Z</time>
      </trkpt>
      <trkpt lat="43.85299" lon="6.99009">
        <ele>714.39672851562</ele>
        <time>2012-05-13T12:20:19Z</time>
      </trkpt>
      <trkpt lat="43.85293" lon="6.9902">
        <ele>714.39672851562</ele>
        <time>2012-05-13T12:20:23Z</time>
      </trkpt>
      <trkpt lat="43.85285" lon="6.99034">
        <ele>713.916015625</ele>
        <time>2012-05-13T12:20:28Z</time>
      </trkpt>
      <trkpt lat="43.8528" lon="6.99036">
        <ele>713.435546875</ele>
        <time>2012-05-13T12:20:30Z</time>
      </trkpt>
      <trkpt lat="43.85274" lon="6.99048">
        <ele>710.07080078125</ele>
        <time>2012-05-13T12:20:35Z</time>
      </trkpt>
      <trkpt lat="43.85268" lon="6.9907">
        <ele>707.18701171875</ele>
        <time>2012-05-13T12:20:40Z</time>
      </trkpt>
      <trkpt lat="43.85256" lon="6.99085">
        <ele>704.78369140625</ele>
        <time>2012-05-13T12:20:46Z</time>
      </trkpt>
      <trkpt lat="43.85253" lon="6.9909">
        <ele>703.82250976562</ele>
        <time>2012-05-13T12:20:51Z</time>
      </trkpt>
      <trkpt lat="43.85257" lon="6.99115">
        <ele>704.30322265625</ele>
        <time>2012-05-13T12:21:03Z</time>
      </trkpt>
      <trkpt lat="43.85265" lon="6.99135">
        <ele>703.82250976562</ele>
        <time>2012-05-13T12:21:12Z</time>
      </trkpt>
      <trkpt lat="43.85265" lon="6.99135">
        <ele>703.82250976562</ele>
        <time>2012-05-13T12:21:15Z</time>
      </trkpt>
      <trkpt lat="43.8528" lon="6.99155">
        <ele>701.41918945312</ele>
        <time>2012-05-13T12:21:27Z</time>
      </trkpt>
      <trkpt lat="43.85288" lon="6.99163">
        <ele>699.49633789062</ele>
        <time>2012-05-13T12:21:30Z</time>
      </trkpt>
      <trkpt lat="43.85295" lon="6.99175">
        <ele>697.57373046875</ele>
        <time>2012-05-13T12:21:33Z</time>
      </trkpt>
      <trkpt lat="43.85299" lon="6.99212">
        <ele>694.20922851562</ele>
        <time>2012-05-13T12:21:38Z</time>
      </trkpt>
      <trkpt lat="43.85312" lon="6.99227">
        <ele>692.76733398438</ele>
        <time>2012-05-13T12:21:42Z</time>
      </trkpt>
      <trkpt lat="43.85325" lon="6.99239">
        <ele>688.92211914062</ele>
        <time>2012-05-13T12:21:46Z</time>
      </trkpt>
      <trkpt lat="43.85327" lon="6.9924">
        <ele>688.92211914062</ele>
        <time>2012-05-13T12:21:47Z</time>
      </trkpt>
      <trkpt lat="43.85328" lon="6.99242">
        <ele>687.47998046875</ele>
        <time>2012-05-13T12:21:49Z</time>
      </trkpt>
      <trkpt lat="43.8533" lon="6.99248">
        <ele>686.0380859375</ele>
        <time>2012-05-13T12:21:53Z</time>
      </trkpt>
      <trkpt lat="43.85319" lon="6.99257">
        <ele>685.07690429688</ele>
        <time>2012-05-13T12:21:57Z</time>
      </trkpt>
      <trkpt lat="43.853" lon="6.99266">
        <ele>683.63452148438</ele>
        <time>2012-05-13T12:22:03Z</time>
      </trkpt>
      <trkpt lat="43.85294" lon="6.99278">
        <ele>684.11547851562</ele>
        <time>2012-05-13T12:22:08Z</time>
      </trkpt>
      <trkpt lat="43.8527" lon="6.99314">
        <ele>685.55737304688</ele>
        <time>2012-05-13T12:22:25Z</time>
      </trkpt>
      <trkpt lat="43.85268" lon="6.99318">
        <ele>686.0380859375</ele>
        <time>2012-05-13T12:22:27Z</time>
      </trkpt>
      <trkpt lat="43.85272" lon="6.99347">
        <ele>686.51879882812</ele>
        <time>2012-05-13T12:22:40Z</time>
      </trkpt>
      <trkpt lat="43.85273" lon="6.99354">
        <ele>686.51879882812</ele>
        <time>2012-05-13T12:22:48Z</time>
      </trkpt>
      <trkpt lat="43.85269" lon="6.99379">
        <ele>685.55737304688</ele>
        <time>2012-05-13T12:22:54Z</time>
      </trkpt>
      <trkpt lat="43.85267" lon="6.99384">
        <ele>684.11547851562</ele>
        <time>2012-05-13T12:22:55Z</time>
      </trkpt>
      <trkpt lat="43.85268" lon="6.99408">
        <ele>682.67333984375</ele>
        <time>2012-05-13T12:23:01Z</time>
      </trkpt>
      <trkpt lat="43.85274" lon="6.99425">
        <ele>682.67333984375</ele>
        <time>2012-05-13T12:23:05Z</time>
      </trkpt>
      <trkpt lat="43.85282" lon="6.99443">
        <ele>684.11547851562</ele>
        <time>2012-05-13T12:23:16Z</time>
      </trkpt>
      <trkpt lat="43.85289" lon="6.99448">
        <ele>684.59619140625</ele>
        <time>2012-05-13T12:23:19Z</time>
      </trkpt>
      <trkpt lat="43.85322" lon="6.99469">
        <ele>686.0380859375</ele>
        <time>2012-05-13T12:23:34Z</time>
      </trkpt>
      <trkpt lat="43.85326" lon="6.99474">
        <ele>686.99926757812</ele>
        <time>2012-05-13T12:23:38Z</time>
      </trkpt>
      <trkpt lat="43.85351" lon="6.99471">
        <ele>688.92211914062</ele>
        <time>2012-05-13T12:23:47Z</time>
      </trkpt>
      <trkpt lat="43.85352" lon="6.99479">
        <ele>687.96069335938</ele>
        <time>2012-05-13T12:23:51Z</time>
      </trkpt>
      <trkpt lat="43.85346" lon="6.9952">
        <ele>686.51879882812</ele>
        <time>2012-05-13T12:24:03Z</time>
      </trkpt>
      <trkpt lat="43.85342" lon="6.99559">
        <ele>686.99926757812</ele>
        <time>2012-05-13T12:24:14Z</time>
      </trkpt>
      <trkpt lat="43.85337" lon="6.99574">
        <ele>686.99926757812</ele>
        <time>2012-05-13T12:24:19Z</time>
      </trkpt>
      <trkpt lat="43.85333" lon="6.99605">
        <ele>687.47998046875</ele>
        <time>2012-05-13T12:24:28Z</time>
      </trkpt>
      <trkpt lat="43.85333" lon="6.99605">
        <ele>687.47998046875</ele>
        <time>2012-05-13T12:24:29Z</time>
      </trkpt>
      <trkpt lat="43.8533" lon="6.99625">
        <ele>685.07690429688</ele>
        <time>2012-05-13T12:24:36Z</time>
      </trkpt>
      <trkpt lat="43.8533" lon="6.99625">
        <ele>685.55737304688</ele>
        <time>2012-05-13T12:24:37Z</time>
      </trkpt>
      <trkpt lat="43.85316" lon="6.9964">
        <ele>686.0380859375</ele>
        <time>2012-05-13T12:24:50Z</time>
      </trkpt>
      <trkpt lat="43.85313" lon="6.9964">
        <ele>686.0380859375</ele>
        <time>2012-05-13T12:24:52Z</time>
      </trkpt>
      <trkpt lat="43.85301" lon="6.99644">
        <ele>686.99926757812</ele>
        <time>2012-05-13T12:24:58Z</time>
      </trkpt>
      <trkpt lat="43.85299" lon="6.99645">
        <ele>686.51879882812</ele>
        <time>2012-05-13T12:25:03Z</time>
      </trkpt>
      <trkpt lat="43.85299" lon="6.99645">
        <ele>687.47998046875</ele>
        <time>2012-05-13T12:25:09Z</time>
      </trkpt>
      <trkpt lat="43.85299" lon="6.99645">
        <ele>687.96069335938</ele>
        <time>2012-05-13T12:25:15Z</time>
      </trkpt>
      <trkpt lat="43.85299" lon="6.99645">
        <ele>690.84448242188</ele>
        <time>2012-05-13T12:25:31Z</time>
      </trkpt>
      <trkpt lat="43.85299" lon="6.99645">
        <ele>692.76733398438</ele>
        <time>2012-05-13T12:25:50Z</time>
      </trkpt>
      <trkpt lat="43.85299" lon="6.99645">
        <ele>694.20922851562</ele>
        <time>2012-05-13T12:25:58Z</time>
      </trkpt>
      <trkpt lat="43.85299" lon="6.99645">
        <ele>694.68969726562</ele>
        <time>2012-05-13T12:26:05Z</time>
      </trkpt>
      <trkpt lat="43.85299" lon="6.99645">
        <ele>697.57373046875</ele>
        <time>2012-05-13T12:26:23Z</time>
      </trkpt>
      <trkpt lat="43.85299" lon="6.99645">
        <ele>701.41918945312</ele>
        <time>2012-05-13T12:26:39Z</time>
      </trkpt>
      <trkpt lat="43.85299" lon="6.99645">
        <ele>704.78369140625</ele>
        <time>2012-05-13T12:27:02Z</time>
      </trkpt>
      <trkpt lat="43.85339" lon="6.99786">
        <ele>708.1484375</ele>
        <time>2012-05-13T12:27:21Z</time>
      </trkpt>
      <trkpt lat="43.85339" lon="6.99786">
        <ele>711.0322265625</ele>
        <time>2012-05-13T12:27:35Z</time>
      </trkpt>
      <trkpt lat="43.85339" lon="6.99786">
        <ele>712.47412109375</ele>
        <time>2012-05-13T12:27:50Z</time>
      </trkpt>
      <trkpt lat="43.85339" lon="6.99786">
        <ele>713.435546875</ele>
        <time>2012-05-13T12:28:04Z</time>
      </trkpt>
      <trkpt lat="43.85339" lon="6.99786">
        <ele>712.95483398438</ele>
        <time>2012-05-13T12:28:42Z</time>
      </trkpt>
      <trkpt lat="43.85339" lon="6.99786">
        <ele>713.435546875</ele>
        <time>2012-05-13T12:28:45Z</time>
      </trkpt>
      <trkpt lat="43.8538" lon="6.99778">
        <ele>710.07080078125</ele>
        <time>2012-05-13T12:28:51Z</time>
      </trkpt>
      <trkpt lat="43.85381" lon="6.99792">
        <ele>708.62890625</ele>
        <time>2012-05-13T12:28:53Z</time>
      </trkpt>
      <trkpt lat="43.85388" lon="6.99801">
        <ele>706.2255859375</ele>
        <time>2012-05-13T12:28:57Z</time>
      </trkpt>
      <trkpt lat="43.854" lon="6.99812">
        <ele>703.82250976562</ele>
        <time>2012-05-13T12:29:02Z</time>
      </trkpt>
      <trkpt lat="43.85407" lon="6.99822">
        <ele>700.9384765625</ele>
        <time>2012-05-13T12:29:06Z</time>
      </trkpt>
      <trkpt lat="43.85414" lon="6.99829">
        <ele>699.49633789062</ele>
        <time>2012-05-13T12:29:09Z</time>
      </trkpt>
      <trkpt lat="43.85435" lon="6.99839">
        <ele>697.09301757812</ele>
        <time>2012-05-13T12:29:19Z</time>
      </trkpt>
      <trkpt lat="43.85435" lon="6.99839">
        <ele>695.17041015625</ele>
        <time>2012-05-13T12:29:40Z</time>
      </trkpt>
      <trkpt lat="43.85449" lon="6.99852">
        <ele>693.728515625</ele>
        <time>2012-05-13T12:29:45Z</time>
      </trkpt>
      <trkpt lat="43.85455" lon="6.9986">
        <ele>691.3251953125</ele>
        <time>2012-05-13T12:29:59Z</time>
      </trkpt>
      <trkpt lat="43.85455" lon="6.9986">
        <ele>691.80590820312</ele>
        <time>2012-05-13T12:30:02Z</time>
      </trkpt>
      <trkpt lat="43.8547" lon="6.99866">
        <ele>690.84448242188</ele>
        <time>2012-05-13T12:30:07Z</time>
      </trkpt>
      <trkpt lat="43.85498" lon="6.99883">
        <ele>689.40258789062</ele>
        <time>2012-05-13T12:30:20Z</time>
      </trkpt>
      <trkpt lat="43.85519" lon="6.99894">
        <ele>689.40258789062</ele>
        <time>2012-05-13T12:30:28Z</time>
      </trkpt>
      <trkpt lat="43.8553" lon="6.99913">
        <ele>688.92211914062</ele>
        <time>2012-05-13T12:30:35Z</time>
      </trkpt>
      <trkpt lat="43.85534" lon="6.99962">
        <ele>688.92211914062</ele>
        <time>2012-05-13T12:30:49Z</time>
      </trkpt>
      <trkpt lat="43.85533" lon="6.99968">
        <ele>688.92211914062</ele>
        <time>2012-05-13T12:30:51Z</time>
      </trkpt>
      <trkpt lat="43.85529" lon="6.99986">
        <ele>687.47998046875</ele>
        <time>2012-05-13T12:31:00Z</time>
      </trkpt>
      <trkpt lat="43.85531" lon="7.00039">
        <ele>685.07690429688</ele>
        <time>2012-05-13T12:31:13Z</time>
      </trkpt>
      <trkpt lat="43.8553" lon="7.00059">
        <ele>684.11547851562</ele>
        <time>2012-05-13T12:31:17Z</time>
      </trkpt>
      <trkpt lat="43.85544" lon="7.00071">
        <ele>681.7119140625</ele>
        <time>2012-05-13T12:31:21Z</time>
      </trkpt>
      <trkpt lat="43.85566" lon="7.00085">
        <ele>678.828125</ele>
        <time>2012-05-13T12:31:27Z</time>
      </trkpt>
      <trkpt lat="43.85577" lon="7.00103">
        <ele>676.90551757812</ele>
        <time>2012-05-13T12:31:34Z</time>
      </trkpt>
      <trkpt lat="43.85578" lon="7.00135">
        <ele>673.541015625</ele>
        <time>2012-05-13T12:31:41Z</time>
      </trkpt>
      <trkpt lat="43.8558" lon="7.00139">
        <ele>673.541015625</ele>
        <time>2012-05-13T12:31:42Z</time>
      </trkpt>
      <trkpt lat="43.85589" lon="7.00154">
        <ele>673.06030273438</ele>
        <time>2012-05-13T12:31:46Z</time>
      </trkpt>
      <trkpt lat="43.85598" lon="7.00159">
        <ele>671.1376953125</ele>
        <time>2012-05-13T12:31:49Z</time>
      </trkpt>
      <trkpt lat="43.85602" lon="7.00159">
        <ele>670.17626953125</ele>
        <time>2012-05-13T12:31:51Z</time>
      </trkpt>
      <trkpt lat="43.85618" lon="7.00164">
        <ele>668.25366210938</ele>
        <time>2012-05-13T12:31:56Z</time>
      </trkpt>
      <trkpt lat="43.85633" lon="7.00163">
        <ele>666.33081054688</ele>
        <time>2012-05-13T12:32:00Z</time>
      </trkpt>
      <trkpt lat="43.85654" lon="7.00157">
        <ele>663.44702148438</ele>
        <time>2012-05-13T12:32:05Z</time>
      </trkpt>
      <trkpt lat="43.85658" lon="7.00156">
        <ele>662.48559570312</ele>
        <time>2012-05-13T12:32:06Z</time>
      </trkpt>
      <trkpt lat="43.85679" lon="7.00147">
        <ele>658.64038085938</ele>
        <time>2012-05-13T12:32:11Z</time>
      </trkpt>
      <trkpt lat="43.85683" lon="7.00145">
        <ele>658.64038085938</ele>
        <time>2012-05-13T12:32:12Z</time>
      </trkpt>
      <trkpt lat="43.85693" lon="7.0014">
        <ele>657.67919921875</ele>
        <time>2012-05-13T12:32:15Z</time>
      </trkpt>
      <trkpt lat="43.85695" lon="7.00138">
        <ele>655.27587890625</ele>
        <time>2012-05-13T12:32:18Z</time>
      </trkpt>
      <trkpt lat="43.85694" lon="7.00139">
        <ele>653.833984375</ele>
        <time>2012-05-13T12:32:22Z</time>
      </trkpt>
      <trkpt lat="43.85682" lon="7.00155">
        <ele>652.39184570312</ele>
        <time>2012-05-13T12:32:26Z</time>
      </trkpt>
      <trkpt lat="43.8568" lon="7.00184">
        <ele>649.5078125</ele>
        <time>2012-05-13T12:32:31Z</time>
      </trkpt>
      <trkpt lat="43.85676" lon="7.00188">
        <ele>648.54638671875</ele>
        <time>2012-05-13T12:32:33Z</time>
      </trkpt>
      <trkpt lat="43.85676" lon="7.00188">
        <ele>647.58520507812</ele>
        <time>2012-05-13T12:32:38Z</time>
      </trkpt>
      <trkpt lat="43.85669" lon="7.00195">
        <ele>647.1044921875</ele>
        <time>2012-05-13T12:32:40Z</time>
      </trkpt>
      <trkpt lat="43.85671" lon="7.00192">
        <ele>645.66259765625</ele>
        <time>2012-05-13T12:32:43Z</time>
      </trkpt>
      <trkpt lat="43.85685" lon="7.0018">
        <ele>643.25927734375</ele>
        <time>2012-05-13T12:32:51Z</time>
      </trkpt>
      <trkpt lat="43.85672" lon="7.00192">
        <ele>638.93359375</ele>
        <time>2012-05-13T12:33:02Z</time>
      </trkpt>
      <trkpt lat="43.8567" lon="7.00194">
        <ele>638.93359375</ele>
        <time>2012-05-13T12:33:03Z</time>
      </trkpt>
      <trkpt lat="43.85653" lon="7.00207">
        <ele>637.49145507812</ele>
        <time>2012-05-13T12:33:11Z</time>
      </trkpt>
      <trkpt lat="43.85678" lon="7.00228">
        <ele>635.08813476562</ele>
        <time>2012-05-13T12:33:18Z</time>
      </trkpt>
      <trkpt lat="43.85662" lon="7.00219">
        <ele>631.72338867188</ele>
        <time>2012-05-13T12:33:23Z</time>
      </trkpt>
      <trkpt lat="43.85663" lon="7.00219">
        <ele>631.72338867188</ele>
        <time>2012-05-13T12:33:24Z</time>
      </trkpt>
      <trkpt lat="43.85678" lon="7.00228">
        <ele>630.28149414062</ele>
        <time>2012-05-13T12:33:26Z</time>
      </trkpt>
      <trkpt lat="43.85678" lon="7.00228">
        <ele>629.32006835938</ele>
        <time>2012-05-13T12:33:31Z</time>
      </trkpt>
      <trkpt lat="43.85665" lon="7.00223">
        <ele>627.87817382812</ele>
        <time>2012-05-13T12:33:36Z</time>
      </trkpt>
      <trkpt lat="43.85672" lon="7.00229">
        <ele>626.43627929688</ele>
        <time>2012-05-13T12:33:40Z</time>
      </trkpt>
      <trkpt lat="43.85688" lon="7.00235">
        <ele>624.03295898438</ele>
        <time>2012-05-13T12:33:51Z</time>
      </trkpt>
      <trkpt lat="43.85694" lon="7.00234">
        <ele>623.55249023438</ele>
        <time>2012-05-13T12:33:53Z</time>
      </trkpt>
      <trkpt lat="43.85714" lon="7.0022">
        <ele>621.14916992188</ele>
        <time>2012-05-13T12:33:58Z</time>
      </trkpt>
      <trkpt lat="43.85721" lon="7.00203">
        <ele>618.74560546875</ele>
        <time>2012-05-13T12:34:01Z</time>
      </trkpt>
      <trkpt lat="43.85727" lon="7.00194">
        <ele>617.3037109375</ele>
        <time>2012-05-13T12:34:03Z</time>
      </trkpt>
      <trkpt lat="43.85735" lon="7.0019">
        <ele>615.86181640625</ele>
        <time>2012-05-13T12:34:05Z</time>
      </trkpt>
      <trkpt lat="43.85751" lon="7.0021">
        <ele>613.45849609375</ele>
        <time>2012-05-13T12:34:08Z</time>
      </trkpt>
      <trkpt lat="43.85758" lon="7.00236">
        <ele>611.05517578125</ele>
        <time>2012-05-13T12:34:11Z</time>
      </trkpt>
      <trkpt lat="43.85764" lon="7.00265">
        <ele>609.13256835938</ele>
        <time>2012-05-13T12:34:14Z</time>
      </trkpt>
      <trkpt lat="43.85769" lon="7.00282">
        <ele>606.24853515625</ele>
        <time>2012-05-13T12:34:16Z</time>
      </trkpt>
      <trkpt lat="43.85782" lon="7.00304">
        <ele>604.806640625</ele>
        <time>2012-05-13T12:34:19Z</time>
      </trkpt>
      <trkpt lat="43.85806" lon="7.00323">
        <ele>601.44189453125</ele>
        <time>2012-05-13T12:34:23Z</time>
      </trkpt>
      <trkpt lat="43.85813" lon="7.00325">
        <ele>601.44189453125</ele>
        <time>2012-05-13T12:34:24Z</time>
      </trkpt>
      <trkpt lat="43.8585" lon="7.00331">
        <ele>597.5966796875</ele>
        <time>2012-05-13T12:34:29Z</time>
      </trkpt>
      <trkpt lat="43.85861" lon="7.00333">
        <ele>596.63549804688</ele>
        <time>2012-05-13T12:34:31Z</time>
      </trkpt>
      <trkpt lat="43.8587" lon="7.00372">
        <ele>594.23217773438</ele>
        <time>2012-05-13T12:34:36Z</time>
      </trkpt>
      <trkpt lat="43.85872" lon="7.00391">
        <ele>593.27075195312</ele>
        <time>2012-05-13T12:34:38Z</time>
      </trkpt>
      <trkpt lat="43.85875" lon="7.00415">
        <ele>592.3095703125</ele>
        <time>2012-05-13T12:34:41Z</time>
      </trkpt>
      <trkpt lat="43.85888" lon="7.00446">
        <ele>590.86743164062</ele>
        <time>2012-05-13T12:34:45Z</time>
      </trkpt>
      <trkpt lat="43.85892" lon="7.00451">
        <ele>590.38696289062</ele>
        <time>2012-05-13T12:34:46Z</time>
      </trkpt>
      <trkpt lat="43.85904" lon="7.00472">
        <ele>589.90625</ele>
        <time>2012-05-13T12:34:50Z</time>
      </trkpt>
      <trkpt lat="43.85919" lon="7.00501">
        <ele>589.42553710938</ele>
        <time>2012-05-13T12:34:56Z</time>
      </trkpt>
      <trkpt lat="43.85919" lon="7.00501">
        <ele>590.86743164062</ele>
        <time>2012-05-13T12:35:01Z</time>
      </trkpt>
      <trkpt lat="43.85919" lon="7.00501">
        <ele>592.79028320312</ele>
        <time>2012-05-13T12:35:17Z</time>
      </trkpt>
      <trkpt lat="43.85919" lon="7.00501">
        <ele>595.67407226562</ele>
        <time>2012-05-13T12:35:34Z</time>
      </trkpt>
      <trkpt lat="43.85919" lon="7.00501">
        <ele>596.63549804688</ele>
        <time>2012-05-13T12:35:39Z</time>
      </trkpt>
      <trkpt lat="43.85961" lon="7.00499">
        <ele>599.51928710938</ele>
        <time>2012-05-13T12:35:55Z</time>
      </trkpt>
      <trkpt lat="43.85961" lon="7.00499">
        <ele>600.48071289062</ele>
        <time>2012-05-13T12:36:12Z</time>
      </trkpt>
      <trkpt lat="43.85961" lon="7.00499">
        <ele>603.36450195312</ele>
        <time>2012-05-13T12:36:27Z</time>
      </trkpt>
      <trkpt lat="43.85961" lon="7.00499">
        <ele>604.326171875</ele>
        <time>2012-05-13T12:36:33Z</time>
      </trkpt>
      <trkpt lat="43.85961" lon="7.00499">
        <ele>606.24853515625</ele>
        <time>2012-05-13T12:36:42Z</time>
      </trkpt>
      <trkpt lat="43.86006" lon="7.00558">
        <ele>606.72924804688</ele>
        <time>2012-05-13T12:36:46Z</time>
      </trkpt>
      <trkpt lat="43.86006" lon="7.00612">
        <ele>607.2099609375</ele>
        <time>2012-05-13T12:37:01Z</time>
      </trkpt>
      <trkpt lat="43.86014" lon="7.00668">
        <ele>606.72924804688</ele>
        <time>2012-05-13T12:37:12Z</time>
      </trkpt>
      <trkpt lat="43.86029" lon="7.00694">
        <ele>608.65185546875</ele>
        <time>2012-05-13T12:37:23Z</time>
      </trkpt>
      <trkpt lat="43.8606" lon="7.00723">
        <ele>609.13256835938</ele>
        <time>2012-05-13T12:37:33Z</time>
      </trkpt>
      <trkpt lat="43.861" lon="7.00713">
        <ele>608.17138671875</ele>
        <time>2012-05-13T12:37:44Z</time>
      </trkpt>
      <trkpt lat="43.86128" lon="7.00684">
        <ele>608.65185546875</ele>
        <time>2012-05-13T12:37:52Z</time>
      </trkpt>
      <trkpt lat="43.86139" lon="7.00681">
        <ele>608.17138671875</ele>
        <time>2012-05-13T12:37:54Z</time>
      </trkpt>
      <trkpt lat="43.86168" lon="7.00658">
        <ele>607.2099609375</ele>
        <time>2012-05-13T12:38:01Z</time>
      </trkpt>
      <trkpt lat="43.86182" lon="7.00632">
        <ele>606.24853515625</ele>
        <time>2012-05-13T12:38:07Z</time>
      </trkpt>
      <trkpt lat="43.86178" lon="7.00602">
        <ele>604.326171875</ele>
        <time>2012-05-13T12:38:11Z</time>
      </trkpt>
      <trkpt lat="43.86176" lon="7.00587">
        <ele>602.8837890625</ele>
        <time>2012-05-13T12:38:14Z</time>
      </trkpt>
      <trkpt lat="43.86173" lon="7.00567">
        <ele>601.44189453125</ele>
        <time>2012-05-13T12:38:17Z</time>
      </trkpt>
      <trkpt lat="43.86176" lon="7.00532">
        <ele>600.96118164062</ele>
        <time>2012-05-13T12:38:26Z</time>
      </trkpt>
      <trkpt lat="43.86208" lon="7.00497">
        <ele>601.44189453125</ele>
        <time>2012-05-13T12:38:32Z</time>
      </trkpt>
      <trkpt lat="43.86213" lon="7.00486">
        <ele>602.40307617188</ele>
        <time>2012-05-13T12:38:37Z</time>
      </trkpt>
      <trkpt lat="43.86213" lon="7.00481">
        <ele>602.8837890625</ele>
        <time>2012-05-13T12:38:39Z</time>
      </trkpt>
      <trkpt lat="43.86206" lon="7.00465">
        <ele>604.326171875</ele>
        <time>2012-05-13T12:38:46Z</time>
      </trkpt>
      <trkpt lat="43.86202" lon="7.00454">
        <ele>605.28735351562</ele>
        <time>2012-05-13T12:38:52Z</time>
      </trkpt>
      <trkpt lat="43.86192" lon="7.00429">
        <ele>607.69067382812</ele>
        <time>2012-05-13T12:39:04Z</time>
      </trkpt>
      <trkpt lat="43.86184" lon="7.00407">
        <ele>610.57446289062</ele>
        <time>2012-05-13T12:39:16Z</time>
      </trkpt>
      <trkpt lat="43.86182" lon="7.0039">
        <ele>612.4970703125</ele>
        <time>2012-05-13T12:39:24Z</time>
      </trkpt>
      <trkpt lat="43.86176" lon="7.00375">
        <ele>613.45849609375</ele>
        <time>2012-05-13T12:39:30Z</time>
      </trkpt>
      <trkpt lat="43.86155" lon="7.00347">
        <ele>615.86181640625</ele>
        <time>2012-05-13T12:39:46Z</time>
      </trkpt>
      <trkpt lat="43.86139" lon="7.00313">
        <ele>618.74560546875</ele>
        <time>2012-05-13T12:40:02Z</time>
      </trkpt>
      <trkpt lat="43.8614" lon="7.00265">
        <ele>617.7841796875</ele>
        <time>2012-05-13T12:40:12Z</time>
      </trkpt>
      <trkpt lat="43.86132" lon="7.00234">
        <ele>616.82299804688</ele>
        <time>2012-05-13T12:40:19Z</time>
      </trkpt>
      <trkpt lat="43.86129" lon="7.00208">
        <ele>616.34228515625</ele>
        <time>2012-05-13T12:40:23Z</time>
      </trkpt>
      <trkpt lat="43.86126" lon="7.00191">
        <ele>616.34228515625</ele>
        <time>2012-05-13T12:40:26Z</time>
      </trkpt>
      <trkpt lat="43.86123" lon="7.00175">
        <ele>615.86181640625</ele>
        <time>2012-05-13T12:40:29Z</time>
      </trkpt>
      <trkpt lat="43.86116" lon="7.00134">
        <ele>618.26489257812</ele>
        <time>2012-05-13T12:40:40Z</time>
      </trkpt>
      <trkpt lat="43.86115" lon="7.00131">
        <ele>618.26489257812</ele>
        <time>2012-05-13T12:40:41Z</time>
      </trkpt>
      <trkpt lat="43.86114" lon="7.00122">
        <ele>618.26489257812</ele>
        <time>2012-05-13T12:40:44Z</time>
      </trkpt>
      <trkpt lat="43.86043" lon="7.00118">
        <ele>619.22631835938</ele>
        <time>2012-05-13T12:40:51Z</time>
      </trkpt>
      <trkpt lat="43.86059" lon="7.00059">
        <ele>621.62963867188</ele>
        <time>2012-05-13T12:41:05Z</time>
      </trkpt>
      <trkpt lat="43.86081" lon="7.00033">
        <ele>622.59106445312</ele>
        <time>2012-05-13T12:41:12Z</time>
      </trkpt>
      <trkpt lat="43.86097" lon="7.00012">
        <ele>622.59106445312</ele>
        <time>2012-05-13T12:41:21Z</time>
      </trkpt>
      <trkpt lat="43.86154" lon="6.99967">
        <ele>624.99438476562</ele>
        <time>2012-05-13T12:41:33Z</time>
      </trkpt>
      <trkpt lat="43.86161" lon="6.99959">
        <ele>624.99438476562</ele>
        <time>2012-05-13T12:41:35Z</time>
      </trkpt>
      <trkpt lat="43.86178" lon="6.99937">
        <ele>624.99438476562</ele>
        <time>2012-05-13T12:41:42Z</time>
      </trkpt>
      <trkpt lat="43.86183" lon="6.99927">
        <ele>625.47485351562</ele>
        <time>2012-05-13T12:41:45Z</time>
      </trkpt>
      <trkpt lat="43.86189" lon="6.99921">
        <ele>625.95556640625</ele>
        <time>2012-05-13T12:41:48Z</time>
      </trkpt>
      <trkpt lat="43.86192" lon="6.99915">
        <ele>625.95556640625</ele>
        <time>2012-05-13T12:41:50Z</time>
      </trkpt>
      <trkpt lat="43.86197" lon="6.9991">
        <ele>624.99438476562</ele>
        <time>2012-05-13T12:42:00Z</time>
      </trkpt>
      <trkpt lat="43.86202" lon="6.99917">
        <ele>625.47485351562</ele>
        <time>2012-05-13T12:42:11Z</time>
      </trkpt>
      <trkpt lat="43.86207" lon="6.99924">
        <ele>626.43627929688</ele>
        <time>2012-05-13T12:42:25Z</time>
      </trkpt>
      <trkpt lat="43.86208" lon="6.99927">
        <ele>627.39770507812</ele>
        <time>2012-05-13T12:42:32Z</time>
      </trkpt>
      <trkpt lat="43.86209" lon="6.9994">
        <ele>629.32006835938</ele>
        <time>2012-05-13T12:42:47Z</time>
      </trkpt>
      <trkpt lat="43.86212" lon="6.99948">
        <ele>631.24291992188</ele>
        <time>2012-05-13T12:42:56Z</time>
      </trkpt>
      <trkpt lat="43.86226" lon="6.99959">
        <ele>633.16528320312</ele>
        <time>2012-05-13T12:43:12Z</time>
      </trkpt>
      <trkpt lat="43.86239" lon="6.99974">
        <ele>636.04956054688</ele>
        <time>2012-05-13T12:43:30Z</time>
      </trkpt>
      <trkpt lat="43.86242" lon="6.99978">
        <ele>636.04956054688</ele>
        <time>2012-05-13T12:43:51Z</time>
      </trkpt>
      <trkpt lat="43.86245" lon="6.99987">
        <ele>636.5302734375</ele>
        <time>2012-05-13T12:44:04Z</time>
      </trkpt>
      <trkpt lat="43.86254" lon="6.99992">
        <ele>636.5302734375</ele>
        <time>2012-05-13T12:44:23Z</time>
      </trkpt>
      <trkpt lat="43.86273" lon="7.00011">
        <ele>635.56860351562</ele>
        <time>2012-05-13T12:44:45Z</time>
      </trkpt>
      <trkpt lat="43.86311" lon="7.00023">
        <ele>635.08813476562</ele>
        <time>2012-05-13T12:44:59Z</time>
      </trkpt>
      <trkpt lat="43.8633" lon="7.00008">
        <ele>635.56860351562</ele>
        <time>2012-05-13T12:45:09Z</time>
      </trkpt>
      <trkpt lat="43.86346" lon="6.99986">
        <ele>636.5302734375</ele>
        <time>2012-05-13T12:45:20Z</time>
      </trkpt>
      <trkpt lat="43.86351" lon="6.99982">
        <ele>637.0107421875</ele>
        <time>2012-05-13T12:45:23Z</time>
      </trkpt>
      <trkpt lat="43.86376" lon="6.99961">
        <ele>637.0107421875</ele>
        <time>2012-05-13T12:45:35Z</time>
      </trkpt>
      <trkpt lat="43.86384" lon="6.99946">
        <ele>637.49145507812</ele>
        <time>2012-05-13T12:45:49Z</time>
      </trkpt>
      <trkpt lat="43.8639" lon="6.9995">
        <ele>637.49145507812</ele>
        <time>2012-05-13T12:46:03Z</time>
      </trkpt>
      <trkpt lat="43.86401" lon="6.9995">
        <ele>634.607421875</ele>
        <time>2012-05-13T12:46:08Z</time>
      </trkpt>
      <trkpt lat="43.86407" lon="6.99947">
        <ele>634.12670898438</ele>
        <time>2012-05-13T12:46:10Z</time>
      </trkpt>
      <trkpt lat="43.86417" lon="6.99944">
        <ele>632.68481445312</ele>
        <time>2012-05-13T12:46:13Z</time>
      </trkpt>
      <trkpt lat="43.86422" lon="6.99945">
        <ele>631.24291992188</ele>
        <time>2012-05-13T12:46:15Z</time>
      </trkpt>
      <trkpt lat="43.86423" lon="6.9995">
        <ele>630.76220703125</ele>
        <time>2012-05-13T12:46:17Z</time>
      </trkpt>
      <trkpt lat="43.86428" lon="6.99982">
        <ele>628.35888671875</ele>
        <time>2012-05-13T12:46:25Z</time>
      </trkpt>
      <trkpt lat="43.86441" lon="6.99999">
        <ele>630.28149414062</ele>
        <time>2012-05-13T12:46:37Z</time>
      </trkpt>
      <trkpt lat="43.86441" lon="7.00003">
        <ele>630.28149414062</ele>
        <time>2012-05-13T12:46:44Z</time>
      </trkpt>
      <trkpt lat="43.86446" lon="7.00023">
        <ele>632.2041015625</ele>
        <time>2012-05-13T12:46:58Z</time>
      </trkpt>
      <trkpt lat="43.86447" lon="7.00024">
        <ele>632.2041015625</ele>
        <time>2012-05-13T12:46:59Z</time>
      </trkpt>
      <trkpt lat="43.86453" lon="7.00042">
        <ele>632.68481445312</ele>
        <time>2012-05-13T12:47:15Z</time>
      </trkpt>
      <trkpt lat="43.86453" lon="7.00042">
        <ele>632.2041015625</ele>
        <time>2012-05-13T12:47:17Z</time>
      </trkpt>
      <trkpt lat="43.86457" lon="7.00042">
        <ele>632.68481445312</ele>
        <time>2012-05-13T12:47:20Z</time>
      </trkpt>
      <trkpt lat="43.86461" lon="7.0005">
        <ele>631.24291992188</ele>
        <time>2012-05-13T12:47:29Z</time>
      </trkpt>
      <trkpt lat="43.86463" lon="7.00059">
        <ele>632.2041015625</ele>
        <time>2012-05-13T12:47:36Z</time>
      </trkpt>
      <trkpt lat="43.86469" lon="7.00066">
        <ele>631.24291992188</ele>
        <time>2012-05-13T12:47:48Z</time>
      </trkpt>
      <trkpt lat="43.86472" lon="7.00069">
        <ele>631.72338867188</ele>
        <time>2012-05-13T12:47:53Z</time>
      </trkpt>
      <trkpt lat="43.86476" lon="7.00088">
        <ele>629.32006835938</ele>
        <time>2012-05-13T12:47:59Z</time>
      </trkpt>
      <trkpt lat="43.86479" lon="7.00094">
        <ele>628.35888671875</ele>
        <time>2012-05-13T12:48:01Z</time>
      </trkpt>
      <trkpt lat="43.86487" lon="7.00101">
        <ele>626.43627929688</ele>
        <time>2012-05-13T12:48:06Z</time>
      </trkpt>
      <trkpt lat="43.86492" lon="7.00106">
        <ele>623.55249023438</ele>
        <time>2012-05-13T12:48:12Z</time>
      </trkpt>
      <trkpt lat="43.86496" lon="7.00108">
        <ele>623.55249023438</ele>
        <time>2012-05-13T12:48:15Z</time>
      </trkpt>
      <trkpt lat="43.86511" lon="7.00104">
        <ele>620.18774414062</ele>
        <time>2012-05-13T12:48:20Z</time>
      </trkpt>
      <trkpt lat="43.8652" lon="7.00098">
        <ele>618.74560546875</ele>
        <time>2012-05-13T12:48:23Z</time>
      </trkpt>
      <trkpt lat="43.86525" lon="7.001">
        <ele>617.7841796875</ele>
        <time>2012-05-13T12:48:25Z</time>
      </trkpt>
      <trkpt lat="43.86529" lon="7.001">
        <ele>616.82299804688</ele>
        <time>2012-05-13T12:48:27Z</time>
      </trkpt>
      <trkpt lat="43.8656" lon="7.00115">
        <ele>613.93896484375</ele>
        <time>2012-05-13T12:48:38Z</time>
      </trkpt>
      <trkpt lat="43.86578" lon="7.00112">
        <ele>610.57446289062</ele>
        <time>2012-05-13T12:48:46Z</time>
      </trkpt>
      <trkpt lat="43.86587" lon="7.00113">
        <ele>606.72924804688</ele>
        <time>2012-05-13T12:49:02Z</time>
      </trkpt>
      <trkpt lat="43.86594" lon="7.00114">
        <ele>603.36450195312</ele>
        <time>2012-05-13T12:49:10Z</time>
      </trkpt>
      <trkpt lat="43.86596" lon="7.00116">
        <ele>603.36450195312</ele>
        <time>2012-05-13T12:49:25Z</time>
      </trkpt>
      <trkpt lat="43.86591" lon="7.0013">
        <ele>599.51928710938</ele>
        <time>2012-05-13T12:49:32Z</time>
      </trkpt>
      <trkpt lat="43.86589" lon="7.00134">
        <ele>597.5966796875</ele>
        <time>2012-05-13T12:49:34Z</time>
      </trkpt>
      <trkpt lat="43.8659" lon="7.00135">
        <ele>595.193359375</ele>
        <time>2012-05-13T12:49:49Z</time>
      </trkpt>
      <trkpt lat="43.8659" lon="7.00135">
        <ele>595.67407226562</ele>
        <time>2012-05-13T12:49:53Z</time>
      </trkpt>
      <trkpt lat="43.86596" lon="7.00137">
        <ele>594.71264648438</ele>
        <time>2012-05-13T12:49:57Z</time>
      </trkpt>
      <trkpt lat="43.866" lon="7.00137">
        <ele>593.27075195312</ele>
        <time>2012-05-13T12:49:59Z</time>
      </trkpt>
      <trkpt lat="43.86608" lon="7.00138">
        <ele>589.42553710938</ele>
        <time>2012-05-13T12:50:03Z</time>
      </trkpt>
      <trkpt lat="43.8661" lon="7.00137">
        <ele>589.42553710938</ele>
        <time>2012-05-13T12:50:04Z</time>
      </trkpt>
      <trkpt lat="43.86614" lon="7.00136">
        <ele>587.50268554688</ele>
        <time>2012-05-13T12:50:06Z</time>
      </trkpt>
      <trkpt lat="43.86618" lon="7.00134">
        <ele>585.580078125</ele>
        <time>2012-05-13T12:50:08Z</time>
      </trkpt>
      <trkpt lat="43.86622" lon="7.0013">
        <ele>583.1767578125</ele>
        <time>2012-05-13T12:50:11Z</time>
      </trkpt>
      <trkpt lat="43.86628" lon="7.00125">
        <ele>581.25439453125</ele>
        <time>2012-05-13T12:50:15Z</time>
      </trkpt>
      <trkpt lat="43.86632" lon="7.00122">
        <ele>577.8896484375</ele>
        <time>2012-05-13T12:50:17Z</time>
      </trkpt>
      <trkpt lat="43.86634" lon="7.00119">
        <ele>577.8896484375</ele>
        <time>2012-05-13T12:50:18Z</time>
      </trkpt>
      <trkpt lat="43.86639" lon="7.00115">
        <ele>575.96704101562</ele>
        <time>2012-05-13T12:50:20Z</time>
      </trkpt>
      <trkpt lat="43.8664" lon="7.00115">
        <ele>575.005859375</ele>
        <time>2012-05-13T12:50:22Z</time>
      </trkpt>
      <trkpt lat="43.86639" lon="7.00114">
        <ele>572.6025390625</ele>
        <time>2012-05-13T12:50:39Z</time>
      </trkpt>
      <trkpt lat="43.86641" lon="7.00123">
        <ele>570.19897460938</ele>
        <time>2012-05-13T12:50:55Z</time>
      </trkpt>
      <trkpt lat="43.86643" lon="7.00128">
        <ele>568.75708007812</ele>
        <time>2012-05-13T12:50:57Z</time>
      </trkpt>
      <trkpt lat="43.86641" lon="7.00132">
        <ele>565.392578125</ele>
        <time>2012-05-13T12:51:12Z</time>
      </trkpt>
      <trkpt lat="43.86645" lon="7.00126">
        <ele>562.02807617188</ele>
        <time>2012-05-13T12:51:21Z</time>
      </trkpt>
      <trkpt lat="43.86647" lon="7.00127">
        <ele>561.54736328125</ele>
        <time>2012-05-13T12:51:23Z</time>
      </trkpt>
      <trkpt lat="43.86654" lon="7.00138">
        <ele>557.7021484375</ele>
        <time>2012-05-13T12:51:37Z</time>
      </trkpt>
      <trkpt lat="43.86654" lon="7.00141">
        <ele>556.26000976562</ele>
        <time>2012-05-13T12:51:39Z</time>
      </trkpt>
      <trkpt lat="43.86659" lon="7.00141">
        <ele>554.81787109375</ele>
        <time>2012-05-13T12:51:43Z</time>
      </trkpt>
      <trkpt lat="43.86665" lon="7.00135">
        <ele>552.41455078125</ele>
        <time>2012-05-13T12:51:48Z</time>
      </trkpt>
      <trkpt lat="43.86661" lon="7.00135">
        <ele>550.01147460938</ele>
        <time>2012-05-13T12:51:52Z</time>
      </trkpt>
      <trkpt lat="43.86669" lon="7.00132">
        <ele>547.60815429688</ele>
        <time>2012-05-13T12:52:08Z</time>
      </trkpt>
      <trkpt lat="43.86674" lon="7.00135">
        <ele>547.12744140625</ele>
        <time>2012-05-13T12:52:24Z</time>
      </trkpt>
      <trkpt lat="43.86672" lon="7.00146">
        <ele>543.28210449219</ele>
        <time>2012-05-13T12:52:29Z</time>
      </trkpt>
      <trkpt lat="43.86668" lon="7.00151">
        <ele>541.35949707031</ele>
        <time>2012-05-13T12:52:31Z</time>
      </trkpt>
      <trkpt lat="43.86668" lon="7.00156">
        <ele>540.39831542969</ele>
        <time>2012-05-13T12:52:33Z</time>
      </trkpt>
      <trkpt lat="43.86666" lon="7.0017">
        <ele>537.51428222656</ele>
        <time>2012-05-13T12:52:37Z</time>
      </trkpt>
      <trkpt lat="43.86665" lon="7.00177">
        <ele>536.07238769531</ele>
        <time>2012-05-13T12:52:39Z</time>
      </trkpt>
      <trkpt lat="43.86663" lon="7.00182">
        <ele>534.63037109375</ele>
        <time>2012-05-13T12:52:41Z</time>
      </trkpt>
      <trkpt lat="43.86659" lon="7.00188">
        <ele>532.70776367188</ele>
        <time>2012-05-13T12:52:44Z</time>
      </trkpt>
      <trkpt lat="43.86661" lon="7.00187">
        <ele>529.34313964844</ele>
        <time>2012-05-13T12:52:50Z</time>
      </trkpt>
      <trkpt lat="43.8667" lon="7.0018">
        <ele>526.45910644531</ele>
        <time>2012-05-13T12:52:56Z</time>
      </trkpt>
      <trkpt lat="43.86671" lon="7.00178">
        <ele>526.45910644531</ele>
        <time>2012-05-13T12:52:57Z</time>
      </trkpt>
      <trkpt lat="43.86671" lon="7.00175">
        <ele>523.5751953125</ele>
        <time>2012-05-13T12:53:00Z</time>
      </trkpt>
      <trkpt lat="43.8669" lon="7.00155">
        <ele>520.69128417969</ele>
        <time>2012-05-13T12:53:31Z</time>
      </trkpt>
      <trkpt lat="43.86699" lon="7.00144">
        <ele>517.80725097656</ele>
        <time>2012-05-13T12:53:35Z</time>
      </trkpt>
      <trkpt lat="43.86703" lon="7.00131">
        <ele>516.365234375</ele>
        <time>2012-05-13T12:53:38Z</time>
      </trkpt>
      <trkpt lat="43.86701" lon="7.00121">
        <ele>515.88464355469</ele>
        <time>2012-05-13T12:53:42Z</time>
      </trkpt>
      <trkpt lat="43.86701" lon="7.00109">
        <ele>516.84594726562</ele>
        <time>2012-05-13T12:53:47Z</time>
      </trkpt>
      <trkpt lat="43.86731" lon="7.0009">
        <ele>515.88464355469</ele>
        <time>2012-05-13T12:53:59Z</time>
      </trkpt>
      <trkpt lat="43.86739" lon="7.00073">
        <ele>516.365234375</ele>
        <time>2012-05-13T12:54:05Z</time>
      </trkpt>
      <trkpt lat="43.86743" lon="7.00069">
        <ele>515.88464355469</ele>
        <time>2012-05-13T12:54:08Z</time>
      </trkpt>
      <trkpt lat="43.86747" lon="7.0006">
        <ele>514.92333984375</ele>
        <time>2012-05-13T12:54:12Z</time>
      </trkpt>
      <trkpt lat="43.86749" lon="7.00038">
        <ele>513.4814453125</ele>
        <time>2012-05-13T12:54:21Z</time>
      </trkpt>
      <trkpt lat="43.8678" lon="7.00041">
        <ele>510.11669921875</ele>
        <time>2012-05-13T12:54:31Z</time>
      </trkpt>
      <trkpt lat="43.86787" lon="7.00042">
        <ele>508.67468261719</ele>
        <time>2012-05-13T12:54:35Z</time>
      </trkpt>
      <trkpt lat="43.86791" lon="7.00044">
        <ele>507.71350097656</ele>
        <time>2012-05-13T12:54:36Z</time>
      </trkpt>
      <trkpt lat="43.86797" lon="7.00042">
        <ele>506.271484375</ele>
        <time>2012-05-13T12:54:39Z</time>
      </trkpt>
      <trkpt lat="43.86802" lon="7.00035">
        <ele>503.8681640625</ele>
        <time>2012-05-13T12:54:43Z</time>
      </trkpt>
      <trkpt lat="43.86812" lon="7.00035">
        <ele>501.94555664062</ele>
        <time>2012-05-13T12:54:47Z</time>
      </trkpt>
      <trkpt lat="43.8682" lon="7.00018">
        <ele>501.46484375</ele>
        <time>2012-05-13T12:54:55Z</time>
      </trkpt>
      <trkpt lat="43.86829" lon="7.00007">
        <ele>501.94555664062</ele>
        <time>2012-05-13T12:55:01Z</time>
      </trkpt>
      <trkpt lat="43.86855" lon="6.99982">
        <ele>501.94555664062</ele>
        <time>2012-05-13T12:55:10Z</time>
      </trkpt>
      <trkpt lat="43.86882" lon="6.99967">
        <ele>501.94555664062</ele>
        <time>2012-05-13T12:55:18Z</time>
      </trkpt>
      <trkpt lat="43.86908" lon="6.99938">
        <ele>503.38745117188</ele>
        <time>2012-05-13T12:55:32Z</time>
      </trkpt>
      <trkpt lat="43.86911" lon="6.99932">
        <ele>503.38745117188</ele>
        <time>2012-05-13T12:55:34Z</time>
      </trkpt>
      <trkpt lat="43.86924" lon="6.99919">
        <ele>502.90673828125</ele>
        <time>2012-05-13T12:55:40Z</time>
      </trkpt>
      <trkpt lat="43.86955" lon="6.99896">
        <ele>503.8681640625</ele>
        <time>2012-05-13T12:55:49Z</time>
      </trkpt>
      <trkpt lat="43.86962" lon="6.99882">
        <ele>501.94555664062</ele>
        <time>2012-05-13T12:55:54Z</time>
      </trkpt>
      <trkpt lat="43.86966" lon="6.99878">
        <ele>500.98413085938</ele>
        <time>2012-05-13T12:55:56Z</time>
      </trkpt>
      <trkpt lat="43.86976" lon="6.99861">
        <ele>499.54223632812</ele>
        <time>2012-05-13T12:56:09Z</time>
      </trkpt>
      <trkpt lat="43.86972" lon="6.99849">
        <ele>498.58093261719</ele>
        <time>2012-05-13T12:56:31Z</time>
      </trkpt>
      <trkpt lat="43.86976" lon="6.99843">
        <ele>498.10034179688</ele>
        <time>2012-05-13T12:56:45Z</time>
      </trkpt>
      <trkpt lat="43.86984" lon="6.9983">
        <ele>496.177734375</ele>
        <time>2012-05-13T12:56:51Z</time>
      </trkpt>
      <trkpt lat="43.8699" lon="6.99824">
        <ele>493.29357910156</ele>
        <time>2012-05-13T12:56:54Z</time>
      </trkpt>
      <trkpt lat="43.86994" lon="6.99818">
        <ele>492.33239746094</ele>
        <time>2012-05-13T12:56:56Z</time>
      </trkpt>
      <trkpt lat="43.87007" lon="6.99804">
        <ele>489.44836425781</ele>
        <time>2012-05-13T12:57:02Z</time>
      </trkpt>
      <trkpt lat="43.87012" lon="6.99799">
        <ele>487.52563476562</ele>
        <time>2012-05-13T12:57:05Z</time>
      </trkpt>
      <trkpt lat="43.87018" lon="6.9979">
        <ele>486.08374023438</ele>
        <time>2012-05-13T12:57:08Z</time>
      </trkpt>
      <trkpt lat="43.87021" lon="6.99787">
        <ele>484.1611328125</ele>
        <time>2012-05-13T12:57:10Z</time>
      </trkpt>
      <trkpt lat="43.87025" lon="6.99777">
        <ele>480.79663085938</ele>
        <time>2012-05-13T12:57:13Z</time>
      </trkpt>
      <trkpt lat="43.87026" lon="6.99775">
        <ele>480.79663085938</ele>
        <time>2012-05-13T12:57:14Z</time>
      </trkpt>
      <trkpt lat="43.87023" lon="6.9977">
        <ele>478.87390136719</ele>
        <time>2012-05-13T12:57:16Z</time>
      </trkpt>
      <trkpt lat="43.87024" lon="6.99759">
        <ele>477.43188476562</ele>
        <time>2012-05-13T12:57:26Z</time>
      </trkpt>
      <trkpt lat="43.87027" lon="6.99754">
        <ele>476.47058105469</ele>
        <time>2012-05-13T12:57:31Z</time>
      </trkpt>
      <trkpt lat="43.87037" lon="6.99748">
        <ele>476.47058105469</ele>
        <time>2012-05-13T12:57:40Z</time>
      </trkpt>
      <trkpt lat="43.87049" lon="6.99761">
        <ele>473.58666992188</ele>
        <time>2012-05-13T12:57:45Z</time>
      </trkpt>
      <trkpt lat="43.87062" lon="6.99787">
        <ele>471.66394042969</ele>
        <time>2012-05-13T12:57:53Z</time>
      </trkpt>
      <trkpt lat="43.87056" lon="6.998">
        <ele>470.22192382812</ele>
        <time>2012-05-13T12:57:57Z</time>
      </trkpt>
      <trkpt lat="43.87047" lon="6.9981">
        <ele>468.78002929688</ele>
        <time>2012-05-13T12:58:01Z</time>
      </trkpt>
      <trkpt lat="43.87048" lon="6.99816">
        <ele>467.33813476562</ele>
        <time>2012-05-13T12:58:03Z</time>
      </trkpt>
      <trkpt lat="43.87047" lon="6.99828">
        <ele>463.97338867188</ele>
        <time>2012-05-13T12:58:09Z</time>
      </trkpt>
      <trkpt lat="43.87047" lon="6.99837">
        <ele>463.01208496094</ele>
        <time>2012-05-13T12:58:11Z</time>
      </trkpt>
      <trkpt lat="43.87053" lon="6.99844">
        <ele>462.05078125</ele>
        <time>2012-05-13T12:58:14Z</time>
      </trkpt>
      <trkpt lat="43.87053" lon="6.99857">
        <ele>460.60876464844</ele>
        <time>2012-05-13T12:58:17Z</time>
      </trkpt>
      <trkpt lat="43.87052" lon="6.9986">
        <ele>460.60876464844</ele>
        <time>2012-05-13T12:58:18Z</time>
      </trkpt>
      <trkpt lat="43.87055" lon="6.99875">
        <ele>459.64758300781</ele>
        <time>2012-05-13T12:58:23Z</time>
      </trkpt>
      <trkpt lat="43.87059" lon="6.99886">
        <ele>458.20556640625</ele>
        <time>2012-05-13T12:58:26Z</time>
      </trkpt>
      <trkpt lat="43.87056" lon="6.99891">
        <ele>456.76354980469</ele>
        <time>2012-05-13T12:58:27Z</time>
      </trkpt>
      <trkpt lat="43.87052" lon="6.99898">
        <ele>455.80224609375</ele>
        <time>2012-05-13T12:58:29Z</time>
      </trkpt>
      <trkpt lat="43.87051" lon="6.99903">
        <ele>454.8408203125</ele>
        <time>2012-05-13T12:58:31Z</time>
      </trkpt>
      <trkpt lat="43.87061" lon="6.99904">
        <ele>451.47631835938</ele>
        <time>2012-05-13T12:58:36Z</time>
      </trkpt>
      <trkpt lat="43.8707" lon="6.999">
        <ele>449.5537109375</ele>
        <time>2012-05-13T12:58:40Z</time>
      </trkpt>
      <trkpt lat="43.87073" lon="6.99898">
        <ele>447.63098144531</ele>
        <time>2012-05-13T12:58:42Z</time>
      </trkpt>
      <trkpt lat="43.87074" lon="6.99897">
        <ele>446.66967773438</ele>
        <time>2012-05-13T12:58:43Z</time>
      </trkpt>
      <trkpt lat="43.87078" lon="6.99904">
        <ele>444.26647949219</ele>
        <time>2012-05-13T12:58:48Z</time>
      </trkpt>
      <trkpt lat="43.87074" lon="6.99916">
        <ele>442.34387207031</ele>
        <time>2012-05-13T12:58:51Z</time>
      </trkpt>
      <trkpt lat="43.8707" lon="6.99923">
        <ele>441.38244628906</ele>
        <time>2012-05-13T12:58:56Z</time>
      </trkpt>
      <trkpt lat="43.87077" lon="6.99943">
        <ele>438.01782226562</ele>
        <time>2012-05-13T12:59:02Z</time>
      </trkpt>
      <trkpt lat="43.87074" lon="6.99946">
        <ele>438.01782226562</ele>
        <time>2012-05-13T12:59:03Z</time>
      </trkpt>
      <trkpt lat="43.8708" lon="6.9996">
        <ele>435.61450195312</ele>
        <time>2012-05-13T12:59:06Z</time>
      </trkpt>
      <trkpt lat="43.87089" lon="6.99992">
        <ele>432.25</ele>
        <time>2012-05-13T12:59:11Z</time>
      </trkpt>
      <trkpt lat="43.87088" lon="6.99998">
        <ele>429.84655761719</ele>
        <time>2012-05-13T12:59:12Z</time>
      </trkpt>
      <trkpt lat="43.871" lon="7.00015">
        <ele>428.88537597656</ele>
        <time>2012-05-13T12:59:15Z</time>
      </trkpt>
      <trkpt lat="43.87086" lon="7.00017">
        <ele>426.48205566406</ele>
        <time>2012-05-13T12:59:16Z</time>
      </trkpt>
      <trkpt lat="43.87084" lon="7.00038">
        <ele>423.59802246094</ele>
        <time>2012-05-13T12:59:19Z</time>
      </trkpt>
      <trkpt lat="43.87081" lon="7.00071">
        <ele>421.19482421875</ele>
        <time>2012-05-13T12:59:22Z</time>
      </trkpt>
      <trkpt lat="43.87081" lon="7.00081">
        <ele>419.27221679688</ele>
        <time>2012-05-13T12:59:23Z</time>
      </trkpt>
      <trkpt lat="43.87083" lon="7.00105">
        <ele>417.83020019531</ele>
        <time>2012-05-13T12:59:26Z</time>
      </trkpt>
      <trkpt lat="43.87084" lon="7.00124">
        <ele>415.42687988281</ele>
        <time>2012-05-13T12:59:29Z</time>
      </trkpt>
      <trkpt lat="43.87084" lon="7.0013">
        <ele>413.98486328125</ele>
        <time>2012-05-13T12:59:31Z</time>
      </trkpt>
      <trkpt lat="43.87083" lon="7.00145">
        <ele>412.54284667969</ele>
        <time>2012-05-13T12:59:33Z</time>
      </trkpt>
      <trkpt lat="43.87082" lon="7.00147">
        <ele>412.06225585938</ele>
        <time>2012-05-13T12:59:34Z</time>
      </trkpt>
      <trkpt lat="43.87091" lon="7.00153">
        <ele>410.62023925781</ele>
        <time>2012-05-13T12:59:44Z</time>
      </trkpt>
      <trkpt lat="43.87091" lon="7.00153">
        <ele>407.736328125</ele>
        <time>2012-05-13T13:00:28Z</time>
      </trkpt>
      <trkpt lat="43.87091" lon="7.00153">
        <ele>407.736328125</ele>
        <time>2012-05-13T13:00:29Z</time>
      </trkpt>
      <trkpt lat="43.87098" lon="7.00155">
        <ele>404.37170410156</ele>
        <time>2012-05-13T13:00:33Z</time>
      </trkpt>
      <trkpt lat="43.87085" lon="7.0014">
        <ele>402.9296875</ele>
        <time>2012-05-13T13:00:36Z</time>
      </trkpt>
      <trkpt lat="43.87085" lon="7.0014">
        <ele>401.96850585938</ele>
        <time>2012-05-13T13:00:37Z</time>
      </trkpt>
      <trkpt lat="43.87125" lon="7.00152">
        <ele>398.12316894531</ele>
        <time>2012-05-13T13:00:40Z</time>
      </trkpt>
      <trkpt lat="43.87131" lon="7.00152">
        <ele>398.12316894531</ele>
        <time>2012-05-13T13:00:41Z</time>
      </trkpt>
      <trkpt lat="43.87137" lon="7.00153">
        <ele>397.16174316406</ele>
        <time>2012-05-13T13:00:42Z</time>
      </trkpt>
      <trkpt lat="43.87143" lon="7.00158">
        <ele>396.20056152344</ele>
        <time>2012-05-13T13:00:45Z</time>
      </trkpt>
      <trkpt lat="43.87146" lon="7.00163">
        <ele>394.27795410156</ele>
        <time>2012-05-13T13:00:46Z</time>
      </trkpt>
      <trkpt lat="43.87154" lon="7.00174">
        <ele>392.8359375</ele>
        <time>2012-05-13T13:00:48Z</time>
      </trkpt>
      <trkpt lat="43.87161" lon="7.0018">
        <ele>390.91320800781</ele>
        <time>2012-05-13T13:00:50Z</time>
      </trkpt>
      <trkpt lat="43.87167" lon="7.00185">
        <ele>389.47119140625</ele>
        <time>2012-05-13T13:00:52Z</time>
      </trkpt>
      <trkpt lat="43.87174" lon="7.00196">
        <ele>385.14538574219</ele>
        <time>2012-05-13T13:00:56Z</time>
      </trkpt>
      <trkpt lat="43.87176" lon="7.00199">
        <ele>385.14538574219</ele>
        <time>2012-05-13T13:00:57Z</time>
      </trkpt>
      <trkpt lat="43.8718" lon="7.00207">
        <ele>383.22265625</ele>
        <time>2012-05-13T13:01:01Z</time>
      </trkpt>
      <trkpt lat="43.87181" lon="7.00209">
        <ele>381.78063964844</ele>
        <time>2012-05-13T13:01:02Z</time>
      </trkpt>
      <trkpt lat="43.87184" lon="7.00215">
        <ele>380.33874511719</ele>
        <time>2012-05-13T13:01:04Z</time>
      </trkpt>
      <trkpt lat="43.87189" lon="7.00224">
        <ele>378.89685058594</ele>
        <time>2012-05-13T13:01:06Z</time>
      </trkpt>
      <trkpt lat="43.87195" lon="7.00239">
        <ele>376.97424316406</ele>
        <time>2012-05-13T13:01:09Z</time>
      </trkpt>
      <trkpt lat="43.87212" lon="7.0028">
        <ele>374.09008789062</ele>
        <time>2012-05-13T13:01:17Z</time>
      </trkpt>
      <trkpt lat="43.87214" lon="7.00286">
        <ele>374.09008789062</ele>
        <time>2012-05-13T13:01:18Z</time>
      </trkpt>
      <trkpt lat="43.87221" lon="7.00307">
        <ele>372.16748046875</ele>
        <time>2012-05-13T13:01:22Z</time>
      </trkpt>
      <trkpt lat="43.87227" lon="7.00328">
        <ele>368.322265625</ele>
        <time>2012-05-13T13:01:25Z</time>
      </trkpt>
      <trkpt lat="43.87235" lon="7.00358">
        <ele>363.99633789062</ele>
        <time>2012-05-13T13:01:30Z</time>
      </trkpt>
      <trkpt lat="43.87236" lon="7.00361">
        <ele>363.99633789062</ele>
        <time>2012-05-13T13:01:31Z</time>
      </trkpt>
      <trkpt lat="43.8724" lon="7.00382">
        <ele>361.11242675781</ele>
        <time>2012-05-13T13:01:34Z</time>
      </trkpt>
      <trkpt lat="43.87241" lon="7.00388">
        <ele>360.15112304688</ele>
        <time>2012-05-13T13:01:35Z</time>
      </trkpt>
      <trkpt lat="43.87244" lon="7.00403">
        <ele>357.74780273438</ele>
        <time>2012-05-13T13:01:38Z</time>
      </trkpt>
      <trkpt lat="43.87244" lon="7.00402">
        <ele>355.8251953125</ele>
        <time>2012-05-13T13:01:39Z</time>
      </trkpt>
      <trkpt lat="43.87249" lon="7.00408">
        <ele>354.86376953125</ele>
        <time>2012-05-13T13:01:41Z</time>
      </trkpt>
      <trkpt lat="43.87249" lon="7.00408">
        <ele>351.97985839844</ele>
        <time>2012-05-13T13:01:48Z</time>
      </trkpt>
      <trkpt lat="43.87256" lon="7.00412">
        <ele>349.57653808594</ele>
        <time>2012-05-13T13:01:54Z</time>
      </trkpt>
      <trkpt lat="43.87256" lon="7.00416">
        <ele>347.65393066406</ele>
        <time>2012-05-13T13:02:00Z</time>
      </trkpt>
      <trkpt lat="43.87256" lon="7.00416">
        <ele>346.69262695312</ele>
        <time>2012-05-13T13:02:03Z</time>
      </trkpt>
      <trkpt lat="43.87256" lon="7.00416">
        <ele>346.21203613281</ele>
        <time>2012-05-13T13:02:19Z</time>
      </trkpt>
      <trkpt lat="43.87256" lon="7.00416">
        <ele>346.21203613281</ele>
        <time>2012-05-13T13:02:21Z</time>
      </trkpt>
      <trkpt lat="43.87256" lon="7.00416">
        <ele>345.73132324219</ele>
        <time>2012-05-13T13:02:23Z</time>
      </trkpt>
      <trkpt lat="43.87256" lon="7.00419">
        <ele>344.28942871094</ele>
        <time>2012-05-13T13:02:25Z</time>
      </trkpt>
      <trkpt lat="43.87257" lon="7.00424">
        <ele>343.32788085938</ele>
        <time>2012-05-13T13:02:27Z</time>
      </trkpt>
      <trkpt lat="43.87258" lon="7.00431">
        <ele>341.4052734375</ele>
        <time>2012-05-13T13:02:29Z</time>
      </trkpt>
      <trkpt lat="43.87259" lon="7.0044">
        <ele>339.00207519531</ele>
        <time>2012-05-13T13:02:32Z</time>
      </trkpt>
      <trkpt lat="43.87259" lon="7.00442">
        <ele>337.56005859375</ele>
        <time>2012-05-13T13:02:33Z</time>
      </trkpt>
      <trkpt lat="43.87254" lon="7.00464">
        <ele>336.59887695312</ele>
        <time>2012-05-13T13:02:41Z</time>
      </trkpt>
      <trkpt lat="43.87253" lon="7.00517">
        <ele>335.15673828125</ele>
        <time>2012-05-13T13:02:46Z</time>
      </trkpt>
      <trkpt lat="43.87255" lon="7.00534">
        <ele>334.19543457031</ele>
        <time>2012-05-13T13:02:48Z</time>
      </trkpt>
      <trkpt lat="43.87255" lon="7.00581">
        <ele>330.35021972656</ele>
        <time>2012-05-13T13:02:53Z</time>
      </trkpt>
      <trkpt lat="43.87256" lon="7.00587">
        <ele>329.38891601562</ele>
        <time>2012-05-13T13:02:54Z</time>
      </trkpt>
      <trkpt lat="43.87283" lon="7.00604">
        <ele>331.3115234375</ele>
        <time>2012-05-13T13:03:01Z</time>
      </trkpt>
      <trkpt lat="43.87319" lon="7.00616">
        <ele>331.79211425781</ele>
        <time>2012-05-13T13:03:15Z</time>
      </trkpt>
      <trkpt lat="43.87342" lon="7.00645">
        <ele>330.35021972656</ele>
        <time>2012-05-13T13:03:25Z</time>
      </trkpt>
      <trkpt lat="43.8739" lon="7.00684">
        <ele>331.79211425781</ele>
        <time>2012-05-13T13:03:40Z</time>
      </trkpt>
      <trkpt lat="43.87422" lon="7.0075">
        <ele>332.27282714844</ele>
        <time>2012-05-13T13:03:55Z</time>
      </trkpt>
      <trkpt lat="43.87448" lon="7.00807">
        <ele>334.67614746094</ele>
        <time>2012-05-13T13:04:09Z</time>
      </trkpt>
      <trkpt lat="43.87473" lon="7.00874">
        <ele>337.56005859375</ele>
        <time>2012-05-13T13:04:26Z</time>
      </trkpt>
      <trkpt lat="43.87474" lon="7.00878">
        <ele>337.56005859375</ele>
        <time>2012-05-13T13:04:27Z</time>
      </trkpt>
      <trkpt lat="43.87478" lon="7.00906">
        <ele>338.04077148438</ele>
        <time>2012-05-13T13:04:35Z</time>
      </trkpt>
      <trkpt lat="43.8749" lon="7.00899">
        <ele>339.00207519531</ele>
        <time>2012-05-13T13:04:42Z</time>
      </trkpt>
      <trkpt lat="43.87473" lon="7.00837">
        <ele>340.92468261719</ele>
        <time>2012-05-13T13:04:57Z</time>
      </trkpt>
      <trkpt lat="43.87446" lon="7.00757">
        <ele>343.32788085938</ele>
        <time>2012-05-13T13:05:14Z</time>
      </trkpt>
      <trkpt lat="43.87419" lon="7.0068">
        <ele>345.25061035156</ele>
        <time>2012-05-13T13:05:30Z</time>
      </trkpt>
      <trkpt lat="43.87416" lon="7.0062">
        <ele>347.65393066406</ele>
        <time>2012-05-13T13:05:42Z</time>
      </trkpt>
      <trkpt lat="43.87418" lon="7.0058">
        <ele>348.615234375</ele>
        <time>2012-05-13T13:05:54Z</time>
      </trkpt>
      <trkpt lat="43.87418" lon="7.0058">
        <ele>348.615234375</ele>
        <time>2012-05-13T13:06:12Z</time>
      </trkpt>
      <trkpt lat="43.87418" lon="7.0058">
        <ele>349.09582519531</ele>
        <time>2012-05-13T13:07:48Z</time>
      </trkpt>
      <trkpt lat="43.87416" lon="7.00602">
        <ele>348.615234375</ele>
        <time>2012-05-13T13:07:55Z</time>
      </trkpt>
      <trkpt lat="43.87416" lon="7.0064">
        <ele>348.13464355469</ele>
        <time>2012-05-13T13:08:02Z</time>
      </trkpt>
      <trkpt lat="43.87418" lon="7.00676">
        <ele>347.65393066406</ele>
        <time>2012-05-13T13:08:07Z</time>
      </trkpt>
      <trkpt lat="43.87428" lon="7.00709">
        <ele>346.21203613281</ele>
        <time>2012-05-13T13:08:12Z</time>
      </trkpt>
      <trkpt lat="43.87459" lon="7.00795">
        <ele>343.80859375</ele>
        <time>2012-05-13T13:08:25Z</time>
      </trkpt>
      <trkpt lat="43.87486" lon="7.0088">
        <ele>340.92468261719</ele>
        <time>2012-05-13T13:08:37Z</time>
      </trkpt>
      <trkpt lat="43.8749" lon="7.00898">
        <ele>340.92468261719</ele>
        <time>2012-05-13T13:08:39Z</time>
      </trkpt>
      <trkpt lat="43.87464" lon="7.00937">
        <ele>339.00207519531</ele>
        <time>2012-05-13T13:08:46Z</time>
      </trkpt>
      <trkpt lat="43.87458" lon="7.00939">
        <ele>339.00207519531</ele>
        <time>2012-05-13T13:08:47Z</time>
      </trkpt>
      <trkpt lat="43.87431" lon="7.00948">
        <ele>338.521484375</ele>
        <time>2012-05-13T13:08:52Z</time>
      </trkpt>
      <trkpt lat="43.87406" lon="7.00941">
        <ele>338.521484375</ele>
        <time>2012-05-13T13:08:58Z</time>
      </trkpt>
      <trkpt lat="43.87379" lon="7.00909">
        <ele>336.59887695312</ele>
        <time>2012-05-13T13:09:07Z</time>
      </trkpt>
      <trkpt lat="43.87371" lon="7.009">
        <ele>334.67614746094</ele>
        <time>2012-05-13T13:09:10Z</time>
      </trkpt>
      <trkpt lat="43.87371" lon="7.009">
        <ele>332.75354003906</ele>
        <time>2012-05-13T13:09:20Z</time>
      </trkpt>
      <trkpt lat="43.87371" lon="7.009">
        <ele>332.27282714844</ele>
        <time>2012-05-13T13:09:44Z</time>
      </trkpt>
      <trkpt lat="43.87371" lon="7.009">
        <ele>332.75354003906</ele>
        <time>2012-05-13T13:10:01Z</time>
      </trkpt>
    </trkseg>
  </trk>
</gpx>